<?xml version="1.0" encoding="UTF-8" standalone="no" ?>
<gpx xmlns="http://www.topografix.com/GPX/1/1" xmlns:xsi="http://www.w3.org/2001/XMLSchema-instance" xsi:schemaLocation="http://www.topografix.com/GPX/1/1 http://www.topografix.com/GPX/1/1/gpx.xsd" version="1.1" creator="VisuGPX - https://www.visugpx.com">
  <metadata>
    <name>Saint-Aubin-sur-Gaillon VTT</name>
  </metadata>
  <trk>
    <name><![CDATA[Saint-Aubin-sur-Gaillon VTT_1]]></name>
    <trkseg>
      <trkpt lat="49.14923" lon="1.36046">
        <ele>25</ele>
        <time>2021-10-08T08:30:07Z</time>
      </trkpt>
      <trkpt lat="49.14922" lon="1.36054">
        <ele>24.8</ele>
        <time>2021-10-08T08:30:08Z</time>
      </trkpt>
      <trkpt lat="49.14917" lon="1.3609">
        <ele>24.8</ele>
        <time>2021-10-08T08:30:13Z</time>
      </trkpt>
      <trkpt lat="49.14913" lon="1.36149">
        <ele>24.8</ele>
        <time>2021-10-08T08:30:21Z</time>
      </trkpt>
      <trkpt lat="49.14908" lon="1.36235">
        <ele>25</ele>
        <time>2021-10-08T08:30:32Z</time>
      </trkpt>
      <trkpt lat="49.14903" lon="1.3629">
        <ele>25.2</ele>
        <time>2021-10-08T08:30:39Z</time>
      </trkpt>
      <trkpt lat="49.149" lon="1.36313">
        <ele>25.2</ele>
        <time>2021-10-08T08:30:42Z</time>
      </trkpt>
      <trkpt lat="49.14886" lon="1.36389">
        <ele>25.4</ele>
        <time>2021-10-08T08:30:52Z</time>
      </trkpt>
      <trkpt lat="49.14882" lon="1.36404">
        <ele>25.4</ele>
        <time>2021-10-08T08:30:54Z</time>
      </trkpt>
      <trkpt lat="49.14869" lon="1.36456">
        <ele>25.4</ele>
        <time>2021-10-08T08:31:01Z</time>
      </trkpt>
      <trkpt lat="49.14852" lon="1.36502">
        <ele>25.6</ele>
        <time>2021-10-08T08:31:08Z</time>
      </trkpt>
      <trkpt lat="49.14848" lon="1.36508">
        <ele>25.6</ele>
        <time>2021-10-08T08:31:09Z</time>
      </trkpt>
      <trkpt lat="49.14826" lon="1.36536">
        <ele>25.6</ele>
        <time>2021-10-08T08:31:15Z</time>
      </trkpt>
      <trkpt lat="49.14822" lon="1.36555">
        <ele>25.6</ele>
        <time>2021-10-08T08:31:18Z</time>
      </trkpt>
      <trkpt lat="49.14821" lon="1.36563">
        <ele>25.6</ele>
        <time>2021-10-08T08:31:19Z</time>
      </trkpt>
      <trkpt lat="49.14821" lon="1.36593">
        <ele>26</ele>
        <time>2021-10-08T08:31:23Z</time>
      </trkpt>
      <trkpt lat="49.1482" lon="1.366">
        <ele>26</ele>
        <time>2021-10-08T08:31:24Z</time>
      </trkpt>
      <trkpt lat="49.14819" lon="1.36608">
        <ele>26.2</ele>
        <time>2021-10-08T08:31:25Z</time>
      </trkpt>
      <trkpt lat="49.14817" lon="1.36637">
        <ele>26.8</ele>
        <time>2021-10-08T08:31:29Z</time>
      </trkpt>
      <trkpt lat="49.14817" lon="1.36645">
        <ele>27</ele>
        <time>2021-10-08T08:31:30Z</time>
      </trkpt>
      <trkpt lat="49.14817" lon="1.36652">
        <ele>27</ele>
        <time>2021-10-08T08:31:31Z</time>
      </trkpt>
      <trkpt lat="49.14816" lon="1.3666">
        <ele>27.2</ele>
        <time>2021-10-08T08:31:32Z</time>
      </trkpt>
      <trkpt lat="49.14816" lon="1.36728">
        <ele>27.8</ele>
        <time>2021-10-08T08:31:41Z</time>
      </trkpt>
      <trkpt lat="49.14816" lon="1.36743">
        <ele>27.8</ele>
        <time>2021-10-08T08:31:43Z</time>
      </trkpt>
      <trkpt lat="49.14817" lon="1.36771">
        <ele>27.8</ele>
        <time>2021-10-08T08:31:47Z</time>
      </trkpt>
      <trkpt lat="49.1482" lon="1.36785">
        <ele>28</ele>
        <time>2021-10-08T08:31:49Z</time>
      </trkpt>
      <trkpt lat="49.14827" lon="1.36823">
        <ele>28.4</ele>
        <time>2021-10-08T08:31:54Z</time>
      </trkpt>
      <trkpt lat="49.14828" lon="1.36839">
        <ele>28.6</ele>
        <time>2021-10-08T08:31:56Z</time>
      </trkpt>
      <trkpt lat="49.14828" lon="1.36847">
        <ele>28.6</ele>
        <time>2021-10-08T08:31:57Z</time>
      </trkpt>
      <trkpt lat="49.14829" lon="1.36927">
        <ele>28.8</ele>
        <time>2021-10-08T08:32:07Z</time>
      </trkpt>
      <trkpt lat="49.1483" lon="1.37005">
        <ele>29.4</ele>
        <time>2021-10-08T08:32:17Z</time>
      </trkpt>
      <trkpt lat="49.1483" lon="1.37033">
        <ele>29.6</ele>
        <time>2021-10-08T08:32:21Z</time>
      </trkpt>
      <trkpt lat="49.14834" lon="1.37053">
        <ele>29.8</ele>
        <time>2021-10-08T08:32:24Z</time>
      </trkpt>
      <trkpt lat="49.14846" lon="1.37069">
        <ele>30.4</ele>
        <time>2021-10-08T08:32:27Z</time>
      </trkpt>
      <trkpt lat="49.14854" lon="1.3708">
        <ele>30.4</ele>
        <time>2021-10-08T08:32:29Z</time>
      </trkpt>
      <trkpt lat="49.14886" lon="1.37127">
        <ele>30.2</ele>
        <time>2021-10-08T08:32:37Z</time>
      </trkpt>
      <trkpt lat="49.14911" lon="1.37184">
        <ele>29.8</ele>
        <time>2021-10-08T08:32:45Z</time>
      </trkpt>
      <trkpt lat="49.14938" lon="1.37259">
        <ele>29.8</ele>
        <time>2021-10-08T08:32:55Z</time>
      </trkpt>
      <trkpt lat="49.14941" lon="1.37266">
        <ele>29.8</ele>
        <time>2021-10-08T08:32:56Z</time>
      </trkpt>
      <trkpt lat="49.14968" lon="1.37328">
        <ele>29.8</ele>
        <time>2021-10-08T08:33:04Z</time>
      </trkpt>
      <trkpt lat="49.14999" lon="1.37404">
        <ele>29</ele>
        <time>2021-10-08T08:33:13Z</time>
      </trkpt>
      <trkpt lat="49.15009" lon="1.37429">
        <ele>28.8</ele>
        <time>2021-10-08T08:33:16Z</time>
      </trkpt>
      <trkpt lat="49.15033" lon="1.37486">
        <ele>28.6</ele>
        <time>2021-10-08T08:33:23Z</time>
      </trkpt>
      <trkpt lat="49.15059" lon="1.37559">
        <ele>28.6</ele>
        <time>2021-10-08T08:33:32Z</time>
      </trkpt>
      <trkpt lat="49.15062" lon="1.37567">
        <ele>28.6</ele>
        <time>2021-10-08T08:33:33Z</time>
      </trkpt>
      <trkpt lat="49.15083" lon="1.37619">
        <ele>28.8</ele>
        <time>2021-10-08T08:33:40Z</time>
      </trkpt>
      <trkpt lat="49.15087" lon="1.37625">
        <ele>28.6</ele>
        <time>2021-10-08T08:33:41Z</time>
      </trkpt>
      <trkpt lat="49.15107" lon="1.3765">
        <ele>28.6</ele>
        <time>2021-10-08T08:33:47Z</time>
      </trkpt>
      <trkpt lat="49.15109" lon="1.37654">
        <ele>29</ele>
        <time>2021-10-08T08:33:50Z</time>
      </trkpt>
      <trkpt lat="49.1511" lon="1.3766">
        <ele>29</ele>
        <time>2021-10-08T08:33:52Z</time>
      </trkpt>
      <trkpt lat="49.15113" lon="1.37676">
        <ele>29.2</ele>
        <time>2021-10-08T08:33:55Z</time>
      </trkpt>
      <trkpt lat="49.15116" lon="1.3768">
        <ele>29.2</ele>
        <time>2021-10-08T08:33:56Z</time>
      </trkpt>
      <trkpt lat="49.15146" lon="1.37704">
        <ele>29.4</ele>
        <time>2021-10-08T08:34:02Z</time>
      </trkpt>
      <trkpt lat="49.15157" lon="1.37712">
        <ele>29.4</ele>
        <time>2021-10-08T08:34:04Z</time>
      </trkpt>
      <trkpt lat="49.1519" lon="1.37735">
        <ele>28.2</ele>
        <time>2021-10-08T08:34:10Z</time>
      </trkpt>
      <trkpt lat="49.15195" lon="1.37739">
        <ele>28</ele>
        <time>2021-10-08T08:34:11Z</time>
      </trkpt>
      <trkpt lat="49.15222" lon="1.3776">
        <ele>27</ele>
        <time>2021-10-08T08:34:16Z</time>
      </trkpt>
      <trkpt lat="49.15227" lon="1.37764">
        <ele>26.6</ele>
        <time>2021-10-08T08:34:17Z</time>
      </trkpt>
      <trkpt lat="49.15232" lon="1.37768">
        <ele>26.6</ele>
        <time>2021-10-08T08:34:18Z</time>
      </trkpt>
      <trkpt lat="49.15267" lon="1.37793">
        <ele>25.6</ele>
        <time>2021-10-08T08:34:25Z</time>
      </trkpt>
      <trkpt lat="49.15272" lon="1.37797">
        <ele>25.6</ele>
        <time>2021-10-08T08:34:26Z</time>
      </trkpt>
      <trkpt lat="49.15312" lon="1.37825">
        <ele>24.4</ele>
        <time>2021-10-08T08:34:34Z</time>
      </trkpt>
      <trkpt lat="49.15317" lon="1.37828">
        <ele>24.4</ele>
        <time>2021-10-08T08:34:35Z</time>
      </trkpt>
      <trkpt lat="49.15329" lon="1.37835">
        <ele>24</ele>
        <time>2021-10-08T08:34:38Z</time>
      </trkpt>
      <trkpt lat="49.15356" lon="1.37853">
        <ele>23.6</ele>
        <time>2021-10-08T08:34:44Z</time>
      </trkpt>
      <trkpt lat="49.1538" lon="1.37871">
        <ele>23.2</ele>
        <time>2021-10-08T08:34:49Z</time>
      </trkpt>
      <trkpt lat="49.15413" lon="1.3789">
        <ele>23.2</ele>
        <time>2021-10-08T08:34:55Z</time>
      </trkpt>
      <trkpt lat="49.15425" lon="1.37894">
        <ele>23.2</ele>
        <time>2021-10-08T08:34:57Z</time>
      </trkpt>
      <trkpt lat="49.1543" lon="1.37897">
        <ele>23</ele>
        <time>2021-10-08T08:34:58Z</time>
      </trkpt>
      <trkpt lat="49.15435" lon="1.37899">
        <ele>23</ele>
        <time>2021-10-08T08:34:59Z</time>
      </trkpt>
      <trkpt lat="49.15451" lon="1.37908">
        <ele>22.6</ele>
        <time>2021-10-08T08:35:02Z</time>
      </trkpt>
      <trkpt lat="49.15461" lon="1.37915">
        <ele>22</ele>
        <time>2021-10-08T08:35:04Z</time>
      </trkpt>
      <trkpt lat="49.15485" lon="1.37935">
        <ele>21.6</ele>
        <time>2021-10-08T08:35:09Z</time>
      </trkpt>
      <trkpt lat="49.15511" lon="1.3796">
        <ele>21.4</ele>
        <time>2021-10-08T08:35:15Z</time>
      </trkpt>
      <trkpt lat="49.15539" lon="1.37984">
        <ele>21.4</ele>
        <time>2021-10-08T08:35:22Z</time>
      </trkpt>
      <trkpt lat="49.15552" lon="1.37999">
        <ele>21.6</ele>
        <time>2021-10-08T08:35:27Z</time>
      </trkpt>
      <trkpt lat="49.15568" lon="1.38022">
        <ele>21.6</ele>
        <time>2021-10-08T08:35:33Z</time>
      </trkpt>
      <trkpt lat="49.15595" lon="1.38039">
        <ele>22</ele>
        <time>2021-10-08T08:35:39Z</time>
      </trkpt>
      <trkpt lat="49.15639" lon="1.38069">
        <ele>22</ele>
        <time>2021-10-08T08:35:48Z</time>
      </trkpt>
      <trkpt lat="49.15675" lon="1.38094">
        <ele>21.6</ele>
        <time>2021-10-08T08:35:55Z</time>
      </trkpt>
      <trkpt lat="49.15722" lon="1.38127">
        <ele>21.4</ele>
        <time>2021-10-08T08:36:04Z</time>
      </trkpt>
      <trkpt lat="49.15774" lon="1.38163">
        <ele>21.2</ele>
        <time>2021-10-08T08:36:14Z</time>
      </trkpt>
      <trkpt lat="49.15779" lon="1.38167">
        <ele>21.2</ele>
        <time>2021-10-08T08:36:15Z</time>
      </trkpt>
      <trkpt lat="49.15811" lon="1.38189">
        <ele>21.2</ele>
        <time>2021-10-08T08:36:21Z</time>
      </trkpt>
      <trkpt lat="49.15838" lon="1.38209">
        <ele>21.4</ele>
        <time>2021-10-08T08:36:26Z</time>
      </trkpt>
      <trkpt lat="49.1588" lon="1.38238">
        <ele>21.2</ele>
        <time>2021-10-08T08:36:34Z</time>
      </trkpt>
      <trkpt lat="49.15934" lon="1.38275">
        <ele>21</ele>
        <time>2021-10-08T08:36:44Z</time>
      </trkpt>
      <trkpt lat="49.15988" lon="1.38311">
        <ele>21.2</ele>
        <time>2021-10-08T08:36:54Z</time>
      </trkpt>
      <trkpt lat="49.15998" lon="1.38319">
        <ele>21.2</ele>
        <time>2021-10-08T08:36:56Z</time>
      </trkpt>
      <trkpt lat="49.16041" lon="1.38347">
        <ele>21.4</ele>
        <time>2021-10-08T08:37:04Z</time>
      </trkpt>
      <trkpt lat="49.16068" lon="1.38365">
        <ele>21.8</ele>
        <time>2021-10-08T08:37:09Z</time>
      </trkpt>
      <trkpt lat="49.1609" lon="1.3838">
        <ele>22</ele>
        <time>2021-10-08T08:37:13Z</time>
      </trkpt>
      <trkpt lat="49.16142" lon="1.38416">
        <ele>21.8</ele>
        <time>2021-10-08T08:37:22Z</time>
      </trkpt>
      <trkpt lat="49.1619" lon="1.38452">
        <ele>21</ele>
        <time>2021-10-08T08:37:29Z</time>
      </trkpt>
      <trkpt lat="49.16204" lon="1.38463">
        <ele>20.4</ele>
        <time>2021-10-08T08:37:31Z</time>
      </trkpt>
      <trkpt lat="49.16222" lon="1.38476">
        <ele>18.6</ele>
        <time>2021-10-08T08:37:34Z</time>
      </trkpt>
      <trkpt lat="49.16262" lon="1.38503">
        <ele>18</ele>
        <time>2021-10-08T08:37:41Z</time>
      </trkpt>
      <trkpt lat="49.16285" lon="1.38521">
        <ele>18.6</ele>
        <time>2021-10-08T08:37:46Z</time>
      </trkpt>
      <trkpt lat="49.16308" lon="1.38543">
        <ele>19.4</ele>
        <time>2021-10-08T08:37:51Z</time>
      </trkpt>
      <trkpt lat="49.16317" lon="1.38553">
        <ele>20</ele>
        <time>2021-10-08T08:37:53Z</time>
      </trkpt>
      <trkpt lat="49.16326" lon="1.38563">
        <ele>20.6</ele>
        <time>2021-10-08T08:37:55Z</time>
      </trkpt>
      <trkpt lat="49.1636" lon="1.38596">
        <ele>21.6</ele>
        <time>2021-10-08T08:38:02Z</time>
      </trkpt>
      <trkpt lat="49.16365" lon="1.38601">
        <ele>21.8</ele>
        <time>2021-10-08T08:38:03Z</time>
      </trkpt>
      <trkpt lat="49.16414" lon="1.38647">
        <ele>22</ele>
        <time>2021-10-08T08:38:13Z</time>
      </trkpt>
      <trkpt lat="49.16424" lon="1.38655">
        <ele>22</ele>
        <time>2021-10-08T08:38:15Z</time>
      </trkpt>
      <trkpt lat="49.16474" lon="1.38693">
        <ele>22</ele>
        <time>2021-10-08T08:38:25Z</time>
      </trkpt>
      <trkpt lat="49.16496" lon="1.3871">
        <ele>22.2</ele>
        <time>2021-10-08T08:38:30Z</time>
      </trkpt>
      <trkpt lat="49.16509" lon="1.38716">
        <ele>22.4</ele>
        <time>2021-10-08T08:38:34Z</time>
      </trkpt>
      <trkpt lat="49.16521" lon="1.38725">
        <ele>22.6</ele>
        <time>2021-10-08T08:38:38Z</time>
      </trkpt>
      <trkpt lat="49.16546" lon="1.38754">
        <ele>22.6</ele>
        <time>2021-10-08T08:38:44Z</time>
      </trkpt>
      <trkpt lat="49.16573" lon="1.38787">
        <ele>22.6</ele>
        <time>2021-10-08T08:38:50Z</time>
      </trkpt>
      <trkpt lat="49.16603" lon="1.38818">
        <ele>21</ele>
        <time>2021-10-08T08:38:56Z</time>
      </trkpt>
      <trkpt lat="49.16607" lon="1.38819">
        <ele>20.8</ele>
        <time>2021-10-08T08:38:57Z</time>
      </trkpt>
      <trkpt lat="49.16615" lon="1.38812">
        <ele>20</ele>
        <time>2021-10-08T08:38:59Z</time>
      </trkpt>
      <trkpt lat="49.16618" lon="1.38805">
        <ele>20</ele>
        <time>2021-10-08T08:39:00Z</time>
      </trkpt>
      <trkpt lat="49.16621" lon="1.38798">
        <ele>19.8</ele>
        <time>2021-10-08T08:39:01Z</time>
      </trkpt>
      <trkpt lat="49.16634" lon="1.38769">
        <ele>19</ele>
        <time>2021-10-08T08:39:05Z</time>
      </trkpt>
      <trkpt lat="49.1664" lon="1.38753">
        <ele>18.6</ele>
        <time>2021-10-08T08:39:07Z</time>
      </trkpt>
      <trkpt lat="49.1666" lon="1.38707">
        <ele>17.8</ele>
        <time>2021-10-08T08:39:13Z</time>
      </trkpt>
      <trkpt lat="49.16691" lon="1.38638">
        <ele>17.6</ele>
        <time>2021-10-08T08:39:22Z</time>
      </trkpt>
      <trkpt lat="49.16721" lon="1.38569">
        <ele>17.4</ele>
        <time>2021-10-08T08:39:31Z</time>
      </trkpt>
      <trkpt lat="49.16728" lon="1.38554">
        <ele>17.4</ele>
        <time>2021-10-08T08:39:33Z</time>
      </trkpt>
      <trkpt lat="49.16736" lon="1.38539">
        <ele>17.4</ele>
        <time>2021-10-08T08:39:35Z</time>
      </trkpt>
      <trkpt lat="49.16762" lon="1.38483">
        <ele>17</ele>
        <time>2021-10-08T08:39:42Z</time>
      </trkpt>
      <trkpt lat="49.16793" lon="1.38412">
        <ele>16.2</ele>
        <time>2021-10-08T08:39:51Z</time>
      </trkpt>
      <trkpt lat="49.16806" lon="1.3838">
        <ele>16.2</ele>
        <time>2021-10-08T08:39:55Z</time>
      </trkpt>
      <trkpt lat="49.16827" lon="1.38334">
        <ele>16</ele>
        <time>2021-10-08T08:40:01Z</time>
      </trkpt>
      <trkpt lat="49.16829" lon="1.38326">
        <ele>16</ele>
        <time>2021-10-08T08:40:02Z</time>
      </trkpt>
      <trkpt lat="49.16832" lon="1.38319">
        <ele>15.8</ele>
        <time>2021-10-08T08:40:03Z</time>
      </trkpt>
      <trkpt lat="49.16847" lon="1.38281">
        <ele>15.8</ele>
        <time>2021-10-08T08:40:08Z</time>
      </trkpt>
      <trkpt lat="49.16849" lon="1.38273">
        <ele>15.8</ele>
        <time>2021-10-08T08:40:09Z</time>
      </trkpt>
      <trkpt lat="49.16861" lon="1.38243">
        <ele>15.6</ele>
        <time>2021-10-08T08:40:14Z</time>
      </trkpt>
      <trkpt lat="49.16868" lon="1.38226">
        <ele>15.8</ele>
        <time>2021-10-08T08:40:17Z</time>
      </trkpt>
      <trkpt lat="49.16877" lon="1.38209">
        <ele>16.2</ele>
        <time>2021-10-08T08:40:20Z</time>
      </trkpt>
      <trkpt lat="49.16898" lon="1.38156">
        <ele>16.6</ele>
        <time>2021-10-08T08:40:29Z</time>
      </trkpt>
      <trkpt lat="49.16908" lon="1.3813">
        <ele>16.6</ele>
        <time>2021-10-08T08:40:34Z</time>
      </trkpt>
      <trkpt lat="49.16914" lon="1.3812">
        <ele>16.8</ele>
        <time>2021-10-08T08:40:36Z</time>
      </trkpt>
      <trkpt lat="49.16916" lon="1.38114">
        <ele>16.8</ele>
        <time>2021-10-08T08:40:37Z</time>
      </trkpt>
      <trkpt lat="49.16937" lon="1.38068">
        <ele>16.8</ele>
        <time>2021-10-08T08:40:45Z</time>
      </trkpt>
      <trkpt lat="49.16966" lon="1.37992">
        <ele>16.8</ele>
        <time>2021-10-08T08:40:57Z</time>
      </trkpt>
      <trkpt lat="49.16971" lon="1.3798">
        <ele>16.8</ele>
        <time>2021-10-08T08:40:59Z</time>
      </trkpt>
      <trkpt lat="49.16978" lon="1.3797">
        <ele>16.8</ele>
        <time>2021-10-08T08:41:01Z</time>
      </trkpt>
      <trkpt lat="49.16981" lon="1.37965">
        <ele>16.6</ele>
        <time>2021-10-08T08:41:02Z</time>
      </trkpt>
      <trkpt lat="49.16998" lon="1.37943">
        <ele>17</ele>
        <time>2021-10-08T08:41:07Z</time>
      </trkpt>
      <trkpt lat="49.17004" lon="1.37932">
        <ele>17.2</ele>
        <time>2021-10-08T08:41:09Z</time>
      </trkpt>
      <trkpt lat="49.1701" lon="1.37913">
        <ele>17.2</ele>
        <time>2021-10-08T08:41:12Z</time>
      </trkpt>
      <trkpt lat="49.17033" lon="1.37855">
        <ele>17.2</ele>
        <time>2021-10-08T08:41:21Z</time>
      </trkpt>
      <trkpt lat="49.17059" lon="1.37805">
        <ele>17.2</ele>
        <time>2021-10-08T08:41:29Z</time>
      </trkpt>
      <trkpt lat="49.17081" lon="1.37757">
        <ele>17.4</ele>
        <time>2021-10-08T08:41:36Z</time>
      </trkpt>
      <trkpt lat="49.1711" lon="1.377">
        <ele>17.2</ele>
        <time>2021-10-08T08:41:45Z</time>
      </trkpt>
      <trkpt lat="49.17139" lon="1.37637">
        <ele>17.4</ele>
        <time>2021-10-08T08:41:54Z</time>
      </trkpt>
      <trkpt lat="49.1715" lon="1.37616">
        <ele>17.4</ele>
        <time>2021-10-08T08:41:57Z</time>
      </trkpt>
      <trkpt lat="49.17159" lon="1.37593">
        <ele>17.2</ele>
        <time>2021-10-08T08:42:00Z</time>
      </trkpt>
      <trkpt lat="49.17162" lon="1.37586">
        <ele>17</ele>
        <time>2021-10-08T08:42:01Z</time>
      </trkpt>
      <trkpt lat="49.17177" lon="1.37559">
        <ele>16.6</ele>
        <time>2021-10-08T08:42:05Z</time>
      </trkpt>
      <trkpt lat="49.17185" lon="1.37546">
        <ele>16.6</ele>
        <time>2021-10-08T08:42:07Z</time>
      </trkpt>
      <trkpt lat="49.17199" lon="1.37518">
        <ele>16.2</ele>
        <time>2021-10-08T08:42:11Z</time>
      </trkpt>
      <trkpt lat="49.17219" lon="1.37477">
        <ele>16.2</ele>
        <time>2021-10-08T08:42:17Z</time>
      </trkpt>
      <trkpt lat="49.17251" lon="1.37417">
        <ele>16.2</ele>
        <time>2021-10-08T08:42:26Z</time>
      </trkpt>
      <trkpt lat="49.17268" lon="1.37385">
        <ele>16.4</ele>
        <time>2021-10-08T08:42:31Z</time>
      </trkpt>
      <trkpt lat="49.17289" lon="1.37346">
        <ele>16.2</ele>
        <time>2021-10-08T08:42:37Z</time>
      </trkpt>
      <trkpt lat="49.17309" lon="1.37307">
        <ele>16.2</ele>
        <time>2021-10-08T08:42:43Z</time>
      </trkpt>
      <trkpt lat="49.17329" lon="1.37275">
        <ele>16</ele>
        <time>2021-10-08T08:42:49Z</time>
      </trkpt>
      <trkpt lat="49.17332" lon="1.3727">
        <ele>16</ele>
        <time>2021-10-08T08:42:50Z</time>
      </trkpt>
      <trkpt lat="49.17341" lon="1.37253">
        <ele>15.8</ele>
        <time>2021-10-08T08:42:53Z</time>
      </trkpt>
      <trkpt lat="49.17348" lon="1.37242">
        <ele>15.8</ele>
        <time>2021-10-08T08:42:55Z</time>
      </trkpt>
      <trkpt lat="49.17358" lon="1.37223">
        <ele>15.8</ele>
        <time>2021-10-08T08:42:58Z</time>
      </trkpt>
      <trkpt lat="49.17365" lon="1.37208">
        <ele>15.8</ele>
        <time>2021-10-08T08:43:00Z</time>
      </trkpt>
      <trkpt lat="49.17379" lon="1.37174">
        <ele>16.2</ele>
        <time>2021-10-08T08:43:05Z</time>
      </trkpt>
      <trkpt lat="49.17382" lon="1.37167">
        <ele>16.2</ele>
        <time>2021-10-08T08:43:06Z</time>
      </trkpt>
      <trkpt lat="49.17393" lon="1.37138">
        <ele>16.4</ele>
        <time>2021-10-08T08:43:10Z</time>
      </trkpt>
      <trkpt lat="49.17397" lon="1.37123">
        <ele>16.4</ele>
        <time>2021-10-08T08:43:12Z</time>
      </trkpt>
      <trkpt lat="49.17419" lon="1.37054">
        <ele>16.4</ele>
        <time>2021-10-08T08:43:21Z</time>
      </trkpt>
      <trkpt lat="49.17432" lon="1.37003">
        <ele>16.4</ele>
        <time>2021-10-08T08:43:28Z</time>
      </trkpt>
      <trkpt lat="49.17439" lon="1.36956">
        <ele>16.4</ele>
        <time>2021-10-08T08:43:35Z</time>
      </trkpt>
      <trkpt lat="49.17442" lon="1.36928">
        <ele>16.4</ele>
        <time>2021-10-08T08:43:39Z</time>
      </trkpt>
      <trkpt lat="49.17443" lon="1.3692">
        <ele>16.4</ele>
        <time>2021-10-08T08:43:40Z</time>
      </trkpt>
      <trkpt lat="49.17445" lon="1.36904">
        <ele>16.4</ele>
        <time>2021-10-08T08:43:42Z</time>
      </trkpt>
      <trkpt lat="49.17449" lon="1.36878">
        <ele>16.4</ele>
        <time>2021-10-08T08:43:45Z</time>
      </trkpt>
      <trkpt lat="49.17461" lon="1.36815">
        <ele>16.6</ele>
        <time>2021-10-08T08:43:53Z</time>
      </trkpt>
      <trkpt lat="49.17464" lon="1.368">
        <ele>16.8</ele>
        <time>2021-10-08T08:43:55Z</time>
      </trkpt>
      <trkpt lat="49.17468" lon="1.36778">
        <ele>17</ele>
        <time>2021-10-08T08:43:58Z</time>
      </trkpt>
      <trkpt lat="49.17469" lon="1.36771">
        <ele>17</ele>
        <time>2021-10-08T08:43:59Z</time>
      </trkpt>
      <trkpt lat="49.17471" lon="1.36749">
        <ele>17</ele>
        <time>2021-10-08T08:44:02Z</time>
      </trkpt>
      <trkpt lat="49.17471" lon="1.36742">
        <ele>17</ele>
        <time>2021-10-08T08:44:03Z</time>
      </trkpt>
      <trkpt lat="49.17473" lon="1.36722">
        <ele>17.2</ele>
        <time>2021-10-08T08:44:06Z</time>
      </trkpt>
      <trkpt lat="49.17474" lon="1.36714">
        <ele>17.4</ele>
        <time>2021-10-08T08:44:07Z</time>
      </trkpt>
      <trkpt lat="49.17479" lon="1.36685">
        <ele>17.4</ele>
        <time>2021-10-08T08:44:11Z</time>
      </trkpt>
      <trkpt lat="49.1748" lon="1.36671">
        <ele>17.6</ele>
        <time>2021-10-08T08:44:13Z</time>
      </trkpt>
      <trkpt lat="49.17485" lon="1.36635">
        <ele>17.6</ele>
        <time>2021-10-08T08:44:18Z</time>
      </trkpt>
      <trkpt lat="49.17493" lon="1.36585">
        <ele>17.4</ele>
        <time>2021-10-08T08:44:24Z</time>
      </trkpt>
      <trkpt lat="49.17507" lon="1.36521">
        <ele>17</ele>
        <time>2021-10-08T08:44:31Z</time>
      </trkpt>
      <trkpt lat="49.17514" lon="1.36479">
        <ele>16.6</ele>
        <time>2021-10-08T08:44:36Z</time>
      </trkpt>
      <trkpt lat="49.17515" lon="1.36471">
        <ele>16.4</ele>
        <time>2021-10-08T08:44:37Z</time>
      </trkpt>
      <trkpt lat="49.17516" lon="1.36449">
        <ele>16</ele>
        <time>2021-10-08T08:44:40Z</time>
      </trkpt>
      <trkpt lat="49.17519" lon="1.36433">
        <ele>16</ele>
        <time>2021-10-08T08:44:42Z</time>
      </trkpt>
      <trkpt lat="49.1753" lon="1.36377">
        <ele>16</ele>
        <time>2021-10-08T08:44:49Z</time>
      </trkpt>
      <trkpt lat="49.17532" lon="1.36362">
        <ele>16.2</ele>
        <time>2021-10-08T08:44:51Z</time>
      </trkpt>
      <trkpt lat="49.17535" lon="1.36341">
        <ele>16.2</ele>
        <time>2021-10-08T08:44:54Z</time>
      </trkpt>
      <trkpt lat="49.17538" lon="1.36325">
        <ele>16.2</ele>
        <time>2021-10-08T08:44:56Z</time>
      </trkpt>
      <trkpt lat="49.17544" lon="1.36299">
        <ele>16.2</ele>
        <time>2021-10-08T08:44:59Z</time>
      </trkpt>
      <trkpt lat="49.17557" lon="1.36233">
        <ele>15.6</ele>
        <time>2021-10-08T08:45:07Z</time>
      </trkpt>
      <trkpt lat="49.17565" lon="1.36188">
        <ele>15.4</ele>
        <time>2021-10-08T08:45:13Z</time>
      </trkpt>
      <trkpt lat="49.17577" lon="1.36135">
        <ele>15.6</ele>
        <time>2021-10-08T08:45:20Z</time>
      </trkpt>
      <trkpt lat="49.17581" lon="1.36119">
        <ele>15.6</ele>
        <time>2021-10-08T08:45:22Z</time>
      </trkpt>
      <trkpt lat="49.1759" lon="1.36096">
        <ele>15.6</ele>
        <time>2021-10-08T08:45:25Z</time>
      </trkpt>
      <trkpt lat="49.17591" lon="1.36088">
        <ele>15.6</ele>
        <time>2021-10-08T08:45:26Z</time>
      </trkpt>
      <trkpt lat="49.17596" lon="1.36059">
        <ele>15.6</ele>
        <time>2021-10-08T08:45:30Z</time>
      </trkpt>
      <trkpt lat="49.176" lon="1.36046">
        <ele>15.6</ele>
        <time>2021-10-08T08:45:32Z</time>
      </trkpt>
      <trkpt lat="49.17606" lon="1.36017">
        <ele>15.8</ele>
        <time>2021-10-08T08:45:36Z</time>
      </trkpt>
      <trkpt lat="49.17608" lon="1.36009">
        <ele>16.2</ele>
        <time>2021-10-08T08:45:37Z</time>
      </trkpt>
      <trkpt lat="49.17613" lon="1.35993">
        <ele>16.4</ele>
        <time>2021-10-08T08:45:39Z</time>
      </trkpt>
      <trkpt lat="49.17618" lon="1.35978">
        <ele>16.4</ele>
        <time>2021-10-08T08:45:41Z</time>
      </trkpt>
      <trkpt lat="49.1762" lon="1.3597">
        <ele>16.4</ele>
        <time>2021-10-08T08:45:42Z</time>
      </trkpt>
      <trkpt lat="49.17635" lon="1.3592">
        <ele>15.6</ele>
        <time>2021-10-08T08:45:49Z</time>
      </trkpt>
      <trkpt lat="49.1765" lon="1.35869">
        <ele>15.2</ele>
        <time>2021-10-08T08:45:56Z</time>
      </trkpt>
      <trkpt lat="49.17652" lon="1.35862">
        <ele>15.2</ele>
        <time>2021-10-08T08:45:57Z</time>
      </trkpt>
      <trkpt lat="49.17666" lon="1.35817">
        <ele>15.4</ele>
        <time>2021-10-08T08:46:03Z</time>
      </trkpt>
      <trkpt lat="49.1768" lon="1.35776">
        <ele>15.2</ele>
        <time>2021-10-08T08:46:09Z</time>
      </trkpt>
      <trkpt lat="49.1769" lon="1.35748">
        <ele>15.2</ele>
        <time>2021-10-08T08:46:13Z</time>
      </trkpt>
      <trkpt lat="49.17693" lon="1.35741">
        <ele>15.4</ele>
        <time>2021-10-08T08:46:14Z</time>
      </trkpt>
      <trkpt lat="49.17709" lon="1.35696">
        <ele>15.6</ele>
        <time>2021-10-08T08:46:20Z</time>
      </trkpt>
      <trkpt lat="49.17726" lon="1.35646">
        <ele>15.6</ele>
        <time>2021-10-08T08:46:27Z</time>
      </trkpt>
      <trkpt lat="49.17744" lon="1.35597">
        <ele>15.4</ele>
        <time>2021-10-08T08:46:34Z</time>
      </trkpt>
      <trkpt lat="49.17767" lon="1.35533">
        <ele>15.2</ele>
        <time>2021-10-08T08:46:43Z</time>
      </trkpt>
      <trkpt lat="49.17785" lon="1.35475">
        <ele>15</ele>
        <time>2021-10-08T08:46:51Z</time>
      </trkpt>
      <trkpt lat="49.17805" lon="1.35416">
        <ele>15.2</ele>
        <time>2021-10-08T08:46:59Z</time>
      </trkpt>
      <trkpt lat="49.17823" lon="1.35367">
        <ele>15.2</ele>
        <time>2021-10-08T08:47:06Z</time>
      </trkpt>
      <trkpt lat="49.17822" lon="1.35339">
        <ele>15</ele>
        <time>2021-10-08T08:47:10Z</time>
      </trkpt>
      <trkpt lat="49.17816" lon="1.35324">
        <ele>15</ele>
        <time>2021-10-08T08:47:14Z</time>
      </trkpt>
      <trkpt lat="49.17803" lon="1.35318">
        <ele>14.8</ele>
        <time>2021-10-08T08:47:19Z</time>
      </trkpt>
      <trkpt lat="49.178" lon="1.35316">
        <ele>15.2</ele>
        <time>2021-10-08T08:47:20Z</time>
      </trkpt>
      <trkpt lat="49.17795" lon="1.35311">
        <ele>15.6</ele>
        <time>2021-10-08T08:47:22Z</time>
      </trkpt>
      <trkpt lat="49.17784" lon="1.35305">
        <ele>16.4</ele>
        <time>2021-10-08T08:47:26Z</time>
      </trkpt>
      <trkpt lat="49.1778" lon="1.353">
        <ele>16.8</ele>
        <time>2021-10-08T08:47:28Z</time>
      </trkpt>
      <trkpt lat="49.17777" lon="1.35294">
        <ele>17</ele>
        <time>2021-10-08T08:47:30Z</time>
      </trkpt>
      <trkpt lat="49.17772" lon="1.35277">
        <ele>17.6</ele>
        <time>2021-10-08T08:47:36Z</time>
      </trkpt>
      <trkpt lat="49.17769" lon="1.35268">
        <ele>18.8</ele>
        <time>2021-10-08T08:47:41Z</time>
      </trkpt>
      <trkpt lat="49.17773" lon="1.35267">
        <ele>19.8</ele>
        <time>2021-10-08T08:47:44Z</time>
      </trkpt>
      <trkpt lat="49.17775" lon="1.35269">
        <ele>20.2</ele>
        <time>2021-10-08T08:47:45Z</time>
      </trkpt>
      <trkpt lat="49.17777" lon="1.35271">
        <ele>20.4</ele>
        <time>2021-10-08T08:47:46Z</time>
      </trkpt>
      <trkpt lat="49.17784" lon="1.35279">
        <ele>21.4</ele>
        <time>2021-10-08T08:47:49Z</time>
      </trkpt>
      <trkpt lat="49.17797" lon="1.3529">
        <ele>22</ele>
        <time>2021-10-08T08:47:54Z</time>
      </trkpt>
      <trkpt lat="49.17815" lon="1.35301">
        <ele>22.4</ele>
        <time>2021-10-08T08:48:00Z</time>
      </trkpt>
      <trkpt lat="49.17819" lon="1.35304">
        <ele>22.4</ele>
        <time>2021-10-08T08:48:01Z</time>
      </trkpt>
      <trkpt lat="49.17832" lon="1.35313">
        <ele>22.8</ele>
        <time>2021-10-08T08:48:05Z</time>
      </trkpt>
      <trkpt lat="49.1785" lon="1.35327">
        <ele>23.4</ele>
        <time>2021-10-08T08:48:11Z</time>
      </trkpt>
      <trkpt lat="49.17853" lon="1.35329">
        <ele>23.4</ele>
        <time>2021-10-08T08:48:12Z</time>
      </trkpt>
      <trkpt lat="49.17875" lon="1.35345">
        <ele>24.4</ele>
        <time>2021-10-08T08:48:20Z</time>
      </trkpt>
      <trkpt lat="49.17882" lon="1.35349">
        <ele>24.8</ele>
        <time>2021-10-08T08:48:26Z</time>
      </trkpt>
      <trkpt lat="49.17882" lon="1.35349">
        <ele>25</ele>
        <time>2021-10-08T08:48:27Z</time>
      </trkpt>
      <trkpt lat="49.17884" lon="1.35349">
        <ele>25.4</ele>
        <time>2021-10-08T08:49:17Z</time>
      </trkpt>
      <trkpt lat="49.17889" lon="1.35352">
        <ele>25.4</ele>
        <time>2021-10-08T08:49:19Z</time>
      </trkpt>
      <trkpt lat="49.17909" lon="1.35368">
        <ele>25.4</ele>
        <time>2021-10-08T08:49:24Z</time>
      </trkpt>
      <trkpt lat="49.17941" lon="1.35392">
        <ele>24.8</ele>
        <time>2021-10-08T08:49:30Z</time>
      </trkpt>
      <trkpt lat="49.17953" lon="1.354">
        <ele>24.4</ele>
        <time>2021-10-08T08:49:32Z</time>
      </trkpt>
      <trkpt lat="49.17975" lon="1.35416">
        <ele>23.8</ele>
        <time>2021-10-08T08:49:36Z</time>
      </trkpt>
      <trkpt lat="49.18011" lon="1.35444">
        <ele>23.4</ele>
        <time>2021-10-08T08:49:42Z</time>
      </trkpt>
      <trkpt lat="49.18017" lon="1.3545">
        <ele>23.2</ele>
        <time>2021-10-08T08:49:43Z</time>
      </trkpt>
      <trkpt lat="49.1804" lon="1.3547">
        <ele>22.8</ele>
        <time>2021-10-08T08:49:47Z</time>
      </trkpt>
      <trkpt lat="49.18071" lon="1.35498">
        <ele>22.2</ele>
        <time>2021-10-08T08:49:52Z</time>
      </trkpt>
      <trkpt lat="49.18089" lon="1.35514">
        <ele>21.2</ele>
        <time>2021-10-08T08:49:55Z</time>
      </trkpt>
      <trkpt lat="49.18113" lon="1.35538">
        <ele>20</ele>
        <time>2021-10-08T08:49:59Z</time>
      </trkpt>
      <trkpt lat="49.18128" lon="1.35556">
        <ele>19.2</ele>
        <time>2021-10-08T08:50:02Z</time>
      </trkpt>
      <trkpt lat="49.18132" lon="1.35578">
        <ele>18.8</ele>
        <time>2021-10-08T08:50:05Z</time>
      </trkpt>
      <trkpt lat="49.18127" lon="1.35616">
        <ele>18</ele>
        <time>2021-10-08T08:50:09Z</time>
      </trkpt>
      <trkpt lat="49.18125" lon="1.35626">
        <ele>18</ele>
        <time>2021-10-08T08:50:10Z</time>
      </trkpt>
      <trkpt lat="49.1811" lon="1.35669">
        <ele>17.6</ele>
        <time>2021-10-08T08:50:15Z</time>
      </trkpt>
      <trkpt lat="49.18107" lon="1.35677">
        <ele>16.6</ele>
        <time>2021-10-08T08:50:16Z</time>
      </trkpt>
      <trkpt lat="49.18103" lon="1.35685">
        <ele>16</ele>
        <time>2021-10-08T08:50:17Z</time>
      </trkpt>
      <trkpt lat="49.181" lon="1.35693">
        <ele>15.2</ele>
        <time>2021-10-08T08:50:18Z</time>
      </trkpt>
      <trkpt lat="49.18093" lon="1.35709">
        <ele>14.4</ele>
        <time>2021-10-08T08:50:20Z</time>
      </trkpt>
      <trkpt lat="49.1809" lon="1.35718">
        <ele>14</ele>
        <time>2021-10-08T08:50:21Z</time>
      </trkpt>
      <trkpt lat="49.18076" lon="1.35757">
        <ele>13.8</ele>
        <time>2021-10-08T08:50:26Z</time>
      </trkpt>
      <trkpt lat="49.18064" lon="1.35787">
        <ele>13.6</ele>
        <time>2021-10-08T08:50:30Z</time>
      </trkpt>
      <trkpt lat="49.18061" lon="1.35793">
        <ele>13.6</ele>
        <time>2021-10-08T08:50:31Z</time>
      </trkpt>
      <trkpt lat="49.1806" lon="1.35809">
        <ele>13.8</ele>
        <time>2021-10-08T08:50:34Z</time>
      </trkpt>
      <trkpt lat="49.18067" lon="1.35817">
        <ele>14</ele>
        <time>2021-10-08T08:50:36Z</time>
      </trkpt>
      <trkpt lat="49.18077" lon="1.35827">
        <ele>14</ele>
        <time>2021-10-08T08:50:39Z</time>
      </trkpt>
      <trkpt lat="49.18093" lon="1.35848">
        <ele>14.4</ele>
        <time>2021-10-08T08:50:45Z</time>
      </trkpt>
      <trkpt lat="49.18098" lon="1.35855">
        <ele>14.8</ele>
        <time>2021-10-08T08:50:49Z</time>
      </trkpt>
      <trkpt lat="49.181" lon="1.35857">
        <ele>15.2</ele>
        <time>2021-10-08T08:50:51Z</time>
      </trkpt>
      <trkpt lat="49.18103" lon="1.35863">
        <ele>15.8</ele>
        <time>2021-10-08T08:50:54Z</time>
      </trkpt>
      <trkpt lat="49.18107" lon="1.35873">
        <ele>16.6</ele>
        <time>2021-10-08T08:50:58Z</time>
      </trkpt>
      <trkpt lat="49.18109" lon="1.35877">
        <ele>16.6</ele>
        <time>2021-10-08T08:51:00Z</time>
      </trkpt>
      <trkpt lat="49.18113" lon="1.35887">
        <ele>17.2</ele>
        <time>2021-10-08T08:51:04Z</time>
      </trkpt>
      <trkpt lat="49.18116" lon="1.35894">
        <ele>17.8</ele>
        <time>2021-10-08T08:51:07Z</time>
      </trkpt>
      <trkpt lat="49.18117" lon="1.35904">
        <ele>18.8</ele>
        <time>2021-10-08T08:51:11Z</time>
      </trkpt>
      <trkpt lat="49.18118" lon="1.35907">
        <ele>19.2</ele>
        <time>2021-10-08T08:51:12Z</time>
      </trkpt>
      <trkpt lat="49.18119" lon="1.35913">
        <ele>20</ele>
        <time>2021-10-08T08:51:14Z</time>
      </trkpt>
      <trkpt lat="49.18123" lon="1.35923">
        <ele>21.4</ele>
        <time>2021-10-08T08:51:18Z</time>
      </trkpt>
      <trkpt lat="49.18127" lon="1.35931">
        <ele>22.4</ele>
        <time>2021-10-08T08:51:22Z</time>
      </trkpt>
      <trkpt lat="49.18128" lon="1.35934">
        <ele>23</ele>
        <time>2021-10-08T08:51:24Z</time>
      </trkpt>
      <trkpt lat="49.18129" lon="1.35936">
        <ele>23.4</ele>
        <time>2021-10-08T08:51:25Z</time>
      </trkpt>
      <trkpt lat="49.18132" lon="1.35942">
        <ele>24.6</ele>
        <time>2021-10-08T08:51:28Z</time>
      </trkpt>
      <trkpt lat="49.18134" lon="1.35948">
        <ele>25.8</ele>
        <time>2021-10-08T08:51:31Z</time>
      </trkpt>
      <trkpt lat="49.18138" lon="1.35956">
        <ele>27</ele>
        <time>2021-10-08T08:51:35Z</time>
      </trkpt>
      <trkpt lat="49.18141" lon="1.35959">
        <ele>27.6</ele>
        <time>2021-10-08T08:51:37Z</time>
      </trkpt>
      <trkpt lat="49.18144" lon="1.35962">
        <ele>28.2</ele>
        <time>2021-10-08T08:51:39Z</time>
      </trkpt>
      <trkpt lat="49.18151" lon="1.35971">
        <ele>29.2</ele>
        <time>2021-10-08T08:51:44Z</time>
      </trkpt>
      <trkpt lat="49.18153" lon="1.35973">
        <ele>29.2</ele>
        <time>2021-10-08T08:51:45Z</time>
      </trkpt>
      <trkpt lat="49.18169" lon="1.35991">
        <ele>30</ele>
        <time>2021-10-08T08:51:53Z</time>
      </trkpt>
      <trkpt lat="49.18172" lon="1.35993">
        <ele>30.2</ele>
        <time>2021-10-08T08:51:54Z</time>
      </trkpt>
      <trkpt lat="49.18184" lon="1.3601">
        <ele>30.6</ele>
        <time>2021-10-08T08:52:00Z</time>
      </trkpt>
      <trkpt lat="49.18197" lon="1.36027">
        <ele>31.2</ele>
        <time>2021-10-08T08:52:07Z</time>
      </trkpt>
      <trkpt lat="49.18211" lon="1.36041">
        <ele>31.6</ele>
        <time>2021-10-08T08:52:12Z</time>
      </trkpt>
      <trkpt lat="49.18232" lon="1.36061">
        <ele>32</ele>
        <time>2021-10-08T08:52:18Z</time>
      </trkpt>
      <trkpt lat="49.18251" lon="1.36076">
        <ele>32</ele>
        <time>2021-10-08T08:52:23Z</time>
      </trkpt>
      <trkpt lat="49.18264" lon="1.36085">
        <ele>32.2</ele>
        <time>2021-10-08T08:52:26Z</time>
      </trkpt>
      <trkpt lat="49.18284" lon="1.36102">
        <ele>32.6</ele>
        <time>2021-10-08T08:52:32Z</time>
      </trkpt>
      <trkpt lat="49.18313" lon="1.36128">
        <ele>32.8</ele>
        <time>2021-10-08T08:52:39Z</time>
      </trkpt>
      <trkpt lat="49.18354" lon="1.36163">
        <ele>32.8</ele>
        <time>2021-10-08T08:52:48Z</time>
      </trkpt>
      <trkpt lat="49.18376" lon="1.36181">
        <ele>32.8</ele>
        <time>2021-10-08T08:52:53Z</time>
      </trkpt>
      <trkpt lat="49.18391" lon="1.36197">
        <ele>33</ele>
        <time>2021-10-08T08:52:57Z</time>
      </trkpt>
      <trkpt lat="49.18395" lon="1.36201">
        <ele>33</ele>
        <time>2021-10-08T08:52:58Z</time>
      </trkpt>
      <trkpt lat="49.18417" lon="1.3622">
        <ele>33.2</ele>
        <time>2021-10-08T08:53:03Z</time>
      </trkpt>
      <trkpt lat="49.18441" lon="1.36242">
        <ele>33.6</ele>
        <time>2021-10-08T08:53:09Z</time>
      </trkpt>
      <trkpt lat="49.18442" lon="1.36246">
        <ele>33.6</ele>
        <time>2021-10-08T08:53:10Z</time>
      </trkpt>
      <trkpt lat="49.18442" lon="1.36252">
        <ele>33.6</ele>
        <time>2021-10-08T08:53:12Z</time>
      </trkpt>
      <trkpt lat="49.18441" lon="1.36253">
        <ele>33.8</ele>
        <time>2021-10-08T08:53:14Z</time>
      </trkpt>
      <trkpt lat="49.1844" lon="1.36255">
        <ele>36.4</ele>
        <time>2021-10-08T09:08:45Z</time>
      </trkpt>
      <trkpt lat="49.1844" lon="1.36258">
        <ele>36.4</ele>
        <time>2021-10-08T09:08:46Z</time>
      </trkpt>
      <trkpt lat="49.18436" lon="1.36275">
        <ele>36.6</ele>
        <time>2021-10-08T09:08:50Z</time>
      </trkpt>
      <trkpt lat="49.18429" lon="1.36321">
        <ele>36.6</ele>
        <time>2021-10-08T09:08:57Z</time>
      </trkpt>
      <trkpt lat="49.18429" lon="1.36328">
        <ele>36.6</ele>
        <time>2021-10-08T09:08:58Z</time>
      </trkpt>
      <trkpt lat="49.18429" lon="1.36374">
        <ele>36.6</ele>
        <time>2021-10-08T09:09:04Z</time>
      </trkpt>
      <trkpt lat="49.18435" lon="1.36455">
        <ele>37.2</ele>
        <time>2021-10-08T09:09:14Z</time>
      </trkpt>
      <trkpt lat="49.18437" lon="1.36478">
        <ele>37.2</ele>
        <time>2021-10-08T09:09:17Z</time>
      </trkpt>
      <trkpt lat="49.18444" lon="1.3655">
        <ele>37.8</ele>
        <time>2021-10-08T09:09:26Z</time>
      </trkpt>
      <trkpt lat="49.18448" lon="1.36573">
        <ele>38.4</ele>
        <time>2021-10-08T09:09:29Z</time>
      </trkpt>
      <trkpt lat="49.1845" lon="1.36589">
        <ele>38.6</ele>
        <time>2021-10-08T09:09:31Z</time>
      </trkpt>
      <trkpt lat="49.1845" lon="1.36597">
        <ele>38.8</ele>
        <time>2021-10-08T09:09:32Z</time>
      </trkpt>
      <trkpt lat="49.18459" lon="1.36644">
        <ele>39</ele>
        <time>2021-10-08T09:09:38Z</time>
      </trkpt>
      <trkpt lat="49.18465" lon="1.36674">
        <ele>39.2</ele>
        <time>2021-10-08T09:09:42Z</time>
      </trkpt>
      <trkpt lat="49.18463" lon="1.36685">
        <ele>39.4</ele>
        <time>2021-10-08T09:09:44Z</time>
      </trkpt>
      <trkpt lat="49.18462" lon="1.36695">
        <ele>39.6</ele>
        <time>2021-10-08T09:09:47Z</time>
      </trkpt>
      <trkpt lat="49.18468" lon="1.36699">
        <ele>39.6</ele>
        <time>2021-10-08T09:09:49Z</time>
      </trkpt>
      <trkpt lat="49.1847" lon="1.36704">
        <ele>39.6</ele>
        <time>2021-10-08T09:09:50Z</time>
      </trkpt>
      <trkpt lat="49.18473" lon="1.36717">
        <ele>39.6</ele>
        <time>2021-10-08T09:09:52Z</time>
      </trkpt>
      <trkpt lat="49.18474" lon="1.36725">
        <ele>39.8</ele>
        <time>2021-10-08T09:09:53Z</time>
      </trkpt>
      <trkpt lat="49.18475" lon="1.36733">
        <ele>39.8</ele>
        <time>2021-10-08T09:09:54Z</time>
      </trkpt>
      <trkpt lat="49.1847" lon="1.36754">
        <ele>39.8</ele>
        <time>2021-10-08T09:09:57Z</time>
      </trkpt>
      <trkpt lat="49.1847" lon="1.36762">
        <ele>40</ele>
        <time>2021-10-08T09:09:58Z</time>
      </trkpt>
      <trkpt lat="49.18474" lon="1.36784">
        <ele>40</ele>
        <time>2021-10-08T09:10:01Z</time>
      </trkpt>
      <trkpt lat="49.18474" lon="1.36791">
        <ele>40</ele>
        <time>2021-10-08T09:10:02Z</time>
      </trkpt>
      <trkpt lat="49.18472" lon="1.36815">
        <ele>40.2</ele>
        <time>2021-10-08T09:10:05Z</time>
      </trkpt>
      <trkpt lat="49.18469" lon="1.3683">
        <ele>40.2</ele>
        <time>2021-10-08T09:10:07Z</time>
      </trkpt>
      <trkpt lat="49.18462" lon="1.36844">
        <ele>40.4</ele>
        <time>2021-10-08T09:10:09Z</time>
      </trkpt>
      <trkpt lat="49.18459" lon="1.36851">
        <ele>40.4</ele>
        <time>2021-10-08T09:10:10Z</time>
      </trkpt>
      <trkpt lat="49.18454" lon="1.36865">
        <ele>40.6</ele>
        <time>2021-10-08T09:10:12Z</time>
      </trkpt>
      <trkpt lat="49.18449" lon="1.36889">
        <ele>40.6</ele>
        <time>2021-10-08T09:10:15Z</time>
      </trkpt>
      <trkpt lat="49.18448" lon="1.36905">
        <ele>40.8</ele>
        <time>2021-10-08T09:10:17Z</time>
      </trkpt>
      <trkpt lat="49.18448" lon="1.36913">
        <ele>40.8</ele>
        <time>2021-10-08T09:10:18Z</time>
      </trkpt>
      <trkpt lat="49.18441" lon="1.36935">
        <ele>41</ele>
        <time>2021-10-08T09:10:21Z</time>
      </trkpt>
      <trkpt lat="49.18434" lon="1.36948">
        <ele>41</ele>
        <time>2021-10-08T09:10:23Z</time>
      </trkpt>
      <trkpt lat="49.18428" lon="1.36961">
        <ele>41.4</ele>
        <time>2021-10-08T09:10:25Z</time>
      </trkpt>
      <trkpt lat="49.18426" lon="1.36969">
        <ele>41.4</ele>
        <time>2021-10-08T09:10:26Z</time>
      </trkpt>
      <trkpt lat="49.18425" lon="1.36985">
        <ele>41.6</ele>
        <time>2021-10-08T09:10:28Z</time>
      </trkpt>
      <trkpt lat="49.18419" lon="1.37008">
        <ele>41.6</ele>
        <time>2021-10-08T09:10:31Z</time>
      </trkpt>
      <trkpt lat="49.18417" lon="1.37033">
        <ele>41.6</ele>
        <time>2021-10-08T09:10:34Z</time>
      </trkpt>
      <trkpt lat="49.18412" lon="1.37063">
        <ele>41.8</ele>
        <time>2021-10-08T09:10:38Z</time>
      </trkpt>
      <trkpt lat="49.18409" lon="1.3707">
        <ele>41.8</ele>
        <time>2021-10-08T09:10:39Z</time>
      </trkpt>
      <trkpt lat="49.18402" lon="1.37091">
        <ele>42</ele>
        <time>2021-10-08T09:10:42Z</time>
      </trkpt>
      <trkpt lat="49.18395" lon="1.37112">
        <ele>42.4</ele>
        <time>2021-10-08T09:10:45Z</time>
      </trkpt>
      <trkpt lat="49.18382" lon="1.37154">
        <ele>42.8</ele>
        <time>2021-10-08T09:10:51Z</time>
      </trkpt>
      <trkpt lat="49.18373" lon="1.37182">
        <ele>43.6</ele>
        <time>2021-10-08T09:10:55Z</time>
      </trkpt>
      <trkpt lat="49.18371" lon="1.37189">
        <ele>43.6</ele>
        <time>2021-10-08T09:10:56Z</time>
      </trkpt>
      <trkpt lat="49.18366" lon="1.37203">
        <ele>43.8</ele>
        <time>2021-10-08T09:10:58Z</time>
      </trkpt>
      <trkpt lat="49.18357" lon="1.3723">
        <ele>44.2</ele>
        <time>2021-10-08T09:11:02Z</time>
      </trkpt>
      <trkpt lat="49.18354" lon="1.37237">
        <ele>44.2</ele>
        <time>2021-10-08T09:11:03Z</time>
      </trkpt>
      <trkpt lat="49.18351" lon="1.37255">
        <ele>44.6</ele>
        <time>2021-10-08T09:11:06Z</time>
      </trkpt>
      <trkpt lat="49.18352" lon="1.37261">
        <ele>44.6</ele>
        <time>2021-10-08T09:11:07Z</time>
      </trkpt>
      <trkpt lat="49.18357" lon="1.3727">
        <ele>45</ele>
        <time>2021-10-08T09:11:09Z</time>
      </trkpt>
      <trkpt lat="49.18361" lon="1.37274">
        <ele>45</ele>
        <time>2021-10-08T09:11:10Z</time>
      </trkpt>
      <trkpt lat="49.18383" lon="1.37293">
        <ele>45.6</ele>
        <time>2021-10-08T09:11:16Z</time>
      </trkpt>
      <trkpt lat="49.18394" lon="1.37303">
        <ele>46</ele>
        <time>2021-10-08T09:11:19Z</time>
      </trkpt>
      <trkpt lat="49.18397" lon="1.37307">
        <ele>46</ele>
        <time>2021-10-08T09:11:20Z</time>
      </trkpt>
      <trkpt lat="49.18423" lon="1.3733">
        <ele>46.6</ele>
        <time>2021-10-08T09:11:27Z</time>
      </trkpt>
      <trkpt lat="49.18434" lon="1.37339">
        <ele>47</ele>
        <time>2021-10-08T09:11:30Z</time>
      </trkpt>
      <trkpt lat="49.18438" lon="1.37342">
        <ele>47.2</ele>
        <time>2021-10-08T09:11:31Z</time>
      </trkpt>
      <trkpt lat="49.18453" lon="1.37355">
        <ele>47.8</ele>
        <time>2021-10-08T09:11:35Z</time>
      </trkpt>
      <trkpt lat="49.18476" lon="1.37375">
        <ele>48.8</ele>
        <time>2021-10-08T09:11:41Z</time>
      </trkpt>
      <trkpt lat="49.18487" lon="1.37384">
        <ele>49.2</ele>
        <time>2021-10-08T09:11:44Z</time>
      </trkpt>
      <trkpt lat="49.18521" lon="1.37414">
        <ele>49.8</ele>
        <time>2021-10-08T09:11:53Z</time>
      </trkpt>
      <trkpt lat="49.18528" lon="1.3742">
        <ele>50</ele>
        <time>2021-10-08T09:11:55Z</time>
      </trkpt>
      <trkpt lat="49.18555" lon="1.37444">
        <ele>50.8</ele>
        <time>2021-10-08T09:12:02Z</time>
      </trkpt>
      <trkpt lat="49.18583" lon="1.37468">
        <ele>51.4</ele>
        <time>2021-10-08T09:12:09Z</time>
      </trkpt>
      <trkpt lat="49.18591" lon="1.37474">
        <ele>51.4</ele>
        <time>2021-10-08T09:12:11Z</time>
      </trkpt>
      <trkpt lat="49.18607" lon="1.37482">
        <ele>51.6</ele>
        <time>2021-10-08T09:12:15Z</time>
      </trkpt>
      <trkpt lat="49.18616" lon="1.37478">
        <ele>51.6</ele>
        <time>2021-10-08T09:12:17Z</time>
      </trkpt>
      <trkpt lat="49.1862" lon="1.37474">
        <ele>51.8</ele>
        <time>2021-10-08T09:12:18Z</time>
      </trkpt>
      <trkpt lat="49.18624" lon="1.37469">
        <ele>51.8</ele>
        <time>2021-10-08T09:12:19Z</time>
      </trkpt>
      <trkpt lat="49.18651" lon="1.37437">
        <ele>51.8</ele>
        <time>2021-10-08T09:12:25Z</time>
      </trkpt>
      <trkpt lat="49.18675" lon="1.37405">
        <ele>51.4</ele>
        <time>2021-10-08T09:12:30Z</time>
      </trkpt>
      <trkpt lat="49.1869" lon="1.37386">
        <ele>50.8</ele>
        <time>2021-10-08T09:12:33Z</time>
      </trkpt>
      <trkpt lat="49.18694" lon="1.37379">
        <ele>50.4</ele>
        <time>2021-10-08T09:12:34Z</time>
      </trkpt>
      <trkpt lat="49.18714" lon="1.37351">
        <ele>49.4</ele>
        <time>2021-10-08T09:12:38Z</time>
      </trkpt>
      <trkpt lat="49.18729" lon="1.37331">
        <ele>48.2</ele>
        <time>2021-10-08T09:12:41Z</time>
      </trkpt>
      <trkpt lat="49.18744" lon="1.37313">
        <ele>47</ele>
        <time>2021-10-08T09:12:44Z</time>
      </trkpt>
      <trkpt lat="49.18755" lon="1.37302">
        <ele>46.6</ele>
        <time>2021-10-08T09:12:46Z</time>
      </trkpt>
      <trkpt lat="49.18762" lon="1.37298">
        <ele>46.6</ele>
        <time>2021-10-08T09:12:47Z</time>
      </trkpt>
      <trkpt lat="49.18783" lon="1.37287">
        <ele>46</ele>
        <time>2021-10-08T09:12:50Z</time>
      </trkpt>
      <trkpt lat="49.18802" lon="1.37276">
        <ele>45.6</ele>
        <time>2021-10-08T09:12:53Z</time>
      </trkpt>
      <trkpt lat="49.18807" lon="1.37276">
        <ele>45.2</ele>
        <time>2021-10-08T09:12:54Z</time>
      </trkpt>
      <trkpt lat="49.18814" lon="1.37284">
        <ele>44.6</ele>
        <time>2021-10-08T09:12:56Z</time>
      </trkpt>
      <trkpt lat="49.18817" lon="1.37289">
        <ele>44.2</ele>
        <time>2021-10-08T09:12:57Z</time>
      </trkpt>
      <trkpt lat="49.18823" lon="1.37301">
        <ele>42.8</ele>
        <time>2021-10-08T09:12:59Z</time>
      </trkpt>
      <trkpt lat="49.1884" lon="1.37332">
        <ele>42.2</ele>
        <time>2021-10-08T09:13:04Z</time>
      </trkpt>
      <trkpt lat="49.18877" lon="1.37395">
        <ele>42.2</ele>
        <time>2021-10-08T09:13:14Z</time>
      </trkpt>
      <trkpt lat="49.18884" lon="1.37407">
        <ele>42.4</ele>
        <time>2021-10-08T09:13:16Z</time>
      </trkpt>
      <trkpt lat="49.18919" lon="1.37474">
        <ele>42.4</ele>
        <time>2021-10-08T09:13:26Z</time>
      </trkpt>
      <trkpt lat="49.18953" lon="1.37534">
        <ele>42.2</ele>
        <time>2021-10-08T09:13:35Z</time>
      </trkpt>
      <trkpt lat="49.1896" lon="1.37548">
        <ele>41.8</ele>
        <time>2021-10-08T09:13:37Z</time>
      </trkpt>
      <trkpt lat="49.18986" lon="1.37595">
        <ele>41</ele>
        <time>2021-10-08T09:13:44Z</time>
      </trkpt>
      <trkpt lat="49.19015" lon="1.37649">
        <ele>40.8</ele>
        <time>2021-10-08T09:13:52Z</time>
      </trkpt>
      <trkpt lat="49.19022" lon="1.37662">
        <ele>40.6</ele>
        <time>2021-10-08T09:13:54Z</time>
      </trkpt>
      <trkpt lat="49.1904" lon="1.37695">
        <ele>40.4</ele>
        <time>2021-10-08T09:13:59Z</time>
      </trkpt>
      <trkpt lat="49.19061" lon="1.37733">
        <ele>40.4</ele>
        <time>2021-10-08T09:14:05Z</time>
      </trkpt>
      <trkpt lat="49.19096" lon="1.37788">
        <ele>40</ele>
        <time>2021-10-08T09:14:14Z</time>
      </trkpt>
      <trkpt lat="49.19113" lon="1.37808">
        <ele>40</ele>
        <time>2021-10-08T09:14:18Z</time>
      </trkpt>
      <trkpt lat="49.19116" lon="1.37814">
        <ele>40</ele>
        <time>2021-10-08T09:14:19Z</time>
      </trkpt>
      <trkpt lat="49.19129" lon="1.3784">
        <ele>40.2</ele>
        <time>2021-10-08T09:14:23Z</time>
      </trkpt>
      <trkpt lat="49.19134" lon="1.37853">
        <ele>40.2</ele>
        <time>2021-10-08T09:14:25Z</time>
      </trkpt>
      <trkpt lat="49.19139" lon="1.37865">
        <ele>40.6</ele>
        <time>2021-10-08T09:14:27Z</time>
      </trkpt>
      <trkpt lat="49.19142" lon="1.3787">
        <ele>40.6</ele>
        <time>2021-10-08T09:14:28Z</time>
      </trkpt>
      <trkpt lat="49.19156" lon="1.37893">
        <ele>41.2</ele>
        <time>2021-10-08T09:14:32Z</time>
      </trkpt>
      <trkpt lat="49.19159" lon="1.37899">
        <ele>41</ele>
        <time>2021-10-08T09:14:33Z</time>
      </trkpt>
      <trkpt lat="49.19163" lon="1.37905">
        <ele>41</ele>
        <time>2021-10-08T09:14:34Z</time>
      </trkpt>
      <trkpt lat="49.19178" lon="1.37932">
        <ele>41</ele>
        <time>2021-10-08T09:14:38Z</time>
      </trkpt>
      <trkpt lat="49.19198" lon="1.37968">
        <ele>41</ele>
        <time>2021-10-08T09:14:43Z</time>
      </trkpt>
      <trkpt lat="49.19221" lon="1.38005">
        <ele>40.8</ele>
        <time>2021-10-08T09:14:48Z</time>
      </trkpt>
      <trkpt lat="49.19239" lon="1.38032">
        <ele>39.6</ele>
        <time>2021-10-08T09:14:52Z</time>
      </trkpt>
      <trkpt lat="49.19242" lon="1.3804">
        <ele>39.2</ele>
        <time>2021-10-08T09:14:53Z</time>
      </trkpt>
      <trkpt lat="49.19262" lon="1.38081">
        <ele>38.4</ele>
        <time>2021-10-08T09:14:59Z</time>
      </trkpt>
      <trkpt lat="49.19283" lon="1.3812">
        <ele>38.8</ele>
        <time>2021-10-08T09:15:06Z</time>
      </trkpt>
      <trkpt lat="49.19286" lon="1.38125">
        <ele>39</ele>
        <time>2021-10-08T09:15:07Z</time>
      </trkpt>
      <trkpt lat="49.19301" lon="1.38151">
        <ele>40.4</ele>
        <time>2021-10-08T09:15:12Z</time>
      </trkpt>
      <trkpt lat="49.19312" lon="1.38171">
        <ele>41.2</ele>
        <time>2021-10-08T09:15:16Z</time>
      </trkpt>
      <trkpt lat="49.19317" lon="1.38181">
        <ele>41.8</ele>
        <time>2021-10-08T09:15:18Z</time>
      </trkpt>
      <trkpt lat="49.19323" lon="1.38191">
        <ele>42</ele>
        <time>2021-10-08T09:15:20Z</time>
      </trkpt>
      <trkpt lat="49.19331" lon="1.38206">
        <ele>42.6</ele>
        <time>2021-10-08T09:15:23Z</time>
      </trkpt>
      <trkpt lat="49.19348" lon="1.38238">
        <ele>43.8</ele>
        <time>2021-10-08T09:15:30Z</time>
      </trkpt>
      <trkpt lat="49.19361" lon="1.38249">
        <ele>44.4</ele>
        <time>2021-10-08T09:15:34Z</time>
      </trkpt>
      <trkpt lat="49.19372" lon="1.38255">
        <ele>44.8</ele>
        <time>2021-10-08T09:15:37Z</time>
      </trkpt>
      <trkpt lat="49.19376" lon="1.38257">
        <ele>45</ele>
        <time>2021-10-08T09:15:38Z</time>
      </trkpt>
      <trkpt lat="49.19385" lon="1.3826">
        <ele>45.2</ele>
        <time>2021-10-08T09:15:40Z</time>
      </trkpt>
      <trkpt lat="49.1942" lon="1.38274">
        <ele>45.4</ele>
        <time>2021-10-08T09:15:48Z</time>
      </trkpt>
      <trkpt lat="49.19454" lon="1.3829">
        <ele>45.4</ele>
        <time>2021-10-08T09:15:55Z</time>
      </trkpt>
      <trkpt lat="49.195" lon="1.38312">
        <ele>45.4</ele>
        <time>2021-10-08T09:16:04Z</time>
      </trkpt>
      <trkpt lat="49.19536" lon="1.38324">
        <ele>45.4</ele>
        <time>2021-10-08T09:16:11Z</time>
      </trkpt>
      <trkpt lat="49.1955" lon="1.38328">
        <ele>45.8</ele>
        <time>2021-10-08T09:16:14Z</time>
      </trkpt>
      <trkpt lat="49.19565" lon="1.38332">
        <ele>45.8</ele>
        <time>2021-10-08T09:16:17Z</time>
      </trkpt>
      <trkpt lat="49.19569" lon="1.38332">
        <ele>46</ele>
        <time>2021-10-08T09:16:18Z</time>
      </trkpt>
      <trkpt lat="49.19588" lon="1.38335">
        <ele>46.4</ele>
        <time>2021-10-08T09:16:22Z</time>
      </trkpt>
      <trkpt lat="49.19604" lon="1.38336">
        <ele>46.8</ele>
        <time>2021-10-08T09:16:25Z</time>
      </trkpt>
      <trkpt lat="49.19627" lon="1.38338">
        <ele>47.4</ele>
        <time>2021-10-08T09:16:29Z</time>
      </trkpt>
      <trkpt lat="49.19644" lon="1.3834">
        <ele>47.6</ele>
        <time>2021-10-08T09:16:32Z</time>
      </trkpt>
      <trkpt lat="49.19661" lon="1.38342">
        <ele>48</ele>
        <time>2021-10-08T09:16:35Z</time>
      </trkpt>
      <trkpt lat="49.19673" lon="1.38343">
        <ele>48</ele>
        <time>2021-10-08T09:16:37Z</time>
      </trkpt>
      <trkpt lat="49.19708" lon="1.3835">
        <ele>48</ele>
        <time>2021-10-08T09:16:43Z</time>
      </trkpt>
      <trkpt lat="49.19713" lon="1.3835">
        <ele>48</ele>
        <time>2021-10-08T09:16:44Z</time>
      </trkpt>
      <trkpt lat="49.1975" lon="1.38361">
        <ele>47.4</ele>
        <time>2021-10-08T09:16:50Z</time>
      </trkpt>
      <trkpt lat="49.19793" lon="1.38374">
        <ele>47.4</ele>
        <time>2021-10-08T09:16:57Z</time>
      </trkpt>
      <trkpt lat="49.19851" lon="1.38393">
        <ele>47.2</ele>
        <time>2021-10-08T09:17:07Z</time>
      </trkpt>
      <trkpt lat="49.19905" lon="1.3841">
        <ele>47.4</ele>
        <time>2021-10-08T09:17:16Z</time>
      </trkpt>
      <trkpt lat="49.19963" lon="1.38429">
        <ele>47.6</ele>
        <time>2021-10-08T09:17:26Z</time>
      </trkpt>
      <trkpt lat="49.19973" lon="1.38432">
        <ele>47.8</ele>
        <time>2021-10-08T09:17:28Z</time>
      </trkpt>
      <trkpt lat="49.19992" lon="1.38438">
        <ele>47.8</ele>
        <time>2021-10-08T09:17:32Z</time>
      </trkpt>
      <trkpt lat="49.19996" lon="1.3844">
        <ele>47.8</ele>
        <time>2021-10-08T09:17:33Z</time>
      </trkpt>
      <trkpt lat="49.20012" lon="1.38447">
        <ele>47.8</ele>
        <time>2021-10-08T09:17:37Z</time>
      </trkpt>
      <trkpt lat="49.20019" lon="1.38462">
        <ele>48</ele>
        <time>2021-10-08T09:17:41Z</time>
      </trkpt>
      <trkpt lat="49.20021" lon="1.38469">
        <ele>48</ele>
        <time>2021-10-08T09:17:43Z</time>
      </trkpt>
      <trkpt lat="49.20019" lon="1.38476">
        <ele>48.6</ele>
        <time>2021-10-08T09:17:45Z</time>
      </trkpt>
      <trkpt lat="49.20013" lon="1.38488">
        <ele>49.8</ele>
        <time>2021-10-08T09:17:49Z</time>
      </trkpt>
      <trkpt lat="49.2001" lon="1.38494">
        <ele>50</ele>
        <time>2021-10-08T09:17:51Z</time>
      </trkpt>
      <trkpt lat="49.20002" lon="1.38512">
        <ele>50.6</ele>
        <time>2021-10-08T09:17:57Z</time>
      </trkpt>
      <trkpt lat="49.19997" lon="1.38522">
        <ele>50.8</ele>
        <time>2021-10-08T09:18:00Z</time>
      </trkpt>
      <trkpt lat="49.19989" lon="1.38537">
        <ele>51.6</ele>
        <time>2021-10-08T09:18:05Z</time>
      </trkpt>
      <trkpt lat="49.19986" lon="1.38542">
        <ele>51.8</ele>
        <time>2021-10-08T09:18:07Z</time>
      </trkpt>
      <trkpt lat="49.19977" lon="1.38558">
        <ele>53</ele>
        <time>2021-10-08T09:18:13Z</time>
      </trkpt>
      <trkpt lat="49.19969" lon="1.38575">
        <ele>54</ele>
        <time>2021-10-08T09:18:18Z</time>
      </trkpt>
      <trkpt lat="49.19968" lon="1.38578">
        <ele>54.2</ele>
        <time>2021-10-08T09:18:19Z</time>
      </trkpt>
      <trkpt lat="49.1996" lon="1.38595">
        <ele>55</ele>
        <time>2021-10-08T09:18:24Z</time>
      </trkpt>
      <trkpt lat="49.19958" lon="1.38602">
        <ele>55.4</ele>
        <time>2021-10-08T09:18:26Z</time>
      </trkpt>
      <trkpt lat="49.1996" lon="1.38621">
        <ele>55.6</ele>
        <time>2021-10-08T09:18:31Z</time>
      </trkpt>
      <trkpt lat="49.19966" lon="1.3863">
        <ele>55.8</ele>
        <time>2021-10-08T09:18:34Z</time>
      </trkpt>
      <trkpt lat="49.19972" lon="1.38643">
        <ele>56.2</ele>
        <time>2021-10-08T09:18:38Z</time>
      </trkpt>
      <trkpt lat="49.19979" lon="1.38655">
        <ele>57</ele>
        <time>2021-10-08T09:18:42Z</time>
      </trkpt>
      <trkpt lat="49.19984" lon="1.38661">
        <ele>57.4</ele>
        <time>2021-10-08T09:18:45Z</time>
      </trkpt>
      <trkpt lat="49.19991" lon="1.38661">
        <ele>58</ele>
        <time>2021-10-08T09:18:49Z</time>
      </trkpt>
      <trkpt lat="49.19994" lon="1.3866">
        <ele>58.2</ele>
        <time>2021-10-08T09:18:50Z</time>
      </trkpt>
      <trkpt lat="49.20012" lon="1.38654">
        <ele>58.8</ele>
        <time>2021-10-08T09:18:55Z</time>
      </trkpt>
      <trkpt lat="49.20019" lon="1.3865">
        <ele>58.8</ele>
        <time>2021-10-08T09:18:57Z</time>
      </trkpt>
      <trkpt lat="49.20029" lon="1.38646">
        <ele>58.8</ele>
        <time>2021-10-08T09:18:59Z</time>
      </trkpt>
      <trkpt lat="49.20072" lon="1.38637">
        <ele>58</ele>
        <time>2021-10-08T09:19:07Z</time>
      </trkpt>
      <trkpt lat="49.20108" lon="1.38638">
        <ele>56.8</ele>
        <time>2021-10-08T09:19:13Z</time>
      </trkpt>
      <trkpt lat="49.20114" lon="1.38639">
        <ele>56.6</ele>
        <time>2021-10-08T09:19:14Z</time>
      </trkpt>
      <trkpt lat="49.20158" lon="1.38645">
        <ele>55.6</ele>
        <time>2021-10-08T09:19:21Z</time>
      </trkpt>
      <trkpt lat="49.20165" lon="1.38646">
        <ele>55.6</ele>
        <time>2021-10-08T09:19:22Z</time>
      </trkpt>
      <trkpt lat="49.20184" lon="1.38649">
        <ele>55</ele>
        <time>2021-10-08T09:19:25Z</time>
      </trkpt>
      <trkpt lat="49.20197" lon="1.38653">
        <ele>54.6</ele>
        <time>2021-10-08T09:19:27Z</time>
      </trkpt>
      <trkpt lat="49.2021" lon="1.38658">
        <ele>54</ele>
        <time>2021-10-08T09:19:29Z</time>
      </trkpt>
      <trkpt lat="49.20217" lon="1.3866">
        <ele>53.6</ele>
        <time>2021-10-08T09:19:30Z</time>
      </trkpt>
      <trkpt lat="49.20224" lon="1.38661">
        <ele>53.4</ele>
        <time>2021-10-08T09:19:31Z</time>
      </trkpt>
      <trkpt lat="49.20245" lon="1.38663">
        <ele>52.2</ele>
        <time>2021-10-08T09:19:34Z</time>
      </trkpt>
      <trkpt lat="49.20252" lon="1.38664">
        <ele>52</ele>
        <time>2021-10-08T09:19:35Z</time>
      </trkpt>
      <trkpt lat="49.20258" lon="1.38665">
        <ele>51</ele>
        <time>2021-10-08T09:19:36Z</time>
      </trkpt>
      <trkpt lat="49.20271" lon="1.3867">
        <ele>50</ele>
        <time>2021-10-08T09:19:38Z</time>
      </trkpt>
      <trkpt lat="49.20277" lon="1.38673">
        <ele>49.2</ele>
        <time>2021-10-08T09:19:39Z</time>
      </trkpt>
      <trkpt lat="49.20282" lon="1.38677">
        <ele>48.6</ele>
        <time>2021-10-08T09:19:40Z</time>
      </trkpt>
      <trkpt lat="49.20288" lon="1.38681">
        <ele>48.2</ele>
        <time>2021-10-08T09:19:41Z</time>
      </trkpt>
      <trkpt lat="49.20314" lon="1.38703">
        <ele>47</ele>
        <time>2021-10-08T09:19:46Z</time>
      </trkpt>
      <trkpt lat="49.20325" lon="1.38712">
        <ele>46.8</ele>
        <time>2021-10-08T09:19:48Z</time>
      </trkpt>
      <trkpt lat="49.20351" lon="1.38734">
        <ele>46</ele>
        <time>2021-10-08T09:19:53Z</time>
      </trkpt>
      <trkpt lat="49.2037" lon="1.38748">
        <ele>45.4</ele>
        <time>2021-10-08T09:19:57Z</time>
      </trkpt>
      <trkpt lat="49.20382" lon="1.38756">
        <ele>45</ele>
        <time>2021-10-08T09:20:00Z</time>
      </trkpt>
      <trkpt lat="49.20384" lon="1.38759">
        <ele>44.8</ele>
        <time>2021-10-08T09:20:01Z</time>
      </trkpt>
      <trkpt lat="49.20386" lon="1.38764">
        <ele>44.8</ele>
        <time>2021-10-08T09:20:02Z</time>
      </trkpt>
      <trkpt lat="49.20381" lon="1.3878">
        <ele>44.8</ele>
        <time>2021-10-08T09:20:05Z</time>
      </trkpt>
      <trkpt lat="49.20376" lon="1.38796">
        <ele>44.8</ele>
        <time>2021-10-08T09:20:08Z</time>
      </trkpt>
      <trkpt lat="49.20377" lon="1.38801">
        <ele>44.8</ele>
        <time>2021-10-08T09:20:09Z</time>
      </trkpt>
      <trkpt lat="49.20388" lon="1.38811">
        <ele>45.8</ele>
        <time>2021-10-08T09:20:13Z</time>
      </trkpt>
      <trkpt lat="49.20391" lon="1.38813">
        <ele>46</ele>
        <time>2021-10-08T09:20:14Z</time>
      </trkpt>
      <trkpt lat="49.20411" lon="1.38821">
        <ele>47.2</ele>
        <time>2021-10-08T09:20:21Z</time>
      </trkpt>
      <trkpt lat="49.20414" lon="1.38822">
        <ele>47.4</ele>
        <time>2021-10-08T09:20:22Z</time>
      </trkpt>
      <trkpt lat="49.20426" lon="1.38828">
        <ele>48.4</ele>
        <time>2021-10-08T09:20:27Z</time>
      </trkpt>
      <trkpt lat="49.20436" lon="1.38832">
        <ele>49.4</ele>
        <time>2021-10-08T09:20:31Z</time>
      </trkpt>
      <trkpt lat="49.20441" lon="1.38834">
        <ele>50</ele>
        <time>2021-10-08T09:20:33Z</time>
      </trkpt>
      <trkpt lat="49.20446" lon="1.38836">
        <ele>50.6</ele>
        <time>2021-10-08T09:20:35Z</time>
      </trkpt>
      <trkpt lat="49.20455" lon="1.3884">
        <ele>51.6</ele>
        <time>2021-10-08T09:20:39Z</time>
      </trkpt>
      <trkpt lat="49.20465" lon="1.38844">
        <ele>52.8</ele>
        <time>2021-10-08T09:20:44Z</time>
      </trkpt>
      <trkpt lat="49.20477" lon="1.38849">
        <ele>54</ele>
        <time>2021-10-08T09:20:50Z</time>
      </trkpt>
      <trkpt lat="49.20485" lon="1.38852">
        <ele>55</ele>
        <time>2021-10-08T09:20:54Z</time>
      </trkpt>
      <trkpt lat="49.20487" lon="1.38852">
        <ele>55.2</ele>
        <time>2021-10-08T09:20:55Z</time>
      </trkpt>
      <trkpt lat="49.20499" lon="1.38858">
        <ele>56.4</ele>
        <time>2021-10-08T09:21:01Z</time>
      </trkpt>
      <trkpt lat="49.20503" lon="1.38859">
        <ele>56.6</ele>
        <time>2021-10-08T09:21:03Z</time>
      </trkpt>
      <trkpt lat="49.20513" lon="1.38863">
        <ele>57.4</ele>
        <time>2021-10-08T09:21:08Z</time>
      </trkpt>
      <trkpt lat="49.20527" lon="1.38869">
        <ele>58.6</ele>
        <time>2021-10-08T09:21:15Z</time>
      </trkpt>
      <trkpt lat="49.20544" lon="1.38878">
        <ele>59.2</ele>
        <time>2021-10-08T09:21:23Z</time>
      </trkpt>
      <trkpt lat="49.20549" lon="1.38879">
        <ele>59.6</ele>
        <time>2021-10-08T09:21:25Z</time>
      </trkpt>
      <trkpt lat="49.2056" lon="1.38883">
        <ele>60.2</ele>
        <time>2021-10-08T09:21:29Z</time>
      </trkpt>
      <trkpt lat="49.20563" lon="1.38885">
        <ele>60.6</ele>
        <time>2021-10-08T09:21:30Z</time>
      </trkpt>
      <trkpt lat="49.20584" lon="1.38894">
        <ele>61.2</ele>
        <time>2021-10-08T09:21:36Z</time>
      </trkpt>
      <trkpt lat="49.20613" lon="1.38905">
        <ele>61.4</ele>
        <time>2021-10-08T09:21:43Z</time>
      </trkpt>
      <trkpt lat="49.20658" lon="1.38915">
        <ele>61.2</ele>
        <time>2021-10-08T09:21:52Z</time>
      </trkpt>
      <trkpt lat="49.20677" lon="1.38919">
        <ele>61</ele>
        <time>2021-10-08T09:21:56Z</time>
      </trkpt>
      <trkpt lat="49.20687" lon="1.38924">
        <ele>60.8</ele>
        <time>2021-10-08T09:21:58Z</time>
      </trkpt>
      <trkpt lat="49.20716" lon="1.38945">
        <ele>60.6</ele>
        <time>2021-10-08T09:22:04Z</time>
      </trkpt>
      <trkpt lat="49.20753" lon="1.38969">
        <ele>59.6</ele>
        <time>2021-10-08T09:22:11Z</time>
      </trkpt>
      <trkpt lat="49.20781" lon="1.3898">
        <ele>59.4</ele>
        <time>2021-10-08T09:22:15Z</time>
      </trkpt>
      <trkpt lat="49.20797" lon="1.38984">
        <ele>59</ele>
        <time>2021-10-08T09:22:17Z</time>
      </trkpt>
      <trkpt lat="49.20821" lon="1.38989">
        <ele>58</ele>
        <time>2021-10-08T09:22:20Z</time>
      </trkpt>
      <trkpt lat="49.20835" lon="1.38994">
        <ele>56.6</ele>
        <time>2021-10-08T09:22:22Z</time>
      </trkpt>
      <trkpt lat="49.20842" lon="1.38996">
        <ele>55.8</ele>
        <time>2021-10-08T09:22:23Z</time>
      </trkpt>
      <trkpt lat="49.20848" lon="1.38998">
        <ele>55.2</ele>
        <time>2021-10-08T09:22:24Z</time>
      </trkpt>
      <trkpt lat="49.20861" lon="1.39004">
        <ele>53.4</ele>
        <time>2021-10-08T09:22:26Z</time>
      </trkpt>
      <trkpt lat="49.20866" lon="1.39007">
        <ele>52.4</ele>
        <time>2021-10-08T09:22:27Z</time>
      </trkpt>
      <trkpt lat="49.20877" lon="1.39014">
        <ele>52</ele>
        <time>2021-10-08T09:22:29Z</time>
      </trkpt>
      <trkpt lat="49.20912" lon="1.39032">
        <ele>52</ele>
        <time>2021-10-08T09:22:36Z</time>
      </trkpt>
      <trkpt lat="49.20933" lon="1.39044">
        <ele>53.4</ele>
        <time>2021-10-08T09:22:41Z</time>
      </trkpt>
      <trkpt lat="49.20941" lon="1.39048">
        <ele>54</ele>
        <time>2021-10-08T09:22:43Z</time>
      </trkpt>
      <trkpt lat="49.20946" lon="1.39051">
        <ele>54.4</ele>
        <time>2021-10-08T09:22:44Z</time>
      </trkpt>
      <trkpt lat="49.20959" lon="1.39057">
        <ele>55.6</ele>
        <time>2021-10-08T09:22:47Z</time>
      </trkpt>
      <trkpt lat="49.20975" lon="1.39065">
        <ele>56.6</ele>
        <time>2021-10-08T09:22:51Z</time>
      </trkpt>
      <trkpt lat="49.20983" lon="1.39068">
        <ele>57</ele>
        <time>2021-10-08T09:22:53Z</time>
      </trkpt>
      <trkpt lat="49.21004" lon="1.3907">
        <ele>57.6</ele>
        <time>2021-10-08T09:22:58Z</time>
      </trkpt>
      <trkpt lat="49.21009" lon="1.3907">
        <ele>58</ele>
        <time>2021-10-08T09:22:59Z</time>
      </trkpt>
      <trkpt lat="49.21053" lon="1.39073">
        <ele>58.6</ele>
        <time>2021-10-08T09:23:07Z</time>
      </trkpt>
      <trkpt lat="49.21102" lon="1.39079">
        <ele>58.2</ele>
        <time>2021-10-08T09:23:15Z</time>
      </trkpt>
      <trkpt lat="49.21137" lon="1.39081">
        <ele>57.2</ele>
        <time>2021-10-08T09:23:20Z</time>
      </trkpt>
      <trkpt lat="49.21145" lon="1.39082">
        <ele>57.2</ele>
        <time>2021-10-08T09:23:21Z</time>
      </trkpt>
      <trkpt lat="49.21159" lon="1.39089">
        <ele>57</ele>
        <time>2021-10-08T09:23:23Z</time>
      </trkpt>
      <trkpt lat="49.21172" lon="1.39096">
        <ele>56.2</ele>
        <time>2021-10-08T09:23:25Z</time>
      </trkpt>
      <trkpt lat="49.21185" lon="1.39103">
        <ele>55.2</ele>
        <time>2021-10-08T09:23:27Z</time>
      </trkpt>
      <trkpt lat="49.21198" lon="1.3911">
        <ele>54</ele>
        <time>2021-10-08T09:23:29Z</time>
      </trkpt>
      <trkpt lat="49.2121" lon="1.39117">
        <ele>53.4</ele>
        <time>2021-10-08T09:23:31Z</time>
      </trkpt>
      <trkpt lat="49.21236" lon="1.39131">
        <ele>53</ele>
        <time>2021-10-08T09:23:35Z</time>
      </trkpt>
      <trkpt lat="49.21254" lon="1.39142">
        <ele>52.8</ele>
        <time>2021-10-08T09:23:38Z</time>
      </trkpt>
      <trkpt lat="49.21296" lon="1.39169">
        <ele>52</ele>
        <time>2021-10-08T09:23:45Z</time>
      </trkpt>
      <trkpt lat="49.21302" lon="1.39171">
        <ele>51.6</ele>
        <time>2021-10-08T09:23:46Z</time>
      </trkpt>
      <trkpt lat="49.21324" lon="1.39186">
        <ele>50.8</ele>
        <time>2021-10-08T09:23:50Z</time>
      </trkpt>
      <trkpt lat="49.21333" lon="1.39193">
        <ele>50.2</ele>
        <time>2021-10-08T09:23:52Z</time>
      </trkpt>
      <trkpt lat="49.21348" lon="1.39207">
        <ele>49.4</ele>
        <time>2021-10-08T09:23:56Z</time>
      </trkpt>
      <trkpt lat="49.21363" lon="1.3922">
        <ele>49.2</ele>
        <time>2021-10-08T09:24:00Z</time>
      </trkpt>
      <trkpt lat="49.21379" lon="1.39236">
        <ele>49</ele>
        <time>2021-10-08T09:24:04Z</time>
      </trkpt>
      <trkpt lat="49.21382" lon="1.39242">
        <ele>49</ele>
        <time>2021-10-08T09:24:05Z</time>
      </trkpt>
      <trkpt lat="49.21395" lon="1.39276">
        <ele>48.8</ele>
        <time>2021-10-08T09:24:11Z</time>
      </trkpt>
      <trkpt lat="49.21409" lon="1.39301">
        <ele>48.4</ele>
        <time>2021-10-08T09:24:17Z</time>
      </trkpt>
      <trkpt lat="49.21417" lon="1.39309">
        <ele>48.4</ele>
        <time>2021-10-08T09:24:22Z</time>
      </trkpt>
      <trkpt lat="49.21429" lon="1.39317">
        <ele>50.4</ele>
        <time>2021-10-08T09:24:30Z</time>
      </trkpt>
      <trkpt lat="49.21435" lon="1.39319">
        <ele>51.4</ele>
        <time>2021-10-08T09:24:34Z</time>
      </trkpt>
      <trkpt lat="49.2144" lon="1.39321">
        <ele>52.8</ele>
        <time>2021-10-08T09:24:38Z</time>
      </trkpt>
      <trkpt lat="49.21444" lon="1.39324">
        <ele>54</ele>
        <time>2021-10-08T09:24:41Z</time>
      </trkpt>
      <trkpt lat="49.21448" lon="1.39327">
        <ele>55.2</ele>
        <time>2021-10-08T09:24:44Z</time>
      </trkpt>
      <trkpt lat="49.21453" lon="1.3933">
        <ele>56.8</ele>
        <time>2021-10-08T09:24:48Z</time>
      </trkpt>
      <trkpt lat="49.21457" lon="1.3933">
        <ele>57.4</ele>
        <time>2021-10-08T09:24:50Z</time>
      </trkpt>
      <trkpt lat="49.21461" lon="1.3933">
        <ele>58</ele>
        <time>2021-10-08T09:24:52Z</time>
      </trkpt>
      <trkpt lat="49.21469" lon="1.39332">
        <ele>59.2</ele>
        <time>2021-10-08T09:24:56Z</time>
      </trkpt>
      <trkpt lat="49.21485" lon="1.39339">
        <ele>60.2</ele>
        <time>2021-10-08T09:25:01Z</time>
      </trkpt>
      <trkpt lat="49.21501" lon="1.39346">
        <ele>60.2</ele>
        <time>2021-10-08T09:25:05Z</time>
      </trkpt>
      <trkpt lat="49.21505" lon="1.39349">
        <ele>60.2</ele>
        <time>2021-10-08T09:25:06Z</time>
      </trkpt>
      <trkpt lat="49.21526" lon="1.39362">
        <ele>60.2</ele>
        <time>2021-10-08T09:25:11Z</time>
      </trkpt>
      <trkpt lat="49.21544" lon="1.39365">
        <ele>59.4</ele>
        <time>2021-10-08T09:25:14Z</time>
      </trkpt>
      <trkpt lat="49.21562" lon="1.3938">
        <ele>58</ele>
        <time>2021-10-08T09:25:17Z</time>
      </trkpt>
      <trkpt lat="49.21568" lon="1.39385">
        <ele>57.4</ele>
        <time>2021-10-08T09:25:18Z</time>
      </trkpt>
      <trkpt lat="49.21573" lon="1.39389">
        <ele>56.8</ele>
        <time>2021-10-08T09:25:19Z</time>
      </trkpt>
      <trkpt lat="49.21585" lon="1.39397">
        <ele>55.4</ele>
        <time>2021-10-08T09:25:21Z</time>
      </trkpt>
      <trkpt lat="49.21591" lon="1.39401">
        <ele>54.4</ele>
        <time>2021-10-08T09:25:22Z</time>
      </trkpt>
      <trkpt lat="49.21602" lon="1.3941">
        <ele>52.6</ele>
        <time>2021-10-08T09:25:24Z</time>
      </trkpt>
      <trkpt lat="49.21617" lon="1.39422">
        <ele>51.6</ele>
        <time>2021-10-08T09:25:27Z</time>
      </trkpt>
      <trkpt lat="49.21622" lon="1.39424">
        <ele>51.6</ele>
        <time>2021-10-08T09:25:28Z</time>
      </trkpt>
      <trkpt lat="49.21632" lon="1.39428">
        <ele>51.4</ele>
        <time>2021-10-08T09:25:30Z</time>
      </trkpt>
      <trkpt lat="49.2165" lon="1.39438">
        <ele>51.2</ele>
        <time>2021-10-08T09:25:34Z</time>
      </trkpt>
      <trkpt lat="49.21666" lon="1.39435">
        <ele>51</ele>
        <time>2021-10-08T09:25:37Z</time>
      </trkpt>
      <trkpt lat="49.21672" lon="1.39434">
        <ele>50.8</ele>
        <time>2021-10-08T09:25:38Z</time>
      </trkpt>
      <trkpt lat="49.21677" lon="1.39433">
        <ele>50.8</ele>
        <time>2021-10-08T09:25:39Z</time>
      </trkpt>
      <trkpt lat="49.21689" lon="1.39432">
        <ele>50.2</ele>
        <time>2021-10-08T09:25:41Z</time>
      </trkpt>
      <trkpt lat="49.21697" lon="1.39432">
        <ele>49.8</ele>
        <time>2021-10-08T09:25:42Z</time>
      </trkpt>
      <trkpt lat="49.21713" lon="1.39433">
        <ele>49.2</ele>
        <time>2021-10-08T09:25:44Z</time>
      </trkpt>
      <trkpt lat="49.2172" lon="1.39435">
        <ele>47.4</ele>
        <time>2021-10-08T09:25:45Z</time>
      </trkpt>
      <trkpt lat="49.21729" lon="1.39438">
        <ele>45.4</ele>
        <time>2021-10-08T09:25:47Z</time>
      </trkpt>
      <trkpt lat="49.21733" lon="1.39439">
        <ele>43.8</ele>
        <time>2021-10-08T09:25:48Z</time>
      </trkpt>
      <trkpt lat="49.21738" lon="1.39439">
        <ele>41.6</ele>
        <time>2021-10-08T09:25:49Z</time>
      </trkpt>
      <trkpt lat="49.21746" lon="1.39438">
        <ele>39.2</ele>
        <time>2021-10-08T09:25:50Z</time>
      </trkpt>
      <trkpt lat="49.21754" lon="1.39437">
        <ele>37.2</ele>
        <time>2021-10-08T09:25:51Z</time>
      </trkpt>
      <trkpt lat="49.21764" lon="1.39439">
        <ele>35.8</ele>
        <time>2021-10-08T09:25:52Z</time>
      </trkpt>
      <trkpt lat="49.21781" lon="1.39448">
        <ele>34.4</ele>
        <time>2021-10-08T09:25:54Z</time>
      </trkpt>
      <trkpt lat="49.21799" lon="1.39462">
        <ele>33.6</ele>
        <time>2021-10-08T09:25:56Z</time>
      </trkpt>
      <trkpt lat="49.21807" lon="1.3947">
        <ele>33</ele>
        <time>2021-10-08T09:25:57Z</time>
      </trkpt>
      <trkpt lat="49.21814" lon="1.39481">
        <ele>31.8</ele>
        <time>2021-10-08T09:25:58Z</time>
      </trkpt>
      <trkpt lat="49.2182" lon="1.39494">
        <ele>30.2</ele>
        <time>2021-10-08T09:25:59Z</time>
      </trkpt>
      <trkpt lat="49.21827" lon="1.39505">
        <ele>28.4</ele>
        <time>2021-10-08T09:26:00Z</time>
      </trkpt>
      <trkpt lat="49.21834" lon="1.39514">
        <ele>27</ele>
        <time>2021-10-08T09:26:01Z</time>
      </trkpt>
      <trkpt lat="49.21842" lon="1.39522">
        <ele>26</ele>
        <time>2021-10-08T09:26:02Z</time>
      </trkpt>
      <trkpt lat="49.21857" lon="1.39535">
        <ele>24</ele>
        <time>2021-10-08T09:26:04Z</time>
      </trkpt>
      <trkpt lat="49.21864" lon="1.3954">
        <ele>22.8</ele>
        <time>2021-10-08T09:26:05Z</time>
      </trkpt>
      <trkpt lat="49.21871" lon="1.39545">
        <ele>21.6</ele>
        <time>2021-10-08T09:26:06Z</time>
      </trkpt>
      <trkpt lat="49.21878" lon="1.39548">
        <ele>20.4</ele>
        <time>2021-10-08T09:26:07Z</time>
      </trkpt>
      <trkpt lat="49.21892" lon="1.3955">
        <ele>19.4</ele>
        <time>2021-10-08T09:26:09Z</time>
      </trkpt>
      <trkpt lat="49.21899" lon="1.39551">
        <ele>19.2</ele>
        <time>2021-10-08T09:26:10Z</time>
      </trkpt>
      <trkpt lat="49.21909" lon="1.39547">
        <ele>19</ele>
        <time>2021-10-08T09:26:12Z</time>
      </trkpt>
      <trkpt lat="49.21925" lon="1.39536">
        <ele>18.8</ele>
        <time>2021-10-08T09:26:16Z</time>
      </trkpt>
      <trkpt lat="49.21938" lon="1.39544">
        <ele>19.6</ele>
        <time>2021-10-08T09:26:19Z</time>
      </trkpt>
      <trkpt lat="49.21946" lon="1.39552">
        <ele>20</ele>
        <time>2021-10-08T09:26:21Z</time>
      </trkpt>
      <trkpt lat="49.21951" lon="1.39556">
        <ele>20</ele>
        <time>2021-10-08T09:26:22Z</time>
      </trkpt>
      <trkpt lat="49.2196" lon="1.39563">
        <ele>20.2</ele>
        <time>2021-10-08T09:26:24Z</time>
      </trkpt>
      <trkpt lat="49.2199" lon="1.39582">
        <ele>20.4</ele>
        <time>2021-10-08T09:26:30Z</time>
      </trkpt>
      <trkpt lat="49.2201" lon="1.39596">
        <ele>20.4</ele>
        <time>2021-10-08T09:26:34Z</time>
      </trkpt>
      <trkpt lat="49.22012" lon="1.39601">
        <ele>20.4</ele>
        <time>2021-10-08T09:26:35Z</time>
      </trkpt>
      <trkpt lat="49.2201" lon="1.3961">
        <ele>20.6</ele>
        <time>2021-10-08T09:26:38Z</time>
      </trkpt>
      <trkpt lat="49.22006" lon="1.39615">
        <ele>20.6</ele>
        <time>2021-10-08T09:26:41Z</time>
      </trkpt>
      <trkpt lat="49.22004" lon="1.39619">
        <ele>21.2</ele>
        <time>2021-10-08T09:26:43Z</time>
      </trkpt>
      <trkpt lat="49.22002" lon="1.39624">
        <ele>22</ele>
        <time>2021-10-08T09:26:45Z</time>
      </trkpt>
      <trkpt lat="49.22002" lon="1.39627">
        <ele>22.2</ele>
        <time>2021-10-08T09:26:46Z</time>
      </trkpt>
      <trkpt lat="49.22" lon="1.39634">
        <ele>23.4</ele>
        <time>2021-10-08T09:26:49Z</time>
      </trkpt>
      <trkpt lat="49.21999" lon="1.39644">
        <ele>24.6</ele>
        <time>2021-10-08T09:26:53Z</time>
      </trkpt>
      <trkpt lat="49.21997" lon="1.39652">
        <ele>25.8</ele>
        <time>2021-10-08T09:26:57Z</time>
      </trkpt>
      <trkpt lat="49.21999" lon="1.39655">
        <ele>26.4</ele>
        <time>2021-10-08T09:26:59Z</time>
      </trkpt>
      <trkpt lat="49.22001" lon="1.39656">
        <ele>26.8</ele>
        <time>2021-10-08T09:27:00Z</time>
      </trkpt>
      <trkpt lat="49.22002" lon="1.39657">
        <ele>27.2</ele>
        <time>2021-10-08T09:27:01Z</time>
      </trkpt>
      <trkpt lat="49.22003" lon="1.39658">
        <ele>27.6</ele>
        <time>2021-10-08T09:27:02Z</time>
      </trkpt>
      <trkpt lat="49.22004" lon="1.39659">
        <ele>27.8</ele>
        <time>2021-10-08T09:27:03Z</time>
      </trkpt>
      <trkpt lat="49.22008" lon="1.39661">
        <ele>28.4</ele>
        <time>2021-10-08T09:27:05Z</time>
      </trkpt>
      <trkpt lat="49.22011" lon="1.39663">
        <ele>29</ele>
        <time>2021-10-08T09:27:07Z</time>
      </trkpt>
      <trkpt lat="49.22012" lon="1.39664">
        <ele>29.4</ele>
        <time>2021-10-08T09:27:08Z</time>
      </trkpt>
      <trkpt lat="49.22015" lon="1.39667">
        <ele>30.2</ele>
        <time>2021-10-08T09:27:10Z</time>
      </trkpt>
      <trkpt lat="49.22018" lon="1.3967">
        <ele>30.6</ele>
        <time>2021-10-08T09:27:12Z</time>
      </trkpt>
      <trkpt lat="49.22023" lon="1.39675">
        <ele>31.2</ele>
        <time>2021-10-08T09:27:15Z</time>
      </trkpt>
      <trkpt lat="49.22033" lon="1.39688">
        <ele>32.2</ele>
        <time>2021-10-08T09:27:23Z</time>
      </trkpt>
      <trkpt lat="49.22035" lon="1.3969">
        <ele>32.4</ele>
        <time>2021-10-08T09:27:24Z</time>
      </trkpt>
      <trkpt lat="49.22042" lon="1.39702">
        <ele>33.4</ele>
        <time>2021-10-08T09:27:31Z</time>
      </trkpt>
      <trkpt lat="49.22046" lon="1.39709">
        <ele>34.2</ele>
        <time>2021-10-08T09:27:35Z</time>
      </trkpt>
      <trkpt lat="49.22047" lon="1.39711">
        <ele>34.4</ele>
        <time>2021-10-08T09:27:36Z</time>
      </trkpt>
      <trkpt lat="49.2205" lon="1.39715">
        <ele>34.8</ele>
        <time>2021-10-08T09:27:38Z</time>
      </trkpt>
      <trkpt lat="49.22053" lon="1.39719">
        <ele>35.6</ele>
        <time>2021-10-08T09:27:40Z</time>
      </trkpt>
      <trkpt lat="49.22063" lon="1.39732">
        <ele>36.6</ele>
        <time>2021-10-08T09:27:46Z</time>
      </trkpt>
      <trkpt lat="49.22075" lon="1.39746">
        <ele>37</ele>
        <time>2021-10-08T09:27:51Z</time>
      </trkpt>
      <trkpt lat="49.22093" lon="1.39762">
        <ele>37</ele>
        <time>2021-10-08T09:27:56Z</time>
      </trkpt>
      <trkpt lat="49.2211" lon="1.3978">
        <ele>36.8</ele>
        <time>2021-10-08T09:28:02Z</time>
      </trkpt>
      <trkpt lat="49.22118" lon="1.39787">
        <ele>36.6</ele>
        <time>2021-10-08T09:28:05Z</time>
      </trkpt>
      <trkpt lat="49.22125" lon="1.39791">
        <ele>36.6</ele>
        <time>2021-10-08T09:28:07Z</time>
      </trkpt>
      <trkpt lat="49.22138" lon="1.39798">
        <ele>36.8</ele>
        <time>2021-10-08T09:28:11Z</time>
      </trkpt>
      <trkpt lat="49.22159" lon="1.39809">
        <ele>37.4</ele>
        <time>2021-10-08T09:28:17Z</time>
      </trkpt>
      <trkpt lat="49.22176" lon="1.39824">
        <ele>37.6</ele>
        <time>2021-10-08T09:28:22Z</time>
      </trkpt>
      <trkpt lat="49.22179" lon="1.39828">
        <ele>38</ele>
        <time>2021-10-08T09:28:23Z</time>
      </trkpt>
      <trkpt lat="49.22194" lon="1.39844">
        <ele>38.4</ele>
        <time>2021-10-08T09:28:28Z</time>
      </trkpt>
      <trkpt lat="49.2221" lon="1.39858">
        <ele>38.6</ele>
        <time>2021-10-08T09:28:33Z</time>
      </trkpt>
      <trkpt lat="49.22214" lon="1.39862">
        <ele>38.8</ele>
        <time>2021-10-08T09:28:34Z</time>
      </trkpt>
      <trkpt lat="49.22227" lon="1.39872">
        <ele>39</ele>
        <time>2021-10-08T09:28:37Z</time>
      </trkpt>
      <trkpt lat="49.22237" lon="1.39878">
        <ele>39</ele>
        <time>2021-10-08T09:28:39Z</time>
      </trkpt>
      <trkpt lat="49.22248" lon="1.39881">
        <ele>39</ele>
        <time>2021-10-08T09:28:41Z</time>
      </trkpt>
      <trkpt lat="49.22264" lon="1.39893">
        <ele>38.6</ele>
        <time>2021-10-08T09:28:45Z</time>
      </trkpt>
      <trkpt lat="49.22269" lon="1.39896">
        <ele>38.4</ele>
        <time>2021-10-08T09:28:46Z</time>
      </trkpt>
      <trkpt lat="49.22277" lon="1.399">
        <ele>37.8</ele>
        <time>2021-10-08T09:28:48Z</time>
      </trkpt>
      <trkpt lat="49.22285" lon="1.39902">
        <ele>37.2</ele>
        <time>2021-10-08T09:28:50Z</time>
      </trkpt>
      <trkpt lat="49.22299" lon="1.39908">
        <ele>37</ele>
        <time>2021-10-08T09:28:53Z</time>
      </trkpt>
      <trkpt lat="49.22305" lon="1.3991">
        <ele>36.8</ele>
        <time>2021-10-08T09:28:54Z</time>
      </trkpt>
      <trkpt lat="49.22318" lon="1.39916">
        <ele>36.6</ele>
        <time>2021-10-08T09:28:56Z</time>
      </trkpt>
      <trkpt lat="49.22338" lon="1.39923">
        <ele>36.6</ele>
        <time>2021-10-08T09:28:59Z</time>
      </trkpt>
      <trkpt lat="49.22359" lon="1.39933">
        <ele>36.4</ele>
        <time>2021-10-08T09:29:02Z</time>
      </trkpt>
      <trkpt lat="49.22371" lon="1.39941">
        <ele>35.2</ele>
        <time>2021-10-08T09:29:04Z</time>
      </trkpt>
      <trkpt lat="49.22381" lon="1.39948">
        <ele>33.8</ele>
        <time>2021-10-08T09:29:06Z</time>
      </trkpt>
      <trkpt lat="49.22393" lon="1.39956">
        <ele>33.2</ele>
        <time>2021-10-08T09:29:09Z</time>
      </trkpt>
      <trkpt lat="49.22424" lon="1.3997">
        <ele>33.2</ele>
        <time>2021-10-08T09:29:16Z</time>
      </trkpt>
      <trkpt lat="49.22433" lon="1.39974">
        <ele>33.4</ele>
        <time>2021-10-08T09:29:18Z</time>
      </trkpt>
      <trkpt lat="49.22449" lon="1.39979">
        <ele>33.6</ele>
        <time>2021-10-08T09:29:21Z</time>
      </trkpt>
      <trkpt lat="49.22469" lon="1.3999">
        <ele>33.6</ele>
        <time>2021-10-08T09:29:25Z</time>
      </trkpt>
      <trkpt lat="49.22477" lon="1.39983">
        <ele>33.6</ele>
        <time>2021-10-08T09:29:28Z</time>
      </trkpt>
      <trkpt lat="49.22487" lon="1.39969">
        <ele>32.8</ele>
        <time>2021-10-08T09:29:31Z</time>
      </trkpt>
      <trkpt lat="49.22492" lon="1.39959">
        <ele>31.6</ele>
        <time>2021-10-08T09:29:33Z</time>
      </trkpt>
      <trkpt lat="49.22499" lon="1.39945">
        <ele>30</ele>
        <time>2021-10-08T09:29:37Z</time>
      </trkpt>
      <trkpt lat="49.22503" lon="1.39945">
        <ele>28</ele>
        <time>2021-10-08T09:29:39Z</time>
      </trkpt>
      <trkpt lat="49.22506" lon="1.39946">
        <ele>27</ele>
        <time>2021-10-08T09:29:40Z</time>
      </trkpt>
      <trkpt lat="49.22508" lon="1.39947">
        <ele>26</ele>
        <time>2021-10-08T09:29:41Z</time>
      </trkpt>
      <trkpt lat="49.22511" lon="1.39948">
        <ele>25</ele>
        <time>2021-10-08T09:29:42Z</time>
      </trkpt>
      <trkpt lat="49.22514" lon="1.3995">
        <ele>24.2</ele>
        <time>2021-10-08T09:29:43Z</time>
      </trkpt>
      <trkpt lat="49.22521" lon="1.39953">
        <ele>22.8</ele>
        <time>2021-10-08T09:29:45Z</time>
      </trkpt>
      <trkpt lat="49.22525" lon="1.39954">
        <ele>22.4</ele>
        <time>2021-10-08T09:29:46Z</time>
      </trkpt>
      <trkpt lat="49.22532" lon="1.39957">
        <ele>21.8</ele>
        <time>2021-10-08T09:29:48Z</time>
      </trkpt>
      <trkpt lat="49.22545" lon="1.39963">
        <ele>21.4</ele>
        <time>2021-10-08T09:29:51Z</time>
      </trkpt>
      <trkpt lat="49.22558" lon="1.39973">
        <ele>21.2</ele>
        <time>2021-10-08T09:29:54Z</time>
      </trkpt>
      <trkpt lat="49.22567" lon="1.39983">
        <ele>21.2</ele>
        <time>2021-10-08T09:29:56Z</time>
      </trkpt>
      <trkpt lat="49.22608" lon="1.40018">
        <ele>20.6</ele>
        <time>2021-10-08T09:30:04Z</time>
      </trkpt>
      <trkpt lat="49.22617" lon="1.40027">
        <ele>20.6</ele>
        <time>2021-10-08T09:30:06Z</time>
      </trkpt>
      <trkpt lat="49.22635" lon="1.40045">
        <ele>20.6</ele>
        <time>2021-10-08T09:30:10Z</time>
      </trkpt>
      <trkpt lat="49.22667" lon="1.40079">
        <ele>21</ele>
        <time>2021-10-08T09:30:18Z</time>
      </trkpt>
      <trkpt lat="49.22679" lon="1.4009">
        <ele>21.6</ele>
        <time>2021-10-08T09:30:21Z</time>
      </trkpt>
      <trkpt lat="49.22699" lon="1.40103">
        <ele>22.8</ele>
        <time>2021-10-08T09:30:26Z</time>
      </trkpt>
      <trkpt lat="49.22704" lon="1.40107">
        <ele>23.6</ele>
        <time>2021-10-08T09:30:29Z</time>
      </trkpt>
      <trkpt lat="49.22704" lon="1.40107">
        <ele>23.8</ele>
        <time>2021-10-08T09:30:30Z</time>
      </trkpt>
      <trkpt lat="49.22707" lon="1.40106">
        <ele>25.8</ele>
        <time>2021-10-08T09:31:24Z</time>
      </trkpt>
      <trkpt lat="49.22711" lon="1.40106">
        <ele>25.8</ele>
        <time>2021-10-08T09:31:26Z</time>
      </trkpt>
      <trkpt lat="49.22722" lon="1.40105">
        <ele>25.6</ele>
        <time>2021-10-08T09:31:29Z</time>
      </trkpt>
      <trkpt lat="49.22727" lon="1.40104">
        <ele>25.6</ele>
        <time>2021-10-08T09:31:30Z</time>
      </trkpt>
      <trkpt lat="49.22761" lon="1.40096">
        <ele>25</ele>
        <time>2021-10-08T09:31:36Z</time>
      </trkpt>
      <trkpt lat="49.22781" lon="1.40093">
        <ele>24.4</ele>
        <time>2021-10-08T09:31:39Z</time>
      </trkpt>
      <trkpt lat="49.22801" lon="1.40089">
        <ele>23.2</ele>
        <time>2021-10-08T09:31:42Z</time>
      </trkpt>
      <trkpt lat="49.22816" lon="1.40085">
        <ele>22.6</ele>
        <time>2021-10-08T09:31:44Z</time>
      </trkpt>
      <trkpt lat="49.2283" lon="1.40083">
        <ele>22</ele>
        <time>2021-10-08T09:31:46Z</time>
      </trkpt>
      <trkpt lat="49.22861" lon="1.40082">
        <ele>21</ele>
        <time>2021-10-08T09:31:50Z</time>
      </trkpt>
      <trkpt lat="49.22869" lon="1.40083">
        <ele>20.6</ele>
        <time>2021-10-08T09:31:51Z</time>
      </trkpt>
      <trkpt lat="49.22891" lon="1.40089">
        <ele>19.8</ele>
        <time>2021-10-08T09:31:54Z</time>
      </trkpt>
      <trkpt lat="49.22913" lon="1.40095">
        <ele>18.8</ele>
        <time>2021-10-08T09:31:57Z</time>
      </trkpt>
      <trkpt lat="49.2292" lon="1.40097">
        <ele>18.6</ele>
        <time>2021-10-08T09:31:58Z</time>
      </trkpt>
      <trkpt lat="49.22965" lon="1.4011">
        <ele>18.2</ele>
        <time>2021-10-08T09:32:05Z</time>
      </trkpt>
      <trkpt lat="49.23007" lon="1.40118">
        <ele>18.2</ele>
        <time>2021-10-08T09:32:12Z</time>
      </trkpt>
      <trkpt lat="49.23056" lon="1.40131">
        <ele>18.4</ele>
        <time>2021-10-08T09:32:20Z</time>
      </trkpt>
      <trkpt lat="49.23103" lon="1.40146">
        <ele>17.6</ele>
        <time>2021-10-08T09:32:28Z</time>
      </trkpt>
      <trkpt lat="49.23137" lon="1.40158">
        <ele>17.6</ele>
        <time>2021-10-08T09:32:34Z</time>
      </trkpt>
      <trkpt lat="49.23177" lon="1.40164">
        <ele>17.8</ele>
        <time>2021-10-08T09:32:41Z</time>
      </trkpt>
      <trkpt lat="49.23214" lon="1.40166">
        <ele>18.2</ele>
        <time>2021-10-08T09:32:47Z</time>
      </trkpt>
      <trkpt lat="49.23257" lon="1.40169">
        <ele>18.2</ele>
        <time>2021-10-08T09:32:55Z</time>
      </trkpt>
      <trkpt lat="49.23276" lon="1.4017">
        <ele>18.2</ele>
        <time>2021-10-08T09:33:00Z</time>
      </trkpt>
      <trkpt lat="49.23281" lon="1.40172">
        <ele>18.4</ele>
        <time>2021-10-08T09:33:02Z</time>
      </trkpt>
      <trkpt lat="49.23282" lon="1.40173">
        <ele>18.6</ele>
        <time>2021-10-08T09:33:03Z</time>
      </trkpt>
      <trkpt lat="49.23277" lon="1.40175">
        <ele>18.8</ele>
        <time>2021-10-08T09:33:06Z</time>
      </trkpt>
      <trkpt lat="49.23265" lon="1.40175">
        <ele>19.4</ele>
        <time>2021-10-08T09:33:10Z</time>
      </trkpt>
      <trkpt lat="49.23262" lon="1.40176">
        <ele>19.6</ele>
        <time>2021-10-08T09:33:11Z</time>
      </trkpt>
      <trkpt lat="49.23255" lon="1.4018">
        <ele>20.6</ele>
        <time>2021-10-08T09:33:14Z</time>
      </trkpt>
      <trkpt lat="49.23253" lon="1.40184">
        <ele>20.6</ele>
        <time>2021-10-08T09:33:15Z</time>
      </trkpt>
      <trkpt lat="49.23247" lon="1.40215">
        <ele>21.4</ele>
        <time>2021-10-08T09:33:23Z</time>
      </trkpt>
      <trkpt lat="49.23247" lon="1.40218">
        <ele>21.6</ele>
        <time>2021-10-08T09:33:24Z</time>
      </trkpt>
      <trkpt lat="49.23245" lon="1.40233">
        <ele>22.6</ele>
        <time>2021-10-08T09:33:28Z</time>
      </trkpt>
      <trkpt lat="49.23243" lon="1.40244">
        <ele>23.6</ele>
        <time>2021-10-08T09:33:31Z</time>
      </trkpt>
      <trkpt lat="49.23242" lon="1.40248">
        <ele>24</ele>
        <time>2021-10-08T09:33:32Z</time>
      </trkpt>
      <trkpt lat="49.2324" lon="1.40259">
        <ele>24.8</ele>
        <time>2021-10-08T09:33:35Z</time>
      </trkpt>
      <trkpt lat="49.23236" lon="1.40274">
        <ele>25.8</ele>
        <time>2021-10-08T09:33:39Z</time>
      </trkpt>
      <trkpt lat="49.23234" lon="1.40281">
        <ele>26.2</ele>
        <time>2021-10-08T09:33:41Z</time>
      </trkpt>
      <trkpt lat="49.23231" lon="1.40299">
        <ele>27</ele>
        <time>2021-10-08T09:33:46Z</time>
      </trkpt>
      <trkpt lat="49.23229" lon="1.40306">
        <ele>27.4</ele>
        <time>2021-10-08T09:33:48Z</time>
      </trkpt>
      <trkpt lat="49.23229" lon="1.40309">
        <ele>28</ele>
        <time>2021-10-08T09:33:49Z</time>
      </trkpt>
      <trkpt lat="49.23227" lon="1.4032">
        <ele>29</ele>
        <time>2021-10-08T09:33:52Z</time>
      </trkpt>
      <trkpt lat="49.23224" lon="1.40331">
        <ele>30</ele>
        <time>2021-10-08T09:33:55Z</time>
      </trkpt>
      <trkpt lat="49.23222" lon="1.40346">
        <ele>31.2</ele>
        <time>2021-10-08T09:33:59Z</time>
      </trkpt>
      <trkpt lat="49.23219" lon="1.40364">
        <ele>32.2</ele>
        <time>2021-10-08T09:34:04Z</time>
      </trkpt>
      <trkpt lat="49.23216" lon="1.40378">
        <ele>32.6</ele>
        <time>2021-10-08T09:34:08Z</time>
      </trkpt>
      <trkpt lat="49.23214" lon="1.40387">
        <ele>33</ele>
        <time>2021-10-08T09:34:11Z</time>
      </trkpt>
      <trkpt lat="49.23214" lon="1.4039">
        <ele>33.2</ele>
        <time>2021-10-08T09:34:12Z</time>
      </trkpt>
      <trkpt lat="49.23211" lon="1.40403">
        <ele>34.2</ele>
        <time>2021-10-08T09:34:16Z</time>
      </trkpt>
      <trkpt lat="49.2321" lon="1.4041">
        <ele>35</ele>
        <time>2021-10-08T09:34:18Z</time>
      </trkpt>
      <trkpt lat="49.23208" lon="1.40416">
        <ele>35.6</ele>
        <time>2021-10-08T09:34:20Z</time>
      </trkpt>
      <trkpt lat="49.23203" lon="1.40435">
        <ele>36.4</ele>
        <time>2021-10-08T09:34:26Z</time>
      </trkpt>
      <trkpt lat="49.23202" lon="1.40439">
        <ele>36.6</ele>
        <time>2021-10-08T09:34:27Z</time>
      </trkpt>
      <trkpt lat="49.23195" lon="1.4046">
        <ele>37.6</ele>
        <time>2021-10-08T09:34:34Z</time>
      </trkpt>
      <trkpt lat="49.23191" lon="1.40469">
        <ele>38</ele>
        <time>2021-10-08T09:34:37Z</time>
      </trkpt>
      <trkpt lat="49.23187" lon="1.40474">
        <ele>38.6</ele>
        <time>2021-10-08T09:34:39Z</time>
      </trkpt>
      <trkpt lat="49.23178" lon="1.40489">
        <ele>39.8</ele>
        <time>2021-10-08T09:34:45Z</time>
      </trkpt>
      <trkpt lat="49.23171" lon="1.40497">
        <ele>40.8</ele>
        <time>2021-10-08T09:34:49Z</time>
      </trkpt>
      <trkpt lat="49.23162" lon="1.40505">
        <ele>41.6</ele>
        <time>2021-10-08T09:34:54Z</time>
      </trkpt>
      <trkpt lat="49.23159" lon="1.40509">
        <ele>42</ele>
        <time>2021-10-08T09:34:56Z</time>
      </trkpt>
      <trkpt lat="49.23151" lon="1.40515">
        <ele>42.8</ele>
        <time>2021-10-08T09:35:01Z</time>
      </trkpt>
      <trkpt lat="49.23149" lon="1.40516">
        <ele>43</ele>
        <time>2021-10-08T09:35:02Z</time>
      </trkpt>
      <trkpt lat="49.23142" lon="1.40521">
        <ele>44</ele>
        <time>2021-10-08T09:35:06Z</time>
      </trkpt>
      <trkpt lat="49.23135" lon="1.40525">
        <ele>45</ele>
        <time>2021-10-08T09:35:10Z</time>
      </trkpt>
      <trkpt lat="49.23133" lon="1.40526">
        <ele>45.4</ele>
        <time>2021-10-08T09:35:11Z</time>
      </trkpt>
      <trkpt lat="49.23128" lon="1.4053">
        <ele>46.2</ele>
        <time>2021-10-08T09:35:14Z</time>
      </trkpt>
      <trkpt lat="49.23118" lon="1.40537">
        <ele>47.2</ele>
        <time>2021-10-08T09:35:20Z</time>
      </trkpt>
      <trkpt lat="49.23107" lon="1.40544">
        <ele>48.4</ele>
        <time>2021-10-08T09:35:26Z</time>
      </trkpt>
      <trkpt lat="49.23102" lon="1.40548">
        <ele>48.6</ele>
        <time>2021-10-08T09:35:29Z</time>
      </trkpt>
      <trkpt lat="49.23097" lon="1.40551">
        <ele>49.2</ele>
        <time>2021-10-08T09:35:32Z</time>
      </trkpt>
      <trkpt lat="49.23091" lon="1.40557">
        <ele>50</ele>
        <time>2021-10-08T09:35:36Z</time>
      </trkpt>
      <trkpt lat="49.2309" lon="1.40559">
        <ele>50.2</ele>
        <time>2021-10-08T09:35:37Z</time>
      </trkpt>
      <trkpt lat="49.23084" lon="1.40565">
        <ele>51.4</ele>
        <time>2021-10-08T09:35:41Z</time>
      </trkpt>
      <trkpt lat="49.23081" lon="1.40569">
        <ele>52.2</ele>
        <time>2021-10-08T09:35:43Z</time>
      </trkpt>
      <trkpt lat="49.23079" lon="1.4057">
        <ele>52.4</ele>
        <time>2021-10-08T09:35:44Z</time>
      </trkpt>
      <trkpt lat="49.23072" lon="1.40578">
        <ele>53.6</ele>
        <time>2021-10-08T09:35:49Z</time>
      </trkpt>
      <trkpt lat="49.2307" lon="1.4058">
        <ele>53.8</ele>
        <time>2021-10-08T09:35:50Z</time>
      </trkpt>
      <trkpt lat="49.23065" lon="1.40587">
        <ele>54.6</ele>
        <time>2021-10-08T09:35:54Z</time>
      </trkpt>
      <trkpt lat="49.2306" lon="1.40592">
        <ele>55.4</ele>
        <time>2021-10-08T09:35:57Z</time>
      </trkpt>
      <trkpt lat="49.23059" lon="1.40594">
        <ele>55.8</ele>
        <time>2021-10-08T09:35:58Z</time>
      </trkpt>
      <trkpt lat="49.23054" lon="1.40602">
        <ele>56.4</ele>
        <time>2021-10-08T09:36:02Z</time>
      </trkpt>
      <trkpt lat="49.23053" lon="1.40604">
        <ele>56.8</ele>
        <time>2021-10-08T09:36:03Z</time>
      </trkpt>
      <trkpt lat="49.23048" lon="1.40613">
        <ele>58</ele>
        <time>2021-10-08T09:36:07Z</time>
      </trkpt>
      <trkpt lat="49.23044" lon="1.4062">
        <ele>58.6</ele>
        <time>2021-10-08T09:36:10Z</time>
      </trkpt>
      <trkpt lat="49.23042" lon="1.40625">
        <ele>59.2</ele>
        <time>2021-10-08T09:36:12Z</time>
      </trkpt>
      <trkpt lat="49.23037" lon="1.40638">
        <ele>60.2</ele>
        <time>2021-10-08T09:36:17Z</time>
      </trkpt>
      <trkpt lat="49.23037" lon="1.4064">
        <ele>60.2</ele>
        <time>2021-10-08T09:36:18Z</time>
      </trkpt>
      <trkpt lat="49.23032" lon="1.40656">
        <ele>61.2</ele>
        <time>2021-10-08T09:36:24Z</time>
      </trkpt>
      <trkpt lat="49.23032" lon="1.40658">
        <ele>61.4</ele>
        <time>2021-10-08T09:36:25Z</time>
      </trkpt>
      <trkpt lat="49.23029" lon="1.4067">
        <ele>62.4</ele>
        <time>2021-10-08T09:36:29Z</time>
      </trkpt>
      <trkpt lat="49.23029" lon="1.40673">
        <ele>62.6</ele>
        <time>2021-10-08T09:36:30Z</time>
      </trkpt>
      <trkpt lat="49.23028" lon="1.40686">
        <ele>63.4</ele>
        <time>2021-10-08T09:36:34Z</time>
      </trkpt>
      <trkpt lat="49.23027" lon="1.40701">
        <ele>64.4</ele>
        <time>2021-10-08T09:36:39Z</time>
      </trkpt>
      <trkpt lat="49.23027" lon="1.40704">
        <ele>64.8</ele>
        <time>2021-10-08T09:36:40Z</time>
      </trkpt>
      <trkpt lat="49.23028" lon="1.40713">
        <ele>65</ele>
        <time>2021-10-08T09:36:43Z</time>
      </trkpt>
      <trkpt lat="49.2303" lon="1.40728">
        <ele>65.6</ele>
        <time>2021-10-08T09:36:48Z</time>
      </trkpt>
      <trkpt lat="49.23031" lon="1.40734">
        <ele>65.8</ele>
        <time>2021-10-08T09:36:50Z</time>
      </trkpt>
      <trkpt lat="49.23032" lon="1.40747">
        <ele>66.6</ele>
        <time>2021-10-08T09:36:55Z</time>
      </trkpt>
      <trkpt lat="49.23033" lon="1.40753">
        <ele>66.8</ele>
        <time>2021-10-08T09:36:57Z</time>
      </trkpt>
      <trkpt lat="49.23036" lon="1.40772">
        <ele>67.6</ele>
        <time>2021-10-08T09:37:03Z</time>
      </trkpt>
      <trkpt lat="49.23037" lon="1.40778">
        <ele>67.8</ele>
        <time>2021-10-08T09:37:05Z</time>
      </trkpt>
      <trkpt lat="49.2304" lon="1.4079">
        <ele>68.6</ele>
        <time>2021-10-08T09:37:09Z</time>
      </trkpt>
      <trkpt lat="49.23041" lon="1.40795">
        <ele>68.8</ele>
        <time>2021-10-08T09:37:11Z</time>
      </trkpt>
      <trkpt lat="49.23045" lon="1.40812">
        <ele>69.8</ele>
        <time>2021-10-08T09:37:17Z</time>
      </trkpt>
      <trkpt lat="49.23046" lon="1.40817">
        <ele>70</ele>
        <time>2021-10-08T09:37:19Z</time>
      </trkpt>
      <trkpt lat="49.23047" lon="1.40821">
        <ele>70.4</ele>
        <time>2021-10-08T09:37:21Z</time>
      </trkpt>
      <trkpt lat="49.23047" lon="1.40827">
        <ele>70.6</ele>
        <time>2021-10-08T09:37:24Z</time>
      </trkpt>
      <trkpt lat="49.23048" lon="1.4083">
        <ele>70.8</ele>
        <time>2021-10-08T09:37:25Z</time>
      </trkpt>
      <trkpt lat="49.23049" lon="1.40832">
        <ele>70.8</ele>
        <time>2021-10-08T09:37:26Z</time>
      </trkpt>
      <trkpt lat="49.23049" lon="1.40839">
        <ele>71.4</ele>
        <time>2021-10-08T09:37:29Z</time>
      </trkpt>
      <trkpt lat="49.23049" lon="1.40845">
        <ele>71.6</ele>
        <time>2021-10-08T09:37:31Z</time>
      </trkpt>
      <trkpt lat="49.23051" lon="1.40854">
        <ele>72.2</ele>
        <time>2021-10-08T09:37:35Z</time>
      </trkpt>
      <trkpt lat="49.23052" lon="1.40859">
        <ele>72.8</ele>
        <time>2021-10-08T09:37:37Z</time>
      </trkpt>
      <trkpt lat="49.23054" lon="1.40866">
        <ele>73.4</ele>
        <time>2021-10-08T09:37:40Z</time>
      </trkpt>
      <trkpt lat="49.23056" lon="1.40875">
        <ele>73.8</ele>
        <time>2021-10-08T09:37:43Z</time>
      </trkpt>
      <trkpt lat="49.23058" lon="1.40883">
        <ele>74.4</ele>
        <time>2021-10-08T09:37:46Z</time>
      </trkpt>
      <trkpt lat="49.2306" lon="1.40893">
        <ele>75</ele>
        <time>2021-10-08T09:37:50Z</time>
      </trkpt>
      <trkpt lat="49.23063" lon="1.40901">
        <ele>75.6</ele>
        <time>2021-10-08T09:37:53Z</time>
      </trkpt>
      <trkpt lat="49.23064" lon="1.40909">
        <ele>76</ele>
        <time>2021-10-08T09:37:56Z</time>
      </trkpt>
      <trkpt lat="49.23066" lon="1.40918">
        <ele>76.6</ele>
        <time>2021-10-08T09:37:59Z</time>
      </trkpt>
      <trkpt lat="49.23066" lon="1.40922">
        <ele>77</ele>
        <time>2021-10-08T09:38:01Z</time>
      </trkpt>
      <trkpt lat="49.23068" lon="1.4093">
        <ele>77.6</ele>
        <time>2021-10-08T09:38:04Z</time>
      </trkpt>
      <trkpt lat="49.23069" lon="1.40937">
        <ele>78.2</ele>
        <time>2021-10-08T09:38:07Z</time>
      </trkpt>
      <trkpt lat="49.2307" lon="1.40944">
        <ele>78.8</ele>
        <time>2021-10-08T09:38:10Z</time>
      </trkpt>
      <trkpt lat="49.2307" lon="1.40947">
        <ele>79</ele>
        <time>2021-10-08T09:38:11Z</time>
      </trkpt>
      <trkpt lat="49.23071" lon="1.4095">
        <ele>79.2</ele>
        <time>2021-10-08T09:38:12Z</time>
      </trkpt>
      <trkpt lat="49.23074" lon="1.40961">
        <ele>80</ele>
        <time>2021-10-08T09:38:16Z</time>
      </trkpt>
      <trkpt lat="49.23074" lon="1.40963">
        <ele>80.2</ele>
        <time>2021-10-08T09:38:17Z</time>
      </trkpt>
      <trkpt lat="49.23074" lon="1.40966">
        <ele>80.4</ele>
        <time>2021-10-08T09:38:18Z</time>
      </trkpt>
      <trkpt lat="49.23076" lon="1.40975">
        <ele>80.8</ele>
        <time>2021-10-08T09:38:21Z</time>
      </trkpt>
      <trkpt lat="49.23077" lon="1.40982">
        <ele>81.2</ele>
        <time>2021-10-08T09:38:23Z</time>
      </trkpt>
      <trkpt lat="49.23078" lon="1.40985">
        <ele>81.4</ele>
        <time>2021-10-08T09:38:24Z</time>
      </trkpt>
      <trkpt lat="49.2308" lon="1.40998">
        <ele>82</ele>
        <time>2021-10-08T09:38:28Z</time>
      </trkpt>
      <trkpt lat="49.2308" lon="1.41005">
        <ele>82.6</ele>
        <time>2021-10-08T09:38:30Z</time>
      </trkpt>
      <trkpt lat="49.2308" lon="1.41013">
        <ele>83.4</ele>
        <time>2021-10-08T09:38:33Z</time>
      </trkpt>
      <trkpt lat="49.2308" lon="1.41019">
        <ele>83.8</ele>
        <time>2021-10-08T09:38:35Z</time>
      </trkpt>
      <trkpt lat="49.23083" lon="1.41027">
        <ele>84.2</ele>
        <time>2021-10-08T09:38:38Z</time>
      </trkpt>
      <trkpt lat="49.23085" lon="1.41036">
        <ele>84.8</ele>
        <time>2021-10-08T09:38:41Z</time>
      </trkpt>
      <trkpt lat="49.23088" lon="1.41049">
        <ele>85.8</ele>
        <time>2021-10-08T09:38:45Z</time>
      </trkpt>
      <trkpt lat="49.2309" lon="1.41054">
        <ele>86</ele>
        <time>2021-10-08T09:38:47Z</time>
      </trkpt>
      <trkpt lat="49.2309" lon="1.41057">
        <ele>86.2</ele>
        <time>2021-10-08T09:38:48Z</time>
      </trkpt>
      <trkpt lat="49.2309" lon="1.41066">
        <ele>86.8</ele>
        <time>2021-10-08T09:38:51Z</time>
      </trkpt>
      <trkpt lat="49.23092" lon="1.41072">
        <ele>87.4</ele>
        <time>2021-10-08T09:38:53Z</time>
      </trkpt>
      <trkpt lat="49.23094" lon="1.4108">
        <ele>88</ele>
        <time>2021-10-08T09:38:56Z</time>
      </trkpt>
      <trkpt lat="49.23097" lon="1.4109">
        <ele>89</ele>
        <time>2021-10-08T09:39:00Z</time>
      </trkpt>
      <trkpt lat="49.23098" lon="1.41092">
        <ele>89</ele>
        <time>2021-10-08T09:39:01Z</time>
      </trkpt>
      <trkpt lat="49.231" lon="1.41102">
        <ele>90</ele>
        <time>2021-10-08T09:39:06Z</time>
      </trkpt>
      <trkpt lat="49.231" lon="1.41104">
        <ele>90.2</ele>
        <time>2021-10-08T09:39:07Z</time>
      </trkpt>
      <trkpt lat="49.23103" lon="1.41112">
        <ele>91.2</ele>
        <time>2021-10-08T09:39:10Z</time>
      </trkpt>
      <trkpt lat="49.23106" lon="1.41121">
        <ele>92.2</ele>
        <time>2021-10-08T09:39:14Z</time>
      </trkpt>
      <trkpt lat="49.2311" lon="1.41132">
        <ele>93.2</ele>
        <time>2021-10-08T09:39:19Z</time>
      </trkpt>
      <trkpt lat="49.23112" lon="1.41136">
        <ele>93.8</ele>
        <time>2021-10-08T09:39:21Z</time>
      </trkpt>
      <trkpt lat="49.23114" lon="1.41141">
        <ele>94.2</ele>
        <time>2021-10-08T09:39:23Z</time>
      </trkpt>
      <trkpt lat="49.23117" lon="1.4115">
        <ele>95</ele>
        <time>2021-10-08T09:39:27Z</time>
      </trkpt>
      <trkpt lat="49.23118" lon="1.41153">
        <ele>95.2</ele>
        <time>2021-10-08T09:39:28Z</time>
      </trkpt>
      <trkpt lat="49.23119" lon="1.4116">
        <ele>96.4</ele>
        <time>2021-10-08T09:39:32Z</time>
      </trkpt>
      <trkpt lat="49.23119" lon="1.41162">
        <ele>96.6</ele>
        <time>2021-10-08T09:39:33Z</time>
      </trkpt>
      <trkpt lat="49.23119" lon="1.41164">
        <ele>96.8</ele>
        <time>2021-10-08T09:39:34Z</time>
      </trkpt>
      <trkpt lat="49.2312" lon="1.41166">
        <ele>97</ele>
        <time>2021-10-08T09:39:35Z</time>
      </trkpt>
      <trkpt lat="49.23121" lon="1.41171">
        <ele>97.6</ele>
        <time>2021-10-08T09:39:38Z</time>
      </trkpt>
      <trkpt lat="49.23124" lon="1.41177">
        <ele>98</ele>
        <time>2021-10-08T09:39:41Z</time>
      </trkpt>
      <trkpt lat="49.23125" lon="1.4118">
        <ele>98.6</ele>
        <time>2021-10-08T09:39:43Z</time>
      </trkpt>
      <trkpt lat="49.23127" lon="1.41185">
        <ele>99.4</ele>
        <time>2021-10-08T09:39:46Z</time>
      </trkpt>
      <trkpt lat="49.23128" lon="1.41187">
        <ele>99.8</ele>
        <time>2021-10-08T09:39:47Z</time>
      </trkpt>
      <trkpt lat="49.2313" lon="1.41189">
        <ele>100</ele>
        <time>2021-10-08T09:39:48Z</time>
      </trkpt>
      <trkpt lat="49.23133" lon="1.41195">
        <ele>100.4</ele>
        <time>2021-10-08T09:39:51Z</time>
      </trkpt>
      <trkpt lat="49.23134" lon="1.41197">
        <ele>100.8</ele>
        <time>2021-10-08T09:39:52Z</time>
      </trkpt>
      <trkpt lat="49.23137" lon="1.41202">
        <ele>101.2</ele>
        <time>2021-10-08T09:39:55Z</time>
      </trkpt>
      <trkpt lat="49.23139" lon="1.41206">
        <ele>101.8</ele>
        <time>2021-10-08T09:39:57Z</time>
      </trkpt>
      <trkpt lat="49.23143" lon="1.41212">
        <ele>102.8</ele>
        <time>2021-10-08T09:40:01Z</time>
      </trkpt>
      <trkpt lat="49.23144" lon="1.41214">
        <ele>103</ele>
        <time>2021-10-08T09:40:02Z</time>
      </trkpt>
      <trkpt lat="49.23148" lon="1.41221">
        <ele>103.8</ele>
        <time>2021-10-08T09:40:07Z</time>
      </trkpt>
      <trkpt lat="49.23151" lon="1.41224">
        <ele>104.6</ele>
        <time>2021-10-08T09:40:10Z</time>
      </trkpt>
      <trkpt lat="49.23153" lon="1.41226">
        <ele>104.8</ele>
        <time>2021-10-08T09:40:11Z</time>
      </trkpt>
      <trkpt lat="49.23154" lon="1.41229">
        <ele>105.4</ele>
        <time>2021-10-08T09:40:13Z</time>
      </trkpt>
      <trkpt lat="49.23155" lon="1.41235">
        <ele>106</ele>
        <time>2021-10-08T09:40:16Z</time>
      </trkpt>
      <trkpt lat="49.23156" lon="1.41237">
        <ele>106.2</ele>
        <time>2021-10-08T09:40:17Z</time>
      </trkpt>
      <trkpt lat="49.23158" lon="1.41244">
        <ele>107</ele>
        <time>2021-10-08T09:40:22Z</time>
      </trkpt>
      <trkpt lat="49.23159" lon="1.41246">
        <ele>107.4</ele>
        <time>2021-10-08T09:40:23Z</time>
      </trkpt>
      <trkpt lat="49.23161" lon="1.41252">
        <ele>108</ele>
        <time>2021-10-08T09:40:27Z</time>
      </trkpt>
      <trkpt lat="49.23163" lon="1.41258">
        <ele>109</ele>
        <time>2021-10-08T09:40:30Z</time>
      </trkpt>
      <trkpt lat="49.23165" lon="1.41265">
        <ele>110</ele>
        <time>2021-10-08T09:40:34Z</time>
      </trkpt>
      <trkpt lat="49.23166" lon="1.41268">
        <ele>110.2</ele>
        <time>2021-10-08T09:40:35Z</time>
      </trkpt>
      <trkpt lat="49.2317" lon="1.41275">
        <ele>111.4</ele>
        <time>2021-10-08T09:40:39Z</time>
      </trkpt>
      <trkpt lat="49.23174" lon="1.41284">
        <ele>112.6</ele>
        <time>2021-10-08T09:40:44Z</time>
      </trkpt>
      <trkpt lat="49.23174" lon="1.41288">
        <ele>113</ele>
        <time>2021-10-08T09:40:46Z</time>
      </trkpt>
      <trkpt lat="49.23177" lon="1.41293">
        <ele>113.8</ele>
        <time>2021-10-08T09:40:49Z</time>
      </trkpt>
      <trkpt lat="49.23181" lon="1.41299">
        <ele>114.8</ele>
        <time>2021-10-08T09:40:53Z</time>
      </trkpt>
      <trkpt lat="49.23182" lon="1.413">
        <ele>115.2</ele>
        <time>2021-10-08T09:40:54Z</time>
      </trkpt>
      <trkpt lat="49.23184" lon="1.41303">
        <ele>116</ele>
        <time>2021-10-08T09:40:57Z</time>
      </trkpt>
      <trkpt lat="49.23189" lon="1.41309">
        <ele>116.8</ele>
        <time>2021-10-08T09:41:03Z</time>
      </trkpt>
      <trkpt lat="49.23198" lon="1.41317">
        <ele>117.8</ele>
        <time>2021-10-08T09:41:09Z</time>
      </trkpt>
      <trkpt lat="49.23201" lon="1.4132">
        <ele>118.2</ele>
        <time>2021-10-08T09:41:11Z</time>
      </trkpt>
      <trkpt lat="49.23213" lon="1.41324">
        <ele>119</ele>
        <time>2021-10-08T09:41:18Z</time>
      </trkpt>
      <trkpt lat="49.23214" lon="1.41322">
        <ele>119.2</ele>
        <time>2021-10-08T09:41:19Z</time>
      </trkpt>
      <trkpt lat="49.23218" lon="1.41311">
        <ele>119.8</ele>
        <time>2021-10-08T09:41:26Z</time>
      </trkpt>
      <trkpt lat="49.23218" lon="1.41309">
        <ele>120</ele>
        <time>2021-10-08T09:41:27Z</time>
      </trkpt>
      <trkpt lat="49.2322" lon="1.41295">
        <ele>120.8</ele>
        <time>2021-10-08T09:41:32Z</time>
      </trkpt>
      <trkpt lat="49.2322" lon="1.41292">
        <ele>121</ele>
        <time>2021-10-08T09:41:33Z</time>
      </trkpt>
      <trkpt lat="49.23219" lon="1.41276">
        <ele>121.6</ele>
        <time>2021-10-08T09:41:40Z</time>
      </trkpt>
      <trkpt lat="49.23218" lon="1.41273">
        <ele>122</ele>
        <time>2021-10-08T09:41:41Z</time>
      </trkpt>
      <trkpt lat="49.23218" lon="1.41263">
        <ele>122.8</ele>
        <time>2021-10-08T09:41:45Z</time>
      </trkpt>
      <trkpt lat="49.23218" lon="1.41257">
        <ele>123.2</ele>
        <time>2021-10-08T09:41:47Z</time>
      </trkpt>
      <trkpt lat="49.23216" lon="1.41242">
        <ele>123.8</ele>
        <time>2021-10-08T09:41:52Z</time>
      </trkpt>
      <trkpt lat="49.23216" lon="1.41239">
        <ele>124</ele>
        <time>2021-10-08T09:41:53Z</time>
      </trkpt>
      <trkpt lat="49.23213" lon="1.41225">
        <ele>124.8</ele>
        <time>2021-10-08T09:41:58Z</time>
      </trkpt>
      <trkpt lat="49.23213" lon="1.41222">
        <ele>124.8</ele>
        <time>2021-10-08T09:41:59Z</time>
      </trkpt>
      <trkpt lat="49.23212" lon="1.41219">
        <ele>125</ele>
        <time>2021-10-08T09:42:00Z</time>
      </trkpt>
      <trkpt lat="49.23211" lon="1.41208">
        <ele>125.6</ele>
        <time>2021-10-08T09:42:03Z</time>
      </trkpt>
      <trkpt lat="49.23209" lon="1.41191">
        <ele>126</ele>
        <time>2021-10-08T09:42:08Z</time>
      </trkpt>
      <trkpt lat="49.23209" lon="1.4118">
        <ele>126.4</ele>
        <time>2021-10-08T09:42:11Z</time>
      </trkpt>
      <trkpt lat="49.23211" lon="1.41175">
        <ele>126.6</ele>
        <time>2021-10-08T09:42:13Z</time>
      </trkpt>
      <trkpt lat="49.23217" lon="1.4117">
        <ele>127.2</ele>
        <time>2021-10-08T09:42:18Z</time>
      </trkpt>
      <trkpt lat="49.23218" lon="1.4117">
        <ele>127.2</ele>
        <time>2021-10-08T09:42:19Z</time>
      </trkpt>
      <trkpt lat="49.23222" lon="1.41177">
        <ele>128</ele>
        <time>2021-10-08T09:42:23Z</time>
      </trkpt>
      <trkpt lat="49.23222" lon="1.41179">
        <ele>128.2</ele>
        <time>2021-10-08T09:42:24Z</time>
      </trkpt>
      <trkpt lat="49.23224" lon="1.41181">
        <ele>128.4</ele>
        <time>2021-10-08T09:42:25Z</time>
      </trkpt>
      <trkpt lat="49.23225" lon="1.4119">
        <ele>129.2</ele>
        <time>2021-10-08T09:42:29Z</time>
      </trkpt>
      <trkpt lat="49.23225" lon="1.41194">
        <ele>129.6</ele>
        <time>2021-10-08T09:42:31Z</time>
      </trkpt>
      <trkpt lat="49.23226" lon="1.41206">
        <ele>130.4</ele>
        <time>2021-10-08T09:42:36Z</time>
      </trkpt>
      <trkpt lat="49.23226" lon="1.41208">
        <ele>130.4</ele>
        <time>2021-10-08T09:42:37Z</time>
      </trkpt>
      <trkpt lat="49.23228" lon="1.41213">
        <ele>130.6</ele>
        <time>2021-10-08T09:42:39Z</time>
      </trkpt>
      <trkpt lat="49.23232" lon="1.41222">
        <ele>131.2</ele>
        <time>2021-10-08T09:42:44Z</time>
      </trkpt>
      <trkpt lat="49.23233" lon="1.41223">
        <ele>131.4</ele>
        <time>2021-10-08T09:42:45Z</time>
      </trkpt>
      <trkpt lat="49.2324" lon="1.41234">
        <ele>132.6</ele>
        <time>2021-10-08T09:42:50Z</time>
      </trkpt>
      <trkpt lat="49.23248" lon="1.41254">
        <ele>133.8</ele>
        <time>2021-10-08T09:42:58Z</time>
      </trkpt>
      <trkpt lat="49.23257" lon="1.41269">
        <ele>134.8</ele>
        <time>2021-10-08T09:43:05Z</time>
      </trkpt>
      <trkpt lat="49.23264" lon="1.41284">
        <ele>135.8</ele>
        <time>2021-10-08T09:43:11Z</time>
      </trkpt>
      <trkpt lat="49.23264" lon="1.41287">
        <ele>136</ele>
        <time>2021-10-08T09:43:12Z</time>
      </trkpt>
      <trkpt lat="49.23269" lon="1.41302">
        <ele>137</ele>
        <time>2021-10-08T09:43:17Z</time>
      </trkpt>
      <trkpt lat="49.2327" lon="1.41305">
        <ele>137.2</ele>
        <time>2021-10-08T09:43:18Z</time>
      </trkpt>
      <trkpt lat="49.23274" lon="1.41323">
        <ele>137.8</ele>
        <time>2021-10-08T09:43:24Z</time>
      </trkpt>
      <trkpt lat="49.23277" lon="1.41331">
        <ele>138.2</ele>
        <time>2021-10-08T09:43:27Z</time>
      </trkpt>
      <trkpt lat="49.23279" lon="1.41338">
        <ele>138.6</ele>
        <time>2021-10-08T09:43:30Z</time>
      </trkpt>
      <trkpt lat="49.23282" lon="1.41352">
        <ele>139.4</ele>
        <time>2021-10-08T09:43:35Z</time>
      </trkpt>
      <trkpt lat="49.23284" lon="1.41364">
        <ele>140.2</ele>
        <time>2021-10-08T09:43:39Z</time>
      </trkpt>
      <trkpt lat="49.23284" lon="1.41367">
        <ele>140.2</ele>
        <time>2021-10-08T09:43:40Z</time>
      </trkpt>
      <trkpt lat="49.23284" lon="1.4137">
        <ele>140.4</ele>
        <time>2021-10-08T09:43:41Z</time>
      </trkpt>
      <trkpt lat="49.23284" lon="1.41376">
        <ele>140.8</ele>
        <time>2021-10-08T09:43:43Z</time>
      </trkpt>
      <trkpt lat="49.23285" lon="1.41384">
        <ele>141.4</ele>
        <time>2021-10-08T09:43:46Z</time>
      </trkpt>
      <trkpt lat="49.2329" lon="1.41407">
        <ele>142.4</ele>
        <time>2021-10-08T09:43:53Z</time>
      </trkpt>
      <trkpt lat="49.2329" lon="1.41411">
        <ele>142.6</ele>
        <time>2021-10-08T09:43:54Z</time>
      </trkpt>
      <trkpt lat="49.2329" lon="1.41419">
        <ele>143</ele>
        <time>2021-10-08T09:43:57Z</time>
      </trkpt>
      <trkpt lat="49.2329" lon="1.41425">
        <ele>143.4</ele>
        <time>2021-10-08T09:43:59Z</time>
      </trkpt>
      <trkpt lat="49.2329" lon="1.41428">
        <ele>143.4</ele>
        <time>2021-10-08T09:44:00Z</time>
      </trkpt>
      <trkpt lat="49.2329" lon="1.41437">
        <ele>144</ele>
        <time>2021-10-08T09:44:03Z</time>
      </trkpt>
      <trkpt lat="49.2329" lon="1.41444">
        <ele>144.2</ele>
        <time>2021-10-08T09:44:05Z</time>
      </trkpt>
      <trkpt lat="49.2329" lon="1.4145">
        <ele>144.6</ele>
        <time>2021-10-08T09:44:07Z</time>
      </trkpt>
      <trkpt lat="49.2329" lon="1.41468">
        <ele>145.6</ele>
        <time>2021-10-08T09:44:12Z</time>
      </trkpt>
      <trkpt lat="49.2329" lon="1.41472">
        <ele>145.6</ele>
        <time>2021-10-08T09:44:13Z</time>
      </trkpt>
      <trkpt lat="49.2329" lon="1.41487">
        <ele>146.4</ele>
        <time>2021-10-08T09:44:18Z</time>
      </trkpt>
      <trkpt lat="49.23289" lon="1.4149">
        <ele>146.8</ele>
        <time>2021-10-08T09:44:19Z</time>
      </trkpt>
      <trkpt lat="49.23288" lon="1.41502">
        <ele>147.8</ele>
        <time>2021-10-08T09:44:22Z</time>
      </trkpt>
      <trkpt lat="49.23289" lon="1.41509">
        <ele>148.2</ele>
        <time>2021-10-08T09:44:24Z</time>
      </trkpt>
      <trkpt lat="49.2329" lon="1.4152">
        <ele>148.8</ele>
        <time>2021-10-08T09:44:27Z</time>
      </trkpt>
      <trkpt lat="49.23288" lon="1.41531">
        <ele>149.2</ele>
        <time>2021-10-08T09:44:30Z</time>
      </trkpt>
      <trkpt lat="49.23286" lon="1.41548">
        <ele>149.6</ele>
        <time>2021-10-08T09:44:36Z</time>
      </trkpt>
      <trkpt lat="49.23284" lon="1.41562">
        <ele>150.8</ele>
        <time>2021-10-08T09:44:41Z</time>
      </trkpt>
      <trkpt lat="49.23283" lon="1.41565">
        <ele>150.8</ele>
        <time>2021-10-08T09:44:42Z</time>
      </trkpt>
      <trkpt lat="49.23276" lon="1.41583">
        <ele>151.8</ele>
        <time>2021-10-08T09:44:48Z</time>
      </trkpt>
      <trkpt lat="49.23272" lon="1.41603">
        <ele>152.8</ele>
        <time>2021-10-08T09:44:54Z</time>
      </trkpt>
      <trkpt lat="49.23275" lon="1.41608">
        <ele>153</ele>
        <time>2021-10-08T09:44:56Z</time>
      </trkpt>
      <trkpt lat="49.2328" lon="1.4161">
        <ele>153.2</ele>
        <time>2021-10-08T09:44:58Z</time>
      </trkpt>
      <trkpt lat="49.2329" lon="1.41607">
        <ele>153.4</ele>
        <time>2021-10-08T09:45:02Z</time>
      </trkpt>
      <trkpt lat="49.23293" lon="1.41606">
        <ele>153.6</ele>
        <time>2021-10-08T09:45:03Z</time>
      </trkpt>
      <trkpt lat="49.23312" lon="1.41595">
        <ele>154.2</ele>
        <time>2021-10-08T09:45:11Z</time>
      </trkpt>
      <trkpt lat="49.23325" lon="1.41592">
        <ele>155.4</ele>
        <time>2021-10-08T09:45:16Z</time>
      </trkpt>
      <trkpt lat="49.23328" lon="1.41591">
        <ele>155.6</ele>
        <time>2021-10-08T09:45:17Z</time>
      </trkpt>
      <trkpt lat="49.23344" lon="1.41591">
        <ele>156.4</ele>
        <time>2021-10-08T09:45:22Z</time>
      </trkpt>
      <trkpt lat="49.2335" lon="1.41592">
        <ele>156.6</ele>
        <time>2021-10-08T09:45:24Z</time>
      </trkpt>
      <trkpt lat="49.23378" lon="1.41594">
        <ele>156.6</ele>
        <time>2021-10-08T09:45:32Z</time>
      </trkpt>
      <trkpt lat="49.23403" lon="1.41591">
        <ele>156.8</ele>
        <time>2021-10-08T09:45:39Z</time>
      </trkpt>
      <trkpt lat="49.23439" lon="1.41595">
        <ele>157.2</ele>
        <time>2021-10-08T09:45:47Z</time>
      </trkpt>
      <trkpt lat="49.23479" lon="1.416">
        <ele>157.4</ele>
        <time>2021-10-08T09:45:55Z</time>
      </trkpt>
      <trkpt lat="49.23517" lon="1.41604">
        <ele>157.4</ele>
        <time>2021-10-08T09:46:02Z</time>
      </trkpt>
      <trkpt lat="49.23539" lon="1.41607">
        <ele>157.6</ele>
        <time>2021-10-08T09:46:06Z</time>
      </trkpt>
      <trkpt lat="49.23561" lon="1.41609">
        <ele>157.8</ele>
        <time>2021-10-08T09:46:10Z</time>
      </trkpt>
      <trkpt lat="49.23605" lon="1.4161">
        <ele>157.8</ele>
        <time>2021-10-08T09:46:18Z</time>
      </trkpt>
      <trkpt lat="49.23621" lon="1.41612">
        <ele>157.8</ele>
        <time>2021-10-08T09:46:21Z</time>
      </trkpt>
      <trkpt lat="49.23636" lon="1.41616">
        <ele>157.8</ele>
        <time>2021-10-08T09:46:24Z</time>
      </trkpt>
      <trkpt lat="49.2366" lon="1.41618">
        <ele>158</ele>
        <time>2021-10-08T09:46:30Z</time>
      </trkpt>
      <trkpt lat="49.23666" lon="1.41618">
        <ele>158.4</ele>
        <time>2021-10-08T09:46:33Z</time>
      </trkpt>
      <trkpt lat="49.23666" lon="1.41618">
        <ele>158.4</ele>
        <time>2021-10-08T09:46:34Z</time>
      </trkpt>
      <trkpt lat="49.23666" lon="1.41618">
        <ele>160.8</ele>
        <time>2021-10-08T09:48:58Z</time>
      </trkpt>
      <trkpt lat="49.2367" lon="1.41617">
        <ele>160.6</ele>
        <time>2021-10-08T09:49:00Z</time>
      </trkpt>
      <trkpt lat="49.23684" lon="1.41607">
        <ele>160.6</ele>
        <time>2021-10-08T09:49:04Z</time>
      </trkpt>
      <trkpt lat="49.23688" lon="1.41597">
        <ele>160.6</ele>
        <time>2021-10-08T09:49:06Z</time>
      </trkpt>
      <trkpt lat="49.23688" lon="1.4159">
        <ele>160.6</ele>
        <time>2021-10-08T09:49:07Z</time>
      </trkpt>
      <trkpt lat="49.23687" lon="1.41553">
        <ele>159.4</ele>
        <time>2021-10-08T09:49:12Z</time>
      </trkpt>
      <trkpt lat="49.23687" lon="1.41538">
        <ele>159.4</ele>
        <time>2021-10-08T09:49:14Z</time>
      </trkpt>
      <trkpt lat="49.23688" lon="1.41489">
        <ele>159.4</ele>
        <time>2021-10-08T09:49:20Z</time>
      </trkpt>
      <trkpt lat="49.23697" lon="1.41432">
        <ele>159.4</ele>
        <time>2021-10-08T09:49:27Z</time>
      </trkpt>
      <trkpt lat="49.2371" lon="1.41369">
        <ele>159.2</ele>
        <time>2021-10-08T09:49:35Z</time>
      </trkpt>
      <trkpt lat="49.23721" lon="1.41305">
        <ele>159.4</ele>
        <time>2021-10-08T09:49:43Z</time>
      </trkpt>
      <trkpt lat="49.23733" lon="1.41248">
        <ele>159.8</ele>
        <time>2021-10-08T09:49:50Z</time>
      </trkpt>
      <trkpt lat="49.23742" lon="1.41208">
        <ele>159.8</ele>
        <time>2021-10-08T09:49:55Z</time>
      </trkpt>
      <trkpt lat="49.23756" lon="1.41164">
        <ele>159.8</ele>
        <time>2021-10-08T09:50:01Z</time>
      </trkpt>
      <trkpt lat="49.23766" lon="1.41155">
        <ele>159.8</ele>
        <time>2021-10-08T09:50:04Z</time>
      </trkpt>
      <trkpt lat="49.2378" lon="1.41161">
        <ele>159.8</ele>
        <time>2021-10-08T09:50:07Z</time>
      </trkpt>
      <trkpt lat="49.23785" lon="1.41163">
        <ele>159.8</ele>
        <time>2021-10-08T09:50:08Z</time>
      </trkpt>
      <trkpt lat="49.23808" lon="1.41175">
        <ele>159.4</ele>
        <time>2021-10-08T09:50:13Z</time>
      </trkpt>
      <trkpt lat="49.23834" lon="1.41185">
        <ele>159.2</ele>
        <time>2021-10-08T09:50:18Z</time>
      </trkpt>
      <trkpt lat="49.23849" lon="1.41189">
        <ele>158.8</ele>
        <time>2021-10-08T09:50:21Z</time>
      </trkpt>
      <trkpt lat="49.23853" lon="1.41191">
        <ele>158.6</ele>
        <time>2021-10-08T09:50:22Z</time>
      </trkpt>
      <trkpt lat="49.23858" lon="1.41193">
        <ele>158.6</ele>
        <time>2021-10-08T09:50:23Z</time>
      </trkpt>
      <trkpt lat="49.23863" lon="1.41197">
        <ele>158</ele>
        <time>2021-10-08T09:50:24Z</time>
      </trkpt>
      <trkpt lat="49.2387" lon="1.41204">
        <ele>157.6</ele>
        <time>2021-10-08T09:50:26Z</time>
      </trkpt>
      <trkpt lat="49.23873" lon="1.41204">
        <ele>157.4</ele>
        <time>2021-10-08T09:50:27Z</time>
      </trkpt>
      <trkpt lat="49.23877" lon="1.41204">
        <ele>157.4</ele>
        <time>2021-10-08T09:50:28Z</time>
      </trkpt>
      <trkpt lat="49.23881" lon="1.41203">
        <ele>157.2</ele>
        <time>2021-10-08T09:50:29Z</time>
      </trkpt>
      <trkpt lat="49.23897" lon="1.41195">
        <ele>157</ele>
        <time>2021-10-08T09:50:33Z</time>
      </trkpt>
      <trkpt lat="49.23911" lon="1.41186">
        <ele>157</ele>
        <time>2021-10-08T09:50:36Z</time>
      </trkpt>
      <trkpt lat="49.23918" lon="1.41184">
        <ele>156.8</ele>
        <time>2021-10-08T09:50:37Z</time>
      </trkpt>
      <trkpt lat="49.23938" lon="1.41179">
        <ele>155.8</ele>
        <time>2021-10-08T09:50:40Z</time>
      </trkpt>
      <trkpt lat="49.23943" lon="1.41176">
        <ele>155.2</ele>
        <time>2021-10-08T09:50:41Z</time>
      </trkpt>
      <trkpt lat="49.23947" lon="1.41173">
        <ele>154.6</ele>
        <time>2021-10-08T09:50:42Z</time>
      </trkpt>
      <trkpt lat="49.23954" lon="1.41165">
        <ele>152.8</ele>
        <time>2021-10-08T09:50:44Z</time>
      </trkpt>
      <trkpt lat="49.23958" lon="1.41161">
        <ele>152.2</ele>
        <time>2021-10-08T09:50:45Z</time>
      </trkpt>
      <trkpt lat="49.2396" lon="1.41159">
        <ele>151.4</ele>
        <time>2021-10-08T09:50:46Z</time>
      </trkpt>
      <trkpt lat="49.23964" lon="1.41157">
        <ele>150</ele>
        <time>2021-10-08T09:50:47Z</time>
      </trkpt>
      <trkpt lat="49.23968" lon="1.41156">
        <ele>148.8</ele>
        <time>2021-10-08T09:50:48Z</time>
      </trkpt>
      <trkpt lat="49.23971" lon="1.41155">
        <ele>147.4</ele>
        <time>2021-10-08T09:50:49Z</time>
      </trkpt>
      <trkpt lat="49.23974" lon="1.41153">
        <ele>146.2</ele>
        <time>2021-10-08T09:50:50Z</time>
      </trkpt>
      <trkpt lat="49.23977" lon="1.41151">
        <ele>145</ele>
        <time>2021-10-08T09:50:51Z</time>
      </trkpt>
      <trkpt lat="49.23981" lon="1.41149">
        <ele>143.2</ele>
        <time>2021-10-08T09:50:52Z</time>
      </trkpt>
      <trkpt lat="49.23986" lon="1.41147">
        <ele>141.4</ele>
        <time>2021-10-08T09:50:54Z</time>
      </trkpt>
      <trkpt lat="49.23988" lon="1.41147">
        <ele>140.6</ele>
        <time>2021-10-08T09:50:55Z</time>
      </trkpt>
      <trkpt lat="49.23991" lon="1.41148">
        <ele>139.6</ele>
        <time>2021-10-08T09:50:56Z</time>
      </trkpt>
      <trkpt lat="49.23996" lon="1.41153">
        <ele>137.6</ele>
        <time>2021-10-08T09:50:58Z</time>
      </trkpt>
      <trkpt lat="49.23998" lon="1.41153">
        <ele>136.6</ele>
        <time>2021-10-08T09:50:59Z</time>
      </trkpt>
      <trkpt lat="49.24003" lon="1.41154">
        <ele>134.8</ele>
        <time>2021-10-08T09:51:01Z</time>
      </trkpt>
      <trkpt lat="49.24006" lon="1.41157">
        <ele>133.8</ele>
        <time>2021-10-08T09:51:02Z</time>
      </trkpt>
      <trkpt lat="49.2401" lon="1.41161">
        <ele>132.8</ele>
        <time>2021-10-08T09:51:03Z</time>
      </trkpt>
      <trkpt lat="49.24012" lon="1.41165">
        <ele>132</ele>
        <time>2021-10-08T09:51:04Z</time>
      </trkpt>
      <trkpt lat="49.24015" lon="1.41168">
        <ele>131.2</ele>
        <time>2021-10-08T09:51:05Z</time>
      </trkpt>
      <trkpt lat="49.24018" lon="1.41171">
        <ele>130.6</ele>
        <time>2021-10-08T09:51:06Z</time>
      </trkpt>
      <trkpt lat="49.2402" lon="1.41172">
        <ele>130</ele>
        <time>2021-10-08T09:51:07Z</time>
      </trkpt>
      <trkpt lat="49.24025" lon="1.41177">
        <ele>129</ele>
        <time>2021-10-08T09:51:09Z</time>
      </trkpt>
      <trkpt lat="49.24028" lon="1.41185">
        <ele>127.4</ele>
        <time>2021-10-08T09:51:11Z</time>
      </trkpt>
      <trkpt lat="49.24032" lon="1.41195">
        <ele>126.4</ele>
        <time>2021-10-08T09:51:13Z</time>
      </trkpt>
      <trkpt lat="49.24036" lon="1.41209">
        <ele>124.8</ele>
        <time>2021-10-08T09:51:16Z</time>
      </trkpt>
      <trkpt lat="49.24038" lon="1.41214">
        <ele>124.2</ele>
        <time>2021-10-08T09:51:18Z</time>
      </trkpt>
      <trkpt lat="49.24041" lon="1.41214">
        <ele>124</ele>
        <time>2021-10-08T09:51:20Z</time>
      </trkpt>
      <trkpt lat="49.24042" lon="1.4121">
        <ele>123.8</ele>
        <time>2021-10-08T09:51:22Z</time>
      </trkpt>
      <trkpt lat="49.24043" lon="1.41208">
        <ele>123.6</ele>
        <time>2021-10-08T09:51:23Z</time>
      </trkpt>
      <trkpt lat="49.24044" lon="1.41206">
        <ele>123.4</ele>
        <time>2021-10-08T09:51:24Z</time>
      </trkpt>
      <trkpt lat="49.24045" lon="1.41203">
        <ele>123.4</ele>
        <time>2021-10-08T09:51:25Z</time>
      </trkpt>
      <trkpt lat="49.24049" lon="1.41203">
        <ele>123.2</ele>
        <time>2021-10-08T09:51:27Z</time>
      </trkpt>
      <trkpt lat="49.2406" lon="1.41211">
        <ele>123</ele>
        <time>2021-10-08T09:51:30Z</time>
      </trkpt>
      <trkpt lat="49.24066" lon="1.41213">
        <ele>123</ele>
        <time>2021-10-08T09:51:32Z</time>
      </trkpt>
      <trkpt lat="49.24068" lon="1.41211">
        <ele>122.8</ele>
        <time>2021-10-08T09:51:33Z</time>
      </trkpt>
      <trkpt lat="49.2407" lon="1.41209">
        <ele>122.2</ele>
        <time>2021-10-08T09:51:34Z</time>
      </trkpt>
      <trkpt lat="49.24073" lon="1.41204">
        <ele>120.6</ele>
        <time>2021-10-08T09:51:36Z</time>
      </trkpt>
      <trkpt lat="49.24079" lon="1.41198">
        <ele>118.6</ele>
        <time>2021-10-08T09:51:38Z</time>
      </trkpt>
      <trkpt lat="49.24082" lon="1.41197">
        <ele>117.6</ele>
        <time>2021-10-08T09:51:39Z</time>
      </trkpt>
      <trkpt lat="49.24092" lon="1.412">
        <ele>115.8</ele>
        <time>2021-10-08T09:51:41Z</time>
      </trkpt>
      <trkpt lat="49.24099" lon="1.41202">
        <ele>113.8</ele>
        <time>2021-10-08T09:51:43Z</time>
      </trkpt>
      <trkpt lat="49.24101" lon="1.41201">
        <ele>112.8</ele>
        <time>2021-10-08T09:51:44Z</time>
      </trkpt>
      <trkpt lat="49.24102" lon="1.41198">
        <ele>111.6</ele>
        <time>2021-10-08T09:51:45Z</time>
      </trkpt>
      <trkpt lat="49.24102" lon="1.41193">
        <ele>110.2</ele>
        <time>2021-10-08T09:51:46Z</time>
      </trkpt>
      <trkpt lat="49.24102" lon="1.41189">
        <ele>108.8</ele>
        <time>2021-10-08T09:51:47Z</time>
      </trkpt>
      <trkpt lat="49.24102" lon="1.41184">
        <ele>106</ele>
        <time>2021-10-08T09:51:48Z</time>
      </trkpt>
      <trkpt lat="49.24104" lon="1.4118">
        <ele>104.8</ele>
        <time>2021-10-08T09:51:49Z</time>
      </trkpt>
      <trkpt lat="49.24106" lon="1.41177">
        <ele>103.8</ele>
        <time>2021-10-08T09:51:50Z</time>
      </trkpt>
      <trkpt lat="49.24108" lon="1.41175">
        <ele>103.2</ele>
        <time>2021-10-08T09:51:51Z</time>
      </trkpt>
      <trkpt lat="49.2411" lon="1.41173">
        <ele>102.6</ele>
        <time>2021-10-08T09:51:52Z</time>
      </trkpt>
      <trkpt lat="49.24113" lon="1.41171">
        <ele>102.2</ele>
        <time>2021-10-08T09:51:53Z</time>
      </trkpt>
      <trkpt lat="49.24115" lon="1.41169">
        <ele>101.6</ele>
        <time>2021-10-08T09:51:54Z</time>
      </trkpt>
      <trkpt lat="49.24121" lon="1.41163">
        <ele>100.4</ele>
        <time>2021-10-08T09:51:56Z</time>
      </trkpt>
      <trkpt lat="49.24124" lon="1.41161">
        <ele>99.8</ele>
        <time>2021-10-08T09:51:57Z</time>
      </trkpt>
      <trkpt lat="49.24127" lon="1.4116">
        <ele>99</ele>
        <time>2021-10-08T09:51:58Z</time>
      </trkpt>
      <trkpt lat="49.24136" lon="1.41157">
        <ele>97.6</ele>
        <time>2021-10-08T09:52:00Z</time>
      </trkpt>
      <trkpt lat="49.24141" lon="1.41151">
        <ele>96</ele>
        <time>2021-10-08T09:52:02Z</time>
      </trkpt>
      <trkpt lat="49.24143" lon="1.41147">
        <ele>95.2</ele>
        <time>2021-10-08T09:52:03Z</time>
      </trkpt>
      <trkpt lat="49.24142" lon="1.41142">
        <ele>94.2</ele>
        <time>2021-10-08T09:52:04Z</time>
      </trkpt>
      <trkpt lat="49.24141" lon="1.41132">
        <ele>92.6</ele>
        <time>2021-10-08T09:52:06Z</time>
      </trkpt>
      <trkpt lat="49.24141" lon="1.41128">
        <ele>92</ele>
        <time>2021-10-08T09:52:07Z</time>
      </trkpt>
      <trkpt lat="49.2414" lon="1.41124">
        <ele>91.2</ele>
        <time>2021-10-08T09:52:08Z</time>
      </trkpt>
      <trkpt lat="49.24139" lon="1.4112">
        <ele>90.6</ele>
        <time>2021-10-08T09:52:09Z</time>
      </trkpt>
      <trkpt lat="49.2414" lon="1.41115">
        <ele>90</ele>
        <time>2021-10-08T09:52:10Z</time>
      </trkpt>
      <trkpt lat="49.24141" lon="1.41111">
        <ele>89.2</ele>
        <time>2021-10-08T09:52:11Z</time>
      </trkpt>
      <trkpt lat="49.24144" lon="1.41109">
        <ele>88.4</ele>
        <time>2021-10-08T09:52:12Z</time>
      </trkpt>
      <trkpt lat="49.24152" lon="1.41107">
        <ele>86.8</ele>
        <time>2021-10-08T09:52:14Z</time>
      </trkpt>
      <trkpt lat="49.24158" lon="1.41104">
        <ele>84.2</ele>
        <time>2021-10-08T09:52:16Z</time>
      </trkpt>
      <trkpt lat="49.24159" lon="1.41101">
        <ele>83.4</ele>
        <time>2021-10-08T09:52:17Z</time>
      </trkpt>
      <trkpt lat="49.24159" lon="1.41098">
        <ele>82.6</ele>
        <time>2021-10-08T09:52:18Z</time>
      </trkpt>
      <trkpt lat="49.24158" lon="1.4109">
        <ele>81.2</ele>
        <time>2021-10-08T09:52:20Z</time>
      </trkpt>
      <trkpt lat="49.24159" lon="1.41086">
        <ele>80</ele>
        <time>2021-10-08T09:52:21Z</time>
      </trkpt>
      <trkpt lat="49.2416" lon="1.41082">
        <ele>79</ele>
        <time>2021-10-08T09:52:22Z</time>
      </trkpt>
      <trkpt lat="49.24162" lon="1.41076">
        <ele>77.4</ele>
        <time>2021-10-08T09:52:24Z</time>
      </trkpt>
      <trkpt lat="49.24165" lon="1.41072">
        <ele>75.8</ele>
        <time>2021-10-08T09:52:26Z</time>
      </trkpt>
      <trkpt lat="49.2417" lon="1.41067">
        <ele>74.2</ele>
        <time>2021-10-08T09:52:28Z</time>
      </trkpt>
      <trkpt lat="49.24173" lon="1.41063">
        <ele>73.8</ele>
        <time>2021-10-08T09:52:29Z</time>
      </trkpt>
      <trkpt lat="49.24178" lon="1.4106">
        <ele>73.4</ele>
        <time>2021-10-08T09:52:30Z</time>
      </trkpt>
      <trkpt lat="49.24182" lon="1.41059">
        <ele>72.6</ele>
        <time>2021-10-08T09:52:31Z</time>
      </trkpt>
      <trkpt lat="49.24187" lon="1.41058">
        <ele>71.8</ele>
        <time>2021-10-08T09:52:32Z</time>
      </trkpt>
      <trkpt lat="49.24191" lon="1.41056">
        <ele>71.2</ele>
        <time>2021-10-08T09:52:33Z</time>
      </trkpt>
      <trkpt lat="49.24201" lon="1.41051">
        <ele>69.6</ele>
        <time>2021-10-08T09:52:35Z</time>
      </trkpt>
      <trkpt lat="49.24204" lon="1.41047">
        <ele>68.2</ele>
        <time>2021-10-08T09:52:36Z</time>
      </trkpt>
      <trkpt lat="49.24204" lon="1.41042">
        <ele>66.6</ele>
        <time>2021-10-08T09:52:37Z</time>
      </trkpt>
      <trkpt lat="49.24204" lon="1.41036">
        <ele>65</ele>
        <time>2021-10-08T09:52:38Z</time>
      </trkpt>
      <trkpt lat="49.24205" lon="1.41028">
        <ele>63.8</ele>
        <time>2021-10-08T09:52:39Z</time>
      </trkpt>
      <trkpt lat="49.24205" lon="1.41012">
        <ele>61.8</ele>
        <time>2021-10-08T09:52:41Z</time>
      </trkpt>
      <trkpt lat="49.24205" lon="1.41008">
        <ele>61.2</ele>
        <time>2021-10-08T09:52:42Z</time>
      </trkpt>
      <trkpt lat="49.24205" lon="1.41005">
        <ele>60.4</ele>
        <time>2021-10-08T09:52:43Z</time>
      </trkpt>
      <trkpt lat="49.24206" lon="1.41003">
        <ele>58.6</ele>
        <time>2021-10-08T09:52:45Z</time>
      </trkpt>
      <trkpt lat="49.24208" lon="1.4099">
        <ele>52.8</ele>
        <time>2021-10-08T10:00:58Z</time>
      </trkpt>
      <trkpt lat="49.2421" lon="1.40982">
        <ele>52.8</ele>
        <time>2021-10-08T10:01:01Z</time>
      </trkpt>
      <trkpt lat="49.24219" lon="1.4097">
        <ele>52.8</ele>
        <time>2021-10-08T10:01:05Z</time>
      </trkpt>
      <trkpt lat="49.24231" lon="1.40962">
        <ele>52.6</ele>
        <time>2021-10-08T10:01:09Z</time>
      </trkpt>
      <trkpt lat="49.24233" lon="1.40963">
        <ele>52.4</ele>
        <time>2021-10-08T10:01:10Z</time>
      </trkpt>
      <trkpt lat="49.24238" lon="1.40967">
        <ele>51.8</ele>
        <time>2021-10-08T10:01:12Z</time>
      </trkpt>
      <trkpt lat="49.24244" lon="1.40971">
        <ele>50.4</ele>
        <time>2021-10-08T10:01:15Z</time>
      </trkpt>
      <trkpt lat="49.24246" lon="1.40972">
        <ele>50.2</ele>
        <time>2021-10-08T10:01:16Z</time>
      </trkpt>
      <trkpt lat="49.24248" lon="1.40973">
        <ele>49.4</ele>
        <time>2021-10-08T10:01:17Z</time>
      </trkpt>
      <trkpt lat="49.2425" lon="1.40975">
        <ele>49</ele>
        <time>2021-10-08T10:01:18Z</time>
      </trkpt>
      <trkpt lat="49.24251" lon="1.40977">
        <ele>48.2</ele>
        <time>2021-10-08T10:01:19Z</time>
      </trkpt>
      <trkpt lat="49.24255" lon="1.40981">
        <ele>47</ele>
        <time>2021-10-08T10:01:21Z</time>
      </trkpt>
      <trkpt lat="49.24259" lon="1.4098">
        <ele>45.6</ele>
        <time>2021-10-08T10:01:23Z</time>
      </trkpt>
      <trkpt lat="49.24261" lon="1.40979">
        <ele>44.8</ele>
        <time>2021-10-08T10:01:24Z</time>
      </trkpt>
      <trkpt lat="49.24263" lon="1.40978">
        <ele>44.2</ele>
        <time>2021-10-08T10:01:25Z</time>
      </trkpt>
      <trkpt lat="49.24271" lon="1.40974">
        <ele>43</ele>
        <time>2021-10-08T10:01:28Z</time>
      </trkpt>
      <trkpt lat="49.24275" lon="1.40976">
        <ele>42.8</ele>
        <time>2021-10-08T10:01:29Z</time>
      </trkpt>
      <trkpt lat="49.24288" lon="1.40991">
        <ele>42.2</ele>
        <time>2021-10-08T10:01:32Z</time>
      </trkpt>
      <trkpt lat="49.24291" lon="1.40997">
        <ele>41.8</ele>
        <time>2021-10-08T10:01:33Z</time>
      </trkpt>
      <trkpt lat="49.24294" lon="1.41011">
        <ele>41</ele>
        <time>2021-10-08T10:01:35Z</time>
      </trkpt>
      <trkpt lat="49.24295" lon="1.41017">
        <ele>40.6</ele>
        <time>2021-10-08T10:01:36Z</time>
      </trkpt>
      <trkpt lat="49.24299" lon="1.41028">
        <ele>39.4</ele>
        <time>2021-10-08T10:01:38Z</time>
      </trkpt>
      <trkpt lat="49.24302" lon="1.41041">
        <ele>37.8</ele>
        <time>2021-10-08T10:01:40Z</time>
      </trkpt>
      <trkpt lat="49.24303" lon="1.41048">
        <ele>37</ele>
        <time>2021-10-08T10:01:41Z</time>
      </trkpt>
      <trkpt lat="49.24304" lon="1.41057">
        <ele>36.2</ele>
        <time>2021-10-08T10:01:42Z</time>
      </trkpt>
      <trkpt lat="49.24307" lon="1.41076">
        <ele>35.2</ele>
        <time>2021-10-08T10:01:44Z</time>
      </trkpt>
      <trkpt lat="49.24311" lon="1.41095">
        <ele>33.8</ele>
        <time>2021-10-08T10:01:47Z</time>
      </trkpt>
      <trkpt lat="49.24315" lon="1.41105">
        <ele>32</ele>
        <time>2021-10-08T10:01:49Z</time>
      </trkpt>
      <trkpt lat="49.24317" lon="1.41109">
        <ele>30.8</ele>
        <time>2021-10-08T10:01:50Z</time>
      </trkpt>
      <trkpt lat="49.2432" lon="1.41109">
        <ele>30</ele>
        <time>2021-10-08T10:01:51Z</time>
      </trkpt>
      <trkpt lat="49.24323" lon="1.41108">
        <ele>29.4</ele>
        <time>2021-10-08T10:01:52Z</time>
      </trkpt>
      <trkpt lat="49.24334" lon="1.41109">
        <ele>28.6</ele>
        <time>2021-10-08T10:01:55Z</time>
      </trkpt>
      <trkpt lat="49.24342" lon="1.41116">
        <ele>28.4</ele>
        <time>2021-10-08T10:01:57Z</time>
      </trkpt>
      <trkpt lat="49.24345" lon="1.41121">
        <ele>28</ele>
        <time>2021-10-08T10:01:58Z</time>
      </trkpt>
      <trkpt lat="49.24347" lon="1.41127">
        <ele>27.6</ele>
        <time>2021-10-08T10:01:59Z</time>
      </trkpt>
      <trkpt lat="49.24349" lon="1.41133">
        <ele>27.2</ele>
        <time>2021-10-08T10:02:00Z</time>
      </trkpt>
      <trkpt lat="49.24354" lon="1.41145">
        <ele>26</ele>
        <time>2021-10-08T10:02:02Z</time>
      </trkpt>
      <trkpt lat="49.24365" lon="1.41171">
        <ele>24.6</ele>
        <time>2021-10-08T10:02:06Z</time>
      </trkpt>
      <trkpt lat="49.24391" lon="1.41226">
        <ele>23.6</ele>
        <time>2021-10-08T10:02:15Z</time>
      </trkpt>
      <trkpt lat="49.24425" lon="1.41295">
        <ele>23.4</ele>
        <time>2021-10-08T10:02:26Z</time>
      </trkpt>
      <trkpt lat="49.24439" lon="1.41338">
        <ele>23.4</ele>
        <time>2021-10-08T10:02:32Z</time>
      </trkpt>
      <trkpt lat="49.24457" lon="1.41413">
        <ele>23.8</ele>
        <time>2021-10-08T10:02:42Z</time>
      </trkpt>
      <trkpt lat="49.2447" lon="1.41469">
        <ele>24.2</ele>
        <time>2021-10-08T10:02:50Z</time>
      </trkpt>
      <trkpt lat="49.24471" lon="1.41482">
        <ele>24.2</ele>
        <time>2021-10-08T10:02:52Z</time>
      </trkpt>
      <trkpt lat="49.24475" lon="1.41501">
        <ele>24.2</ele>
        <time>2021-10-08T10:02:55Z</time>
      </trkpt>
      <trkpt lat="49.24477" lon="1.41507">
        <ele>24.2</ele>
        <time>2021-10-08T10:02:56Z</time>
      </trkpt>
      <trkpt lat="49.24483" lon="1.41524">
        <ele>24.4</ele>
        <time>2021-10-08T10:02:59Z</time>
      </trkpt>
      <trkpt lat="49.24493" lon="1.41554">
        <ele>24.6</ele>
        <time>2021-10-08T10:03:04Z</time>
      </trkpt>
      <trkpt lat="49.24497" lon="1.41567">
        <ele>24.6</ele>
        <time>2021-10-08T10:03:06Z</time>
      </trkpt>
      <trkpt lat="49.24502" lon="1.41586">
        <ele>24.6</ele>
        <time>2021-10-08T10:03:09Z</time>
      </trkpt>
      <trkpt lat="49.24508" lon="1.41624">
        <ele>24.6</ele>
        <time>2021-10-08T10:03:14Z</time>
      </trkpt>
      <trkpt lat="49.24511" lon="1.41639">
        <ele>24.6</ele>
        <time>2021-10-08T10:03:16Z</time>
      </trkpt>
      <trkpt lat="49.24517" lon="1.41694">
        <ele>24.8</ele>
        <time>2021-10-08T10:03:23Z</time>
      </trkpt>
      <trkpt lat="49.24519" lon="1.41726">
        <ele>24.8</ele>
        <time>2021-10-08T10:03:27Z</time>
      </trkpt>
      <trkpt lat="49.2452" lon="1.41751">
        <ele>24.8</ele>
        <time>2021-10-08T10:03:30Z</time>
      </trkpt>
      <trkpt lat="49.24522" lon="1.41807">
        <ele>25</ele>
        <time>2021-10-08T10:03:37Z</time>
      </trkpt>
      <trkpt lat="49.24521" lon="1.41838">
        <ele>25</ele>
        <time>2021-10-08T10:03:41Z</time>
      </trkpt>
      <trkpt lat="49.2452" lon="1.41845">
        <ele>25</ele>
        <time>2021-10-08T10:03:42Z</time>
      </trkpt>
      <trkpt lat="49.24519" lon="1.41865">
        <ele>25.6</ele>
        <time>2021-10-08T10:03:46Z</time>
      </trkpt>
      <trkpt lat="49.24518" lon="1.4187">
        <ele>25.8</ele>
        <time>2021-10-08T10:03:47Z</time>
      </trkpt>
      <trkpt lat="49.24516" lon="1.41893">
        <ele>26.6</ele>
        <time>2021-10-08T10:03:51Z</time>
      </trkpt>
      <trkpt lat="49.24516" lon="1.41898">
        <ele>26.8</ele>
        <time>2021-10-08T10:03:52Z</time>
      </trkpt>
      <trkpt lat="49.24515" lon="1.41912">
        <ele>27.2</ele>
        <time>2021-10-08T10:03:54Z</time>
      </trkpt>
      <trkpt lat="49.24513" lon="1.41926">
        <ele>27.2</ele>
        <time>2021-10-08T10:03:56Z</time>
      </trkpt>
      <trkpt lat="49.24509" lon="1.41982">
        <ele>27.4</ele>
        <time>2021-10-08T10:04:04Z</time>
      </trkpt>
      <trkpt lat="49.24509" lon="1.41989">
        <ele>27.4</ele>
        <time>2021-10-08T10:04:05Z</time>
      </trkpt>
      <trkpt lat="49.2451" lon="1.42004">
        <ele>27.6</ele>
        <time>2021-10-08T10:04:07Z</time>
      </trkpt>
      <trkpt lat="49.24511" lon="1.42011">
        <ele>27.6</ele>
        <time>2021-10-08T10:04:08Z</time>
      </trkpt>
      <trkpt lat="49.24513" lon="1.42026">
        <ele>27.8</ele>
        <time>2021-10-08T10:04:10Z</time>
      </trkpt>
      <trkpt lat="49.24518" lon="1.42054">
        <ele>28.2</ele>
        <time>2021-10-08T10:04:14Z</time>
      </trkpt>
      <trkpt lat="49.2452" lon="1.42061">
        <ele>28.4</ele>
        <time>2021-10-08T10:04:15Z</time>
      </trkpt>
      <trkpt lat="49.24521" lon="1.4209">
        <ele>28.6</ele>
        <time>2021-10-08T10:04:19Z</time>
      </trkpt>
      <trkpt lat="49.24523" lon="1.42119">
        <ele>28.8</ele>
        <time>2021-10-08T10:04:23Z</time>
      </trkpt>
      <trkpt lat="49.24525" lon="1.42154">
        <ele>29.2</ele>
        <time>2021-10-08T10:04:28Z</time>
      </trkpt>
      <trkpt lat="49.24527" lon="1.42167">
        <ele>29.4</ele>
        <time>2021-10-08T10:04:30Z</time>
      </trkpt>
      <trkpt lat="49.24528" lon="1.42174">
        <ele>29.6</ele>
        <time>2021-10-08T10:04:31Z</time>
      </trkpt>
      <trkpt lat="49.24531" lon="1.42193">
        <ele>29.8</ele>
        <time>2021-10-08T10:04:34Z</time>
      </trkpt>
      <trkpt lat="49.24531" lon="1.42199">
        <ele>29.8</ele>
        <time>2021-10-08T10:04:35Z</time>
      </trkpt>
      <trkpt lat="49.24536" lon="1.42253">
        <ele>31</ele>
        <time>2021-10-08T10:04:43Z</time>
      </trkpt>
      <trkpt lat="49.24536" lon="1.42259">
        <ele>31.2</ele>
        <time>2021-10-08T10:04:44Z</time>
      </trkpt>
      <trkpt lat="49.24536" lon="1.42265">
        <ele>31.4</ele>
        <time>2021-10-08T10:04:45Z</time>
      </trkpt>
      <trkpt lat="49.24537" lon="1.42284">
        <ele>32</ele>
        <time>2021-10-08T10:04:48Z</time>
      </trkpt>
      <trkpt lat="49.24538" lon="1.42289">
        <ele>32.2</ele>
        <time>2021-10-08T10:04:49Z</time>
      </trkpt>
      <trkpt lat="49.2454" lon="1.42313">
        <ele>32.6</ele>
        <time>2021-10-08T10:04:54Z</time>
      </trkpt>
      <trkpt lat="49.24541" lon="1.42332">
        <ele>33.2</ele>
        <time>2021-10-08T10:04:58Z</time>
      </trkpt>
      <trkpt lat="49.24541" lon="1.42345">
        <ele>34</ele>
        <time>2021-10-08T10:05:01Z</time>
      </trkpt>
      <trkpt lat="49.24539" lon="1.42353">
        <ele>34.4</ele>
        <time>2021-10-08T10:05:03Z</time>
      </trkpt>
      <trkpt lat="49.24534" lon="1.42355">
        <ele>34.6</ele>
        <time>2021-10-08T10:05:05Z</time>
      </trkpt>
      <trkpt lat="49.24526" lon="1.4235">
        <ele>35.2</ele>
        <time>2021-10-08T10:05:09Z</time>
      </trkpt>
      <trkpt lat="49.24524" lon="1.42349">
        <ele>35.4</ele>
        <time>2021-10-08T10:05:10Z</time>
      </trkpt>
      <trkpt lat="49.24514" lon="1.42344">
        <ele>36.6</ele>
        <time>2021-10-08T10:05:16Z</time>
      </trkpt>
      <trkpt lat="49.2451" lon="1.42343">
        <ele>37</ele>
        <time>2021-10-08T10:05:18Z</time>
      </trkpt>
      <trkpt lat="49.24505" lon="1.42342">
        <ele>38</ele>
        <time>2021-10-08T10:05:21Z</time>
      </trkpt>
      <trkpt lat="49.24498" lon="1.42342">
        <ele>39</ele>
        <time>2021-10-08T10:05:25Z</time>
      </trkpt>
      <trkpt lat="49.24496" lon="1.42342">
        <ele>39.2</ele>
        <time>2021-10-08T10:05:26Z</time>
      </trkpt>
      <trkpt lat="49.2449" lon="1.42341">
        <ele>40</ele>
        <time>2021-10-08T10:05:29Z</time>
      </trkpt>
      <trkpt lat="49.24485" lon="1.4234">
        <ele>41.2</ele>
        <time>2021-10-08T10:05:32Z</time>
      </trkpt>
      <trkpt lat="49.2448" lon="1.42339">
        <ele>41.8</ele>
        <time>2021-10-08T10:05:35Z</time>
      </trkpt>
      <trkpt lat="49.24476" lon="1.42339">
        <ele>42.2</ele>
        <time>2021-10-08T10:05:37Z</time>
      </trkpt>
      <trkpt lat="49.24466" lon="1.42339">
        <ele>43.2</ele>
        <time>2021-10-08T10:05:43Z</time>
      </trkpt>
      <trkpt lat="49.24459" lon="1.42338">
        <ele>44.2</ele>
        <time>2021-10-08T10:05:47Z</time>
      </trkpt>
      <trkpt lat="49.24457" lon="1.42338">
        <ele>44.4</ele>
        <time>2021-10-08T10:05:48Z</time>
      </trkpt>
      <trkpt lat="49.24447" lon="1.42336">
        <ele>45.4</ele>
        <time>2021-10-08T10:05:54Z</time>
      </trkpt>
      <trkpt lat="49.24446" lon="1.42335">
        <ele>45.8</ele>
        <time>2021-10-08T10:05:55Z</time>
      </trkpt>
      <trkpt lat="49.24441" lon="1.42334">
        <ele>46.4</ele>
        <time>2021-10-08T10:05:58Z</time>
      </trkpt>
      <trkpt lat="49.24435" lon="1.42331">
        <ele>47.6</ele>
        <time>2021-10-08T10:06:02Z</time>
      </trkpt>
      <trkpt lat="49.24433" lon="1.4233">
        <ele>48</ele>
        <time>2021-10-08T10:06:03Z</time>
      </trkpt>
      <trkpt lat="49.24428" lon="1.42329">
        <ele>48.6</ele>
        <time>2021-10-08T10:06:06Z</time>
      </trkpt>
      <trkpt lat="49.2442" lon="1.42325">
        <ele>49.8</ele>
        <time>2021-10-08T10:06:11Z</time>
      </trkpt>
      <trkpt lat="49.24415" lon="1.42324">
        <ele>50.2</ele>
        <time>2021-10-08T10:06:14Z</time>
      </trkpt>
      <trkpt lat="49.24409" lon="1.42325">
        <ele>51</ele>
        <time>2021-10-08T10:06:18Z</time>
      </trkpt>
      <trkpt lat="49.24401" lon="1.4233">
        <ele>51.8</ele>
        <time>2021-10-08T10:06:23Z</time>
      </trkpt>
      <trkpt lat="49.24399" lon="1.42331">
        <ele>52</ele>
        <time>2021-10-08T10:06:24Z</time>
      </trkpt>
      <trkpt lat="49.24395" lon="1.4234">
        <ele>53</ele>
        <time>2021-10-08T10:06:29Z</time>
      </trkpt>
      <trkpt lat="49.2439" lon="1.42334">
        <ele>53.6</ele>
        <time>2021-10-08T10:06:33Z</time>
      </trkpt>
      <trkpt lat="49.24387" lon="1.42328">
        <ele>54.2</ele>
        <time>2021-10-08T10:06:36Z</time>
      </trkpt>
      <trkpt lat="49.24383" lon="1.42322">
        <ele>54.8</ele>
        <time>2021-10-08T10:06:40Z</time>
      </trkpt>
      <trkpt lat="49.24373" lon="1.42315">
        <ele>55.4</ele>
        <time>2021-10-08T10:06:46Z</time>
      </trkpt>
      <trkpt lat="49.24371" lon="1.42315">
        <ele>55.6</ele>
        <time>2021-10-08T10:06:47Z</time>
      </trkpt>
      <trkpt lat="49.24362" lon="1.42309">
        <ele>56.4</ele>
        <time>2021-10-08T10:06:53Z</time>
      </trkpt>
      <trkpt lat="49.24359" lon="1.42307">
        <ele>56.8</ele>
        <time>2021-10-08T10:06:55Z</time>
      </trkpt>
      <trkpt lat="49.24356" lon="1.42305">
        <ele>57.4</ele>
        <time>2021-10-08T10:06:57Z</time>
      </trkpt>
      <trkpt lat="49.24355" lon="1.42304">
        <ele>57.6</ele>
        <time>2021-10-08T10:06:58Z</time>
      </trkpt>
      <trkpt lat="49.24347" lon="1.42297">
        <ele>58.2</ele>
        <time>2021-10-08T10:07:03Z</time>
      </trkpt>
      <trkpt lat="49.24346" lon="1.42295">
        <ele>58.6</ele>
        <time>2021-10-08T10:07:04Z</time>
      </trkpt>
      <trkpt lat="49.24334" lon="1.42279">
        <ele>59.4</ele>
        <time>2021-10-08T10:07:13Z</time>
      </trkpt>
      <trkpt lat="49.24325" lon="1.42263">
        <ele>60.6</ele>
        <time>2021-10-08T10:07:21Z</time>
      </trkpt>
      <trkpt lat="49.24321" lon="1.42253">
        <ele>61.6</ele>
        <time>2021-10-08T10:07:26Z</time>
      </trkpt>
      <trkpt lat="49.24319" lon="1.42249">
        <ele>62</ele>
        <time>2021-10-08T10:07:28Z</time>
      </trkpt>
      <trkpt lat="49.24314" lon="1.42235">
        <ele>62.8</ele>
        <time>2021-10-08T10:07:35Z</time>
      </trkpt>
      <trkpt lat="49.2431" lon="1.42224">
        <ele>63.8</ele>
        <time>2021-10-08T10:07:40Z</time>
      </trkpt>
      <trkpt lat="49.24307" lon="1.42218">
        <ele>64.8</ele>
        <time>2021-10-08T10:07:43Z</time>
      </trkpt>
      <trkpt lat="49.24305" lon="1.42217">
        <ele>65</ele>
        <time>2021-10-08T10:07:44Z</time>
      </trkpt>
      <trkpt lat="49.24302" lon="1.42209">
        <ele>65.8</ele>
        <time>2021-10-08T10:07:48Z</time>
      </trkpt>
      <trkpt lat="49.24299" lon="1.42203">
        <ele>66.2</ele>
        <time>2021-10-08T10:07:51Z</time>
      </trkpt>
      <trkpt lat="49.24296" lon="1.42193">
        <ele>66.8</ele>
        <time>2021-10-08T10:07:56Z</time>
      </trkpt>
      <trkpt lat="49.24295" lon="1.42186">
        <ele>67</ele>
        <time>2021-10-08T10:07:59Z</time>
      </trkpt>
      <trkpt lat="49.24295" lon="1.42184">
        <ele>67.2</ele>
        <time>2021-10-08T10:08:00Z</time>
      </trkpt>
      <trkpt lat="49.24295" lon="1.42178">
        <ele>67.6</ele>
        <time>2021-10-08T10:08:03Z</time>
      </trkpt>
      <trkpt lat="49.24297" lon="1.42171">
        <ele>68.4</ele>
        <time>2021-10-08T10:08:07Z</time>
      </trkpt>
      <trkpt lat="49.24299" lon="1.42167">
        <ele>68.8</ele>
        <time>2021-10-08T10:08:10Z</time>
      </trkpt>
      <trkpt lat="49.243" lon="1.42165">
        <ele>69.2</ele>
        <time>2021-10-08T10:08:11Z</time>
      </trkpt>
      <trkpt lat="49.24301" lon="1.42164">
        <ele>69.4</ele>
        <time>2021-10-08T10:08:12Z</time>
      </trkpt>
      <trkpt lat="49.24305" lon="1.42158">
        <ele>70.6</ele>
        <time>2021-10-08T10:08:16Z</time>
      </trkpt>
      <trkpt lat="49.2431" lon="1.42151">
        <ele>72</ele>
        <time>2021-10-08T10:08:21Z</time>
      </trkpt>
      <trkpt lat="49.24312" lon="1.42147">
        <ele>72.8</ele>
        <time>2021-10-08T10:08:24Z</time>
      </trkpt>
      <trkpt lat="49.24313" lon="1.42146">
        <ele>73.2</ele>
        <time>2021-10-08T10:08:25Z</time>
      </trkpt>
      <trkpt lat="49.24316" lon="1.42142">
        <ele>74.2</ele>
        <time>2021-10-08T10:08:28Z</time>
      </trkpt>
      <trkpt lat="49.24319" lon="1.42137">
        <ele>75.6</ele>
        <time>2021-10-08T10:08:32Z</time>
      </trkpt>
      <trkpt lat="49.2432" lon="1.42136">
        <ele>76</ele>
        <time>2021-10-08T10:08:33Z</time>
      </trkpt>
      <trkpt lat="49.24323" lon="1.42132">
        <ele>77</ele>
        <time>2021-10-08T10:08:36Z</time>
      </trkpt>
      <trkpt lat="49.24326" lon="1.42127">
        <ele>78.2</ele>
        <time>2021-10-08T10:08:40Z</time>
      </trkpt>
      <trkpt lat="49.24327" lon="1.42125">
        <ele>78.8</ele>
        <time>2021-10-08T10:08:42Z</time>
      </trkpt>
      <trkpt lat="49.24328" lon="1.42123">
        <ele>79.2</ele>
        <time>2021-10-08T10:08:43Z</time>
      </trkpt>
      <trkpt lat="49.24331" lon="1.42119">
        <ele>80.2</ele>
        <time>2021-10-08T10:08:47Z</time>
      </trkpt>
      <trkpt lat="49.24333" lon="1.42117">
        <ele>81</ele>
        <time>2021-10-08T10:08:49Z</time>
      </trkpt>
      <trkpt lat="49.24334" lon="1.42116">
        <ele>81.8</ele>
        <time>2021-10-08T10:08:50Z</time>
      </trkpt>
      <trkpt lat="49.24337" lon="1.42111">
        <ele>82.8</ele>
        <time>2021-10-08T10:08:54Z</time>
      </trkpt>
      <trkpt lat="49.24339" lon="1.42107">
        <ele>83.4</ele>
        <time>2021-10-08T10:08:57Z</time>
      </trkpt>
      <trkpt lat="49.24339" lon="1.42105">
        <ele>83.8</ele>
        <time>2021-10-08T10:08:58Z</time>
      </trkpt>
      <trkpt lat="49.24339" lon="1.42096">
        <ele>85</ele>
        <time>2021-10-08T10:09:03Z</time>
      </trkpt>
      <trkpt lat="49.24337" lon="1.42087">
        <ele>86.2</ele>
        <time>2021-10-08T10:09:08Z</time>
      </trkpt>
      <trkpt lat="49.24335" lon="1.42079">
        <ele>87</ele>
        <time>2021-10-08T10:09:12Z</time>
      </trkpt>
      <trkpt lat="49.24334" lon="1.42077">
        <ele>87.2</ele>
        <time>2021-10-08T10:09:13Z</time>
      </trkpt>
      <trkpt lat="49.24329" lon="1.42065">
        <ele>88.2</ele>
        <time>2021-10-08T10:09:20Z</time>
      </trkpt>
      <trkpt lat="49.24327" lon="1.42061">
        <ele>88.4</ele>
        <time>2021-10-08T10:09:22Z</time>
      </trkpt>
      <trkpt lat="49.24322" lon="1.42051">
        <ele>89.6</ele>
        <time>2021-10-08T10:09:28Z</time>
      </trkpt>
      <trkpt lat="49.24321" lon="1.42049">
        <ele>89.8</ele>
        <time>2021-10-08T10:09:29Z</time>
      </trkpt>
      <trkpt lat="49.24316" lon="1.42041">
        <ele>90.8</ele>
        <time>2021-10-08T10:09:34Z</time>
      </trkpt>
      <trkpt lat="49.24314" lon="1.42036">
        <ele>91.2</ele>
        <time>2021-10-08T10:09:37Z</time>
      </trkpt>
      <trkpt lat="49.24312" lon="1.42031">
        <ele>91.8</ele>
        <time>2021-10-08T10:09:40Z</time>
      </trkpt>
      <trkpt lat="49.24308" lon="1.42023">
        <ele>92.8</ele>
        <time>2021-10-08T10:09:45Z</time>
      </trkpt>
      <trkpt lat="49.24307" lon="1.42021">
        <ele>93.2</ele>
        <time>2021-10-08T10:09:46Z</time>
      </trkpt>
      <trkpt lat="49.24303" lon="1.4201">
        <ele>94</ele>
        <time>2021-10-08T10:09:52Z</time>
      </trkpt>
      <trkpt lat="49.24302" lon="1.42004">
        <ele>94.4</ele>
        <time>2021-10-08T10:09:55Z</time>
      </trkpt>
      <trkpt lat="49.24301" lon="1.41998">
        <ele>95</ele>
        <time>2021-10-08T10:09:58Z</time>
      </trkpt>
      <trkpt lat="49.24298" lon="1.41986">
        <ele>96.2</ele>
        <time>2021-10-08T10:10:04Z</time>
      </trkpt>
      <trkpt lat="49.24297" lon="1.41978">
        <ele>97.4</ele>
        <time>2021-10-08T10:10:08Z</time>
      </trkpt>
      <trkpt lat="49.24296" lon="1.41971">
        <ele>98.4</ele>
        <time>2021-10-08T10:10:12Z</time>
      </trkpt>
      <trkpt lat="49.24295" lon="1.41965">
        <ele>99.6</ele>
        <time>2021-10-08T10:10:15Z</time>
      </trkpt>
      <trkpt lat="49.24294" lon="1.41963">
        <ele>100</ele>
        <time>2021-10-08T10:10:16Z</time>
      </trkpt>
      <trkpt lat="49.24292" lon="1.41955">
        <ele>101</ele>
        <time>2021-10-08T10:10:20Z</time>
      </trkpt>
      <trkpt lat="49.2429" lon="1.41945">
        <ele>101.8</ele>
        <time>2021-10-08T10:10:25Z</time>
      </trkpt>
      <trkpt lat="49.24289" lon="1.41941">
        <ele>102</ele>
        <time>2021-10-08T10:10:27Z</time>
      </trkpt>
      <trkpt lat="49.24286" lon="1.41931">
        <ele>103</ele>
        <time>2021-10-08T10:10:32Z</time>
      </trkpt>
      <trkpt lat="49.24284" lon="1.41925">
        <ele>103.6</ele>
        <time>2021-10-08T10:10:35Z</time>
      </trkpt>
      <trkpt lat="49.24282" lon="1.4192">
        <ele>104.2</ele>
        <time>2021-10-08T10:10:38Z</time>
      </trkpt>
      <trkpt lat="49.24279" lon="1.41913">
        <ele>105.6</ele>
        <time>2021-10-08T10:10:42Z</time>
      </trkpt>
      <trkpt lat="49.24277" lon="1.41909">
        <ele>106</ele>
        <time>2021-10-08T10:10:44Z</time>
      </trkpt>
      <trkpt lat="49.24273" lon="1.41903">
        <ele>106.6</ele>
        <time>2021-10-08T10:10:48Z</time>
      </trkpt>
      <trkpt lat="49.24268" lon="1.41895">
        <ele>107.6</ele>
        <time>2021-10-08T10:10:53Z</time>
      </trkpt>
      <trkpt lat="49.24267" lon="1.41893">
        <ele>108</ele>
        <time>2021-10-08T10:10:54Z</time>
      </trkpt>
      <trkpt lat="49.24261" lon="1.41885">
        <ele>108.8</ele>
        <time>2021-10-08T10:10:59Z</time>
      </trkpt>
      <trkpt lat="49.24258" lon="1.4188">
        <ele>109.4</ele>
        <time>2021-10-08T10:11:02Z</time>
      </trkpt>
      <trkpt lat="49.24255" lon="1.41875">
        <ele>109.8</ele>
        <time>2021-10-08T10:11:05Z</time>
      </trkpt>
      <trkpt lat="49.2425" lon="1.41866">
        <ele>111.2</ele>
        <time>2021-10-08T10:11:10Z</time>
      </trkpt>
      <trkpt lat="49.24249" lon="1.41864">
        <ele>111.4</ele>
        <time>2021-10-08T10:11:11Z</time>
      </trkpt>
      <trkpt lat="49.24244" lon="1.41857">
        <ele>112.4</ele>
        <time>2021-10-08T10:11:15Z</time>
      </trkpt>
      <trkpt lat="49.2424" lon="1.4185">
        <ele>113.4</ele>
        <time>2021-10-08T10:11:19Z</time>
      </trkpt>
      <trkpt lat="49.24238" lon="1.41848">
        <ele>113.4</ele>
        <time>2021-10-08T10:11:20Z</time>
      </trkpt>
      <trkpt lat="49.24229" lon="1.41837">
        <ele>114.6</ele>
        <time>2021-10-08T10:11:27Z</time>
      </trkpt>
      <trkpt lat="49.24228" lon="1.41835">
        <ele>114.8</ele>
        <time>2021-10-08T10:11:28Z</time>
      </trkpt>
      <trkpt lat="49.24224" lon="1.41827">
        <ele>115.6</ele>
        <time>2021-10-08T10:11:32Z</time>
      </trkpt>
      <trkpt lat="49.24218" lon="1.41819">
        <ele>116.4</ele>
        <time>2021-10-08T10:11:36Z</time>
      </trkpt>
      <trkpt lat="49.24213" lon="1.41812">
        <ele>116.8</ele>
        <time>2021-10-08T10:11:40Z</time>
      </trkpt>
      <trkpt lat="49.24207" lon="1.41804">
        <ele>117.6</ele>
        <time>2021-10-08T10:11:45Z</time>
      </trkpt>
      <trkpt lat="49.24205" lon="1.41801">
        <ele>118</ele>
        <time>2021-10-08T10:11:47Z</time>
      </trkpt>
      <trkpt lat="49.24199" lon="1.41793">
        <ele>118.6</ele>
        <time>2021-10-08T10:11:52Z</time>
      </trkpt>
      <trkpt lat="49.24196" lon="1.41789">
        <ele>119</ele>
        <time>2021-10-08T10:11:55Z</time>
      </trkpt>
      <trkpt lat="49.24191" lon="1.41781">
        <ele>120</ele>
        <time>2021-10-08T10:12:00Z</time>
      </trkpt>
      <trkpt lat="49.2419" lon="1.41779">
        <ele>120.2</ele>
        <time>2021-10-08T10:12:01Z</time>
      </trkpt>
      <trkpt lat="49.24182" lon="1.41769">
        <ele>121.6</ele>
        <time>2021-10-08T10:12:08Z</time>
      </trkpt>
      <trkpt lat="49.24181" lon="1.41767">
        <ele>121.8</ele>
        <time>2021-10-08T10:12:09Z</time>
      </trkpt>
      <trkpt lat="49.24177" lon="1.41763">
        <ele>122.4</ele>
        <time>2021-10-08T10:12:12Z</time>
      </trkpt>
      <trkpt lat="49.24176" lon="1.41762">
        <ele>122.6</ele>
        <time>2021-10-08T10:12:13Z</time>
      </trkpt>
      <trkpt lat="49.2417" lon="1.41753">
        <ele>123.6</ele>
        <time>2021-10-08T10:12:19Z</time>
      </trkpt>
      <trkpt lat="49.24165" lon="1.41745">
        <ele>124.8</ele>
        <time>2021-10-08T10:12:24Z</time>
      </trkpt>
      <trkpt lat="49.24162" lon="1.41739">
        <ele>125.6</ele>
        <time>2021-10-08T10:12:28Z</time>
      </trkpt>
      <trkpt lat="49.24161" lon="1.41739">
        <ele>125.8</ele>
        <time>2021-10-08T10:12:29Z</time>
      </trkpt>
      <trkpt lat="49.24161" lon="1.41738">
        <ele>126</ele>
        <time>2021-10-08T10:12:30Z</time>
      </trkpt>
      <trkpt lat="49.24159" lon="1.41738">
        <ele>129</ele>
        <time>2021-10-08T10:12:42Z</time>
      </trkpt>
      <trkpt lat="49.24157" lon="1.41735">
        <ele>129.2</ele>
        <time>2021-10-08T10:12:44Z</time>
      </trkpt>
      <trkpt lat="49.24149" lon="1.41723">
        <ele>130</ele>
        <time>2021-10-08T10:12:52Z</time>
      </trkpt>
      <trkpt lat="49.24143" lon="1.41714">
        <ele>131.4</ele>
        <time>2021-10-08T10:12:58Z</time>
      </trkpt>
      <trkpt lat="49.2414" lon="1.4171">
        <ele>132.4</ele>
        <time>2021-10-08T10:13:01Z</time>
      </trkpt>
      <trkpt lat="49.24138" lon="1.41709">
        <ele>132.8</ele>
        <time>2021-10-08T10:13:02Z</time>
      </trkpt>
      <trkpt lat="49.24137" lon="1.41707">
        <ele>133.4</ele>
        <time>2021-10-08T10:13:03Z</time>
      </trkpt>
      <trkpt lat="49.24132" lon="1.41703">
        <ele>134.6</ele>
        <time>2021-10-08T10:13:07Z</time>
      </trkpt>
      <trkpt lat="49.24128" lon="1.417">
        <ele>135.2</ele>
        <time>2021-10-08T10:13:10Z</time>
      </trkpt>
      <trkpt lat="49.24127" lon="1.41699">
        <ele>135.4</ele>
        <time>2021-10-08T10:13:11Z</time>
      </trkpt>
      <trkpt lat="49.24127" lon="1.41697">
        <ele>135.6</ele>
        <time>2021-10-08T10:13:12Z</time>
      </trkpt>
      <trkpt lat="49.24131" lon="1.41696">
        <ele>136.4</ele>
        <time>2021-10-08T10:13:15Z</time>
      </trkpt>
      <trkpt lat="49.24131" lon="1.41695">
        <ele>136.8</ele>
        <time>2021-10-08T10:13:17Z</time>
      </trkpt>
      <trkpt lat="49.24131" lon="1.41695">
        <ele>136.8</ele>
        <time>2021-10-08T10:13:18Z</time>
      </trkpt>
      <trkpt lat="49.24133" lon="1.41695">
        <ele>138</ele>
        <time>2021-10-08T10:15:08Z</time>
      </trkpt>
      <trkpt lat="49.24143" lon="1.41694">
        <ele>138</ele>
        <time>2021-10-08T10:15:13Z</time>
      </trkpt>
      <trkpt lat="49.2416" lon="1.41693">
        <ele>138</ele>
        <time>2021-10-08T10:15:17Z</time>
      </trkpt>
      <trkpt lat="49.24174" lon="1.41691">
        <ele>137.6</ele>
        <time>2021-10-08T10:15:21Z</time>
      </trkpt>
      <trkpt lat="49.24179" lon="1.41691">
        <ele>137.4</ele>
        <time>2021-10-08T10:15:22Z</time>
      </trkpt>
      <trkpt lat="49.2419" lon="1.4169">
        <ele>136.4</ele>
        <time>2021-10-08T10:15:24Z</time>
      </trkpt>
      <trkpt lat="49.24195" lon="1.41689">
        <ele>135.2</ele>
        <time>2021-10-08T10:15:25Z</time>
      </trkpt>
      <trkpt lat="49.24205" lon="1.41687">
        <ele>133.8</ele>
        <time>2021-10-08T10:15:27Z</time>
      </trkpt>
      <trkpt lat="49.24209" lon="1.41686">
        <ele>133.2</ele>
        <time>2021-10-08T10:15:28Z</time>
      </trkpt>
      <trkpt lat="49.24213" lon="1.41685">
        <ele>132.4</ele>
        <time>2021-10-08T10:15:29Z</time>
      </trkpt>
      <trkpt lat="49.24219" lon="1.41684">
        <ele>130.2</ele>
        <time>2021-10-08T10:15:31Z</time>
      </trkpt>
      <trkpt lat="49.24223" lon="1.41684">
        <ele>129</ele>
        <time>2021-10-08T10:15:32Z</time>
      </trkpt>
      <trkpt lat="49.24226" lon="1.41684">
        <ele>127.6</ele>
        <time>2021-10-08T10:15:33Z</time>
      </trkpt>
      <trkpt lat="49.24229" lon="1.41684">
        <ele>126.4</ele>
        <time>2021-10-08T10:15:34Z</time>
      </trkpt>
      <trkpt lat="49.24231" lon="1.41683">
        <ele>125</ele>
        <time>2021-10-08T10:15:35Z</time>
      </trkpt>
      <trkpt lat="49.24233" lon="1.41683">
        <ele>123.8</ele>
        <time>2021-10-08T10:15:36Z</time>
      </trkpt>
      <trkpt lat="49.24235" lon="1.41682">
        <ele>122.6</ele>
        <time>2021-10-08T10:15:37Z</time>
      </trkpt>
      <trkpt lat="49.24236" lon="1.41681">
        <ele>121</ele>
        <time>2021-10-08T10:15:39Z</time>
      </trkpt>
      <trkpt lat="49.24236" lon="1.41681">
        <ele>120.2</ele>
        <time>2021-10-08T10:15:40Z</time>
      </trkpt>
      <trkpt lat="49.24239" lon="1.41681">
        <ele>113</ele>
        <time>2021-10-08T10:16:07Z</time>
      </trkpt>
      <trkpt lat="49.24255" lon="1.4168">
        <ele>113</ele>
        <time>2021-10-08T10:16:11Z</time>
      </trkpt>
      <trkpt lat="49.24279" lon="1.41674">
        <ele>112.4</ele>
        <time>2021-10-08T10:16:16Z</time>
      </trkpt>
      <trkpt lat="49.24283" lon="1.41673">
        <ele>111.8</ele>
        <time>2021-10-08T10:16:17Z</time>
      </trkpt>
      <trkpt lat="49.24291" lon="1.41671">
        <ele>110</ele>
        <time>2021-10-08T10:16:19Z</time>
      </trkpt>
      <trkpt lat="49.24295" lon="1.41671">
        <ele>108.4</ele>
        <time>2021-10-08T10:16:20Z</time>
      </trkpt>
      <trkpt lat="49.24299" lon="1.41671">
        <ele>105.4</ele>
        <time>2021-10-08T10:16:21Z</time>
      </trkpt>
      <trkpt lat="49.24303" lon="1.41671">
        <ele>104</ele>
        <time>2021-10-08T10:16:22Z</time>
      </trkpt>
      <trkpt lat="49.24307" lon="1.4167">
        <ele>102.6</ele>
        <time>2021-10-08T10:16:23Z</time>
      </trkpt>
      <trkpt lat="49.24311" lon="1.41669">
        <ele>101.2</ele>
        <time>2021-10-08T10:16:24Z</time>
      </trkpt>
      <trkpt lat="49.24316" lon="1.41668">
        <ele>99.6</ele>
        <time>2021-10-08T10:16:25Z</time>
      </trkpt>
      <trkpt lat="49.24322" lon="1.41667">
        <ele>98.2</ele>
        <time>2021-10-08T10:16:26Z</time>
      </trkpt>
      <trkpt lat="49.24328" lon="1.41665">
        <ele>96.8</ele>
        <time>2021-10-08T10:16:27Z</time>
      </trkpt>
      <trkpt lat="49.24333" lon="1.41664">
        <ele>95.4</ele>
        <time>2021-10-08T10:16:28Z</time>
      </trkpt>
      <trkpt lat="49.24339" lon="1.41662">
        <ele>94.2</ele>
        <time>2021-10-08T10:16:29Z</time>
      </trkpt>
      <trkpt lat="49.24344" lon="1.41661">
        <ele>92.8</ele>
        <time>2021-10-08T10:16:30Z</time>
      </trkpt>
      <trkpt lat="49.24349" lon="1.4166">
        <ele>91.6</ele>
        <time>2021-10-08T10:16:31Z</time>
      </trkpt>
      <trkpt lat="49.24354" lon="1.4166">
        <ele>90.4</ele>
        <time>2021-10-08T10:16:32Z</time>
      </trkpt>
      <trkpt lat="49.2436" lon="1.41659">
        <ele>89</ele>
        <time>2021-10-08T10:16:33Z</time>
      </trkpt>
      <trkpt lat="49.24366" lon="1.41658">
        <ele>87.4</ele>
        <time>2021-10-08T10:16:34Z</time>
      </trkpt>
      <trkpt lat="49.24371" lon="1.41656">
        <ele>85.8</ele>
        <time>2021-10-08T10:16:35Z</time>
      </trkpt>
      <trkpt lat="49.24377" lon="1.41655">
        <ele>84</ele>
        <time>2021-10-08T10:16:36Z</time>
      </trkpt>
      <trkpt lat="49.24382" lon="1.41654">
        <ele>82.6</ele>
        <time>2021-10-08T10:16:37Z</time>
      </trkpt>
      <trkpt lat="49.24387" lon="1.41653">
        <ele>80.8</ele>
        <time>2021-10-08T10:16:38Z</time>
      </trkpt>
      <trkpt lat="49.24393" lon="1.41652">
        <ele>79.2</ele>
        <time>2021-10-08T10:16:39Z</time>
      </trkpt>
      <trkpt lat="49.24398" lon="1.41651">
        <ele>77.6</ele>
        <time>2021-10-08T10:16:40Z</time>
      </trkpt>
      <trkpt lat="49.24403" lon="1.41649">
        <ele>75.8</ele>
        <time>2021-10-08T10:16:41Z</time>
      </trkpt>
      <trkpt lat="49.24409" lon="1.41646">
        <ele>73.8</ele>
        <time>2021-10-08T10:16:42Z</time>
      </trkpt>
      <trkpt lat="49.24414" lon="1.41645">
        <ele>71.8</ele>
        <time>2021-10-08T10:16:43Z</time>
      </trkpt>
      <trkpt lat="49.24418" lon="1.41644">
        <ele>70</ele>
        <time>2021-10-08T10:16:44Z</time>
      </trkpt>
      <trkpt lat="49.24423" lon="1.41642">
        <ele>68</ele>
        <time>2021-10-08T10:16:45Z</time>
      </trkpt>
      <trkpt lat="49.24426" lon="1.41641">
        <ele>66.4</ele>
        <time>2021-10-08T10:16:46Z</time>
      </trkpt>
      <trkpt lat="49.2443" lon="1.4164">
        <ele>64.8</ele>
        <time>2021-10-08T10:16:47Z</time>
      </trkpt>
      <trkpt lat="49.24434" lon="1.41639">
        <ele>63.2</ele>
        <time>2021-10-08T10:16:48Z</time>
      </trkpt>
      <trkpt lat="49.24438" lon="1.41638">
        <ele>59.6</ele>
        <time>2021-10-08T10:16:49Z</time>
      </trkpt>
      <trkpt lat="49.24441" lon="1.41637">
        <ele>57.8</ele>
        <time>2021-10-08T10:16:50Z</time>
      </trkpt>
      <trkpt lat="49.24444" lon="1.41636">
        <ele>55.8</ele>
        <time>2021-10-08T10:16:51Z</time>
      </trkpt>
      <trkpt lat="49.24447" lon="1.41635">
        <ele>54</ele>
        <time>2021-10-08T10:16:52Z</time>
      </trkpt>
      <trkpt lat="49.2445" lon="1.41634">
        <ele>52.6</ele>
        <time>2021-10-08T10:16:53Z</time>
      </trkpt>
      <trkpt lat="49.24452" lon="1.41635">
        <ele>51.2</ele>
        <time>2021-10-08T10:16:54Z</time>
      </trkpt>
      <trkpt lat="49.24455" lon="1.41634">
        <ele>49.6</ele>
        <time>2021-10-08T10:16:55Z</time>
      </trkpt>
      <trkpt lat="49.24457" lon="1.41634">
        <ele>48</ele>
        <time>2021-10-08T10:16:56Z</time>
      </trkpt>
      <trkpt lat="49.2446" lon="1.41633">
        <ele>46.4</ele>
        <time>2021-10-08T10:16:57Z</time>
      </trkpt>
      <trkpt lat="49.24464" lon="1.41632">
        <ele>45</ele>
        <time>2021-10-08T10:16:58Z</time>
      </trkpt>
      <trkpt lat="49.24468" lon="1.4163">
        <ele>43.8</ele>
        <time>2021-10-08T10:16:59Z</time>
      </trkpt>
      <trkpt lat="49.24472" lon="1.41629">
        <ele>42.2</ele>
        <time>2021-10-08T10:17:00Z</time>
      </trkpt>
      <trkpt lat="49.24475" lon="1.41628">
        <ele>41</ele>
        <time>2021-10-08T10:17:01Z</time>
      </trkpt>
      <trkpt lat="49.24478" lon="1.41627">
        <ele>39.8</ele>
        <time>2021-10-08T10:17:02Z</time>
      </trkpt>
      <trkpt lat="49.24481" lon="1.41626">
        <ele>38.6</ele>
        <time>2021-10-08T10:17:03Z</time>
      </trkpt>
      <trkpt lat="49.24486" lon="1.41624">
        <ele>36.8</ele>
        <time>2021-10-08T10:17:05Z</time>
      </trkpt>
      <trkpt lat="49.24488" lon="1.41623">
        <ele>35.8</ele>
        <time>2021-10-08T10:17:06Z</time>
      </trkpt>
      <trkpt lat="49.2449" lon="1.41624">
        <ele>34.8</ele>
        <time>2021-10-08T10:17:07Z</time>
      </trkpt>
      <trkpt lat="49.24492" lon="1.41625">
        <ele>34</ele>
        <time>2021-10-08T10:17:08Z</time>
      </trkpt>
      <trkpt lat="49.24494" lon="1.4163">
        <ele>32.2</ele>
        <time>2021-10-08T10:17:10Z</time>
      </trkpt>
      <trkpt lat="49.24498" lon="1.41637">
        <ele>30.8</ele>
        <time>2021-10-08T10:17:12Z</time>
      </trkpt>
      <trkpt lat="49.24502" lon="1.41652">
        <ele>29.6</ele>
        <time>2021-10-08T10:17:15Z</time>
      </trkpt>
      <trkpt lat="49.24509" lon="1.41676">
        <ele>28.2</ele>
        <time>2021-10-08T10:17:19Z</time>
      </trkpt>
      <trkpt lat="49.24511" lon="1.41691">
        <ele>28</ele>
        <time>2021-10-08T10:17:21Z</time>
      </trkpt>
      <trkpt lat="49.24516" lon="1.41746">
        <ele>27.4</ele>
        <time>2021-10-08T10:17:28Z</time>
      </trkpt>
      <trkpt lat="49.24516" lon="1.41754">
        <ele>27.4</ele>
        <time>2021-10-08T10:17:29Z</time>
      </trkpt>
      <trkpt lat="49.24519" lon="1.41832">
        <ele>27.4</ele>
        <time>2021-10-08T10:17:39Z</time>
      </trkpt>
      <trkpt lat="49.24515" lon="1.4187">
        <ele>27.8</ele>
        <time>2021-10-08T10:17:45Z</time>
      </trkpt>
      <trkpt lat="49.24514" lon="1.41882">
        <ele>28</ele>
        <time>2021-10-08T10:17:47Z</time>
      </trkpt>
      <trkpt lat="49.24513" lon="1.41902">
        <ele>28.4</ele>
        <time>2021-10-08T10:17:50Z</time>
      </trkpt>
      <trkpt lat="49.24512" lon="1.41909">
        <ele>28.4</ele>
        <time>2021-10-08T10:17:51Z</time>
      </trkpt>
      <trkpt lat="49.24511" lon="1.41922">
        <ele>28.8</ele>
        <time>2021-10-08T10:17:53Z</time>
      </trkpt>
      <trkpt lat="49.24509" lon="1.41935">
        <ele>29</ele>
        <time>2021-10-08T10:17:55Z</time>
      </trkpt>
      <trkpt lat="49.24506" lon="1.41985">
        <ele>29.2</ele>
        <time>2021-10-08T10:18:02Z</time>
      </trkpt>
      <trkpt lat="49.24506" lon="1.41993">
        <ele>29.2</ele>
        <time>2021-10-08T10:18:03Z</time>
      </trkpt>
      <trkpt lat="49.24512" lon="1.42024">
        <ele>29.4</ele>
        <time>2021-10-08T10:18:07Z</time>
      </trkpt>
      <trkpt lat="49.24513" lon="1.42032">
        <ele>29.4</ele>
        <time>2021-10-08T10:18:08Z</time>
      </trkpt>
      <trkpt lat="49.24518" lon="1.4206">
        <ele>30</ele>
        <time>2021-10-08T10:18:12Z</time>
      </trkpt>
      <trkpt lat="49.24519" lon="1.42067">
        <ele>30.2</ele>
        <time>2021-10-08T10:18:13Z</time>
      </trkpt>
      <trkpt lat="49.24522" lon="1.42125">
        <ele>30.4</ele>
        <time>2021-10-08T10:18:21Z</time>
      </trkpt>
      <trkpt lat="49.24527" lon="1.42174">
        <ele>31</ele>
        <time>2021-10-08T10:18:28Z</time>
      </trkpt>
      <trkpt lat="49.24528" lon="1.4218">
        <ele>31.2</ele>
        <time>2021-10-08T10:18:29Z</time>
      </trkpt>
      <trkpt lat="49.24532" lon="1.42223">
        <ele>32</ele>
        <time>2021-10-08T10:18:35Z</time>
      </trkpt>
      <trkpt lat="49.24533" lon="1.42237">
        <ele>32.2</ele>
        <time>2021-10-08T10:18:37Z</time>
      </trkpt>
      <trkpt lat="49.24535" lon="1.42257">
        <ele>32.6</ele>
        <time>2021-10-08T10:18:40Z</time>
      </trkpt>
      <trkpt lat="49.24535" lon="1.42271">
        <ele>33</ele>
        <time>2021-10-08T10:18:42Z</time>
      </trkpt>
      <trkpt lat="49.24537" lon="1.42283">
        <ele>33.2</ele>
        <time>2021-10-08T10:18:44Z</time>
      </trkpt>
      <trkpt lat="49.24538" lon="1.42297">
        <ele>33.6</ele>
        <time>2021-10-08T10:18:47Z</time>
      </trkpt>
      <trkpt lat="49.24541" lon="1.42314">
        <ele>34.4</ele>
        <time>2021-10-08T10:18:51Z</time>
      </trkpt>
      <trkpt lat="49.24541" lon="1.42319">
        <ele>34.6</ele>
        <time>2021-10-08T10:18:52Z</time>
      </trkpt>
      <trkpt lat="49.24541" lon="1.42337">
        <ele>35.6</ele>
        <time>2021-10-08T10:18:56Z</time>
      </trkpt>
      <trkpt lat="49.24541" lon="1.42351">
        <ele>36</ele>
        <time>2021-10-08T10:18:59Z</time>
      </trkpt>
      <trkpt lat="49.24543" lon="1.42369">
        <ele>36.6</ele>
        <time>2021-10-08T10:19:03Z</time>
      </trkpt>
      <trkpt lat="49.24546" lon="1.42382">
        <ele>37</ele>
        <time>2021-10-08T10:19:06Z</time>
      </trkpt>
      <trkpt lat="49.24549" lon="1.42411">
        <ele>37.8</ele>
        <time>2021-10-08T10:19:12Z</time>
      </trkpt>
      <trkpt lat="49.24551" lon="1.42421">
        <ele>37.8</ele>
        <time>2021-10-08T10:19:14Z</time>
      </trkpt>
      <trkpt lat="49.24555" lon="1.42467">
        <ele>38.4</ele>
        <time>2021-10-08T10:19:24Z</time>
      </trkpt>
      <trkpt lat="49.24555" lon="1.42493">
        <ele>38.8</ele>
        <time>2021-10-08T10:19:30Z</time>
      </trkpt>
      <trkpt lat="49.24556" lon="1.42497">
        <ele>38.8</ele>
        <time>2021-10-08T10:19:31Z</time>
      </trkpt>
      <trkpt lat="49.24554" lon="1.42524">
        <ele>39.6</ele>
        <time>2021-10-08T10:19:38Z</time>
      </trkpt>
      <trkpt lat="49.24553" lon="1.42527">
        <ele>39.8</ele>
        <time>2021-10-08T10:19:39Z</time>
      </trkpt>
      <trkpt lat="49.24548" lon="1.42534">
        <ele>40.2</ele>
        <time>2021-10-08T10:19:42Z</time>
      </trkpt>
      <trkpt lat="49.24543" lon="1.42536">
        <ele>41.2</ele>
        <time>2021-10-08T10:19:45Z</time>
      </trkpt>
      <trkpt lat="49.24538" lon="1.42537">
        <ele>42.4</ele>
        <time>2021-10-08T10:19:48Z</time>
      </trkpt>
      <trkpt lat="49.24536" lon="1.42538">
        <ele>42.8</ele>
        <time>2021-10-08T10:19:49Z</time>
      </trkpt>
      <trkpt lat="49.24529" lon="1.4254">
        <ele>43.6</ele>
        <time>2021-10-08T10:19:53Z</time>
      </trkpt>
      <trkpt lat="49.24523" lon="1.4254">
        <ele>43.8</ele>
        <time>2021-10-08T10:19:56Z</time>
      </trkpt>
      <trkpt lat="49.24512" lon="1.42542">
        <ele>44.6</ele>
        <time>2021-10-08T10:20:02Z</time>
      </trkpt>
      <trkpt lat="49.24508" lon="1.42543">
        <ele>45</ele>
        <time>2021-10-08T10:20:04Z</time>
      </trkpt>
      <trkpt lat="49.24503" lon="1.42543">
        <ele>46</ele>
        <time>2021-10-08T10:20:07Z</time>
      </trkpt>
      <trkpt lat="49.24496" lon="1.42544">
        <ele>46.8</ele>
        <time>2021-10-08T10:20:11Z</time>
      </trkpt>
      <trkpt lat="49.24492" lon="1.42544">
        <ele>47.2</ele>
        <time>2021-10-08T10:20:13Z</time>
      </trkpt>
      <trkpt lat="49.24483" lon="1.42545">
        <ele>48.2</ele>
        <time>2021-10-08T10:20:18Z</time>
      </trkpt>
      <trkpt lat="49.24481" lon="1.42545">
        <ele>48.4</ele>
        <time>2021-10-08T10:20:19Z</time>
      </trkpt>
      <trkpt lat="49.2447" lon="1.42546">
        <ele>49.6</ele>
        <time>2021-10-08T10:20:25Z</time>
      </trkpt>
      <trkpt lat="49.24467" lon="1.42546">
        <ele>49.8</ele>
        <time>2021-10-08T10:20:27Z</time>
      </trkpt>
      <trkpt lat="49.2446" lon="1.42545">
        <ele>50.6</ele>
        <time>2021-10-08T10:20:31Z</time>
      </trkpt>
      <trkpt lat="49.24454" lon="1.42544">
        <ele>51.2</ele>
        <time>2021-10-08T10:20:35Z</time>
      </trkpt>
      <trkpt lat="49.24449" lon="1.42543">
        <ele>51.8</ele>
        <time>2021-10-08T10:20:38Z</time>
      </trkpt>
      <trkpt lat="49.24441" lon="1.42543">
        <ele>53</ele>
        <time>2021-10-08T10:20:43Z</time>
      </trkpt>
      <trkpt lat="49.24431" lon="1.42543">
        <ele>54</ele>
        <time>2021-10-08T10:20:49Z</time>
      </trkpt>
      <trkpt lat="49.24428" lon="1.42542">
        <ele>54.6</ele>
        <time>2021-10-08T10:20:51Z</time>
      </trkpt>
      <trkpt lat="49.24426" lon="1.42541">
        <ele>55.2</ele>
        <time>2021-10-08T10:20:53Z</time>
      </trkpt>
      <trkpt lat="49.24426" lon="1.42537">
        <ele>55.6</ele>
        <time>2021-10-08T10:20:55Z</time>
      </trkpt>
      <trkpt lat="49.24427" lon="1.42529">
        <ele>56.2</ele>
        <time>2021-10-08T10:20:57Z</time>
      </trkpt>
      <trkpt lat="49.24428" lon="1.42517">
        <ele>57.2</ele>
        <time>2021-10-08T10:21:00Z</time>
      </trkpt>
      <trkpt lat="49.24428" lon="1.42512">
        <ele>57.6</ele>
        <time>2021-10-08T10:21:01Z</time>
      </trkpt>
      <trkpt lat="49.24425" lon="1.42487">
        <ele>58.6</ele>
        <time>2021-10-08T10:21:08Z</time>
      </trkpt>
      <trkpt lat="49.24421" lon="1.42467">
        <ele>59.6</ele>
        <time>2021-10-08T10:21:15Z</time>
      </trkpt>
      <trkpt lat="49.24421" lon="1.42464">
        <ele>59.8</ele>
        <time>2021-10-08T10:21:16Z</time>
      </trkpt>
      <trkpt lat="49.24416" lon="1.42444">
        <ele>60.6</ele>
        <time>2021-10-08T10:21:22Z</time>
      </trkpt>
      <trkpt lat="49.24415" lon="1.4244">
        <ele>60.8</ele>
        <time>2021-10-08T10:21:23Z</time>
      </trkpt>
      <trkpt lat="49.24403" lon="1.42412">
        <ele>61.4</ele>
        <time>2021-10-08T10:21:29Z</time>
      </trkpt>
      <trkpt lat="49.24387" lon="1.42401">
        <ele>61.2</ele>
        <time>2021-10-08T10:21:34Z</time>
      </trkpt>
      <trkpt lat="49.24376" lon="1.42405">
        <ele>61.2</ele>
        <time>2021-10-08T10:21:39Z</time>
      </trkpt>
      <trkpt lat="49.24358" lon="1.42417">
        <ele>61.8</ele>
        <time>2021-10-08T10:21:49Z</time>
      </trkpt>
      <trkpt lat="49.24357" lon="1.42418">
        <ele>62</ele>
        <time>2021-10-08T10:21:50Z</time>
      </trkpt>
      <trkpt lat="49.24344" lon="1.42427">
        <ele>63</ele>
        <time>2021-10-08T10:21:58Z</time>
      </trkpt>
      <trkpt lat="49.24338" lon="1.42428">
        <ele>64</ele>
        <time>2021-10-08T10:22:03Z</time>
      </trkpt>
      <trkpt lat="49.24335" lon="1.42429">
        <ele>64.6</ele>
        <time>2021-10-08T10:22:05Z</time>
      </trkpt>
      <trkpt lat="49.24334" lon="1.42429">
        <ele>65</ele>
        <time>2021-10-08T10:22:06Z</time>
      </trkpt>
      <trkpt lat="49.2433" lon="1.42428">
        <ele>66</ele>
        <time>2021-10-08T10:22:09Z</time>
      </trkpt>
      <trkpt lat="49.24329" lon="1.42428">
        <ele>66.4</ele>
        <time>2021-10-08T10:22:10Z</time>
      </trkpt>
      <trkpt lat="49.24325" lon="1.42429">
        <ele>67</ele>
        <time>2021-10-08T10:22:13Z</time>
      </trkpt>
      <trkpt lat="49.24321" lon="1.42429">
        <ele>68.2</ele>
        <time>2021-10-08T10:22:17Z</time>
      </trkpt>
      <trkpt lat="49.24316" lon="1.42429">
        <ele>69.4</ele>
        <time>2021-10-08T10:22:21Z</time>
      </trkpt>
      <trkpt lat="49.24313" lon="1.42429">
        <ele>70.2</ele>
        <time>2021-10-08T10:22:24Z</time>
      </trkpt>
      <trkpt lat="49.24311" lon="1.42429">
        <ele>70.4</ele>
        <time>2021-10-08T10:22:25Z</time>
      </trkpt>
      <trkpt lat="49.24306" lon="1.42429">
        <ele>71.6</ele>
        <time>2021-10-08T10:22:29Z</time>
      </trkpt>
      <trkpt lat="49.24301" lon="1.42429">
        <ele>72.4</ele>
        <time>2021-10-08T10:22:32Z</time>
      </trkpt>
      <trkpt lat="49.24298" lon="1.42429">
        <ele>72.8</ele>
        <time>2021-10-08T10:22:34Z</time>
      </trkpt>
      <trkpt lat="49.24293" lon="1.4243">
        <ele>73.8</ele>
        <time>2021-10-08T10:22:38Z</time>
      </trkpt>
      <trkpt lat="49.24291" lon="1.42429">
        <ele>74.4</ele>
        <time>2021-10-08T10:22:40Z</time>
      </trkpt>
      <trkpt lat="49.24286" lon="1.4243">
        <ele>75</ele>
        <time>2021-10-08T10:22:43Z</time>
      </trkpt>
      <trkpt lat="49.2428" lon="1.42431">
        <ele>75.8</ele>
        <time>2021-10-08T10:22:48Z</time>
      </trkpt>
      <trkpt lat="49.24279" lon="1.4243">
        <ele>76</ele>
        <time>2021-10-08T10:22:49Z</time>
      </trkpt>
      <trkpt lat="49.24273" lon="1.4243">
        <ele>77.2</ele>
        <time>2021-10-08T10:22:54Z</time>
      </trkpt>
      <trkpt lat="49.2427" lon="1.4243">
        <ele>77.4</ele>
        <time>2021-10-08T10:22:56Z</time>
      </trkpt>
      <trkpt lat="49.24267" lon="1.42429">
        <ele>78.2</ele>
        <time>2021-10-08T10:22:58Z</time>
      </trkpt>
      <trkpt lat="49.24262" lon="1.42429">
        <ele>79.2</ele>
        <time>2021-10-08T10:23:02Z</time>
      </trkpt>
      <trkpt lat="49.2426" lon="1.42428">
        <ele>79.4</ele>
        <time>2021-10-08T10:23:03Z</time>
      </trkpt>
      <trkpt lat="49.24256" lon="1.42428">
        <ele>80.2</ele>
        <time>2021-10-08T10:23:07Z</time>
      </trkpt>
      <trkpt lat="49.24252" lon="1.42427">
        <ele>80.8</ele>
        <time>2021-10-08T10:23:10Z</time>
      </trkpt>
      <trkpt lat="49.24248" lon="1.42427">
        <ele>81.4</ele>
        <time>2021-10-08T10:23:13Z</time>
      </trkpt>
      <trkpt lat="49.24242" lon="1.42428">
        <ele>82.4</ele>
        <time>2021-10-08T10:23:17Z</time>
      </trkpt>
      <trkpt lat="49.2424" lon="1.42428">
        <ele>82.6</ele>
        <time>2021-10-08T10:23:18Z</time>
      </trkpt>
      <trkpt lat="49.24233" lon="1.42429">
        <ele>83.6</ele>
        <time>2021-10-08T10:23:23Z</time>
      </trkpt>
      <trkpt lat="49.2423" lon="1.42429">
        <ele>84</ele>
        <time>2021-10-08T10:23:25Z</time>
      </trkpt>
      <trkpt lat="49.24227" lon="1.42429">
        <ele>84.8</ele>
        <time>2021-10-08T10:23:27Z</time>
      </trkpt>
      <trkpt lat="49.2422" lon="1.4243">
        <ele>85.8</ele>
        <time>2021-10-08T10:23:32Z</time>
      </trkpt>
      <trkpt lat="49.24217" lon="1.4243">
        <ele>86.2</ele>
        <time>2021-10-08T10:23:34Z</time>
      </trkpt>
      <trkpt lat="49.24212" lon="1.4243">
        <ele>86.8</ele>
        <time>2021-10-08T10:23:37Z</time>
      </trkpt>
      <trkpt lat="49.24206" lon="1.42431">
        <ele>87.8</ele>
        <time>2021-10-08T10:23:42Z</time>
      </trkpt>
      <trkpt lat="49.24197" lon="1.4243">
        <ele>89</ele>
        <time>2021-10-08T10:23:48Z</time>
      </trkpt>
      <trkpt lat="49.24196" lon="1.4243">
        <ele>89.2</ele>
        <time>2021-10-08T10:23:49Z</time>
      </trkpt>
      <trkpt lat="49.2419" lon="1.4243">
        <ele>90</ele>
        <time>2021-10-08T10:23:53Z</time>
      </trkpt>
      <trkpt lat="49.24186" lon="1.42429">
        <ele>90.8</ele>
        <time>2021-10-08T10:23:56Z</time>
      </trkpt>
      <trkpt lat="49.24183" lon="1.42429">
        <ele>91.2</ele>
        <time>2021-10-08T10:23:58Z</time>
      </trkpt>
      <trkpt lat="49.24178" lon="1.42429">
        <ele>92.4</ele>
        <time>2021-10-08T10:24:02Z</time>
      </trkpt>
      <trkpt lat="49.24175" lon="1.42428">
        <ele>93</ele>
        <time>2021-10-08T10:24:05Z</time>
      </trkpt>
      <trkpt lat="49.24173" lon="1.42428">
        <ele>93.4</ele>
        <time>2021-10-08T10:24:07Z</time>
      </trkpt>
      <trkpt lat="49.24166" lon="1.4243">
        <ele>94.6</ele>
        <time>2021-10-08T10:24:12Z</time>
      </trkpt>
      <trkpt lat="49.24162" lon="1.42432">
        <ele>95.2</ele>
        <time>2021-10-08T10:24:15Z</time>
      </trkpt>
      <trkpt lat="49.24161" lon="1.42435">
        <ele>95.6</ele>
        <time>2021-10-08T10:24:17Z</time>
      </trkpt>
      <trkpt lat="49.2416" lon="1.42437">
        <ele>95.8</ele>
        <time>2021-10-08T10:24:18Z</time>
      </trkpt>
      <trkpt lat="49.24159" lon="1.42445">
        <ele>96.8</ele>
        <time>2021-10-08T10:24:22Z</time>
      </trkpt>
      <trkpt lat="49.24159" lon="1.42451">
        <ele>98</ele>
        <time>2021-10-08T10:24:25Z</time>
      </trkpt>
      <trkpt lat="49.24159" lon="1.42457">
        <ele>98.6</ele>
        <time>2021-10-08T10:24:28Z</time>
      </trkpt>
      <trkpt lat="49.24159" lon="1.4246">
        <ele>99</ele>
        <time>2021-10-08T10:24:30Z</time>
      </trkpt>
      <trkpt lat="49.2416" lon="1.42469">
        <ele>100</ele>
        <time>2021-10-08T10:24:35Z</time>
      </trkpt>
      <trkpt lat="49.2416" lon="1.42471">
        <ele>100</ele>
        <time>2021-10-08T10:24:36Z</time>
      </trkpt>
      <trkpt lat="49.24158" lon="1.42483">
        <ele>101.2</ele>
        <time>2021-10-08T10:24:42Z</time>
      </trkpt>
      <trkpt lat="49.24149" lon="1.42485">
        <ele>102</ele>
        <time>2021-10-08T10:24:48Z</time>
      </trkpt>
      <trkpt lat="49.24148" lon="1.42485">
        <ele>102.2</ele>
        <time>2021-10-08T10:24:49Z</time>
      </trkpt>
      <trkpt lat="49.24143" lon="1.42482">
        <ele>103.2</ele>
        <time>2021-10-08T10:24:53Z</time>
      </trkpt>
      <trkpt lat="49.24141" lon="1.42481">
        <ele>103.6</ele>
        <time>2021-10-08T10:24:55Z</time>
      </trkpt>
      <trkpt lat="49.24137" lon="1.42478">
        <ele>104.4</ele>
        <time>2021-10-08T10:24:59Z</time>
      </trkpt>
      <trkpt lat="49.24132" lon="1.42475">
        <ele>105</ele>
        <time>2021-10-08T10:25:03Z</time>
      </trkpt>
      <trkpt lat="49.24129" lon="1.42473">
        <ele>105.6</ele>
        <time>2021-10-08T10:25:05Z</time>
      </trkpt>
      <trkpt lat="49.24123" lon="1.4247">
        <ele>106.6</ele>
        <time>2021-10-08T10:25:10Z</time>
      </trkpt>
      <trkpt lat="49.24119" lon="1.42467">
        <ele>107.2</ele>
        <time>2021-10-08T10:25:13Z</time>
      </trkpt>
      <trkpt lat="49.24116" lon="1.42465">
        <ele>107.6</ele>
        <time>2021-10-08T10:25:15Z</time>
      </trkpt>
      <trkpt lat="49.2411" lon="1.42461">
        <ele>108.8</ele>
        <time>2021-10-08T10:25:20Z</time>
      </trkpt>
      <trkpt lat="49.24107" lon="1.4246">
        <ele>109</ele>
        <time>2021-10-08T10:25:22Z</time>
      </trkpt>
      <trkpt lat="49.24101" lon="1.42456">
        <ele>109.8</ele>
        <time>2021-10-08T10:25:27Z</time>
      </trkpt>
      <trkpt lat="49.24095" lon="1.42452">
        <ele>110.8</ele>
        <time>2021-10-08T10:25:32Z</time>
      </trkpt>
      <trkpt lat="49.24087" lon="1.42447">
        <ele>112</ele>
        <time>2021-10-08T10:25:38Z</time>
      </trkpt>
      <trkpt lat="49.24085" lon="1.42446">
        <ele>112.4</ele>
        <time>2021-10-08T10:25:40Z</time>
      </trkpt>
      <trkpt lat="49.24081" lon="1.42444">
        <ele>113.2</ele>
        <time>2021-10-08T10:25:43Z</time>
      </trkpt>
      <trkpt lat="49.24076" lon="1.42441">
        <ele>113.8</ele>
        <time>2021-10-08T10:25:47Z</time>
      </trkpt>
      <trkpt lat="49.24074" lon="1.42439">
        <ele>114.4</ele>
        <time>2021-10-08T10:25:49Z</time>
      </trkpt>
      <trkpt lat="49.24065" lon="1.42434">
        <ele>115.4</ele>
        <time>2021-10-08T10:25:55Z</time>
      </trkpt>
      <trkpt lat="49.24063" lon="1.42432">
        <ele>116</ele>
        <time>2021-10-08T10:25:57Z</time>
      </trkpt>
      <trkpt lat="49.24059" lon="1.4243">
        <ele>116.6</ele>
        <time>2021-10-08T10:26:00Z</time>
      </trkpt>
      <trkpt lat="49.2405" lon="1.42425">
        <ele>117.8</ele>
        <time>2021-10-08T10:26:06Z</time>
      </trkpt>
      <trkpt lat="49.24043" lon="1.42421">
        <ele>119.2</ele>
        <time>2021-10-08T10:26:12Z</time>
      </trkpt>
      <trkpt lat="49.2404" lon="1.42419">
        <ele>119.8</ele>
        <time>2021-10-08T10:26:14Z</time>
      </trkpt>
      <trkpt lat="49.24037" lon="1.42417">
        <ele>120.4</ele>
        <time>2021-10-08T10:26:16Z</time>
      </trkpt>
      <trkpt lat="49.24033" lon="1.42413">
        <ele>121.4</ele>
        <time>2021-10-08T10:26:20Z</time>
      </trkpt>
      <trkpt lat="49.2403" lon="1.42411">
        <ele>121.8</ele>
        <time>2021-10-08T10:26:22Z</time>
      </trkpt>
      <trkpt lat="49.24025" lon="1.42407">
        <ele>122.6</ele>
        <time>2021-10-08T10:26:26Z</time>
      </trkpt>
      <trkpt lat="49.24021" lon="1.42403">
        <ele>123.4</ele>
        <time>2021-10-08T10:26:30Z</time>
      </trkpt>
      <trkpt lat="49.24019" lon="1.424">
        <ele>123.6</ele>
        <time>2021-10-08T10:26:32Z</time>
      </trkpt>
      <trkpt lat="49.24015" lon="1.42396">
        <ele>124.6</ele>
        <time>2021-10-08T10:26:36Z</time>
      </trkpt>
      <trkpt lat="49.24014" lon="1.42395">
        <ele>124.8</ele>
        <time>2021-10-08T10:26:37Z</time>
      </trkpt>
      <trkpt lat="49.24008" lon="1.42389">
        <ele>125.8</ele>
        <time>2021-10-08T10:26:42Z</time>
      </trkpt>
      <trkpt lat="49.24007" lon="1.42388">
        <ele>126</ele>
        <time>2021-10-08T10:26:43Z</time>
      </trkpt>
      <trkpt lat="49.24004" lon="1.42384">
        <ele>127</ele>
        <time>2021-10-08T10:26:46Z</time>
      </trkpt>
      <trkpt lat="49.23999" lon="1.42379">
        <ele>128</ele>
        <time>2021-10-08T10:26:51Z</time>
      </trkpt>
      <trkpt lat="49.23998" lon="1.42378">
        <ele>128.2</ele>
        <time>2021-10-08T10:26:52Z</time>
      </trkpt>
      <trkpt lat="49.23995" lon="1.42372">
        <ele>129.2</ele>
        <time>2021-10-08T10:26:56Z</time>
      </trkpt>
      <trkpt lat="49.23994" lon="1.4237">
        <ele>129.6</ele>
        <time>2021-10-08T10:26:58Z</time>
      </trkpt>
      <trkpt lat="49.23992" lon="1.42368">
        <ele>130.2</ele>
        <time>2021-10-08T10:27:00Z</time>
      </trkpt>
      <trkpt lat="49.23988" lon="1.42363">
        <ele>131.2</ele>
        <time>2021-10-08T10:27:04Z</time>
      </trkpt>
      <trkpt lat="49.23986" lon="1.42359">
        <ele>131.6</ele>
        <time>2021-10-08T10:27:06Z</time>
      </trkpt>
      <trkpt lat="49.23982" lon="1.42354">
        <ele>132.4</ele>
        <time>2021-10-08T10:27:09Z</time>
      </trkpt>
      <trkpt lat="49.23976" lon="1.42346">
        <ele>133.6</ele>
        <time>2021-10-08T10:27:14Z</time>
      </trkpt>
      <trkpt lat="49.2397" lon="1.42336">
        <ele>134.8</ele>
        <time>2021-10-08T10:27:20Z</time>
      </trkpt>
      <trkpt lat="49.23969" lon="1.42335">
        <ele>135.2</ele>
        <time>2021-10-08T10:27:21Z</time>
      </trkpt>
      <trkpt lat="49.23968" lon="1.42334">
        <ele>135.4</ele>
        <time>2021-10-08T10:27:22Z</time>
      </trkpt>
      <trkpt lat="49.23964" lon="1.42331">
        <ele>136</ele>
        <time>2021-10-08T10:27:25Z</time>
      </trkpt>
      <trkpt lat="49.23957" lon="1.42327">
        <ele>137</ele>
        <time>2021-10-08T10:27:30Z</time>
      </trkpt>
      <trkpt lat="49.23954" lon="1.42325">
        <ele>137.4</ele>
        <time>2021-10-08T10:27:32Z</time>
      </trkpt>
      <trkpt lat="49.2395" lon="1.42323">
        <ele>138</ele>
        <time>2021-10-08T10:27:35Z</time>
      </trkpt>
      <trkpt lat="49.23943" lon="1.4232">
        <ele>139.4</ele>
        <time>2021-10-08T10:27:40Z</time>
      </trkpt>
      <trkpt lat="49.23941" lon="1.42319">
        <ele>139.6</ele>
        <time>2021-10-08T10:27:41Z</time>
      </trkpt>
      <trkpt lat="49.23937" lon="1.42318">
        <ele>140.4</ele>
        <time>2021-10-08T10:27:44Z</time>
      </trkpt>
      <trkpt lat="49.23933" lon="1.42317">
        <ele>141</ele>
        <time>2021-10-08T10:27:47Z</time>
      </trkpt>
      <trkpt lat="49.23929" lon="1.42316">
        <ele>141.4</ele>
        <time>2021-10-08T10:27:50Z</time>
      </trkpt>
      <trkpt lat="49.23924" lon="1.42315">
        <ele>142</ele>
        <time>2021-10-08T10:27:54Z</time>
      </trkpt>
      <trkpt lat="49.2392" lon="1.42314">
        <ele>142.6</ele>
        <time>2021-10-08T10:27:57Z</time>
      </trkpt>
      <trkpt lat="49.23911" lon="1.42316">
        <ele>143.2</ele>
        <time>2021-10-08T10:28:03Z</time>
      </trkpt>
      <trkpt lat="49.23908" lon="1.42317">
        <ele>143.6</ele>
        <time>2021-10-08T10:28:05Z</time>
      </trkpt>
      <trkpt lat="49.23902" lon="1.42319">
        <ele>144.8</ele>
        <time>2021-10-08T10:28:10Z</time>
      </trkpt>
      <trkpt lat="49.23899" lon="1.4232">
        <ele>145.4</ele>
        <time>2021-10-08T10:28:12Z</time>
      </trkpt>
      <trkpt lat="49.23895" lon="1.42322">
        <ele>145.8</ele>
        <time>2021-10-08T10:28:15Z</time>
      </trkpt>
      <trkpt lat="49.23888" lon="1.42325">
        <ele>147</ele>
        <time>2021-10-08T10:28:20Z</time>
      </trkpt>
      <trkpt lat="49.23883" lon="1.42326">
        <ele>147.6</ele>
        <time>2021-10-08T10:28:23Z</time>
      </trkpt>
      <trkpt lat="49.23879" lon="1.42328">
        <ele>148</ele>
        <time>2021-10-08T10:28:25Z</time>
      </trkpt>
      <trkpt lat="49.23868" lon="1.42334">
        <ele>149.2</ele>
        <time>2021-10-08T10:28:31Z</time>
      </trkpt>
      <trkpt lat="49.2385" lon="1.42342">
        <ele>149.8</ele>
        <time>2021-10-08T10:28:38Z</time>
      </trkpt>
      <trkpt lat="49.23828" lon="1.42348">
        <ele>150</ele>
        <time>2021-10-08T10:28:45Z</time>
      </trkpt>
      <trkpt lat="49.23809" lon="1.42352">
        <ele>150.2</ele>
        <time>2021-10-08T10:28:50Z</time>
      </trkpt>
      <trkpt lat="49.23798" lon="1.42354">
        <ele>150.6</ele>
        <time>2021-10-08T10:28:53Z</time>
      </trkpt>
      <trkpt lat="49.23787" lon="1.42356">
        <ele>151.2</ele>
        <time>2021-10-08T10:28:57Z</time>
      </trkpt>
      <trkpt lat="49.23773" lon="1.4236">
        <ele>151.6</ele>
        <time>2021-10-08T10:29:01Z</time>
      </trkpt>
      <trkpt lat="49.23769" lon="1.4236">
        <ele>151.8</ele>
        <time>2021-10-08T10:29:02Z</time>
      </trkpt>
      <trkpt lat="49.23759" lon="1.42354">
        <ele>151.8</ele>
        <time>2021-10-08T10:29:05Z</time>
      </trkpt>
      <trkpt lat="49.23757" lon="1.42339">
        <ele>151.8</ele>
        <time>2021-10-08T10:29:08Z</time>
      </trkpt>
      <trkpt lat="49.23757" lon="1.423">
        <ele>152.4</ele>
        <time>2021-10-08T10:29:15Z</time>
      </trkpt>
      <trkpt lat="49.23755" lon="1.42261">
        <ele>153.2</ele>
        <time>2021-10-08T10:29:22Z</time>
      </trkpt>
      <trkpt lat="49.23754" lon="1.42243">
        <ele>153.6</ele>
        <time>2021-10-08T10:29:25Z</time>
      </trkpt>
      <trkpt lat="49.23752" lon="1.42211">
        <ele>154.4</ele>
        <time>2021-10-08T10:29:30Z</time>
      </trkpt>
      <trkpt lat="49.23751" lon="1.42191">
        <ele>154.6</ele>
        <time>2021-10-08T10:29:33Z</time>
      </trkpt>
      <trkpt lat="49.23749" lon="1.42164">
        <ele>155</ele>
        <time>2021-10-08T10:29:37Z</time>
      </trkpt>
      <trkpt lat="49.23748" lon="1.42117">
        <ele>155.6</ele>
        <time>2021-10-08T10:29:44Z</time>
      </trkpt>
      <trkpt lat="49.23748" lon="1.42102">
        <ele>155.8</ele>
        <time>2021-10-08T10:29:46Z</time>
      </trkpt>
      <trkpt lat="49.23748" lon="1.42065">
        <ele>156</ele>
        <time>2021-10-08T10:29:51Z</time>
      </trkpt>
      <trkpt lat="49.23752" lon="1.42004">
        <ele>156.6</ele>
        <time>2021-10-08T10:29:59Z</time>
      </trkpt>
      <trkpt lat="49.23752" lon="1.41996">
        <ele>156.6</ele>
        <time>2021-10-08T10:30:00Z</time>
      </trkpt>
      <trkpt lat="49.23751" lon="1.4198">
        <ele>156.8</ele>
        <time>2021-10-08T10:30:02Z</time>
      </trkpt>
      <trkpt lat="49.2375" lon="1.41963">
        <ele>156.8</ele>
        <time>2021-10-08T10:30:04Z</time>
      </trkpt>
      <trkpt lat="49.23749" lon="1.41955">
        <ele>157</ele>
        <time>2021-10-08T10:30:05Z</time>
      </trkpt>
      <trkpt lat="49.23738" lon="1.4189">
        <ele>157.6</ele>
        <time>2021-10-08T10:30:13Z</time>
      </trkpt>
      <trkpt lat="49.23728" lon="1.41842">
        <ele>157.8</ele>
        <time>2021-10-08T10:30:19Z</time>
      </trkpt>
      <trkpt lat="49.23717" lon="1.41794">
        <ele>158</ele>
        <time>2021-10-08T10:30:25Z</time>
      </trkpt>
      <trkpt lat="49.23702" lon="1.41721">
        <ele>158.8</ele>
        <time>2021-10-08T10:30:33Z</time>
      </trkpt>
      <trkpt lat="49.23696" lon="1.41684">
        <ele>158.8</ele>
        <time>2021-10-08T10:30:37Z</time>
      </trkpt>
      <trkpt lat="49.23688" lon="1.41618">
        <ele>159.2</ele>
        <time>2021-10-08T10:30:44Z</time>
      </trkpt>
      <trkpt lat="49.23685" lon="1.41539">
        <ele>159.4</ele>
        <time>2021-10-08T10:30:52Z</time>
      </trkpt>
      <trkpt lat="49.23689" lon="1.41466">
        <ele>159.6</ele>
        <time>2021-10-08T10:30:59Z</time>
      </trkpt>
      <trkpt lat="49.23703" lon="1.41386">
        <ele>160</ele>
        <time>2021-10-08T10:31:07Z</time>
      </trkpt>
      <trkpt lat="49.23705" lon="1.41376">
        <ele>160</ele>
        <time>2021-10-08T10:31:08Z</time>
      </trkpt>
      <trkpt lat="49.23712" lon="1.41339">
        <ele>160</ele>
        <time>2021-10-08T10:31:12Z</time>
      </trkpt>
      <trkpt lat="49.2372" lon="1.41294">
        <ele>160.4</ele>
        <time>2021-10-08T10:31:17Z</time>
      </trkpt>
      <trkpt lat="49.23734" lon="1.41222">
        <ele>160.6</ele>
        <time>2021-10-08T10:31:25Z</time>
      </trkpt>
      <trkpt lat="49.23754" lon="1.41153">
        <ele>160.8</ele>
        <time>2021-10-08T10:31:33Z</time>
      </trkpt>
      <trkpt lat="49.23776" lon="1.41095">
        <ele>160.4</ele>
        <time>2021-10-08T10:31:40Z</time>
      </trkpt>
      <trkpt lat="49.238" lon="1.41056">
        <ele>159.6</ele>
        <time>2021-10-08T10:31:46Z</time>
      </trkpt>
      <trkpt lat="49.23804" lon="1.41051">
        <ele>159.6</ele>
        <time>2021-10-08T10:31:47Z</time>
      </trkpt>
      <trkpt lat="49.23816" lon="1.41032">
        <ele>159</ele>
        <time>2021-10-08T10:31:50Z</time>
      </trkpt>
      <trkpt lat="49.23821" lon="1.41026">
        <ele>159</ele>
        <time>2021-10-08T10:31:51Z</time>
      </trkpt>
      <trkpt lat="49.23849" lon="1.40987">
        <ele>158.8</ele>
        <time>2021-10-08T10:31:56Z</time>
      </trkpt>
      <trkpt lat="49.2386" lon="1.40948">
        <ele>158.2</ele>
        <time>2021-10-08T10:31:59Z</time>
      </trkpt>
      <trkpt lat="49.23861" lon="1.40935">
        <ele>157.8</ele>
        <time>2021-10-08T10:32:00Z</time>
      </trkpt>
      <trkpt lat="49.2386" lon="1.40913">
        <ele>156</ele>
        <time>2021-10-08T10:32:02Z</time>
      </trkpt>
      <trkpt lat="49.2386" lon="1.40904">
        <ele>154.8</ele>
        <time>2021-10-08T10:32:03Z</time>
      </trkpt>
      <trkpt lat="49.2386" lon="1.40897">
        <ele>153.2</ele>
        <time>2021-10-08T10:32:04Z</time>
      </trkpt>
      <trkpt lat="49.23861" lon="1.40891">
        <ele>151.6</ele>
        <time>2021-10-08T10:32:05Z</time>
      </trkpt>
      <trkpt lat="49.23861" lon="1.40886">
        <ele>150.2</ele>
        <time>2021-10-08T10:32:06Z</time>
      </trkpt>
      <trkpt lat="49.23861" lon="1.4088">
        <ele>149.2</ele>
        <time>2021-10-08T10:32:07Z</time>
      </trkpt>
      <trkpt lat="49.23862" lon="1.40867">
        <ele>147.6</ele>
        <time>2021-10-08T10:32:09Z</time>
      </trkpt>
      <trkpt lat="49.23864" lon="1.40856">
        <ele>147</ele>
        <time>2021-10-08T10:32:11Z</time>
      </trkpt>
      <trkpt lat="49.23867" lon="1.40841">
        <ele>146.6</ele>
        <time>2021-10-08T10:32:14Z</time>
      </trkpt>
      <trkpt lat="49.23868" lon="1.40831">
        <ele>145.2</ele>
        <time>2021-10-08T10:32:17Z</time>
      </trkpt>
      <trkpt lat="49.2387" lon="1.40825">
        <ele>143.8</ele>
        <time>2021-10-08T10:32:19Z</time>
      </trkpt>
      <trkpt lat="49.2387" lon="1.40819">
        <ele>142.6</ele>
        <time>2021-10-08T10:32:21Z</time>
      </trkpt>
      <trkpt lat="49.23871" lon="1.40816">
        <ele>142</ele>
        <time>2021-10-08T10:32:22Z</time>
      </trkpt>
      <trkpt lat="49.23871" lon="1.40811">
        <ele>141.6</ele>
        <time>2021-10-08T10:32:23Z</time>
      </trkpt>
      <trkpt lat="49.23873" lon="1.40793">
        <ele>140.4</ele>
        <time>2021-10-08T10:32:25Z</time>
      </trkpt>
      <trkpt lat="49.23884" lon="1.40755">
        <ele>139.2</ele>
        <time>2021-10-08T10:32:28Z</time>
      </trkpt>
      <trkpt lat="49.23897" lon="1.40713">
        <ele>137.4</ele>
        <time>2021-10-08T10:32:31Z</time>
      </trkpt>
      <trkpt lat="49.239" lon="1.40699">
        <ele>136.4</ele>
        <time>2021-10-08T10:32:32Z</time>
      </trkpt>
      <trkpt lat="49.23903" lon="1.40685">
        <ele>134.8</ele>
        <time>2021-10-08T10:32:33Z</time>
      </trkpt>
      <trkpt lat="49.23904" lon="1.40671">
        <ele>133.2</ele>
        <time>2021-10-08T10:32:34Z</time>
      </trkpt>
      <trkpt lat="49.23905" lon="1.40657">
        <ele>131.6</ele>
        <time>2021-10-08T10:32:35Z</time>
      </trkpt>
      <trkpt lat="49.23905" lon="1.40645">
        <ele>129.6</ele>
        <time>2021-10-08T10:32:36Z</time>
      </trkpt>
      <trkpt lat="49.23905" lon="1.40637">
        <ele>127.8</ele>
        <time>2021-10-08T10:32:37Z</time>
      </trkpt>
      <trkpt lat="49.23906" lon="1.40633">
        <ele>126.2</ele>
        <time>2021-10-08T10:32:38Z</time>
      </trkpt>
      <trkpt lat="49.23907" lon="1.40629">
        <ele>124.8</ele>
        <time>2021-10-08T10:32:39Z</time>
      </trkpt>
      <trkpt lat="49.23906" lon="1.40625">
        <ele>123.8</ele>
        <time>2021-10-08T10:32:40Z</time>
      </trkpt>
      <trkpt lat="49.23905" lon="1.40623">
        <ele>123</ele>
        <time>2021-10-08T10:32:41Z</time>
      </trkpt>
      <trkpt lat="49.23902" lon="1.40622">
        <ele>122</ele>
        <time>2021-10-08T10:32:42Z</time>
      </trkpt>
      <trkpt lat="49.23894" lon="1.40623">
        <ele>121.2</ele>
        <time>2021-10-08T10:32:44Z</time>
      </trkpt>
      <trkpt lat="49.23889" lon="1.40623">
        <ele>121</ele>
        <time>2021-10-08T10:32:45Z</time>
      </trkpt>
      <trkpt lat="49.23885" lon="1.40621">
        <ele>120.8</ele>
        <time>2021-10-08T10:32:46Z</time>
      </trkpt>
      <trkpt lat="49.2388" lon="1.40618">
        <ele>120.6</ele>
        <time>2021-10-08T10:32:47Z</time>
      </trkpt>
      <trkpt lat="49.23865" lon="1.40609">
        <ele>120</ele>
        <time>2021-10-08T10:32:50Z</time>
      </trkpt>
      <trkpt lat="49.2386" lon="1.40608">
        <ele>119.8</ele>
        <time>2021-10-08T10:32:51Z</time>
      </trkpt>
      <trkpt lat="49.23855" lon="1.40607">
        <ele>119.4</ele>
        <time>2021-10-08T10:32:52Z</time>
      </trkpt>
      <trkpt lat="49.23845" lon="1.40606">
        <ele>117.6</ele>
        <time>2021-10-08T10:32:54Z</time>
      </trkpt>
      <trkpt lat="49.23834" lon="1.4061">
        <ele>115.8</ele>
        <time>2021-10-08T10:32:56Z</time>
      </trkpt>
      <trkpt lat="49.23823" lon="1.40615">
        <ele>114.2</ele>
        <time>2021-10-08T10:32:58Z</time>
      </trkpt>
      <trkpt lat="49.23817" lon="1.40616">
        <ele>113.4</ele>
        <time>2021-10-08T10:32:59Z</time>
      </trkpt>
      <trkpt lat="49.2381" lon="1.40618">
        <ele>112.2</ele>
        <time>2021-10-08T10:33:00Z</time>
      </trkpt>
      <trkpt lat="49.23804" lon="1.40618">
        <ele>110.8</ele>
        <time>2021-10-08T10:33:01Z</time>
      </trkpt>
      <trkpt lat="49.23797" lon="1.40619">
        <ele>109.8</ele>
        <time>2021-10-08T10:33:02Z</time>
      </trkpt>
      <trkpt lat="49.2379" lon="1.40621">
        <ele>108.6</ele>
        <time>2021-10-08T10:33:03Z</time>
      </trkpt>
      <trkpt lat="49.23776" lon="1.40624">
        <ele>107</ele>
        <time>2021-10-08T10:33:05Z</time>
      </trkpt>
      <trkpt lat="49.23766" lon="1.40629">
        <ele>105.8</ele>
        <time>2021-10-08T10:33:07Z</time>
      </trkpt>
      <trkpt lat="49.23763" lon="1.4063">
        <ele>105.2</ele>
        <time>2021-10-08T10:33:08Z</time>
      </trkpt>
      <trkpt lat="49.23761" lon="1.40632">
        <ele>104.4</ele>
        <time>2021-10-08T10:33:09Z</time>
      </trkpt>
      <trkpt lat="49.23759" lon="1.40632">
        <ele>103.6</ele>
        <time>2021-10-08T10:33:12Z</time>
      </trkpt>
      <trkpt lat="49.23758" lon="1.40632">
        <ele>103.8</ele>
        <time>2021-10-08T10:33:27Z</time>
      </trkpt>
      <trkpt lat="49.23756" lon="1.40632">
        <ele>103.8</ele>
        <time>2021-10-08T10:33:28Z</time>
      </trkpt>
      <trkpt lat="49.23753" lon="1.4063">
        <ele>103.8</ele>
        <time>2021-10-08T10:33:29Z</time>
      </trkpt>
      <trkpt lat="49.23749" lon="1.40615">
        <ele>103.8</ele>
        <time>2021-10-08T10:33:32Z</time>
      </trkpt>
      <trkpt lat="49.2375" lon="1.40604">
        <ele>103.8</ele>
        <time>2021-10-08T10:33:34Z</time>
      </trkpt>
      <trkpt lat="49.2375" lon="1.40589">
        <ele>103.2</ele>
        <time>2021-10-08T10:33:37Z</time>
      </trkpt>
      <trkpt lat="49.2375" lon="1.4058">
        <ele>102.6</ele>
        <time>2021-10-08T10:33:39Z</time>
      </trkpt>
      <trkpt lat="49.23751" lon="1.40544">
        <ele>102.2</ele>
        <time>2021-10-08T10:33:47Z</time>
      </trkpt>
      <trkpt lat="49.23753" lon="1.40515">
        <ele>104</ele>
        <time>2021-10-08T10:33:54Z</time>
      </trkpt>
      <trkpt lat="49.23753" lon="1.40511">
        <ele>104</ele>
        <time>2021-10-08T10:33:55Z</time>
      </trkpt>
      <trkpt lat="49.23757" lon="1.4049">
        <ele>104.4</ele>
        <time>2021-10-08T10:34:00Z</time>
      </trkpt>
      <trkpt lat="49.23762" lon="1.40476">
        <ele>104.4</ele>
        <time>2021-10-08T10:34:04Z</time>
      </trkpt>
      <trkpt lat="49.23764" lon="1.40475">
        <ele>104.4</ele>
        <time>2021-10-08T10:34:05Z</time>
      </trkpt>
      <trkpt lat="49.23764" lon="1.40474">
        <ele>104.4</ele>
        <time>2021-10-08T10:34:07Z</time>
      </trkpt>
      <trkpt lat="49.23767" lon="1.40476">
        <ele>102.6</ele>
        <time>2021-10-08T10:34:20Z</time>
      </trkpt>
      <trkpt lat="49.23769" lon="1.40476">
        <ele>102.8</ele>
        <time>2021-10-08T10:34:21Z</time>
      </trkpt>
      <trkpt lat="49.23781" lon="1.40469">
        <ele>102.8</ele>
        <time>2021-10-08T10:34:25Z</time>
      </trkpt>
      <trkpt lat="49.23795" lon="1.40448">
        <ele>102.2</ele>
        <time>2021-10-08T10:34:30Z</time>
      </trkpt>
      <trkpt lat="49.23804" lon="1.4043">
        <ele>101.4</ele>
        <time>2021-10-08T10:34:33Z</time>
      </trkpt>
      <trkpt lat="49.23809" lon="1.40421">
        <ele>100.2</ele>
        <time>2021-10-08T10:34:35Z</time>
      </trkpt>
      <trkpt lat="49.2381" lon="1.40419">
        <ele>99.6</ele>
        <time>2021-10-08T10:34:36Z</time>
      </trkpt>
      <trkpt lat="49.23811" lon="1.40418">
        <ele>98.8</ele>
        <time>2021-10-08T10:34:37Z</time>
      </trkpt>
      <trkpt lat="49.23811" lon="1.40417">
        <ele>97.4</ele>
        <time>2021-10-08T10:34:39Z</time>
      </trkpt>
      <trkpt lat="49.23811" lon="1.40416">
        <ele>96.6</ele>
        <time>2021-10-08T10:34:40Z</time>
      </trkpt>
      <trkpt lat="49.23812" lon="1.40415">
        <ele>94.4</ele>
        <time>2021-10-08T10:34:50Z</time>
      </trkpt>
      <trkpt lat="49.23819" lon="1.40404">
        <ele>94.4</ele>
        <time>2021-10-08T10:34:53Z</time>
      </trkpt>
      <trkpt lat="49.23836" lon="1.40368">
        <ele>94</ele>
        <time>2021-10-08T10:34:59Z</time>
      </trkpt>
      <trkpt lat="49.23842" lon="1.40356">
        <ele>92.8</ele>
        <time>2021-10-08T10:35:01Z</time>
      </trkpt>
      <trkpt lat="49.23844" lon="1.40348">
        <ele>91.2</ele>
        <time>2021-10-08T10:35:03Z</time>
      </trkpt>
      <trkpt lat="49.23841" lon="1.40343">
        <ele>89.8</ele>
        <time>2021-10-08T10:35:06Z</time>
      </trkpt>
      <trkpt lat="49.23836" lon="1.40345">
        <ele>88.6</ele>
        <time>2021-10-08T10:35:09Z</time>
      </trkpt>
      <trkpt lat="49.23832" lon="1.40347">
        <ele>87.8</ele>
        <time>2021-10-08T10:35:11Z</time>
      </trkpt>
      <trkpt lat="49.2383" lon="1.40348">
        <ele>87.6</ele>
        <time>2021-10-08T10:35:12Z</time>
      </trkpt>
      <trkpt lat="49.23822" lon="1.40356">
        <ele>87.4</ele>
        <time>2021-10-08T10:35:18Z</time>
      </trkpt>
      <trkpt lat="49.23812" lon="1.40367">
        <ele>88.2</ele>
        <time>2021-10-08T10:35:26Z</time>
      </trkpt>
      <trkpt lat="49.23809" lon="1.4037">
        <ele>88.8</ele>
        <time>2021-10-08T10:35:28Z</time>
      </trkpt>
      <trkpt lat="49.23805" lon="1.40372">
        <ele>90</ele>
        <time>2021-10-08T10:35:31Z</time>
      </trkpt>
      <trkpt lat="49.23802" lon="1.40373">
        <ele>90.6</ele>
        <time>2021-10-08T10:35:33Z</time>
      </trkpt>
      <trkpt lat="49.238" lon="1.40372">
        <ele>91</ele>
        <time>2021-10-08T10:35:34Z</time>
      </trkpt>
      <trkpt lat="49.23796" lon="1.40371">
        <ele>92</ele>
        <time>2021-10-08T10:35:37Z</time>
      </trkpt>
      <trkpt lat="49.23791" lon="1.40367">
        <ele>92.8</ele>
        <time>2021-10-08T10:35:41Z</time>
      </trkpt>
      <trkpt lat="49.2379" lon="1.40365">
        <ele>93.4</ele>
        <time>2021-10-08T10:35:42Z</time>
      </trkpt>
      <trkpt lat="49.23786" lon="1.40356">
        <ele>94.2</ele>
        <time>2021-10-08T10:35:47Z</time>
      </trkpt>
      <trkpt lat="49.23786" lon="1.40353">
        <ele>94.4</ele>
        <time>2021-10-08T10:35:48Z</time>
      </trkpt>
      <trkpt lat="49.23784" lon="1.40344">
        <ele>95.4</ele>
        <time>2021-10-08T10:35:52Z</time>
      </trkpt>
      <trkpt lat="49.23784" lon="1.40339">
        <ele>95.6</ele>
        <time>2021-10-08T10:35:54Z</time>
      </trkpt>
      <trkpt lat="49.23791" lon="1.40335">
        <ele>96</ele>
        <time>2021-10-08T10:35:59Z</time>
      </trkpt>
      <trkpt lat="49.23794" lon="1.40335">
        <ele>96.6</ele>
        <time>2021-10-08T10:36:02Z</time>
      </trkpt>
      <trkpt lat="49.23795" lon="1.40335">
        <ele>96.8</ele>
        <time>2021-10-08T10:36:03Z</time>
      </trkpt>
      <trkpt lat="49.23796" lon="1.40332">
        <ele>97.4</ele>
        <time>2021-10-08T10:36:05Z</time>
      </trkpt>
      <trkpt lat="49.23795" lon="1.40331">
        <ele>97.8</ele>
        <time>2021-10-08T10:36:06Z</time>
      </trkpt>
      <trkpt lat="49.23791" lon="1.40332">
        <ele>98.4</ele>
        <time>2021-10-08T10:36:09Z</time>
      </trkpt>
      <trkpt lat="49.2379" lon="1.40333">
        <ele>98.6</ele>
        <time>2021-10-08T10:36:10Z</time>
      </trkpt>
      <trkpt lat="49.23789" lon="1.40334">
        <ele>98.6</ele>
        <time>2021-10-08T10:36:12Z</time>
      </trkpt>
      <trkpt lat="49.23791" lon="1.40335">
        <ele>99.8</ele>
        <time>2021-10-08T10:49:50Z</time>
      </trkpt>
      <trkpt lat="49.23799" lon="1.40334">
        <ele>100</ele>
        <time>2021-10-08T10:49:54Z</time>
      </trkpt>
      <trkpt lat="49.23822" lon="1.40325">
        <ele>100</ele>
        <time>2021-10-08T10:50:01Z</time>
      </trkpt>
      <trkpt lat="49.23829" lon="1.40316">
        <ele>99.8</ele>
        <time>2021-10-08T10:50:05Z</time>
      </trkpt>
      <trkpt lat="49.23837" lon="1.40303">
        <ele>99.6</ele>
        <time>2021-10-08T10:50:09Z</time>
      </trkpt>
      <trkpt lat="49.23842" lon="1.40295">
        <ele>99.4</ele>
        <time>2021-10-08T10:50:11Z</time>
      </trkpt>
      <trkpt lat="49.23845" lon="1.40281">
        <ele>99.2</ele>
        <time>2021-10-08T10:50:13Z</time>
      </trkpt>
      <trkpt lat="49.23848" lon="1.40269">
        <ele>99</ele>
        <time>2021-10-08T10:50:15Z</time>
      </trkpt>
      <trkpt lat="49.23848" lon="1.40265">
        <ele>98.4</ele>
        <time>2021-10-08T10:50:16Z</time>
      </trkpt>
      <trkpt lat="49.23848" lon="1.40262">
        <ele>98</ele>
        <time>2021-10-08T10:50:17Z</time>
      </trkpt>
      <trkpt lat="49.23848" lon="1.40256">
        <ele>96.8</ele>
        <time>2021-10-08T10:50:20Z</time>
      </trkpt>
      <trkpt lat="49.23849" lon="1.40255">
        <ele>96.6</ele>
        <time>2021-10-08T10:50:21Z</time>
      </trkpt>
      <trkpt lat="49.23857" lon="1.40257">
        <ele>96</ele>
        <time>2021-10-08T10:50:25Z</time>
      </trkpt>
      <trkpt lat="49.23858" lon="1.40257">
        <ele>95.8</ele>
        <time>2021-10-08T10:50:26Z</time>
      </trkpt>
      <trkpt lat="49.2386" lon="1.40257">
        <ele>95.6</ele>
        <time>2021-10-08T10:50:27Z</time>
      </trkpt>
      <trkpt lat="49.23863" lon="1.40255">
        <ele>95.2</ele>
        <time>2021-10-08T10:50:29Z</time>
      </trkpt>
      <trkpt lat="49.23867" lon="1.4025">
        <ele>94.6</ele>
        <time>2021-10-08T10:50:32Z</time>
      </trkpt>
      <trkpt lat="49.23868" lon="1.40247">
        <ele>93</ele>
        <time>2021-10-08T10:50:34Z</time>
      </trkpt>
      <trkpt lat="49.23869" lon="1.40245">
        <ele>92.4</ele>
        <time>2021-10-08T10:50:35Z</time>
      </trkpt>
      <trkpt lat="49.23872" lon="1.40241">
        <ele>91.8</ele>
        <time>2021-10-08T10:50:37Z</time>
      </trkpt>
      <trkpt lat="49.23875" lon="1.40241">
        <ele>91.4</ele>
        <time>2021-10-08T10:50:39Z</time>
      </trkpt>
      <trkpt lat="49.23883" lon="1.40247">
        <ele>91</ele>
        <time>2021-10-08T10:50:43Z</time>
      </trkpt>
      <trkpt lat="49.23883" lon="1.40254">
        <ele>89.8</ele>
        <time>2021-10-08T10:50:45Z</time>
      </trkpt>
      <trkpt lat="49.23883" lon="1.40264">
        <ele>88.6</ele>
        <time>2021-10-08T10:50:47Z</time>
      </trkpt>
      <trkpt lat="49.23883" lon="1.40276">
        <ele>86.4</ele>
        <time>2021-10-08T10:50:49Z</time>
      </trkpt>
      <trkpt lat="49.23887" lon="1.40282">
        <ele>85.8</ele>
        <time>2021-10-08T10:50:51Z</time>
      </trkpt>
      <trkpt lat="49.23889" lon="1.40281">
        <ele>85.4</ele>
        <time>2021-10-08T10:50:52Z</time>
      </trkpt>
      <trkpt lat="49.23895" lon="1.40277">
        <ele>84.2</ele>
        <time>2021-10-08T10:50:54Z</time>
      </trkpt>
      <trkpt lat="49.23898" lon="1.40275">
        <ele>83.2</ele>
        <time>2021-10-08T10:50:55Z</time>
      </trkpt>
      <trkpt lat="49.23904" lon="1.40267">
        <ele>81.6</ele>
        <time>2021-10-08T10:50:57Z</time>
      </trkpt>
      <trkpt lat="49.23907" lon="1.40265">
        <ele>81.4</ele>
        <time>2021-10-08T10:50:58Z</time>
      </trkpt>
      <trkpt lat="49.23911" lon="1.40262">
        <ele>80.6</ele>
        <time>2021-10-08T10:51:00Z</time>
      </trkpt>
      <trkpt lat="49.23915" lon="1.4026">
        <ele>80</ele>
        <time>2021-10-08T10:51:02Z</time>
      </trkpt>
      <trkpt lat="49.23917" lon="1.40257">
        <ele>79.6</ele>
        <time>2021-10-08T10:51:03Z</time>
      </trkpt>
      <trkpt lat="49.23919" lon="1.40254">
        <ele>79.2</ele>
        <time>2021-10-08T10:51:04Z</time>
      </trkpt>
      <trkpt lat="49.23923" lon="1.40246">
        <ele>77.6</ele>
        <time>2021-10-08T10:51:06Z</time>
      </trkpt>
      <trkpt lat="49.23926" lon="1.40243">
        <ele>77</ele>
        <time>2021-10-08T10:51:07Z</time>
      </trkpt>
      <trkpt lat="49.23929" lon="1.40239">
        <ele>76.4</ele>
        <time>2021-10-08T10:51:08Z</time>
      </trkpt>
      <trkpt lat="49.23937" lon="1.40232">
        <ele>74.8</ele>
        <time>2021-10-08T10:51:11Z</time>
      </trkpt>
      <trkpt lat="49.23939" lon="1.4023">
        <ele>74.2</ele>
        <time>2021-10-08T10:51:12Z</time>
      </trkpt>
      <trkpt lat="49.23942" lon="1.40227">
        <ele>73.2</ele>
        <time>2021-10-08T10:51:13Z</time>
      </trkpt>
      <trkpt lat="49.23945" lon="1.40221">
        <ele>71.4</ele>
        <time>2021-10-08T10:51:15Z</time>
      </trkpt>
      <trkpt lat="49.23947" lon="1.40219">
        <ele>70.4</ele>
        <time>2021-10-08T10:51:16Z</time>
      </trkpt>
      <trkpt lat="49.23948" lon="1.40217">
        <ele>69.4</ele>
        <time>2021-10-08T10:51:17Z</time>
      </trkpt>
      <trkpt lat="49.23949" lon="1.40214">
        <ele>67.6</ele>
        <time>2021-10-08T10:51:18Z</time>
      </trkpt>
      <trkpt lat="49.23949" lon="1.40211">
        <ele>66.8</ele>
        <time>2021-10-08T10:51:19Z</time>
      </trkpt>
      <trkpt lat="49.2395" lon="1.40207">
        <ele>65.8</ele>
        <time>2021-10-08T10:51:20Z</time>
      </trkpt>
      <trkpt lat="49.2395" lon="1.40204">
        <ele>64.8</ele>
        <time>2021-10-08T10:51:21Z</time>
      </trkpt>
      <trkpt lat="49.2395" lon="1.40201">
        <ele>63.8</ele>
        <time>2021-10-08T10:51:22Z</time>
      </trkpt>
      <trkpt lat="49.23949" lon="1.40195">
        <ele>62.4</ele>
        <time>2021-10-08T10:51:24Z</time>
      </trkpt>
      <trkpt lat="49.2395" lon="1.40191">
        <ele>61.2</ele>
        <time>2021-10-08T10:51:26Z</time>
      </trkpt>
      <trkpt lat="49.23954" lon="1.40191">
        <ele>60</ele>
        <time>2021-10-08T10:51:28Z</time>
      </trkpt>
      <trkpt lat="49.23957" lon="1.40194">
        <ele>59.2</ele>
        <time>2021-10-08T10:51:29Z</time>
      </trkpt>
      <trkpt lat="49.2396" lon="1.40198">
        <ele>58.6</ele>
        <time>2021-10-08T10:51:30Z</time>
      </trkpt>
      <trkpt lat="49.23964" lon="1.4021">
        <ele>57.2</ele>
        <time>2021-10-08T10:51:32Z</time>
      </trkpt>
      <trkpt lat="49.23965" lon="1.40216">
        <ele>56.6</ele>
        <time>2021-10-08T10:51:33Z</time>
      </trkpt>
      <trkpt lat="49.23967" lon="1.40224">
        <ele>56</ele>
        <time>2021-10-08T10:51:34Z</time>
      </trkpt>
      <trkpt lat="49.23966" lon="1.40237">
        <ele>54.8</ele>
        <time>2021-10-08T10:51:36Z</time>
      </trkpt>
      <trkpt lat="49.23966" lon="1.40243">
        <ele>54.2</ele>
        <time>2021-10-08T10:51:37Z</time>
      </trkpt>
      <trkpt lat="49.23966" lon="1.40248">
        <ele>53.2</ele>
        <time>2021-10-08T10:51:38Z</time>
      </trkpt>
      <trkpt lat="49.23967" lon="1.4025">
        <ele>52.6</ele>
        <time>2021-10-08T10:51:39Z</time>
      </trkpt>
      <trkpt lat="49.23968" lon="1.4025">
        <ele>52</ele>
        <time>2021-10-08T10:51:40Z</time>
      </trkpt>
      <trkpt lat="49.23973" lon="1.40244">
        <ele>50</ele>
        <time>2021-10-08T10:51:42Z</time>
      </trkpt>
      <trkpt lat="49.23976" lon="1.40239">
        <ele>49.2</ele>
        <time>2021-10-08T10:51:43Z</time>
      </trkpt>
      <trkpt lat="49.23981" lon="1.40234">
        <ele>48.6</ele>
        <time>2021-10-08T10:51:44Z</time>
      </trkpt>
      <trkpt lat="49.23991" lon="1.40219">
        <ele>47.6</ele>
        <time>2021-10-08T10:51:46Z</time>
      </trkpt>
      <trkpt lat="49.23997" lon="1.40209">
        <ele>47.4</ele>
        <time>2021-10-08T10:51:47Z</time>
      </trkpt>
      <trkpt lat="49.24021" lon="1.40173">
        <ele>46</ele>
        <time>2021-10-08T10:51:51Z</time>
      </trkpt>
      <trkpt lat="49.24029" lon="1.4016">
        <ele>44.2</ele>
        <time>2021-10-08T10:51:53Z</time>
      </trkpt>
      <trkpt lat="49.2403" lon="1.40153">
        <ele>43</ele>
        <time>2021-10-08T10:51:54Z</time>
      </trkpt>
      <trkpt lat="49.24028" lon="1.40148">
        <ele>41.4</ele>
        <time>2021-10-08T10:51:55Z</time>
      </trkpt>
      <trkpt lat="49.24024" lon="1.40144">
        <ele>40</ele>
        <time>2021-10-08T10:51:56Z</time>
      </trkpt>
      <trkpt lat="49.24018" lon="1.40141">
        <ele>38.6</ele>
        <time>2021-10-08T10:51:57Z</time>
      </trkpt>
      <trkpt lat="49.24012" lon="1.40137">
        <ele>37.4</ele>
        <time>2021-10-08T10:51:58Z</time>
      </trkpt>
      <trkpt lat="49.24" lon="1.40131">
        <ele>35.8</ele>
        <time>2021-10-08T10:52:00Z</time>
      </trkpt>
      <trkpt lat="49.23996" lon="1.40128">
        <ele>35.2</ele>
        <time>2021-10-08T10:52:01Z</time>
      </trkpt>
      <trkpt lat="49.23993" lon="1.40118">
        <ele>34.8</ele>
        <time>2021-10-08T10:52:03Z</time>
      </trkpt>
      <trkpt lat="49.23993" lon="1.40107">
        <ele>33.8</ele>
        <time>2021-10-08T10:52:05Z</time>
      </trkpt>
      <trkpt lat="49.23993" lon="1.40103">
        <ele>33</ele>
        <time>2021-10-08T10:52:06Z</time>
      </trkpt>
      <trkpt lat="49.23993" lon="1.401">
        <ele>32</ele>
        <time>2021-10-08T10:52:07Z</time>
      </trkpt>
      <trkpt lat="49.23992" lon="1.40099">
        <ele>31.2</ele>
        <time>2021-10-08T10:52:08Z</time>
      </trkpt>
      <trkpt lat="49.23992" lon="1.40095">
        <ele>30</ele>
        <time>2021-10-08T10:52:10Z</time>
      </trkpt>
      <trkpt lat="49.2399" lon="1.40092">
        <ele>29.4</ele>
        <time>2021-10-08T10:52:11Z</time>
      </trkpt>
      <trkpt lat="49.23987" lon="1.40091">
        <ele>28.8</ele>
        <time>2021-10-08T10:52:12Z</time>
      </trkpt>
      <trkpt lat="49.2398" lon="1.40089">
        <ele>27.2</ele>
        <time>2021-10-08T10:52:14Z</time>
      </trkpt>
      <trkpt lat="49.23976" lon="1.40088">
        <ele>26.8</ele>
        <time>2021-10-08T10:52:15Z</time>
      </trkpt>
      <trkpt lat="49.23968" lon="1.40085">
        <ele>26</ele>
        <time>2021-10-08T10:52:18Z</time>
      </trkpt>
      <trkpt lat="49.23967" lon="1.40085">
        <ele>25.6</ele>
        <time>2021-10-08T10:52:19Z</time>
      </trkpt>
      <trkpt lat="49.23967" lon="1.40072">
        <ele>25</ele>
        <time>2021-10-08T10:52:22Z</time>
      </trkpt>
      <trkpt lat="49.2397" lon="1.40036">
        <ele>24.4</ele>
        <time>2021-10-08T10:52:27Z</time>
      </trkpt>
      <trkpt lat="49.23972" lon="1.40031">
        <ele>24.2</ele>
        <time>2021-10-08T10:52:28Z</time>
      </trkpt>
      <trkpt lat="49.2398" lon="1.40024">
        <ele>23.8</ele>
        <time>2021-10-08T10:52:30Z</time>
      </trkpt>
      <trkpt lat="49.23995" lon="1.40016">
        <ele>22.4</ele>
        <time>2021-10-08T10:52:33Z</time>
      </trkpt>
      <trkpt lat="49.24016" lon="1.40007">
        <ele>21.4</ele>
        <time>2021-10-08T10:52:37Z</time>
      </trkpt>
      <trkpt lat="49.24059" lon="1.39988">
        <ele>20.8</ele>
        <time>2021-10-08T10:52:45Z</time>
      </trkpt>
      <trkpt lat="49.2407" lon="1.39984">
        <ele>20.6</ele>
        <time>2021-10-08T10:52:47Z</time>
      </trkpt>
      <trkpt lat="49.24076" lon="1.39983">
        <ele>20.6</ele>
        <time>2021-10-08T10:52:48Z</time>
      </trkpt>
      <trkpt lat="49.24088" lon="1.39983">
        <ele>20.4</ele>
        <time>2021-10-08T10:52:50Z</time>
      </trkpt>
      <trkpt lat="49.24109" lon="1.39971">
        <ele>20.4</ele>
        <time>2021-10-08T10:52:54Z</time>
      </trkpt>
      <trkpt lat="49.24119" lon="1.39961">
        <ele>20.4</ele>
        <time>2021-10-08T10:52:56Z</time>
      </trkpt>
      <trkpt lat="49.24144" lon="1.39941">
        <ele>20.2</ele>
        <time>2021-10-08T10:53:01Z</time>
      </trkpt>
      <trkpt lat="49.24159" lon="1.39929">
        <ele>20.2</ele>
        <time>2021-10-08T10:53:04Z</time>
      </trkpt>
      <trkpt lat="49.24182" lon="1.39907">
        <ele>20</ele>
        <time>2021-10-08T10:53:09Z</time>
      </trkpt>
      <trkpt lat="49.24201" lon="1.39889">
        <ele>19.6</ele>
        <time>2021-10-08T10:53:13Z</time>
      </trkpt>
      <trkpt lat="49.24211" lon="1.3988">
        <ele>19.6</ele>
        <time>2021-10-08T10:53:15Z</time>
      </trkpt>
      <trkpt lat="49.24248" lon="1.39853">
        <ele>19.2</ele>
        <time>2021-10-08T10:53:22Z</time>
      </trkpt>
      <trkpt lat="49.24259" lon="1.39846">
        <ele>19.2</ele>
        <time>2021-10-08T10:53:24Z</time>
      </trkpt>
      <trkpt lat="49.24302" lon="1.39821">
        <ele>19.2</ele>
        <time>2021-10-08T10:53:32Z</time>
      </trkpt>
      <trkpt lat="49.2435" lon="1.39797">
        <ele>19.4</ele>
        <time>2021-10-08T10:53:41Z</time>
      </trkpt>
      <trkpt lat="49.24383" lon="1.39778">
        <ele>20</ele>
        <time>2021-10-08T10:53:48Z</time>
      </trkpt>
      <trkpt lat="49.24388" lon="1.39777">
        <ele>20.2</ele>
        <time>2021-10-08T10:53:49Z</time>
      </trkpt>
      <trkpt lat="49.24393" lon="1.39774">
        <ele>20.2</ele>
        <time>2021-10-08T10:53:50Z</time>
      </trkpt>
      <trkpt lat="49.24406" lon="1.39764">
        <ele>20.4</ele>
        <time>2021-10-08T10:53:53Z</time>
      </trkpt>
      <trkpt lat="49.2441" lon="1.39759">
        <ele>20.4</ele>
        <time>2021-10-08T10:53:54Z</time>
      </trkpt>
      <trkpt lat="49.24435" lon="1.39725">
        <ele>20.4</ele>
        <time>2021-10-08T10:54:00Z</time>
      </trkpt>
      <trkpt lat="49.24463" lon="1.39673">
        <ele>19.2</ele>
        <time>2021-10-08T10:54:08Z</time>
      </trkpt>
      <trkpt lat="49.24469" lon="1.39659">
        <ele>19.2</ele>
        <time>2021-10-08T10:54:10Z</time>
      </trkpt>
      <trkpt lat="49.2448" lon="1.39638">
        <ele>19</ele>
        <time>2021-10-08T10:54:13Z</time>
      </trkpt>
      <trkpt lat="49.24503" lon="1.396">
        <ele>18.8</ele>
        <time>2021-10-08T10:54:19Z</time>
      </trkpt>
      <trkpt lat="49.24507" lon="1.39596">
        <ele>18.8</ele>
        <time>2021-10-08T10:54:20Z</time>
      </trkpt>
      <trkpt lat="49.24513" lon="1.39593">
        <ele>18.8</ele>
        <time>2021-10-08T10:54:21Z</time>
      </trkpt>
      <trkpt lat="49.24529" lon="1.39588">
        <ele>18.8</ele>
        <time>2021-10-08T10:54:24Z</time>
      </trkpt>
      <trkpt lat="49.24541" lon="1.39572">
        <ele>19</ele>
        <time>2021-10-08T10:54:27Z</time>
      </trkpt>
      <trkpt lat="49.24543" lon="1.39566">
        <ele>19</ele>
        <time>2021-10-08T10:54:28Z</time>
      </trkpt>
      <trkpt lat="49.24562" lon="1.3952">
        <ele>20.2</ele>
        <time>2021-10-08T10:54:35Z</time>
      </trkpt>
      <trkpt lat="49.24588" lon="1.39454">
        <ele>20.6</ele>
        <time>2021-10-08T10:54:44Z</time>
      </trkpt>
      <trkpt lat="49.24603" lon="1.39427">
        <ele>20.6</ele>
        <time>2021-10-08T10:54:48Z</time>
      </trkpt>
      <trkpt lat="49.24607" lon="1.3942">
        <ele>20.4</ele>
        <time>2021-10-08T10:54:49Z</time>
      </trkpt>
      <trkpt lat="49.24635" lon="1.3937">
        <ele>20.2</ele>
        <time>2021-10-08T10:54:56Z</time>
      </trkpt>
      <trkpt lat="49.24659" lon="1.39327">
        <ele>20.2</ele>
        <time>2021-10-08T10:55:02Z</time>
      </trkpt>
      <trkpt lat="49.24688" lon="1.39277">
        <ele>19.6</ele>
        <time>2021-10-08T10:55:09Z</time>
      </trkpt>
      <trkpt lat="49.24715" lon="1.39228">
        <ele>19.4</ele>
        <time>2021-10-08T10:55:16Z</time>
      </trkpt>
      <trkpt lat="49.24728" lon="1.39209">
        <ele>19.6</ele>
        <time>2021-10-08T10:55:19Z</time>
      </trkpt>
      <trkpt lat="49.24737" lon="1.39198">
        <ele>19.6</ele>
        <time>2021-10-08T10:55:21Z</time>
      </trkpt>
      <trkpt lat="49.24755" lon="1.39179">
        <ele>19.8</ele>
        <time>2021-10-08T10:55:25Z</time>
      </trkpt>
      <trkpt lat="49.24762" lon="1.39168">
        <ele>19.8</ele>
        <time>2021-10-08T10:55:27Z</time>
      </trkpt>
      <trkpt lat="49.24772" lon="1.39152">
        <ele>20</ele>
        <time>2021-10-08T10:55:30Z</time>
      </trkpt>
      <trkpt lat="49.24777" lon="1.39143">
        <ele>20.4</ele>
        <time>2021-10-08T10:55:32Z</time>
      </trkpt>
      <trkpt lat="49.2479" lon="1.39109">
        <ele>21.2</ele>
        <time>2021-10-08T10:55:38Z</time>
      </trkpt>
      <trkpt lat="49.24803" lon="1.39076">
        <ele>21.2</ele>
        <time>2021-10-08T10:55:42Z</time>
      </trkpt>
      <trkpt lat="49.24806" lon="1.39061">
        <ele>21.2</ele>
        <time>2021-10-08T10:55:45Z</time>
      </trkpt>
      <trkpt lat="49.24814" lon="1.3905">
        <ele>20.8</ele>
        <time>2021-10-08T10:55:49Z</time>
      </trkpt>
      <trkpt lat="49.24827" lon="1.39017">
        <ele>20.8</ele>
        <time>2021-10-08T10:55:55Z</time>
      </trkpt>
      <trkpt lat="49.24829" lon="1.3901">
        <ele>20.6</ele>
        <time>2021-10-08T10:55:56Z</time>
      </trkpt>
      <trkpt lat="49.24837" lon="1.38969">
        <ele>20.6</ele>
        <time>2021-10-08T10:56:01Z</time>
      </trkpt>
      <trkpt lat="49.24857" lon="1.38891">
        <ele>19</ele>
        <time>2021-10-08T10:56:11Z</time>
      </trkpt>
      <trkpt lat="49.24871" lon="1.38836">
        <ele>18.6</ele>
        <time>2021-10-08T10:56:18Z</time>
      </trkpt>
      <trkpt lat="49.24874" lon="1.38829">
        <ele>18.6</ele>
        <time>2021-10-08T10:56:19Z</time>
      </trkpt>
      <trkpt lat="49.24898" lon="1.38779">
        <ele>18.4</ele>
        <time>2021-10-08T10:56:27Z</time>
      </trkpt>
      <trkpt lat="49.24918" lon="1.38732">
        <ele>18.6</ele>
        <time>2021-10-08T10:56:34Z</time>
      </trkpt>
      <trkpt lat="49.24927" lon="1.38714">
        <ele>18.6</ele>
        <time>2021-10-08T10:56:37Z</time>
      </trkpt>
      <trkpt lat="49.24935" lon="1.38694">
        <ele>18.8</ele>
        <time>2021-10-08T10:56:40Z</time>
      </trkpt>
      <trkpt lat="49.24941" lon="1.3868">
        <ele>18.8</ele>
        <time>2021-10-08T10:56:42Z</time>
      </trkpt>
      <trkpt lat="49.24955" lon="1.38653">
        <ele>18.8</ele>
        <time>2021-10-08T10:56:46Z</time>
      </trkpt>
      <trkpt lat="49.24978" lon="1.38609">
        <ele>18.6</ele>
        <time>2021-10-08T10:56:53Z</time>
      </trkpt>
      <trkpt lat="49.25" lon="1.38563">
        <ele>18.4</ele>
        <time>2021-10-08T10:57:00Z</time>
      </trkpt>
      <trkpt lat="49.25022" lon="1.38507">
        <ele>18.4</ele>
        <time>2021-10-08T10:57:08Z</time>
      </trkpt>
      <trkpt lat="49.25041" lon="1.38459">
        <ele>17.8</ele>
        <time>2021-10-08T10:57:15Z</time>
      </trkpt>
      <trkpt lat="49.25046" lon="1.38445">
        <ele>17.6</ele>
        <time>2021-10-08T10:57:17Z</time>
      </trkpt>
      <trkpt lat="49.25064" lon="1.38397">
        <ele>17.6</ele>
        <time>2021-10-08T10:57:24Z</time>
      </trkpt>
      <trkpt lat="49.25081" lon="1.38349">
        <ele>17.6</ele>
        <time>2021-10-08T10:57:31Z</time>
      </trkpt>
      <trkpt lat="49.25086" lon="1.38331">
        <ele>17.8</ele>
        <time>2021-10-08T10:57:34Z</time>
      </trkpt>
      <trkpt lat="49.25088" lon="1.38326">
        <ele>17.8</ele>
        <time>2021-10-08T10:57:35Z</time>
      </trkpt>
      <trkpt lat="49.25091" lon="1.38322">
        <ele>18</ele>
        <time>2021-10-08T10:57:36Z</time>
      </trkpt>
      <trkpt lat="49.25098" lon="1.38307">
        <ele>18</ele>
        <time>2021-10-08T10:57:39Z</time>
      </trkpt>
      <trkpt lat="49.25106" lon="1.38286">
        <ele>17.8</ele>
        <time>2021-10-08T10:57:43Z</time>
      </trkpt>
      <trkpt lat="49.2511" lon="1.38274">
        <ele>17.8</ele>
        <time>2021-10-08T10:57:45Z</time>
      </trkpt>
      <trkpt lat="49.25118" lon="1.38247">
        <ele>18</ele>
        <time>2021-10-08T10:57:49Z</time>
      </trkpt>
      <trkpt lat="49.2513" lon="1.38186">
        <ele>18.4</ele>
        <time>2021-10-08T10:57:58Z</time>
      </trkpt>
      <trkpt lat="49.25135" lon="1.38153">
        <ele>18.8</ele>
        <time>2021-10-08T10:58:03Z</time>
      </trkpt>
      <trkpt lat="49.25138" lon="1.38127">
        <ele>18.8</ele>
        <time>2021-10-08T10:58:07Z</time>
      </trkpt>
      <trkpt lat="49.25144" lon="1.38072">
        <ele>18.4</ele>
        <time>2021-10-08T10:58:15Z</time>
      </trkpt>
      <trkpt lat="49.25144" lon="1.38019">
        <ele>18.8</ele>
        <time>2021-10-08T10:58:22Z</time>
      </trkpt>
      <trkpt lat="49.25144" lon="1.38011">
        <ele>18.8</ele>
        <time>2021-10-08T10:58:23Z</time>
      </trkpt>
      <trkpt lat="49.25142" lon="1.37982">
        <ele>18.8</ele>
        <time>2021-10-08T10:58:27Z</time>
      </trkpt>
      <trkpt lat="49.25142" lon="1.37959">
        <ele>18.8</ele>
        <time>2021-10-08T10:58:30Z</time>
      </trkpt>
      <trkpt lat="49.2514" lon="1.37944">
        <ele>18.8</ele>
        <time>2021-10-08T10:58:32Z</time>
      </trkpt>
      <trkpt lat="49.25134" lon="1.37878">
        <ele>18.2</ele>
        <time>2021-10-08T10:58:40Z</time>
      </trkpt>
      <trkpt lat="49.25133" lon="1.3787">
        <ele>18.2</ele>
        <time>2021-10-08T10:58:41Z</time>
      </trkpt>
      <trkpt lat="49.25133" lon="1.37831">
        <ele>17.4</ele>
        <time>2021-10-08T10:58:46Z</time>
      </trkpt>
      <trkpt lat="49.25136" lon="1.37783">
        <ele>17</ele>
        <time>2021-10-08T10:58:53Z</time>
      </trkpt>
      <trkpt lat="49.25138" lon="1.37779">
        <ele>17</ele>
        <time>2021-10-08T10:58:54Z</time>
      </trkpt>
      <trkpt lat="49.25142" lon="1.37774">
        <ele>17</ele>
        <time>2021-10-08T10:58:56Z</time>
      </trkpt>
      <trkpt lat="49.25143" lon="1.37774">
        <ele>17.2</ele>
        <time>2021-10-08T10:58:59Z</time>
      </trkpt>
      <trkpt lat="49.25145" lon="1.37772">
        <ele>17.4</ele>
        <time>2021-10-08T10:59:01Z</time>
      </trkpt>
      <trkpt lat="49.25156" lon="1.37771">
        <ele>17.6</ele>
        <time>2021-10-08T10:59:05Z</time>
      </trkpt>
      <trkpt lat="49.2518" lon="1.37779">
        <ele>18</ele>
        <time>2021-10-08T10:59:12Z</time>
      </trkpt>
      <trkpt lat="49.25203" lon="1.37787">
        <ele>18.2</ele>
        <time>2021-10-08T10:59:18Z</time>
      </trkpt>
      <trkpt lat="49.25232" lon="1.37794">
        <ele>18.2</ele>
        <time>2021-10-08T10:59:25Z</time>
      </trkpt>
      <trkpt lat="49.25264" lon="1.37797">
        <ele>18.4</ele>
        <time>2021-10-08T10:59:33Z</time>
      </trkpt>
      <trkpt lat="49.25272" lon="1.37798">
        <ele>18.4</ele>
        <time>2021-10-08T10:59:35Z</time>
      </trkpt>
      <trkpt lat="49.25297" lon="1.37799">
        <ele>18.8</ele>
        <time>2021-10-08T10:59:41Z</time>
      </trkpt>
      <trkpt lat="49.25313" lon="1.37802">
        <ele>19.8</ele>
        <time>2021-10-08T10:59:46Z</time>
      </trkpt>
      <trkpt lat="49.25324" lon="1.37814">
        <ele>20.8</ele>
        <time>2021-10-08T10:59:50Z</time>
      </trkpt>
      <trkpt lat="49.2533" lon="1.37821">
        <ele>21.2</ele>
        <time>2021-10-08T10:59:52Z</time>
      </trkpt>
      <trkpt lat="49.2534" lon="1.37828">
        <ele>21.8</ele>
        <time>2021-10-08T10:59:55Z</time>
      </trkpt>
      <trkpt lat="49.25346" lon="1.37835">
        <ele>22</ele>
        <time>2021-10-08T10:59:57Z</time>
      </trkpt>
      <trkpt lat="49.2537" lon="1.37869">
        <ele>22.6</ele>
        <time>2021-10-08T11:00:05Z</time>
      </trkpt>
      <trkpt lat="49.25373" lon="1.37874">
        <ele>22.8</ele>
        <time>2021-10-08T11:00:06Z</time>
      </trkpt>
      <trkpt lat="49.25392" lon="1.37898">
        <ele>23.8</ele>
        <time>2021-10-08T11:00:12Z</time>
      </trkpt>
      <trkpt lat="49.25393" lon="1.37904">
        <ele>23.8</ele>
        <time>2021-10-08T11:00:13Z</time>
      </trkpt>
      <trkpt lat="49.25393" lon="1.3791">
        <ele>23.8</ele>
        <time>2021-10-08T11:00:14Z</time>
      </trkpt>
      <trkpt lat="49.25392" lon="1.37924">
        <ele>24</ele>
        <time>2021-10-08T11:00:16Z</time>
      </trkpt>
      <trkpt lat="49.2539" lon="1.3795">
        <ele>24</ele>
        <time>2021-10-08T11:00:20Z</time>
      </trkpt>
      <trkpt lat="49.25392" lon="1.37955">
        <ele>24</ele>
        <time>2021-10-08T11:00:21Z</time>
      </trkpt>
      <trkpt lat="49.25408" lon="1.37954">
        <ele>23.8</ele>
        <time>2021-10-08T11:00:24Z</time>
      </trkpt>
      <trkpt lat="49.25445" lon="1.37953">
        <ele>23.4</ele>
        <time>2021-10-08T11:00:30Z</time>
      </trkpt>
      <trkpt lat="49.25467" lon="1.3796">
        <ele>22.8</ele>
        <time>2021-10-08T11:00:34Z</time>
      </trkpt>
      <trkpt lat="49.2549" lon="1.37968">
        <ele>22.6</ele>
        <time>2021-10-08T11:00:38Z</time>
      </trkpt>
      <trkpt lat="49.25539" lon="1.37985">
        <ele>22.2</ele>
        <time>2021-10-08T11:00:47Z</time>
      </trkpt>
      <trkpt lat="49.25577" lon="1.38015">
        <ele>22.4</ele>
        <time>2021-10-08T11:00:55Z</time>
      </trkpt>
      <trkpt lat="49.25589" lon="1.38041">
        <ele>22.6</ele>
        <time>2021-10-08T11:00:59Z</time>
      </trkpt>
      <trkpt lat="49.25598" lon="1.38069">
        <ele>22.8</ele>
        <time>2021-10-08T11:01:03Z</time>
      </trkpt>
      <trkpt lat="49.25607" lon="1.38089">
        <ele>23</ele>
        <time>2021-10-08T11:01:06Z</time>
      </trkpt>
      <trkpt lat="49.25621" lon="1.38117">
        <ele>23.4</ele>
        <time>2021-10-08T11:01:11Z</time>
      </trkpt>
      <trkpt lat="49.25624" lon="1.38123">
        <ele>23.6</ele>
        <time>2021-10-08T11:01:12Z</time>
      </trkpt>
      <trkpt lat="49.25638" lon="1.38143">
        <ele>24.6</ele>
        <time>2021-10-08T11:01:16Z</time>
      </trkpt>
      <trkpt lat="49.25642" lon="1.38148">
        <ele>24.8</ele>
        <time>2021-10-08T11:01:17Z</time>
      </trkpt>
      <trkpt lat="49.25671" lon="1.38186">
        <ele>25</ele>
        <time>2021-10-08T11:01:25Z</time>
      </trkpt>
      <trkpt lat="49.25687" lon="1.38203">
        <ele>25</ele>
        <time>2021-10-08T11:01:29Z</time>
      </trkpt>
      <trkpt lat="49.257" lon="1.38214">
        <ele>25.2</ele>
        <time>2021-10-08T11:01:32Z</time>
      </trkpt>
      <trkpt lat="49.2571" lon="1.38219">
        <ele>25.4</ele>
        <time>2021-10-08T11:01:34Z</time>
      </trkpt>
      <trkpt lat="49.25719" lon="1.3822">
        <ele>25.6</ele>
        <time>2021-10-08T11:01:36Z</time>
      </trkpt>
      <trkpt lat="49.25724" lon="1.38219">
        <ele>25.8</ele>
        <time>2021-10-08T11:01:37Z</time>
      </trkpt>
      <trkpt lat="49.25728" lon="1.38218">
        <ele>26</ele>
        <time>2021-10-08T11:01:38Z</time>
      </trkpt>
      <trkpt lat="49.25742" lon="1.38215">
        <ele>26.8</ele>
        <time>2021-10-08T11:01:41Z</time>
      </trkpt>
      <trkpt lat="49.25755" lon="1.38211">
        <ele>27.2</ele>
        <time>2021-10-08T11:01:44Z</time>
      </trkpt>
      <trkpt lat="49.25764" lon="1.38208">
        <ele>27.8</ele>
        <time>2021-10-08T11:01:46Z</time>
      </trkpt>
      <trkpt lat="49.25794" lon="1.38203">
        <ele>28.6</ele>
        <time>2021-10-08T11:01:53Z</time>
      </trkpt>
      <trkpt lat="49.25826" lon="1.38198">
        <ele>28.6</ele>
        <time>2021-10-08T11:02:01Z</time>
      </trkpt>
      <trkpt lat="49.25849" lon="1.38193">
        <ele>28.6</ele>
        <time>2021-10-08T11:02:07Z</time>
      </trkpt>
      <trkpt lat="49.25856" lon="1.38192">
        <ele>28.8</ele>
        <time>2021-10-08T11:02:09Z</time>
      </trkpt>
      <trkpt lat="49.25869" lon="1.38189">
        <ele>29.2</ele>
        <time>2021-10-08T11:02:12Z</time>
      </trkpt>
      <trkpt lat="49.25872" lon="1.3819">
        <ele>29.2</ele>
        <time>2021-10-08T11:02:13Z</time>
      </trkpt>
      <trkpt lat="49.25892" lon="1.38196">
        <ele>30</ele>
        <time>2021-10-08T11:02:18Z</time>
      </trkpt>
      <trkpt lat="49.25899" lon="1.38199">
        <ele>30.8</ele>
        <time>2021-10-08T11:02:20Z</time>
      </trkpt>
      <trkpt lat="49.25908" lon="1.38202">
        <ele>30.8</ele>
        <time>2021-10-08T11:02:22Z</time>
      </trkpt>
      <trkpt lat="49.25935" lon="1.38216">
        <ele>31.2</ele>
        <time>2021-10-08T11:02:29Z</time>
      </trkpt>
      <trkpt lat="49.25971" lon="1.38231">
        <ele>32.2</ele>
        <time>2021-10-08T11:02:38Z</time>
      </trkpt>
      <trkpt lat="49.25999" lon="1.38232">
        <ele>33.2</ele>
        <time>2021-10-08T11:02:45Z</time>
      </trkpt>
      <trkpt lat="49.26003" lon="1.38232">
        <ele>33.4</ele>
        <time>2021-10-08T11:02:46Z</time>
      </trkpt>
      <trkpt lat="49.26037" lon="1.38225">
        <ele>34.2</ele>
        <time>2021-10-08T11:02:54Z</time>
      </trkpt>
      <trkpt lat="49.26082" lon="1.38215">
        <ele>34.8</ele>
        <time>2021-10-08T11:03:04Z</time>
      </trkpt>
      <trkpt lat="49.26107" lon="1.38208">
        <ele>35</ele>
        <time>2021-10-08T11:03:10Z</time>
      </trkpt>
      <trkpt lat="49.26111" lon="1.38206">
        <ele>35.2</ele>
        <time>2021-10-08T11:03:11Z</time>
      </trkpt>
      <trkpt lat="49.26115" lon="1.38204">
        <ele>35</ele>
        <time>2021-10-08T11:03:12Z</time>
      </trkpt>
      <trkpt lat="49.26131" lon="1.38193">
        <ele>35.6</ele>
        <time>2021-10-08T11:03:17Z</time>
      </trkpt>
      <trkpt lat="49.26147" lon="1.3818">
        <ele>36.2</ele>
        <time>2021-10-08T11:03:22Z</time>
      </trkpt>
      <trkpt lat="49.26154" lon="1.38172">
        <ele>36.4</ele>
        <time>2021-10-08T11:03:24Z</time>
      </trkpt>
      <trkpt lat="49.26176" lon="1.38154">
        <ele>36.6</ele>
        <time>2021-10-08T11:03:30Z</time>
      </trkpt>
      <trkpt lat="49.262" lon="1.38135">
        <ele>36.8</ele>
        <time>2021-10-08T11:03:36Z</time>
      </trkpt>
      <trkpt lat="49.26211" lon="1.38128">
        <ele>37</ele>
        <time>2021-10-08T11:03:39Z</time>
      </trkpt>
      <trkpt lat="49.2623" lon="1.38117">
        <ele>37.4</ele>
        <time>2021-10-08T11:03:43Z</time>
      </trkpt>
      <trkpt lat="49.26249" lon="1.38107">
        <ele>38.2</ele>
        <time>2021-10-08T11:03:47Z</time>
      </trkpt>
      <trkpt lat="49.26256" lon="1.38102">
        <ele>38.2</ele>
        <time>2021-10-08T11:03:49Z</time>
      </trkpt>
      <trkpt lat="49.26273" lon="1.38094">
        <ele>38.6</ele>
        <time>2021-10-08T11:03:54Z</time>
      </trkpt>
      <trkpt lat="49.26284" lon="1.38089">
        <ele>39.2</ele>
        <time>2021-10-08T11:03:57Z</time>
      </trkpt>
      <trkpt lat="49.263" lon="1.38081">
        <ele>40</ele>
        <time>2021-10-08T11:04:02Z</time>
      </trkpt>
      <trkpt lat="49.26303" lon="1.3808">
        <ele>40.4</ele>
        <time>2021-10-08T11:04:03Z</time>
      </trkpt>
      <trkpt lat="49.2632" lon="1.38072">
        <ele>40.8</ele>
        <time>2021-10-08T11:04:08Z</time>
      </trkpt>
      <trkpt lat="49.26333" lon="1.38066">
        <ele>41.4</ele>
        <time>2021-10-08T11:04:12Z</time>
      </trkpt>
      <trkpt lat="49.2634" lon="1.38065">
        <ele>41.4</ele>
        <time>2021-10-08T11:04:14Z</time>
      </trkpt>
      <trkpt lat="49.26364" lon="1.38062">
        <ele>42.4</ele>
        <time>2021-10-08T11:04:20Z</time>
      </trkpt>
      <trkpt lat="49.26368" lon="1.38062">
        <ele>42.4</ele>
        <time>2021-10-08T11:04:21Z</time>
      </trkpt>
      <trkpt lat="49.26386" lon="1.38061">
        <ele>43.4</ele>
        <time>2021-10-08T11:04:26Z</time>
      </trkpt>
      <trkpt lat="49.26396" lon="1.3806">
        <ele>44</ele>
        <time>2021-10-08T11:04:29Z</time>
      </trkpt>
      <trkpt lat="49.26402" lon="1.38058">
        <ele>44.4</ele>
        <time>2021-10-08T11:04:31Z</time>
      </trkpt>
      <trkpt lat="49.26411" lon="1.38051">
        <ele>44.8</ele>
        <time>2021-10-08T11:04:34Z</time>
      </trkpt>
      <trkpt lat="49.26427" lon="1.38031">
        <ele>45.4</ele>
        <time>2021-10-08T11:04:39Z</time>
      </trkpt>
      <trkpt lat="49.26429" lon="1.38027">
        <ele>45.6</ele>
        <time>2021-10-08T11:04:40Z</time>
      </trkpt>
      <trkpt lat="49.26436" lon="1.38008">
        <ele>46</ele>
        <time>2021-10-08T11:04:44Z</time>
      </trkpt>
      <trkpt lat="49.26447" lon="1.37983">
        <ele>46.6</ele>
        <time>2021-10-08T11:04:49Z</time>
      </trkpt>
      <trkpt lat="49.26457" lon="1.37958">
        <ele>46.8</ele>
        <time>2021-10-08T11:04:54Z</time>
      </trkpt>
      <trkpt lat="49.26467" lon="1.37926">
        <ele>47.2</ele>
        <time>2021-10-08T11:04:59Z</time>
      </trkpt>
      <trkpt lat="49.26478" lon="1.37887">
        <ele>47.4</ele>
        <time>2021-10-08T11:05:04Z</time>
      </trkpt>
      <trkpt lat="49.2648" lon="1.37878">
        <ele>47.4</ele>
        <time>2021-10-08T11:05:05Z</time>
      </trkpt>
      <trkpt lat="49.26485" lon="1.37854">
        <ele>46.8</ele>
        <time>2021-10-08T11:05:08Z</time>
      </trkpt>
      <trkpt lat="49.26487" lon="1.37837">
        <ele>46.6</ele>
        <time>2021-10-08T11:05:10Z</time>
      </trkpt>
      <trkpt lat="49.2649" lon="1.3782">
        <ele>46.6</ele>
        <time>2021-10-08T11:05:12Z</time>
      </trkpt>
      <trkpt lat="49.26491" lon="1.37797">
        <ele>46.4</ele>
        <time>2021-10-08T11:05:15Z</time>
      </trkpt>
      <trkpt lat="49.26493" lon="1.37753">
        <ele>46.2</ele>
        <time>2021-10-08T11:05:20Z</time>
      </trkpt>
      <trkpt lat="49.26494" lon="1.37745">
        <ele>46.4</ele>
        <time>2021-10-08T11:05:21Z</time>
      </trkpt>
      <trkpt lat="49.26495" lon="1.37729">
        <ele>46.4</ele>
        <time>2021-10-08T11:05:23Z</time>
      </trkpt>
      <trkpt lat="49.26495" lon="1.37696">
        <ele>46.4</ele>
        <time>2021-10-08T11:05:27Z</time>
      </trkpt>
      <trkpt lat="49.26501" lon="1.37672">
        <ele>46.8</ele>
        <time>2021-10-08T11:05:31Z</time>
      </trkpt>
      <trkpt lat="49.26507" lon="1.37659">
        <ele>47.2</ele>
        <time>2021-10-08T11:05:34Z</time>
      </trkpt>
      <trkpt lat="49.26508" lon="1.37657">
        <ele>47.6</ele>
        <time>2021-10-08T11:05:35Z</time>
      </trkpt>
      <trkpt lat="49.26514" lon="1.37656">
        <ele>48.2</ele>
        <time>2021-10-08T11:05:39Z</time>
      </trkpt>
      <trkpt lat="49.26515" lon="1.37656">
        <ele>48.2</ele>
        <time>2021-10-08T11:05:40Z</time>
      </trkpt>
      <trkpt lat="49.26515" lon="1.37656">
        <ele>48.4</ele>
        <time>2021-10-08T11:05:41Z</time>
      </trkpt>
      <trkpt lat="49.26514" lon="1.37654">
        <ele>49</ele>
        <time>2021-10-08T11:08:20Z</time>
      </trkpt>
      <trkpt lat="49.26514" lon="1.3766">
        <ele>49</ele>
        <time>2021-10-08T11:08:22Z</time>
      </trkpt>
      <trkpt lat="49.26517" lon="1.37673">
        <ele>48.8</ele>
        <time>2021-10-08T11:08:26Z</time>
      </trkpt>
      <trkpt lat="49.26519" lon="1.3768">
        <ele>48.8</ele>
        <time>2021-10-08T11:08:28Z</time>
      </trkpt>
      <trkpt lat="49.26524" lon="1.377">
        <ele>48.8</ele>
        <time>2021-10-08T11:08:33Z</time>
      </trkpt>
      <trkpt lat="49.26524" lon="1.37717">
        <ele>48.8</ele>
        <time>2021-10-08T11:08:37Z</time>
      </trkpt>
      <trkpt lat="49.26524" lon="1.37729">
        <ele>48.6</ele>
        <time>2021-10-08T11:08:41Z</time>
      </trkpt>
      <trkpt lat="49.26524" lon="1.3773">
        <ele>48.6</ele>
        <time>2021-10-08T11:08:42Z</time>
      </trkpt>
      <trkpt lat="49.26524" lon="1.3773">
        <ele>48.6</ele>
        <time>2021-10-08T11:08:43Z</time>
      </trkpt>
      <trkpt lat="49.26524" lon="1.37737">
        <ele>48.4</ele>
        <time>2021-10-08T11:08:50Z</time>
      </trkpt>
      <trkpt lat="49.26524" lon="1.3774">
        <ele>48.4</ele>
        <time>2021-10-08T11:08:52Z</time>
      </trkpt>
      <trkpt lat="49.26524" lon="1.37747">
        <ele>48.6</ele>
        <time>2021-10-08T11:08:55Z</time>
      </trkpt>
      <trkpt lat="49.26525" lon="1.37752">
        <ele>48.4</ele>
        <time>2021-10-08T11:09:01Z</time>
      </trkpt>
      <trkpt lat="49.26525" lon="1.37753">
        <ele>48.4</ele>
        <time>2021-10-08T11:09:03Z</time>
      </trkpt>
      <trkpt lat="49.26525" lon="1.37756">
        <ele>48.8</ele>
        <time>2021-10-08T11:09:10Z</time>
      </trkpt>
      <trkpt lat="49.26526" lon="1.37762">
        <ele>48.8</ele>
        <time>2021-10-08T11:09:12Z</time>
      </trkpt>
      <trkpt lat="49.26527" lon="1.37781">
        <ele>48.8</ele>
        <time>2021-10-08T11:09:18Z</time>
      </trkpt>
      <trkpt lat="49.26529" lon="1.37803">
        <ele>49</ele>
        <time>2021-10-08T11:09:23Z</time>
      </trkpt>
      <trkpt lat="49.26529" lon="1.37834">
        <ele>49.2</ele>
        <time>2021-10-08T11:09:28Z</time>
      </trkpt>
      <trkpt lat="49.26529" lon="1.37841">
        <ele>49.2</ele>
        <time>2021-10-08T11:09:29Z</time>
      </trkpt>
      <trkpt lat="49.26529" lon="1.37879">
        <ele>49</ele>
        <time>2021-10-08T11:09:35Z</time>
      </trkpt>
      <trkpt lat="49.26527" lon="1.3791">
        <ele>48.8</ele>
        <time>2021-10-08T11:09:40Z</time>
      </trkpt>
      <trkpt lat="49.26526" lon="1.37924">
        <ele>48.6</ele>
        <time>2021-10-08T11:09:42Z</time>
      </trkpt>
      <trkpt lat="49.26527" lon="1.3795">
        <ele>48.6</ele>
        <time>2021-10-08T11:09:46Z</time>
      </trkpt>
      <trkpt lat="49.26526" lon="1.37972">
        <ele>48.6</ele>
        <time>2021-10-08T11:09:50Z</time>
      </trkpt>
      <trkpt lat="49.26523" lon="1.37999">
        <ele>48.6</ele>
        <time>2021-10-08T11:09:55Z</time>
      </trkpt>
      <trkpt lat="49.26523" lon="1.38008">
        <ele>49</ele>
        <time>2021-10-08T11:09:57Z</time>
      </trkpt>
      <trkpt lat="49.26524" lon="1.38033">
        <ele>49.8</ele>
        <time>2021-10-08T11:10:02Z</time>
      </trkpt>
      <trkpt lat="49.26524" lon="1.38046">
        <ele>50.2</ele>
        <time>2021-10-08T11:10:04Z</time>
      </trkpt>
      <trkpt lat="49.26526" lon="1.38062">
        <ele>50.6</ele>
        <time>2021-10-08T11:10:07Z</time>
      </trkpt>
      <trkpt lat="49.26525" lon="1.3809">
        <ele>50.6</ele>
        <time>2021-10-08T11:10:12Z</time>
      </trkpt>
      <trkpt lat="49.26518" lon="1.38117">
        <ele>50.6</ele>
        <time>2021-10-08T11:10:18Z</time>
      </trkpt>
      <trkpt lat="49.26519" lon="1.3812">
        <ele>50.6</ele>
        <time>2021-10-08T11:10:19Z</time>
      </trkpt>
      <trkpt lat="49.26521" lon="1.38125">
        <ele>51</ele>
        <time>2021-10-08T11:10:21Z</time>
      </trkpt>
      <trkpt lat="49.26523" lon="1.38129">
        <ele>51.4</ele>
        <time>2021-10-08T11:10:23Z</time>
      </trkpt>
      <trkpt lat="49.26524" lon="1.38133">
        <ele>51.8</ele>
        <time>2021-10-08T11:10:25Z</time>
      </trkpt>
      <trkpt lat="49.26525" lon="1.38137">
        <ele>52.2</ele>
        <time>2021-10-08T11:10:27Z</time>
      </trkpt>
      <trkpt lat="49.26526" lon="1.38139">
        <ele>52.6</ele>
        <time>2021-10-08T11:10:28Z</time>
      </trkpt>
      <trkpt lat="49.26527" lon="1.38145">
        <ele>53.2</ele>
        <time>2021-10-08T11:10:31Z</time>
      </trkpt>
      <trkpt lat="49.26528" lon="1.38149">
        <ele>54</ele>
        <time>2021-10-08T11:10:34Z</time>
      </trkpt>
      <trkpt lat="49.26528" lon="1.3815">
        <ele>54.4</ele>
        <time>2021-10-08T11:10:35Z</time>
      </trkpt>
      <trkpt lat="49.26531" lon="1.3816">
        <ele>55.4</ele>
        <time>2021-10-08T11:10:40Z</time>
      </trkpt>
      <trkpt lat="49.26532" lon="1.38165">
        <ele>56.4</ele>
        <time>2021-10-08T11:10:43Z</time>
      </trkpt>
      <trkpt lat="49.26536" lon="1.38174">
        <ele>57.4</ele>
        <time>2021-10-08T11:10:48Z</time>
      </trkpt>
      <trkpt lat="49.26539" lon="1.38184">
        <ele>58.6</ele>
        <time>2021-10-08T11:10:53Z</time>
      </trkpt>
      <trkpt lat="49.26542" lon="1.38192">
        <ele>59.8</ele>
        <time>2021-10-08T11:10:58Z</time>
      </trkpt>
      <trkpt lat="49.26543" lon="1.38196">
        <ele>60.2</ele>
        <time>2021-10-08T11:11:00Z</time>
      </trkpt>
      <trkpt lat="49.26544" lon="1.38202">
        <ele>60.8</ele>
        <time>2021-10-08T11:11:03Z</time>
      </trkpt>
      <trkpt lat="49.26548" lon="1.38211">
        <ele>61.6</ele>
        <time>2021-10-08T11:11:08Z</time>
      </trkpt>
      <trkpt lat="49.26548" lon="1.38213">
        <ele>61.8</ele>
        <time>2021-10-08T11:11:09Z</time>
      </trkpt>
      <trkpt lat="49.2655" lon="1.38218">
        <ele>62.8</ele>
        <time>2021-10-08T11:11:12Z</time>
      </trkpt>
      <trkpt lat="49.26554" lon="1.3823">
        <ele>64</ele>
        <time>2021-10-08T11:11:18Z</time>
      </trkpt>
      <trkpt lat="49.26556" lon="1.38237">
        <ele>64.6</ele>
        <time>2021-10-08T11:11:21Z</time>
      </trkpt>
      <trkpt lat="49.26558" lon="1.38244">
        <ele>65.2</ele>
        <time>2021-10-08T11:11:24Z</time>
      </trkpt>
      <trkpt lat="49.26561" lon="1.38253">
        <ele>66.2</ele>
        <time>2021-10-08T11:11:28Z</time>
      </trkpt>
      <trkpt lat="49.26561" lon="1.38255">
        <ele>66.4</ele>
        <time>2021-10-08T11:11:29Z</time>
      </trkpt>
      <trkpt lat="49.26564" lon="1.38267">
        <ele>67.4</ele>
        <time>2021-10-08T11:11:34Z</time>
      </trkpt>
      <trkpt lat="49.26567" lon="1.38283">
        <ele>68.4</ele>
        <time>2021-10-08T11:11:40Z</time>
      </trkpt>
      <trkpt lat="49.26567" lon="1.38295">
        <ele>69.6</ele>
        <time>2021-10-08T11:11:45Z</time>
      </trkpt>
      <trkpt lat="49.26567" lon="1.38298">
        <ele>69.8</ele>
        <time>2021-10-08T11:11:46Z</time>
      </trkpt>
      <trkpt lat="49.26568" lon="1.38306">
        <ele>70.2</ele>
        <time>2021-10-08T11:11:49Z</time>
      </trkpt>
      <trkpt lat="49.26569" lon="1.38311">
        <ele>70.6</ele>
        <time>2021-10-08T11:11:51Z</time>
      </trkpt>
      <trkpt lat="49.26568" lon="1.38325">
        <ele>71.6</ele>
        <time>2021-10-08T11:11:57Z</time>
      </trkpt>
      <trkpt lat="49.26568" lon="1.3833">
        <ele>72</ele>
        <time>2021-10-08T11:11:59Z</time>
      </trkpt>
      <trkpt lat="49.26567" lon="1.38335">
        <ele>72.8</ele>
        <time>2021-10-08T11:12:02Z</time>
      </trkpt>
      <trkpt lat="49.26566" lon="1.38339">
        <ele>73.2</ele>
        <time>2021-10-08T11:12:04Z</time>
      </trkpt>
      <trkpt lat="49.26567" lon="1.38344">
        <ele>73.6</ele>
        <time>2021-10-08T11:12:07Z</time>
      </trkpt>
      <trkpt lat="49.26567" lon="1.38346">
        <ele>74.2</ele>
        <time>2021-10-08T11:12:08Z</time>
      </trkpt>
      <trkpt lat="49.26568" lon="1.38349">
        <ele>74.6</ele>
        <time>2021-10-08T11:12:10Z</time>
      </trkpt>
      <trkpt lat="49.26567" lon="1.38355">
        <ele>75.2</ele>
        <time>2021-10-08T11:12:13Z</time>
      </trkpt>
      <trkpt lat="49.26566" lon="1.3836">
        <ele>75.8</ele>
        <time>2021-10-08T11:12:16Z</time>
      </trkpt>
      <trkpt lat="49.26566" lon="1.38365">
        <ele>76</ele>
        <time>2021-10-08T11:12:19Z</time>
      </trkpt>
      <trkpt lat="49.26565" lon="1.38368">
        <ele>76.4</ele>
        <time>2021-10-08T11:12:21Z</time>
      </trkpt>
      <trkpt lat="49.26564" lon="1.38372">
        <ele>77</ele>
        <time>2021-10-08T11:12:24Z</time>
      </trkpt>
      <trkpt lat="49.26561" lon="1.38383">
        <ele>78.2</ele>
        <time>2021-10-08T11:12:30Z</time>
      </trkpt>
      <trkpt lat="49.26559" lon="1.38391">
        <ele>79</ele>
        <time>2021-10-08T11:12:35Z</time>
      </trkpt>
      <trkpt lat="49.26557" lon="1.38398">
        <ele>80.2</ele>
        <time>2021-10-08T11:12:39Z</time>
      </trkpt>
      <trkpt lat="49.26557" lon="1.384">
        <ele>80.4</ele>
        <time>2021-10-08T11:12:40Z</time>
      </trkpt>
      <trkpt lat="49.26556" lon="1.38406">
        <ele>81.2</ele>
        <time>2021-10-08T11:12:44Z</time>
      </trkpt>
      <trkpt lat="49.26554" lon="1.38418">
        <ele>82.4</ele>
        <time>2021-10-08T11:12:50Z</time>
      </trkpt>
      <trkpt lat="49.26553" lon="1.38419">
        <ele>82.6</ele>
        <time>2021-10-08T11:12:51Z</time>
      </trkpt>
      <trkpt lat="49.26552" lon="1.38427">
        <ele>83.6</ele>
        <time>2021-10-08T11:12:56Z</time>
      </trkpt>
      <trkpt lat="49.2655" lon="1.3844">
        <ele>84.6</ele>
        <time>2021-10-08T11:13:02Z</time>
      </trkpt>
      <trkpt lat="49.26549" lon="1.38445">
        <ele>85.2</ele>
        <time>2021-10-08T11:13:04Z</time>
      </trkpt>
      <trkpt lat="49.26548" lon="1.38448">
        <ele>85.6</ele>
        <time>2021-10-08T11:13:06Z</time>
      </trkpt>
      <trkpt lat="49.26547" lon="1.38461">
        <ele>86.6</ele>
        <time>2021-10-08T11:13:12Z</time>
      </trkpt>
      <trkpt lat="49.26547" lon="1.38465">
        <ele>87</ele>
        <time>2021-10-08T11:13:14Z</time>
      </trkpt>
      <trkpt lat="49.26546" lon="1.38471">
        <ele>87.4</ele>
        <time>2021-10-08T11:13:17Z</time>
      </trkpt>
      <trkpt lat="49.26546" lon="1.38484">
        <ele>88.6</ele>
        <time>2021-10-08T11:13:23Z</time>
      </trkpt>
      <trkpt lat="49.26545" lon="1.38494">
        <ele>89.6</ele>
        <time>2021-10-08T11:13:28Z</time>
      </trkpt>
      <trkpt lat="49.26544" lon="1.38506">
        <ele>90.8</ele>
        <time>2021-10-08T11:13:32Z</time>
      </trkpt>
      <trkpt lat="49.26544" lon="1.38511">
        <ele>91</ele>
        <time>2021-10-08T11:13:34Z</time>
      </trkpt>
      <trkpt lat="49.26544" lon="1.38519">
        <ele>92</ele>
        <time>2021-10-08T11:13:38Z</time>
      </trkpt>
      <trkpt lat="49.26544" lon="1.38529">
        <ele>92.8</ele>
        <time>2021-10-08T11:13:43Z</time>
      </trkpt>
      <trkpt lat="49.26543" lon="1.38531">
        <ele>92.8</ele>
        <time>2021-10-08T11:13:44Z</time>
      </trkpt>
      <trkpt lat="49.2654" lon="1.38537">
        <ele>93.2</ele>
        <time>2021-10-08T11:13:47Z</time>
      </trkpt>
      <trkpt lat="49.26537" lon="1.38538">
        <ele>93.8</ele>
        <time>2021-10-08T11:13:50Z</time>
      </trkpt>
      <trkpt lat="49.26537" lon="1.38534">
        <ele>94.2</ele>
        <time>2021-10-08T11:13:53Z</time>
      </trkpt>
      <trkpt lat="49.26538" lon="1.38528">
        <ele>94.8</ele>
        <time>2021-10-08T11:13:56Z</time>
      </trkpt>
      <trkpt lat="49.26538" lon="1.38518">
        <ele>95.8</ele>
        <time>2021-10-08T11:14:00Z</time>
      </trkpt>
      <trkpt lat="49.26537" lon="1.38515">
        <ele>96</ele>
        <time>2021-10-08T11:14:02Z</time>
      </trkpt>
      <trkpt lat="49.26535" lon="1.38501">
        <ele>96.4</ele>
        <time>2021-10-08T11:14:09Z</time>
      </trkpt>
      <trkpt lat="49.26529" lon="1.38493">
        <ele>97</ele>
        <time>2021-10-08T11:14:15Z</time>
      </trkpt>
      <trkpt lat="49.26521" lon="1.38485">
        <ele>97.8</ele>
        <time>2021-10-08T11:14:22Z</time>
      </trkpt>
      <trkpt lat="49.2652" lon="1.38484">
        <ele>98.2</ele>
        <time>2021-10-08T11:14:23Z</time>
      </trkpt>
      <trkpt lat="49.26514" lon="1.38475">
        <ele>99.2</ele>
        <time>2021-10-08T11:14:28Z</time>
      </trkpt>
      <trkpt lat="49.26513" lon="1.38472">
        <ele>99.6</ele>
        <time>2021-10-08T11:14:29Z</time>
      </trkpt>
      <trkpt lat="49.26511" lon="1.38467">
        <ele>100</ele>
        <time>2021-10-08T11:14:31Z</time>
      </trkpt>
      <trkpt lat="49.26509" lon="1.38462">
        <ele>100.4</ele>
        <time>2021-10-08T11:14:33Z</time>
      </trkpt>
      <trkpt lat="49.26508" lon="1.38459">
        <ele>100.6</ele>
        <time>2021-10-08T11:14:34Z</time>
      </trkpt>
      <trkpt lat="49.26504" lon="1.3845">
        <ele>101.4</ele>
        <time>2021-10-08T11:14:38Z</time>
      </trkpt>
      <trkpt lat="49.26504" lon="1.38448">
        <ele>101.4</ele>
        <time>2021-10-08T11:14:39Z</time>
      </trkpt>
      <trkpt lat="49.265" lon="1.38441">
        <ele>102.4</ele>
        <time>2021-10-08T11:14:43Z</time>
      </trkpt>
      <trkpt lat="49.265" lon="1.38439">
        <ele>102.6</ele>
        <time>2021-10-08T11:14:44Z</time>
      </trkpt>
      <trkpt lat="49.26497" lon="1.38429">
        <ele>103.4</ele>
        <time>2021-10-08T11:14:49Z</time>
      </trkpt>
      <trkpt lat="49.26496" lon="1.38427">
        <ele>103.6</ele>
        <time>2021-10-08T11:14:50Z</time>
      </trkpt>
      <trkpt lat="49.26492" lon="1.38419">
        <ele>104.6</ele>
        <time>2021-10-08T11:14:55Z</time>
      </trkpt>
      <trkpt lat="49.26491" lon="1.38417">
        <ele>104.8</ele>
        <time>2021-10-08T11:14:56Z</time>
      </trkpt>
      <trkpt lat="49.26488" lon="1.38412">
        <ele>106</ele>
        <time>2021-10-08T11:14:59Z</time>
      </trkpt>
      <trkpt lat="49.26483" lon="1.38402">
        <ele>107.2</ele>
        <time>2021-10-08T11:15:04Z</time>
      </trkpt>
      <trkpt lat="49.26481" lon="1.38398">
        <ele>107.6</ele>
        <time>2021-10-08T11:15:06Z</time>
      </trkpt>
      <trkpt lat="49.26479" lon="1.38394">
        <ele>108.2</ele>
        <time>2021-10-08T11:15:09Z</time>
      </trkpt>
      <trkpt lat="49.26476" lon="1.38391">
        <ele>108.6</ele>
        <time>2021-10-08T11:15:11Z</time>
      </trkpt>
      <trkpt lat="49.26469" lon="1.38389">
        <ele>109.2</ele>
        <time>2021-10-08T11:15:15Z</time>
      </trkpt>
      <trkpt lat="49.26467" lon="1.38389">
        <ele>109.4</ele>
        <time>2021-10-08T11:15:16Z</time>
      </trkpt>
      <trkpt lat="49.26454" lon="1.38387">
        <ele>110.4</ele>
        <time>2021-10-08T11:15:22Z</time>
      </trkpt>
      <trkpt lat="49.2645" lon="1.38387">
        <ele>110.8</ele>
        <time>2021-10-08T11:15:24Z</time>
      </trkpt>
      <trkpt lat="49.26441" lon="1.3839">
        <ele>111.4</ele>
        <time>2021-10-08T11:15:29Z</time>
      </trkpt>
      <trkpt lat="49.26439" lon="1.3839">
        <ele>111.6</ele>
        <time>2021-10-08T11:15:30Z</time>
      </trkpt>
      <trkpt lat="49.26426" lon="1.38394">
        <ele>112.8</ele>
        <time>2021-10-08T11:15:37Z</time>
      </trkpt>
      <trkpt lat="49.26419" lon="1.38397">
        <ele>113.4</ele>
        <time>2021-10-08T11:15:41Z</time>
      </trkpt>
      <trkpt lat="49.26415" lon="1.38399">
        <ele>113.6</ele>
        <time>2021-10-08T11:15:43Z</time>
      </trkpt>
      <trkpt lat="49.26411" lon="1.384">
        <ele>113.8</ele>
        <time>2021-10-08T11:15:45Z</time>
      </trkpt>
      <trkpt lat="49.26397" lon="1.38408">
        <ele>114.6</ele>
        <time>2021-10-08T11:15:52Z</time>
      </trkpt>
      <trkpt lat="49.26395" lon="1.38408">
        <ele>114.8</ele>
        <time>2021-10-08T11:15:53Z</time>
      </trkpt>
      <trkpt lat="49.26386" lon="1.38412">
        <ele>115.8</ele>
        <time>2021-10-08T11:15:59Z</time>
      </trkpt>
      <trkpt lat="49.26384" lon="1.38413">
        <ele>116</ele>
        <time>2021-10-08T11:16:00Z</time>
      </trkpt>
      <trkpt lat="49.26376" lon="1.38417">
        <ele>116.8</ele>
        <time>2021-10-08T11:16:06Z</time>
      </trkpt>
      <trkpt lat="49.26374" lon="1.3842">
        <ele>117</ele>
        <time>2021-10-08T11:16:08Z</time>
      </trkpt>
      <trkpt lat="49.26364" lon="1.38425">
        <ele>118.2</ele>
        <time>2021-10-08T11:16:14Z</time>
      </trkpt>
      <trkpt lat="49.26356" lon="1.3843">
        <ele>119.2</ele>
        <time>2021-10-08T11:16:20Z</time>
      </trkpt>
      <trkpt lat="49.26347" lon="1.38434">
        <ele>120.4</ele>
        <time>2021-10-08T11:16:25Z</time>
      </trkpt>
      <trkpt lat="49.26342" lon="1.38438">
        <ele>121</ele>
        <time>2021-10-08T11:16:28Z</time>
      </trkpt>
      <trkpt lat="49.26337" lon="1.38442">
        <ele>121.6</ele>
        <time>2021-10-08T11:16:31Z</time>
      </trkpt>
      <trkpt lat="49.26334" lon="1.38443">
        <ele>122</ele>
        <time>2021-10-08T11:16:33Z</time>
      </trkpt>
      <trkpt lat="49.26327" lon="1.38448">
        <ele>122.6</ele>
        <time>2021-10-08T11:16:38Z</time>
      </trkpt>
      <trkpt lat="49.26325" lon="1.38449">
        <ele>122.8</ele>
        <time>2021-10-08T11:16:39Z</time>
      </trkpt>
      <trkpt lat="49.26315" lon="1.38455">
        <ele>123.8</ele>
        <time>2021-10-08T11:16:45Z</time>
      </trkpt>
      <trkpt lat="49.26313" lon="1.38456">
        <ele>124</ele>
        <time>2021-10-08T11:16:46Z</time>
      </trkpt>
      <trkpt lat="49.26305" lon="1.38461">
        <ele>125</ele>
        <time>2021-10-08T11:16:51Z</time>
      </trkpt>
      <trkpt lat="49.26295" lon="1.38469">
        <ele>125.4</ele>
        <time>2021-10-08T11:16:57Z</time>
      </trkpt>
      <trkpt lat="49.26288" lon="1.38474">
        <ele>126</ele>
        <time>2021-10-08T11:17:01Z</time>
      </trkpt>
      <trkpt lat="49.26285" lon="1.38475">
        <ele>126.4</ele>
        <time>2021-10-08T11:17:03Z</time>
      </trkpt>
      <trkpt lat="49.26279" lon="1.38481">
        <ele>127.2</ele>
        <time>2021-10-08T11:17:08Z</time>
      </trkpt>
      <trkpt lat="49.26278" lon="1.38483">
        <ele>127.2</ele>
        <time>2021-10-08T11:17:09Z</time>
      </trkpt>
      <trkpt lat="49.2627" lon="1.38489">
        <ele>127.8</ele>
        <time>2021-10-08T11:17:14Z</time>
      </trkpt>
      <trkpt lat="49.26261" lon="1.38497">
        <ele>128.4</ele>
        <time>2021-10-08T11:17:19Z</time>
      </trkpt>
      <trkpt lat="49.2626" lon="1.38499">
        <ele>128.6</ele>
        <time>2021-10-08T11:17:20Z</time>
      </trkpt>
      <trkpt lat="49.26257" lon="1.38503">
        <ele>128.8</ele>
        <time>2021-10-08T11:17:22Z</time>
      </trkpt>
      <trkpt lat="49.26253" lon="1.38508">
        <ele>129.4</ele>
        <time>2021-10-08T11:17:25Z</time>
      </trkpt>
      <trkpt lat="49.26252" lon="1.3851">
        <ele>129.4</ele>
        <time>2021-10-08T11:17:26Z</time>
      </trkpt>
      <trkpt lat="49.26245" lon="1.38519">
        <ele>130.6</ele>
        <time>2021-10-08T11:17:31Z</time>
      </trkpt>
      <trkpt lat="49.2624" lon="1.38528">
        <ele>131.6</ele>
        <time>2021-10-08T11:17:36Z</time>
      </trkpt>
      <trkpt lat="49.26239" lon="1.3853">
        <ele>131.8</ele>
        <time>2021-10-08T11:17:37Z</time>
      </trkpt>
      <trkpt lat="49.26233" lon="1.38541">
        <ele>132.8</ele>
        <time>2021-10-08T11:17:43Z</time>
      </trkpt>
      <trkpt lat="49.26229" lon="1.38552">
        <ele>134</ele>
        <time>2021-10-08T11:17:49Z</time>
      </trkpt>
      <trkpt lat="49.26223" lon="1.38562">
        <ele>135.2</ele>
        <time>2021-10-08T11:17:54Z</time>
      </trkpt>
      <trkpt lat="49.26222" lon="1.38564">
        <ele>135.4</ele>
        <time>2021-10-08T11:17:55Z</time>
      </trkpt>
      <trkpt lat="49.26219" lon="1.38573">
        <ele>136.2</ele>
        <time>2021-10-08T11:17:59Z</time>
      </trkpt>
      <trkpt lat="49.26217" lon="1.38578">
        <ele>136.6</ele>
        <time>2021-10-08T11:18:01Z</time>
      </trkpt>
      <trkpt lat="49.26211" lon="1.38588">
        <ele>137.2</ele>
        <time>2021-10-08T11:18:05Z</time>
      </trkpt>
      <trkpt lat="49.26206" lon="1.38597">
        <ele>138.4</ele>
        <time>2021-10-08T11:18:09Z</time>
      </trkpt>
      <trkpt lat="49.26202" lon="1.38607">
        <ele>139.4</ele>
        <time>2021-10-08T11:18:14Z</time>
      </trkpt>
      <trkpt lat="49.26201" lon="1.38609">
        <ele>139.4</ele>
        <time>2021-10-08T11:18:15Z</time>
      </trkpt>
      <trkpt lat="49.26198" lon="1.38615">
        <ele>140.4</ele>
        <time>2021-10-08T11:18:18Z</time>
      </trkpt>
      <trkpt lat="49.26194" lon="1.38622">
        <ele>141.6</ele>
        <time>2021-10-08T11:18:22Z</time>
      </trkpt>
      <trkpt lat="49.26193" lon="1.38624">
        <ele>141.8</ele>
        <time>2021-10-08T11:18:23Z</time>
      </trkpt>
      <trkpt lat="49.2619" lon="1.38629">
        <ele>142.6</ele>
        <time>2021-10-08T11:18:26Z</time>
      </trkpt>
      <trkpt lat="49.26185" lon="1.38641">
        <ele>143.6</ele>
        <time>2021-10-08T11:18:32Z</time>
      </trkpt>
      <trkpt lat="49.26184" lon="1.38643">
        <ele>143.8</ele>
        <time>2021-10-08T11:18:33Z</time>
      </trkpt>
      <trkpt lat="49.26183" lon="1.38647">
        <ele>144.4</ele>
        <time>2021-10-08T11:18:36Z</time>
      </trkpt>
      <trkpt lat="49.26182" lon="1.38648">
        <ele>144.4</ele>
        <time>2021-10-08T11:18:37Z</time>
      </trkpt>
      <trkpt lat="49.26179" lon="1.38653">
        <ele>145</ele>
        <time>2021-10-08T11:18:39Z</time>
      </trkpt>
      <trkpt lat="49.26177" lon="1.3866">
        <ele>145.4</ele>
        <time>2021-10-08T11:18:42Z</time>
      </trkpt>
      <trkpt lat="49.26175" lon="1.38665">
        <ele>146</ele>
        <time>2021-10-08T11:18:44Z</time>
      </trkpt>
      <trkpt lat="49.26173" lon="1.38679">
        <ele>147</ele>
        <time>2021-10-08T11:18:49Z</time>
      </trkpt>
      <trkpt lat="49.26172" lon="1.38681">
        <ele>147.2</ele>
        <time>2021-10-08T11:18:50Z</time>
      </trkpt>
      <trkpt lat="49.26172" lon="1.38702">
        <ele>147.8</ele>
        <time>2021-10-08T11:18:56Z</time>
      </trkpt>
      <trkpt lat="49.26175" lon="1.38722">
        <ele>148.4</ele>
        <time>2021-10-08T11:19:02Z</time>
      </trkpt>
      <trkpt lat="49.26181" lon="1.38748">
        <ele>148.4</ele>
        <time>2021-10-08T11:19:08Z</time>
      </trkpt>
      <trkpt lat="49.2619" lon="1.38781">
        <ele>148</ele>
        <time>2021-10-08T11:19:15Z</time>
      </trkpt>
      <trkpt lat="49.262" lon="1.38817">
        <ele>147.8</ele>
        <time>2021-10-08T11:19:23Z</time>
      </trkpt>
      <trkpt lat="49.26201" lon="1.38818">
        <ele>147.8</ele>
        <time>2021-10-08T11:19:25Z</time>
      </trkpt>
      <trkpt lat="49.262" lon="1.3882">
        <ele>149.6</ele>
        <time>2021-10-08T11:22:36Z</time>
      </trkpt>
      <trkpt lat="49.262" lon="1.38821">
        <ele>149.6</ele>
        <time>2021-10-08T11:22:37Z</time>
      </trkpt>
      <trkpt lat="49.262" lon="1.38824">
        <ele>149.6</ele>
        <time>2021-10-08T11:22:38Z</time>
      </trkpt>
      <trkpt lat="49.26197" lon="1.38844">
        <ele>149.6</ele>
        <time>2021-10-08T11:22:43Z</time>
      </trkpt>
      <trkpt lat="49.26184" lon="1.38878">
        <ele>149.2</ele>
        <time>2021-10-08T11:22:50Z</time>
      </trkpt>
      <trkpt lat="49.26172" lon="1.38907">
        <ele>149</ele>
        <time>2021-10-08T11:22:56Z</time>
      </trkpt>
      <trkpt lat="49.26162" lon="1.38934">
        <ele>149.6</ele>
        <time>2021-10-08T11:23:02Z</time>
      </trkpt>
      <trkpt lat="49.26157" lon="1.38948">
        <ele>150</ele>
        <time>2021-10-08T11:23:05Z</time>
      </trkpt>
      <trkpt lat="49.26151" lon="1.3896">
        <ele>150.2</ele>
        <time>2021-10-08T11:23:08Z</time>
      </trkpt>
      <trkpt lat="49.26137" lon="1.38981">
        <ele>151</ele>
        <time>2021-10-08T11:23:14Z</time>
      </trkpt>
      <trkpt lat="49.26126" lon="1.39002">
        <ele>151.4</ele>
        <time>2021-10-08T11:23:19Z</time>
      </trkpt>
      <trkpt lat="49.26114" lon="1.39024">
        <ele>151.8</ele>
        <time>2021-10-08T11:23:24Z</time>
      </trkpt>
      <trkpt lat="49.26112" lon="1.39028">
        <ele>152</ele>
        <time>2021-10-08T11:23:25Z</time>
      </trkpt>
      <trkpt lat="49.26099" lon="1.39038">
        <ele>152.4</ele>
        <time>2021-10-08T11:23:29Z</time>
      </trkpt>
      <trkpt lat="49.26088" lon="1.39046">
        <ele>152.6</ele>
        <time>2021-10-08T11:23:33Z</time>
      </trkpt>
      <trkpt lat="49.26069" lon="1.39053">
        <ele>153.4</ele>
        <time>2021-10-08T11:23:38Z</time>
      </trkpt>
      <trkpt lat="49.26048" lon="1.39063">
        <ele>153.8</ele>
        <time>2021-10-08T11:23:45Z</time>
      </trkpt>
      <trkpt lat="49.26033" lon="1.39077">
        <ele>153.8</ele>
        <time>2021-10-08T11:23:50Z</time>
      </trkpt>
      <trkpt lat="49.26008" lon="1.39097">
        <ele>154</ele>
        <time>2021-10-08T11:23:57Z</time>
      </trkpt>
      <trkpt lat="49.25993" lon="1.39108">
        <ele>154</ele>
        <time>2021-10-08T11:24:01Z</time>
      </trkpt>
      <trkpt lat="49.2598" lon="1.3912">
        <ele>154</ele>
        <time>2021-10-08T11:24:06Z</time>
      </trkpt>
      <trkpt lat="49.25969" lon="1.39134">
        <ele>154</ele>
        <time>2021-10-08T11:24:10Z</time>
      </trkpt>
      <trkpt lat="49.25947" lon="1.39153">
        <ele>153.8</ele>
        <time>2021-10-08T11:24:15Z</time>
      </trkpt>
      <trkpt lat="49.25921" lon="1.39178">
        <ele>153</ele>
        <time>2021-10-08T11:24:21Z</time>
      </trkpt>
      <trkpt lat="49.25909" lon="1.39184">
        <ele>152.8</ele>
        <time>2021-10-08T11:24:24Z</time>
      </trkpt>
      <trkpt lat="49.25888" lon="1.39205">
        <ele>152.6</ele>
        <time>2021-10-08T11:24:30Z</time>
      </trkpt>
      <trkpt lat="49.25865" lon="1.3923">
        <ele>152.8</ele>
        <time>2021-10-08T11:24:36Z</time>
      </trkpt>
      <trkpt lat="49.25859" lon="1.39238">
        <ele>152.8</ele>
        <time>2021-10-08T11:24:37Z</time>
      </trkpt>
      <trkpt lat="49.25841" lon="1.39265">
        <ele>152.6</ele>
        <time>2021-10-08T11:24:41Z</time>
      </trkpt>
      <trkpt lat="49.25827" lon="1.39282">
        <ele>152.6</ele>
        <time>2021-10-08T11:24:44Z</time>
      </trkpt>
      <trkpt lat="49.25817" lon="1.39293">
        <ele>152.2</ele>
        <time>2021-10-08T11:24:46Z</time>
      </trkpt>
      <trkpt lat="49.25811" lon="1.39297">
        <ele>152.2</ele>
        <time>2021-10-08T11:24:47Z</time>
      </trkpt>
      <trkpt lat="49.25806" lon="1.39301">
        <ele>152</ele>
        <time>2021-10-08T11:24:48Z</time>
      </trkpt>
      <trkpt lat="49.25791" lon="1.39309">
        <ele>151.8</ele>
        <time>2021-10-08T11:24:51Z</time>
      </trkpt>
      <trkpt lat="49.25781" lon="1.39314">
        <ele>151.8</ele>
        <time>2021-10-08T11:24:53Z</time>
      </trkpt>
      <trkpt lat="49.25775" lon="1.39318">
        <ele>151.2</ele>
        <time>2021-10-08T11:24:54Z</time>
      </trkpt>
      <trkpt lat="49.25759" lon="1.39328">
        <ele>150.8</ele>
        <time>2021-10-08T11:24:57Z</time>
      </trkpt>
      <trkpt lat="49.25736" lon="1.39345">
        <ele>150</ele>
        <time>2021-10-08T11:25:01Z</time>
      </trkpt>
      <trkpt lat="49.25724" lon="1.39355">
        <ele>149.6</ele>
        <time>2021-10-08T11:25:03Z</time>
      </trkpt>
      <trkpt lat="49.25704" lon="1.39373">
        <ele>149.4</ele>
        <time>2021-10-08T11:25:07Z</time>
      </trkpt>
      <trkpt lat="49.25673" lon="1.39397">
        <ele>149.4</ele>
        <time>2021-10-08T11:25:13Z</time>
      </trkpt>
      <trkpt lat="49.25657" lon="1.39407">
        <ele>149.4</ele>
        <time>2021-10-08T11:25:16Z</time>
      </trkpt>
      <trkpt lat="49.25643" lon="1.39414">
        <ele>149.6</ele>
        <time>2021-10-08T11:25:19Z</time>
      </trkpt>
      <trkpt lat="49.25605" lon="1.3943">
        <ele>150.2</ele>
        <time>2021-10-08T11:25:28Z</time>
      </trkpt>
      <trkpt lat="49.25581" lon="1.39443">
        <ele>150.8</ele>
        <time>2021-10-08T11:25:35Z</time>
      </trkpt>
      <trkpt lat="49.25571" lon="1.39446">
        <ele>151</ele>
        <time>2021-10-08T11:25:38Z</time>
      </trkpt>
      <trkpt lat="49.25565" lon="1.39449">
        <ele>151.4</ele>
        <time>2021-10-08T11:25:40Z</time>
      </trkpt>
      <trkpt lat="49.25549" lon="1.39459">
        <ele>152</ele>
        <time>2021-10-08T11:25:45Z</time>
      </trkpt>
      <trkpt lat="49.25546" lon="1.39464">
        <ele>152</ele>
        <time>2021-10-08T11:25:46Z</time>
      </trkpt>
      <trkpt lat="49.2554" lon="1.39489">
        <ele>152.2</ele>
        <time>2021-10-08T11:25:51Z</time>
      </trkpt>
      <trkpt lat="49.25534" lon="1.39518">
        <ele>152.4</ele>
        <time>2021-10-08T11:25:57Z</time>
      </trkpt>
      <trkpt lat="49.25532" lon="1.39521">
        <ele>152.4</ele>
        <time>2021-10-08T11:25:58Z</time>
      </trkpt>
      <trkpt lat="49.25521" lon="1.39523">
        <ele>153</ele>
        <time>2021-10-08T11:26:01Z</time>
      </trkpt>
      <trkpt lat="49.25517" lon="1.39524">
        <ele>153</ele>
        <time>2021-10-08T11:26:02Z</time>
      </trkpt>
      <trkpt lat="49.25493" lon="1.39533">
        <ele>153.4</ele>
        <time>2021-10-08T11:26:08Z</time>
      </trkpt>
      <trkpt lat="49.25458" lon="1.39546">
        <ele>153.8</ele>
        <time>2021-10-08T11:26:16Z</time>
      </trkpt>
      <trkpt lat="49.25438" lon="1.39554">
        <ele>154.2</ele>
        <time>2021-10-08T11:26:20Z</time>
      </trkpt>
      <trkpt lat="49.25422" lon="1.39561">
        <ele>154.2</ele>
        <time>2021-10-08T11:26:23Z</time>
      </trkpt>
      <trkpt lat="49.25397" lon="1.39577">
        <ele>154.4</ele>
        <time>2021-10-08T11:26:28Z</time>
      </trkpt>
      <trkpt lat="49.25351" lon="1.39613">
        <ele>154.4</ele>
        <time>2021-10-08T11:26:37Z</time>
      </trkpt>
      <trkpt lat="49.25322" lon="1.39644">
        <ele>154.6</ele>
        <time>2021-10-08T11:26:43Z</time>
      </trkpt>
      <trkpt lat="49.25279" lon="1.3969">
        <ele>154.6</ele>
        <time>2021-10-08T11:26:51Z</time>
      </trkpt>
      <trkpt lat="49.2523" lon="1.39722">
        <ele>154</ele>
        <time>2021-10-08T11:26:59Z</time>
      </trkpt>
      <trkpt lat="49.25176" lon="1.39754">
        <ele>153.2</ele>
        <time>2021-10-08T11:27:07Z</time>
      </trkpt>
      <trkpt lat="49.25163" lon="1.39763">
        <ele>153.2</ele>
        <time>2021-10-08T11:27:09Z</time>
      </trkpt>
      <trkpt lat="49.25152" lon="1.39776">
        <ele>153</ele>
        <time>2021-10-08T11:27:11Z</time>
      </trkpt>
      <trkpt lat="49.25146" lon="1.39784">
        <ele>153</ele>
        <time>2021-10-08T11:27:12Z</time>
      </trkpt>
      <trkpt lat="49.25142" lon="1.39792">
        <ele>153</ele>
        <time>2021-10-08T11:27:13Z</time>
      </trkpt>
      <trkpt lat="49.25125" lon="1.39814">
        <ele>152.8</ele>
        <time>2021-10-08T11:27:16Z</time>
      </trkpt>
      <trkpt lat="49.25112" lon="1.39827">
        <ele>152.6</ele>
        <time>2021-10-08T11:27:18Z</time>
      </trkpt>
      <trkpt lat="49.25101" lon="1.39843">
        <ele>152</ele>
        <time>2021-10-08T11:27:20Z</time>
      </trkpt>
      <trkpt lat="49.25083" lon="1.39872">
        <ele>151.2</ele>
        <time>2021-10-08T11:27:23Z</time>
      </trkpt>
      <trkpt lat="49.25078" lon="1.39882">
        <ele>151</ele>
        <time>2021-10-08T11:27:24Z</time>
      </trkpt>
      <trkpt lat="49.25057" lon="1.39917">
        <ele>150</ele>
        <time>2021-10-08T11:27:28Z</time>
      </trkpt>
      <trkpt lat="49.25053" lon="1.39923">
        <ele>149.6</ele>
        <time>2021-10-08T11:27:29Z</time>
      </trkpt>
      <trkpt lat="49.25046" lon="1.39938">
        <ele>148.4</ele>
        <time>2021-10-08T11:27:31Z</time>
      </trkpt>
      <trkpt lat="49.25041" lon="1.39945">
        <ele>147.4</ele>
        <time>2021-10-08T11:27:32Z</time>
      </trkpt>
      <trkpt lat="49.25037" lon="1.39953">
        <ele>146.4</ele>
        <time>2021-10-08T11:27:33Z</time>
      </trkpt>
      <trkpt lat="49.25029" lon="1.39969">
        <ele>144.6</ele>
        <time>2021-10-08T11:27:35Z</time>
      </trkpt>
      <trkpt lat="49.2502" lon="1.39988">
        <ele>144</ele>
        <time>2021-10-08T11:27:37Z</time>
      </trkpt>
      <trkpt lat="49.25017" lon="1.39997">
        <ele>143.6</ele>
        <time>2021-10-08T11:27:38Z</time>
      </trkpt>
      <trkpt lat="49.25014" lon="1.40007">
        <ele>143</ele>
        <time>2021-10-08T11:27:39Z</time>
      </trkpt>
      <trkpt lat="49.2501" lon="1.40017">
        <ele>142</ele>
        <time>2021-10-08T11:27:40Z</time>
      </trkpt>
      <trkpt lat="49.25006" lon="1.40027">
        <ele>140.8</ele>
        <time>2021-10-08T11:27:41Z</time>
      </trkpt>
      <trkpt lat="49.25002" lon="1.40038">
        <ele>139.8</ele>
        <time>2021-10-08T11:27:42Z</time>
      </trkpt>
      <trkpt lat="49.24997" lon="1.40048">
        <ele>138.8</ele>
        <time>2021-10-08T11:27:43Z</time>
      </trkpt>
      <trkpt lat="49.24994" lon="1.40056">
        <ele>137.6</ele>
        <time>2021-10-08T11:27:44Z</time>
      </trkpt>
      <trkpt lat="49.2499" lon="1.40063">
        <ele>135.2</ele>
        <time>2021-10-08T11:27:45Z</time>
      </trkpt>
      <trkpt lat="49.24986" lon="1.4007">
        <ele>134.2</ele>
        <time>2021-10-08T11:27:46Z</time>
      </trkpt>
      <trkpt lat="49.24983" lon="1.40076">
        <ele>133</ele>
        <time>2021-10-08T11:27:47Z</time>
      </trkpt>
      <trkpt lat="49.2498" lon="1.40082">
        <ele>131.8</ele>
        <time>2021-10-08T11:27:48Z</time>
      </trkpt>
      <trkpt lat="49.24977" lon="1.40089">
        <ele>130.6</ele>
        <time>2021-10-08T11:27:49Z</time>
      </trkpt>
      <trkpt lat="49.24974" lon="1.40096">
        <ele>129.6</ele>
        <time>2021-10-08T11:27:50Z</time>
      </trkpt>
      <trkpt lat="49.24969" lon="1.4011">
        <ele>128.2</ele>
        <time>2021-10-08T11:27:52Z</time>
      </trkpt>
      <trkpt lat="49.24963" lon="1.40127">
        <ele>127</ele>
        <time>2021-10-08T11:27:54Z</time>
      </trkpt>
      <trkpt lat="49.24961" lon="1.40136">
        <ele>126</ele>
        <time>2021-10-08T11:27:55Z</time>
      </trkpt>
      <trkpt lat="49.24958" lon="1.40145">
        <ele>125.6</ele>
        <time>2021-10-08T11:27:56Z</time>
      </trkpt>
      <trkpt lat="49.24955" lon="1.40163">
        <ele>124</ele>
        <time>2021-10-08T11:27:58Z</time>
      </trkpt>
      <trkpt lat="49.24952" lon="1.40181">
        <ele>122.6</ele>
        <time>2021-10-08T11:28:00Z</time>
      </trkpt>
      <trkpt lat="49.2495" lon="1.40191">
        <ele>121.4</ele>
        <time>2021-10-08T11:28:01Z</time>
      </trkpt>
      <trkpt lat="49.24948" lon="1.40215">
        <ele>119.8</ele>
        <time>2021-10-08T11:28:03Z</time>
      </trkpt>
      <trkpt lat="49.24947" lon="1.40228">
        <ele>118.8</ele>
        <time>2021-10-08T11:28:04Z</time>
      </trkpt>
      <trkpt lat="49.24946" lon="1.4024">
        <ele>117.8</ele>
        <time>2021-10-08T11:28:05Z</time>
      </trkpt>
      <trkpt lat="49.24944" lon="1.40262">
        <ele>116</ele>
        <time>2021-10-08T11:28:07Z</time>
      </trkpt>
      <trkpt lat="49.24942" lon="1.40273">
        <ele>115.2</ele>
        <time>2021-10-08T11:28:08Z</time>
      </trkpt>
      <trkpt lat="49.2494" lon="1.40283">
        <ele>114.2</ele>
        <time>2021-10-08T11:28:09Z</time>
      </trkpt>
      <trkpt lat="49.24934" lon="1.40302">
        <ele>112.4</ele>
        <time>2021-10-08T11:28:11Z</time>
      </trkpt>
      <trkpt lat="49.24929" lon="1.40318">
        <ele>109.2</ele>
        <time>2021-10-08T11:28:13Z</time>
      </trkpt>
      <trkpt lat="49.24925" lon="1.40331">
        <ele>107.6</ele>
        <time>2021-10-08T11:28:15Z</time>
      </trkpt>
      <trkpt lat="49.24919" lon="1.40344">
        <ele>106.6</ele>
        <time>2021-10-08T11:28:17Z</time>
      </trkpt>
      <trkpt lat="49.24912" lon="1.40355">
        <ele>104.8</ele>
        <time>2021-10-08T11:28:19Z</time>
      </trkpt>
      <trkpt lat="49.24908" lon="1.4036">
        <ele>104</ele>
        <time>2021-10-08T11:28:20Z</time>
      </trkpt>
      <trkpt lat="49.24903" lon="1.40366">
        <ele>103.6</ele>
        <time>2021-10-08T11:28:21Z</time>
      </trkpt>
      <trkpt lat="49.24895" lon="1.40376">
        <ele>102.6</ele>
        <time>2021-10-08T11:28:23Z</time>
      </trkpt>
      <trkpt lat="49.24887" lon="1.40387">
        <ele>100.4</ele>
        <time>2021-10-08T11:28:25Z</time>
      </trkpt>
      <trkpt lat="49.24883" lon="1.40392">
        <ele>99.6</ele>
        <time>2021-10-08T11:28:26Z</time>
      </trkpt>
      <trkpt lat="49.2488" lon="1.40395">
        <ele>98.6</ele>
        <time>2021-10-08T11:28:27Z</time>
      </trkpt>
      <trkpt lat="49.24877" lon="1.40398">
        <ele>97.4</ele>
        <time>2021-10-08T11:28:28Z</time>
      </trkpt>
      <trkpt lat="49.24875" lon="1.40401">
        <ele>96</ele>
        <time>2021-10-08T11:28:29Z</time>
      </trkpt>
      <trkpt lat="49.24871" lon="1.40404">
        <ele>94.8</ele>
        <time>2021-10-08T11:28:30Z</time>
      </trkpt>
      <trkpt lat="49.24867" lon="1.40409">
        <ele>93.4</ele>
        <time>2021-10-08T11:28:31Z</time>
      </trkpt>
      <trkpt lat="49.24861" lon="1.40415">
        <ele>92.4</ele>
        <time>2021-10-08T11:28:32Z</time>
      </trkpt>
      <trkpt lat="49.24856" lon="1.40419">
        <ele>91.4</ele>
        <time>2021-10-08T11:28:33Z</time>
      </trkpt>
      <trkpt lat="49.24851" lon="1.40422">
        <ele>90.6</ele>
        <time>2021-10-08T11:28:34Z</time>
      </trkpt>
      <trkpt lat="49.24848" lon="1.40421">
        <ele>89.8</ele>
        <time>2021-10-08T11:28:35Z</time>
      </trkpt>
      <trkpt lat="49.24844" lon="1.40413">
        <ele>88</ele>
        <time>2021-10-08T11:28:37Z</time>
      </trkpt>
      <trkpt lat="49.24841" lon="1.40407">
        <ele>87</ele>
        <time>2021-10-08T11:28:38Z</time>
      </trkpt>
      <trkpt lat="49.24836" lon="1.40404">
        <ele>86</ele>
        <time>2021-10-08T11:28:39Z</time>
      </trkpt>
      <trkpt lat="49.24831" lon="1.404">
        <ele>84.8</ele>
        <time>2021-10-08T11:28:40Z</time>
      </trkpt>
      <trkpt lat="49.24826" lon="1.40397">
        <ele>82.8</ele>
        <time>2021-10-08T11:28:41Z</time>
      </trkpt>
      <trkpt lat="49.2482" lon="1.40394">
        <ele>82</ele>
        <time>2021-10-08T11:28:42Z</time>
      </trkpt>
      <trkpt lat="49.24815" lon="1.40389">
        <ele>81</ele>
        <time>2021-10-08T11:28:43Z</time>
      </trkpt>
      <trkpt lat="49.24804" lon="1.40372">
        <ele>78.8</ele>
        <time>2021-10-08T11:28:45Z</time>
      </trkpt>
      <trkpt lat="49.24796" lon="1.40366">
        <ele>77.6</ele>
        <time>2021-10-08T11:28:46Z</time>
      </trkpt>
      <trkpt lat="49.24789" lon="1.4036">
        <ele>76.4</ele>
        <time>2021-10-08T11:28:47Z</time>
      </trkpt>
      <trkpt lat="49.24782" lon="1.40353">
        <ele>75.2</ele>
        <time>2021-10-08T11:28:48Z</time>
      </trkpt>
      <trkpt lat="49.24775" lon="1.40347">
        <ele>74</ele>
        <time>2021-10-08T11:28:49Z</time>
      </trkpt>
      <trkpt lat="49.24769" lon="1.40341">
        <ele>72.8</ele>
        <time>2021-10-08T11:28:50Z</time>
      </trkpt>
      <trkpt lat="49.24763" lon="1.40335">
        <ele>71.6</ele>
        <time>2021-10-08T11:28:51Z</time>
      </trkpt>
      <trkpt lat="49.24757" lon="1.40329">
        <ele>70</ele>
        <time>2021-10-08T11:28:52Z</time>
      </trkpt>
      <trkpt lat="49.24751" lon="1.40324">
        <ele>68.4</ele>
        <time>2021-10-08T11:28:53Z</time>
      </trkpt>
      <trkpt lat="49.24745" lon="1.40318">
        <ele>67</ele>
        <time>2021-10-08T11:28:54Z</time>
      </trkpt>
      <trkpt lat="49.24741" lon="1.40314">
        <ele>65.8</ele>
        <time>2021-10-08T11:28:55Z</time>
      </trkpt>
      <trkpt lat="49.24727" lon="1.40304">
        <ele>63.8</ele>
        <time>2021-10-08T11:28:57Z</time>
      </trkpt>
      <trkpt lat="49.24716" lon="1.40296">
        <ele>61.8</ele>
        <time>2021-10-08T11:28:59Z</time>
      </trkpt>
      <trkpt lat="49.24712" lon="1.4029">
        <ele>60.8</ele>
        <time>2021-10-08T11:29:00Z</time>
      </trkpt>
      <trkpt lat="49.24709" lon="1.40285">
        <ele>60</ele>
        <time>2021-10-08T11:29:01Z</time>
      </trkpt>
      <trkpt lat="49.24705" lon="1.40279">
        <ele>59.2</ele>
        <time>2021-10-08T11:29:02Z</time>
      </trkpt>
      <trkpt lat="49.24701" lon="1.40273">
        <ele>58.6</ele>
        <time>2021-10-08T11:29:03Z</time>
      </trkpt>
      <trkpt lat="49.24698" lon="1.40265">
        <ele>57.6</ele>
        <time>2021-10-08T11:29:04Z</time>
      </trkpt>
      <trkpt lat="49.24696" lon="1.40257">
        <ele>56.6</ele>
        <time>2021-10-08T11:29:05Z</time>
      </trkpt>
      <trkpt lat="49.24693" lon="1.40242">
        <ele>55.4</ele>
        <time>2021-10-08T11:29:07Z</time>
      </trkpt>
      <trkpt lat="49.24691" lon="1.40233">
        <ele>55</ele>
        <time>2021-10-08T11:29:08Z</time>
      </trkpt>
      <trkpt lat="49.24688" lon="1.40224">
        <ele>54.4</ele>
        <time>2021-10-08T11:29:09Z</time>
      </trkpt>
      <trkpt lat="49.24678" lon="1.40191">
        <ele>52.8</ele>
        <time>2021-10-08T11:29:12Z</time>
      </trkpt>
      <trkpt lat="49.24676" lon="1.4018">
        <ele>52</ele>
        <time>2021-10-08T11:29:13Z</time>
      </trkpt>
      <trkpt lat="49.24673" lon="1.4017">
        <ele>51.4</ele>
        <time>2021-10-08T11:29:14Z</time>
      </trkpt>
      <trkpt lat="49.24668" lon="1.40155">
        <ele>50</ele>
        <time>2021-10-08T11:29:16Z</time>
      </trkpt>
      <trkpt lat="49.2466" lon="1.40145">
        <ele>48.4</ele>
        <time>2021-10-08T11:29:18Z</time>
      </trkpt>
      <trkpt lat="49.24648" lon="1.40136">
        <ele>46.6</ele>
        <time>2021-10-08T11:29:20Z</time>
      </trkpt>
      <trkpt lat="49.24636" lon="1.40123">
        <ele>45</ele>
        <time>2021-10-08T11:29:22Z</time>
      </trkpt>
      <trkpt lat="49.24632" lon="1.40116">
        <ele>44.4</ele>
        <time>2021-10-08T11:29:23Z</time>
      </trkpt>
      <trkpt lat="49.24629" lon="1.40108">
        <ele>43.8</ele>
        <time>2021-10-08T11:29:24Z</time>
      </trkpt>
      <trkpt lat="49.24626" lon="1.40079">
        <ele>42.6</ele>
        <time>2021-10-08T11:29:27Z</time>
      </trkpt>
      <trkpt lat="49.24625" lon="1.40068">
        <ele>41.6</ele>
        <time>2021-10-08T11:29:28Z</time>
      </trkpt>
      <trkpt lat="49.24624" lon="1.40057">
        <ele>40.4</ele>
        <time>2021-10-08T11:29:29Z</time>
      </trkpt>
      <trkpt lat="49.24622" lon="1.40034">
        <ele>38.4</ele>
        <time>2021-10-08T11:29:31Z</time>
      </trkpt>
      <trkpt lat="49.24621" lon="1.40015">
        <ele>36.8</ele>
        <time>2021-10-08T11:29:33Z</time>
      </trkpt>
      <trkpt lat="49.24619" lon="1.40002">
        <ele>35</ele>
        <time>2021-10-08T11:29:35Z</time>
      </trkpt>
      <trkpt lat="49.24619" lon="1.39999">
        <ele>34.2</ele>
        <time>2021-10-08T11:29:36Z</time>
      </trkpt>
      <trkpt lat="49.2462" lon="1.39996">
        <ele>33.6</ele>
        <time>2021-10-08T11:29:37Z</time>
      </trkpt>
      <trkpt lat="49.2462" lon="1.39994">
        <ele>32.4</ele>
        <time>2021-10-08T11:29:38Z</time>
      </trkpt>
      <trkpt lat="49.2462" lon="1.39993">
        <ele>31.6</ele>
        <time>2021-10-08T11:29:39Z</time>
      </trkpt>
      <trkpt lat="49.24619" lon="1.39991">
        <ele>31.2</ele>
        <time>2021-10-08T11:29:40Z</time>
      </trkpt>
      <trkpt lat="49.24617" lon="1.39967">
        <ele>30.2</ele>
        <time>2021-10-08T11:29:45Z</time>
      </trkpt>
      <trkpt lat="49.24616" lon="1.3996">
        <ele>30.2</ele>
        <time>2021-10-08T11:29:46Z</time>
      </trkpt>
      <trkpt lat="49.24612" lon="1.39943">
        <ele>29.8</ele>
        <time>2021-10-08T11:29:49Z</time>
      </trkpt>
      <trkpt lat="49.24607" lon="1.39931">
        <ele>29.2</ele>
        <time>2021-10-08T11:29:51Z</time>
      </trkpt>
      <trkpt lat="49.24606" lon="1.39917">
        <ele>28.6</ele>
        <time>2021-10-08T11:29:53Z</time>
      </trkpt>
      <trkpt lat="49.24605" lon="1.39909">
        <ele>28</ele>
        <time>2021-10-08T11:29:54Z</time>
      </trkpt>
      <trkpt lat="49.24601" lon="1.39865">
        <ele>26.8</ele>
        <time>2021-10-08T11:29:59Z</time>
      </trkpt>
      <trkpt lat="49.24596" lon="1.3983">
        <ele>25.6</ele>
        <time>2021-10-08T11:30:03Z</time>
      </trkpt>
      <trkpt lat="49.24589" lon="1.39796">
        <ele>25.4</ele>
        <time>2021-10-08T11:30:07Z</time>
      </trkpt>
      <trkpt lat="49.24578" lon="1.39749">
        <ele>25.4</ele>
        <time>2021-10-08T11:30:13Z</time>
      </trkpt>
      <trkpt lat="49.24577" lon="1.39711">
        <ele>26.2</ele>
        <time>2021-10-08T11:30:17Z</time>
      </trkpt>
      <trkpt lat="49.24575" lon="1.39703">
        <ele>26.2</ele>
        <time>2021-10-08T11:30:18Z</time>
      </trkpt>
      <trkpt lat="49.2457" lon="1.39697">
        <ele>26.2</ele>
        <time>2021-10-08T11:30:19Z</time>
      </trkpt>
      <trkpt lat="49.24564" lon="1.39694">
        <ele>26.2</ele>
        <time>2021-10-08T11:30:20Z</time>
      </trkpt>
      <trkpt lat="49.24544" lon="1.39703">
        <ele>26.2</ele>
        <time>2021-10-08T11:30:23Z</time>
      </trkpt>
      <trkpt lat="49.24538" lon="1.3971">
        <ele>26.2</ele>
        <time>2021-10-08T11:30:24Z</time>
      </trkpt>
      <trkpt lat="49.245" lon="1.3975">
        <ele>24.4</ele>
        <time>2021-10-08T11:30:30Z</time>
      </trkpt>
      <trkpt lat="49.24494" lon="1.39757">
        <ele>23.6</ele>
        <time>2021-10-08T11:30:31Z</time>
      </trkpt>
      <trkpt lat="49.24488" lon="1.39763">
        <ele>23.2</ele>
        <time>2021-10-08T11:30:32Z</time>
      </trkpt>
      <trkpt lat="49.24471" lon="1.39782">
        <ele>22.6</ele>
        <time>2021-10-08T11:30:35Z</time>
      </trkpt>
      <trkpt lat="49.24454" lon="1.398">
        <ele>22.6</ele>
        <time>2021-10-08T11:30:38Z</time>
      </trkpt>
      <trkpt lat="49.24424" lon="1.39841">
        <ele>22.2</ele>
        <time>2021-10-08T11:30:44Z</time>
      </trkpt>
      <trkpt lat="49.24412" lon="1.39852">
        <ele>22</ele>
        <time>2021-10-08T11:30:46Z</time>
      </trkpt>
      <trkpt lat="49.244" lon="1.39856">
        <ele>22.2</ele>
        <time>2021-10-08T11:30:48Z</time>
      </trkpt>
      <trkpt lat="49.24372" lon="1.39853">
        <ele>22.2</ele>
        <time>2021-10-08T11:30:52Z</time>
      </trkpt>
      <trkpt lat="49.24365" lon="1.39854">
        <ele>22.2</ele>
        <time>2021-10-08T11:30:53Z</time>
      </trkpt>
      <trkpt lat="49.24326" lon="1.39866">
        <ele>22.2</ele>
        <time>2021-10-08T11:30:59Z</time>
      </trkpt>
      <trkpt lat="49.24275" lon="1.39899">
        <ele>22.4</ele>
        <time>2021-10-08T11:31:07Z</time>
      </trkpt>
      <trkpt lat="49.24269" lon="1.39903">
        <ele>22.4</ele>
        <time>2021-10-08T11:31:08Z</time>
      </trkpt>
      <trkpt lat="49.24229" lon="1.39932">
        <ele>22</ele>
        <time>2021-10-08T11:31:15Z</time>
      </trkpt>
      <trkpt lat="49.242" lon="1.39953">
        <ele>21.8</ele>
        <time>2021-10-08T11:31:21Z</time>
      </trkpt>
      <trkpt lat="49.24192" lon="1.39939">
        <ele>21.8</ele>
        <time>2021-10-08T11:31:24Z</time>
      </trkpt>
      <trkpt lat="49.24182" lon="1.39916">
        <ele>21.8</ele>
        <time>2021-10-08T11:31:28Z</time>
      </trkpt>
      <trkpt lat="49.24169" lon="1.39921">
        <ele>21.8</ele>
        <time>2021-10-08T11:31:31Z</time>
      </trkpt>
      <trkpt lat="49.24164" lon="1.39924">
        <ele>21.8</ele>
        <time>2021-10-08T11:31:32Z</time>
      </trkpt>
      <trkpt lat="49.24128" lon="1.39955">
        <ele>21.6</ele>
        <time>2021-10-08T11:31:40Z</time>
      </trkpt>
      <trkpt lat="49.24123" lon="1.39959">
        <ele>21.4</ele>
        <time>2021-10-08T11:31:41Z</time>
      </trkpt>
      <trkpt lat="49.24093" lon="1.39978">
        <ele>21</ele>
        <time>2021-10-08T11:31:47Z</time>
      </trkpt>
      <trkpt lat="49.24065" lon="1.39984">
        <ele>20.8</ele>
        <time>2021-10-08T11:31:52Z</time>
      </trkpt>
      <trkpt lat="49.24021" lon="1.40004">
        <ele>20.8</ele>
        <time>2021-10-08T11:32:00Z</time>
      </trkpt>
      <trkpt lat="49.23985" lon="1.40019">
        <ele>21.2</ele>
        <time>2021-10-08T11:32:06Z</time>
      </trkpt>
      <trkpt lat="49.23978" lon="1.4002">
        <ele>21.2</ele>
        <time>2021-10-08T11:32:07Z</time>
      </trkpt>
      <trkpt lat="49.23966" lon="1.40016">
        <ele>21.2</ele>
        <time>2021-10-08T11:32:09Z</time>
      </trkpt>
      <trkpt lat="49.23921" lon="1.40004">
        <ele>21</ele>
        <time>2021-10-08T11:32:16Z</time>
      </trkpt>
      <trkpt lat="49.23866" lon="1.39994">
        <ele>20.8</ele>
        <time>2021-10-08T11:32:24Z</time>
      </trkpt>
      <trkpt lat="49.23845" lon="1.39989">
        <ele>20.8</ele>
        <time>2021-10-08T11:32:27Z</time>
      </trkpt>
      <trkpt lat="49.23791" lon="1.39977">
        <ele>20.4</ele>
        <time>2021-10-08T11:32:35Z</time>
      </trkpt>
      <trkpt lat="49.23785" lon="1.39975">
        <ele>20.4</ele>
        <time>2021-10-08T11:32:36Z</time>
      </trkpt>
      <trkpt lat="49.23745" lon="1.39974">
        <ele>20.4</ele>
        <time>2021-10-08T11:32:42Z</time>
      </trkpt>
      <trkpt lat="49.23698" lon="1.39979">
        <ele>20.4</ele>
        <time>2021-10-08T11:32:49Z</time>
      </trkpt>
      <trkpt lat="49.23692" lon="1.39982">
        <ele>20.4</ele>
        <time>2021-10-08T11:32:50Z</time>
      </trkpt>
      <trkpt lat="49.23676" lon="1.39994">
        <ele>20.6</ele>
        <time>2021-10-08T11:32:53Z</time>
      </trkpt>
      <trkpt lat="49.23671" lon="1.39996">
        <ele>20.6</ele>
        <time>2021-10-08T11:32:54Z</time>
      </trkpt>
      <trkpt lat="49.23667" lon="1.40002">
        <ele>20.6</ele>
        <time>2021-10-08T11:32:55Z</time>
      </trkpt>
      <trkpt lat="49.23665" lon="1.40009">
        <ele>20.6</ele>
        <time>2021-10-08T11:32:56Z</time>
      </trkpt>
      <trkpt lat="49.23666" lon="1.40032">
        <ele>20.8</ele>
        <time>2021-10-08T11:32:59Z</time>
      </trkpt>
      <trkpt lat="49.23668" lon="1.40052">
        <ele>21.4</ele>
        <time>2021-10-08T11:33:02Z</time>
      </trkpt>
      <trkpt lat="49.23668" lon="1.40058">
        <ele>21.6</ele>
        <time>2021-10-08T11:33:03Z</time>
      </trkpt>
      <trkpt lat="49.23667" lon="1.40064">
        <ele>21.8</ele>
        <time>2021-10-08T11:33:04Z</time>
      </trkpt>
      <trkpt lat="49.23667" lon="1.40076">
        <ele>22.4</ele>
        <time>2021-10-08T11:33:06Z</time>
      </trkpt>
      <trkpt lat="49.23669" lon="1.4008">
        <ele>22.6</ele>
        <time>2021-10-08T11:33:07Z</time>
      </trkpt>
      <trkpt lat="49.23676" lon="1.40085">
        <ele>23.8</ele>
        <time>2021-10-08T11:33:10Z</time>
      </trkpt>
      <trkpt lat="49.23678" lon="1.40087">
        <ele>24.2</ele>
        <time>2021-10-08T11:33:11Z</time>
      </trkpt>
      <trkpt lat="49.23681" lon="1.40089">
        <ele>24.4</ele>
        <time>2021-10-08T11:33:13Z</time>
      </trkpt>
      <trkpt lat="49.23685" lon="1.40086">
        <ele>24.6</ele>
        <time>2021-10-08T11:33:15Z</time>
      </trkpt>
      <trkpt lat="49.23687" lon="1.40083">
        <ele>24.8</ele>
        <time>2021-10-08T11:33:16Z</time>
      </trkpt>
      <trkpt lat="49.2369" lon="1.40068">
        <ele>25.6</ele>
        <time>2021-10-08T11:33:19Z</time>
      </trkpt>
      <trkpt lat="49.23689" lon="1.40063">
        <ele>26</ele>
        <time>2021-10-08T11:33:20Z</time>
      </trkpt>
      <trkpt lat="49.23689" lon="1.40058">
        <ele>26.2</ele>
        <time>2021-10-08T11:33:21Z</time>
      </trkpt>
      <trkpt lat="49.23686" lon="1.40039">
        <ele>27</ele>
        <time>2021-10-08T11:33:25Z</time>
      </trkpt>
      <trkpt lat="49.23678" lon="1.39987">
        <ele>27.8</ele>
        <time>2021-10-08T11:33:36Z</time>
      </trkpt>
      <trkpt lat="49.23676" lon="1.39977">
        <ele>28</ele>
        <time>2021-10-08T11:33:38Z</time>
      </trkpt>
      <trkpt lat="49.23671" lon="1.39945">
        <ele>29.2</ele>
        <time>2021-10-08T11:33:44Z</time>
      </trkpt>
      <trkpt lat="49.23668" lon="1.39928">
        <ele>29.8</ele>
        <time>2021-10-08T11:33:47Z</time>
      </trkpt>
      <trkpt lat="49.23659" lon="1.39869">
        <ele>30.2</ele>
        <time>2021-10-08T11:33:56Z</time>
      </trkpt>
      <trkpt lat="49.2365" lon="1.39815">
        <ele>30.2</ele>
        <time>2021-10-08T11:34:03Z</time>
      </trkpt>
      <trkpt lat="49.23639" lon="1.39748">
        <ele>30</ele>
        <time>2021-10-08T11:34:10Z</time>
      </trkpt>
      <trkpt lat="49.23634" lon="1.39715">
        <ele>29.6</ele>
        <time>2021-10-08T11:34:13Z</time>
      </trkpt>
      <trkpt lat="49.23629" lon="1.39694">
        <ele>29.4</ele>
        <time>2021-10-08T11:34:15Z</time>
      </trkpt>
      <trkpt lat="49.2361" lon="1.39661">
        <ele>28.4</ele>
        <time>2021-10-08T11:34:19Z</time>
      </trkpt>
      <trkpt lat="49.23594" lon="1.39651">
        <ele>27</ele>
        <time>2021-10-08T11:34:22Z</time>
      </trkpt>
      <trkpt lat="49.23592" lon="1.39664">
        <ele>25.8</ele>
        <time>2021-10-08T11:34:24Z</time>
      </trkpt>
      <trkpt lat="49.23603" lon="1.39685">
        <ele>25.4</ele>
        <time>2021-10-08T11:34:27Z</time>
      </trkpt>
      <trkpt lat="49.23612" lon="1.39701">
        <ele>25.2</ele>
        <time>2021-10-08T11:34:29Z</time>
      </trkpt>
      <trkpt lat="49.23616" lon="1.3971">
        <ele>25</ele>
        <time>2021-10-08T11:34:30Z</time>
      </trkpt>
      <trkpt lat="49.23622" lon="1.39729">
        <ele>24.8</ele>
        <time>2021-10-08T11:34:32Z</time>
      </trkpt>
      <trkpt lat="49.23624" lon="1.3974">
        <ele>24.8</ele>
        <time>2021-10-08T11:34:33Z</time>
      </trkpt>
      <trkpt lat="49.23625" lon="1.39751">
        <ele>24.6</ele>
        <time>2021-10-08T11:34:34Z</time>
      </trkpt>
      <trkpt lat="49.23626" lon="1.39761">
        <ele>24.2</ele>
        <time>2021-10-08T11:34:35Z</time>
      </trkpt>
      <trkpt lat="49.23624" lon="1.3977">
        <ele>24</ele>
        <time>2021-10-08T11:34:36Z</time>
      </trkpt>
      <trkpt lat="49.23616" lon="1.3978">
        <ele>23.6</ele>
        <time>2021-10-08T11:34:38Z</time>
      </trkpt>
      <trkpt lat="49.23599" lon="1.39784">
        <ele>23.2</ele>
        <time>2021-10-08T11:34:41Z</time>
      </trkpt>
      <trkpt lat="49.23593" lon="1.39784">
        <ele>23.2</ele>
        <time>2021-10-08T11:34:42Z</time>
      </trkpt>
      <trkpt lat="49.23571" lon="1.39787">
        <ele>22.8</ele>
        <time>2021-10-08T11:34:46Z</time>
      </trkpt>
      <trkpt lat="49.23567" lon="1.39788">
        <ele>22.6</ele>
        <time>2021-10-08T11:34:47Z</time>
      </trkpt>
      <trkpt lat="49.23554" lon="1.39784">
        <ele>22.2</ele>
        <time>2021-10-08T11:34:50Z</time>
      </trkpt>
      <trkpt lat="49.23549" lon="1.39782">
        <ele>22.2</ele>
        <time>2021-10-08T11:34:51Z</time>
      </trkpt>
      <trkpt lat="49.23518" lon="1.39768">
        <ele>22.2</ele>
        <time>2021-10-08T11:34:57Z</time>
      </trkpt>
      <trkpt lat="49.23494" lon="1.39754">
        <ele>22.2</ele>
        <time>2021-10-08T11:35:02Z</time>
      </trkpt>
      <trkpt lat="49.23485" lon="1.39746">
        <ele>22.2</ele>
        <time>2021-10-08T11:35:04Z</time>
      </trkpt>
      <trkpt lat="49.23455" lon="1.39719">
        <ele>22.2</ele>
        <time>2021-10-08T11:35:11Z</time>
      </trkpt>
      <trkpt lat="49.23443" lon="1.39706">
        <ele>22.2</ele>
        <time>2021-10-08T11:35:14Z</time>
      </trkpt>
      <trkpt lat="49.23431" lon="1.39691">
        <ele>22.2</ele>
        <time>2021-10-08T11:35:17Z</time>
      </trkpt>
      <trkpt lat="49.23407" lon="1.39651">
        <ele>22.2</ele>
        <time>2021-10-08T11:35:23Z</time>
      </trkpt>
      <trkpt lat="49.23389" lon="1.39615">
        <ele>22.2</ele>
        <time>2021-10-08T11:35:28Z</time>
      </trkpt>
      <trkpt lat="49.23385" lon="1.39609">
        <ele>22.2</ele>
        <time>2021-10-08T11:35:29Z</time>
      </trkpt>
      <trkpt lat="49.23373" lon="1.39581">
        <ele>22</ele>
        <time>2021-10-08T11:35:33Z</time>
      </trkpt>
      <trkpt lat="49.23369" lon="1.39565">
        <ele>22</ele>
        <time>2021-10-08T11:35:35Z</time>
      </trkpt>
      <trkpt lat="49.23361" lon="1.39542">
        <ele>22</ele>
        <time>2021-10-08T11:35:38Z</time>
      </trkpt>
      <trkpt lat="49.2335" lon="1.39525">
        <ele>22</ele>
        <time>2021-10-08T11:35:41Z</time>
      </trkpt>
      <trkpt lat="49.23345" lon="1.39519">
        <ele>22</ele>
        <time>2021-10-08T11:35:42Z</time>
      </trkpt>
      <trkpt lat="49.23341" lon="1.39513">
        <ele>22</ele>
        <time>2021-10-08T11:35:43Z</time>
      </trkpt>
      <trkpt lat="49.23326" lon="1.39488">
        <ele>22</ele>
        <time>2021-10-08T11:35:47Z</time>
      </trkpt>
      <trkpt lat="49.23317" lon="1.39477">
        <ele>22</ele>
        <time>2021-10-08T11:35:49Z</time>
      </trkpt>
      <trkpt lat="49.23302" lon="1.39467">
        <ele>22.2</ele>
        <time>2021-10-08T11:35:52Z</time>
      </trkpt>
      <trkpt lat="49.23292" lon="1.3946">
        <ele>22.2</ele>
        <time>2021-10-08T11:35:54Z</time>
      </trkpt>
      <trkpt lat="49.23276" lon="1.39448">
        <ele>22.2</ele>
        <time>2021-10-08T11:35:57Z</time>
      </trkpt>
      <trkpt lat="49.23258" lon="1.39443">
        <ele>22.2</ele>
        <time>2021-10-08T11:36:01Z</time>
      </trkpt>
      <trkpt lat="49.23238" lon="1.39428">
        <ele>22.2</ele>
        <time>2021-10-08T11:36:06Z</time>
      </trkpt>
      <trkpt lat="49.23233" lon="1.39426">
        <ele>22.2</ele>
        <time>2021-10-08T11:36:07Z</time>
      </trkpt>
      <trkpt lat="49.2322" lon="1.39429">
        <ele>22.4</ele>
        <time>2021-10-08T11:36:10Z</time>
      </trkpt>
      <trkpt lat="49.23215" lon="1.39431">
        <ele>22.4</ele>
        <time>2021-10-08T11:36:11Z</time>
      </trkpt>
      <trkpt lat="49.23206" lon="1.39435">
        <ele>22.4</ele>
        <time>2021-10-08T11:36:13Z</time>
      </trkpt>
      <trkpt lat="49.23197" lon="1.39434">
        <ele>22.4</ele>
        <time>2021-10-08T11:36:15Z</time>
      </trkpt>
      <trkpt lat="49.23165" lon="1.39425">
        <ele>22.2</ele>
        <time>2021-10-08T11:36:21Z</time>
      </trkpt>
      <trkpt lat="49.23149" lon="1.39419">
        <ele>21.8</ele>
        <time>2021-10-08T11:36:24Z</time>
      </trkpt>
      <trkpt lat="49.2313" lon="1.39406">
        <ele>21.4</ele>
        <time>2021-10-08T11:36:28Z</time>
      </trkpt>
      <trkpt lat="49.23104" lon="1.39387">
        <ele>21.4</ele>
        <time>2021-10-08T11:36:34Z</time>
      </trkpt>
      <trkpt lat="49.23073" lon="1.39372">
        <ele>22.6</ele>
        <time>2021-10-08T11:36:41Z</time>
      </trkpt>
      <trkpt lat="49.23068" lon="1.3937">
        <ele>23</ele>
        <time>2021-10-08T11:36:42Z</time>
      </trkpt>
      <trkpt lat="49.23049" lon="1.39366">
        <ele>23.6</ele>
        <time>2021-10-08T11:36:46Z</time>
      </trkpt>
      <trkpt lat="49.23018" lon="1.39362">
        <ele>23.6</ele>
        <time>2021-10-08T11:36:51Z</time>
      </trkpt>
      <trkpt lat="49.22988" lon="1.39359">
        <ele>23.4</ele>
        <time>2021-10-08T11:36:56Z</time>
      </trkpt>
      <trkpt lat="49.22968" lon="1.39358">
        <ele>22.4</ele>
        <time>2021-10-08T11:37:00Z</time>
      </trkpt>
      <trkpt lat="49.22963" lon="1.39356">
        <ele>22.2</ele>
        <time>2021-10-08T11:37:01Z</time>
      </trkpt>
      <trkpt lat="49.22943" lon="1.39341">
        <ele>22.2</ele>
        <time>2021-10-08T11:37:05Z</time>
      </trkpt>
      <trkpt lat="49.22936" lon="1.3933">
        <ele>22.2</ele>
        <time>2021-10-08T11:37:07Z</time>
      </trkpt>
      <trkpt lat="49.22924" lon="1.39313">
        <ele>22.2</ele>
        <time>2021-10-08T11:37:10Z</time>
      </trkpt>
      <trkpt lat="49.22912" lon="1.39297">
        <ele>22.4</ele>
        <time>2021-10-08T11:37:14Z</time>
      </trkpt>
      <trkpt lat="49.22899" lon="1.39291">
        <ele>22.6</ele>
        <time>2021-10-08T11:37:18Z</time>
      </trkpt>
      <trkpt lat="49.22876" lon="1.39293">
        <ele>24</ele>
        <time>2021-10-08T11:37:23Z</time>
      </trkpt>
      <trkpt lat="49.22871" lon="1.39293">
        <ele>24.2</ele>
        <time>2021-10-08T11:37:24Z</time>
      </trkpt>
      <trkpt lat="49.22837" lon="1.39297">
        <ele>24.4</ele>
        <time>2021-10-08T11:37:31Z</time>
      </trkpt>
      <trkpt lat="49.22814" lon="1.393">
        <ele>24.4</ele>
        <time>2021-10-08T11:37:37Z</time>
      </trkpt>
      <trkpt lat="49.22796" lon="1.39299">
        <ele>25.4</ele>
        <time>2021-10-08T11:37:43Z</time>
      </trkpt>
      <trkpt lat="49.22793" lon="1.39298">
        <ele>25.8</ele>
        <time>2021-10-08T11:37:44Z</time>
      </trkpt>
      <trkpt lat="49.22785" lon="1.39295">
        <ele>26.6</ele>
        <time>2021-10-08T11:37:47Z</time>
      </trkpt>
      <trkpt lat="49.22774" lon="1.39289">
        <ele>27.6</ele>
        <time>2021-10-08T11:37:51Z</time>
      </trkpt>
      <trkpt lat="49.22772" lon="1.39287">
        <ele>27.8</ele>
        <time>2021-10-08T11:37:52Z</time>
      </trkpt>
      <trkpt lat="49.22769" lon="1.39286">
        <ele>28</ele>
        <time>2021-10-08T11:37:53Z</time>
      </trkpt>
      <trkpt lat="49.22754" lon="1.39279">
        <ele>28.6</ele>
        <time>2021-10-08T11:37:57Z</time>
      </trkpt>
      <trkpt lat="49.2275" lon="1.39277">
        <ele>28.8</ele>
        <time>2021-10-08T11:37:58Z</time>
      </trkpt>
      <trkpt lat="49.22742" lon="1.39272">
        <ele>29</ele>
        <time>2021-10-08T11:38:00Z</time>
      </trkpt>
      <trkpt lat="49.22723" lon="1.39257">
        <ele>29</ele>
        <time>2021-10-08T11:38:04Z</time>
      </trkpt>
      <trkpt lat="49.22688" lon="1.39219">
        <ele>27.8</ele>
        <time>2021-10-08T11:38:11Z</time>
      </trkpt>
      <trkpt lat="49.22674" lon="1.39204">
        <ele>26.6</ele>
        <time>2021-10-08T11:38:14Z</time>
      </trkpt>
      <trkpt lat="49.22669" lon="1.39201">
        <ele>26.4</ele>
        <time>2021-10-08T11:38:15Z</time>
      </trkpt>
      <trkpt lat="49.22665" lon="1.39198">
        <ele>26.4</ele>
        <time>2021-10-08T11:38:16Z</time>
      </trkpt>
      <trkpt lat="49.22641" lon="1.39179">
        <ele>26.2</ele>
        <time>2021-10-08T11:38:21Z</time>
      </trkpt>
      <trkpt lat="49.22612" lon="1.39152">
        <ele>26</ele>
        <time>2021-10-08T11:38:27Z</time>
      </trkpt>
      <trkpt lat="49.22588" lon="1.39128">
        <ele>26.6</ele>
        <time>2021-10-08T11:38:34Z</time>
      </trkpt>
      <trkpt lat="49.22574" lon="1.3911">
        <ele>27.6</ele>
        <time>2021-10-08T11:38:38Z</time>
      </trkpt>
      <trkpt lat="49.22563" lon="1.39094">
        <ele>28</ele>
        <time>2021-10-08T11:38:41Z</time>
      </trkpt>
      <trkpt lat="49.2256" lon="1.39088">
        <ele>28</ele>
        <time>2021-10-08T11:38:42Z</time>
      </trkpt>
      <trkpt lat="49.22549" lon="1.39071">
        <ele>28</ele>
        <time>2021-10-08T11:38:45Z</time>
      </trkpt>
      <trkpt lat="49.22545" lon="1.39064">
        <ele>28</ele>
        <time>2021-10-08T11:38:46Z</time>
      </trkpt>
      <trkpt lat="49.22529" lon="1.39055">
        <ele>28</ele>
        <time>2021-10-08T11:38:49Z</time>
      </trkpt>
      <trkpt lat="49.22518" lon="1.39052">
        <ele>27.2</ele>
        <time>2021-10-08T11:38:52Z</time>
      </trkpt>
      <trkpt lat="49.22515" lon="1.39048">
        <ele>26.4</ele>
        <time>2021-10-08T11:38:53Z</time>
      </trkpt>
      <trkpt lat="49.22514" lon="1.39039">
        <ele>24.6</ele>
        <time>2021-10-08T11:38:55Z</time>
      </trkpt>
      <trkpt lat="49.22514" lon="1.39034">
        <ele>24</ele>
        <time>2021-10-08T11:38:56Z</time>
      </trkpt>
      <trkpt lat="49.22511" lon="1.39023">
        <ele>23.4</ele>
        <time>2021-10-08T11:38:59Z</time>
      </trkpt>
      <trkpt lat="49.22509" lon="1.3902">
        <ele>23.4</ele>
        <time>2021-10-08T11:39:00Z</time>
      </trkpt>
      <trkpt lat="49.22494" lon="1.39009">
        <ele>24</ele>
        <time>2021-10-08T11:39:07Z</time>
      </trkpt>
      <trkpt lat="49.22486" lon="1.39007">
        <ele>24.8</ele>
        <time>2021-10-08T11:39:09Z</time>
      </trkpt>
      <trkpt lat="49.22471" lon="1.39001">
        <ele>26</ele>
        <time>2021-10-08T11:39:13Z</time>
      </trkpt>
      <trkpt lat="49.22467" lon="1.38998">
        <ele>26.2</ele>
        <time>2021-10-08T11:39:14Z</time>
      </trkpt>
      <trkpt lat="49.22454" lon="1.38986">
        <ele>26.2</ele>
        <time>2021-10-08T11:39:17Z</time>
      </trkpt>
      <trkpt lat="49.22448" lon="1.38979">
        <ele>26.4</ele>
        <time>2021-10-08T11:39:19Z</time>
      </trkpt>
      <trkpt lat="49.2243" lon="1.38961">
        <ele>25.4</ele>
        <time>2021-10-08T11:39:24Z</time>
      </trkpt>
      <trkpt lat="49.22427" lon="1.38957">
        <ele>24.8</ele>
        <time>2021-10-08T11:39:25Z</time>
      </trkpt>
      <trkpt lat="49.22423" lon="1.38952">
        <ele>24.2</ele>
        <time>2021-10-08T11:39:26Z</time>
      </trkpt>
      <trkpt lat="49.22419" lon="1.38947">
        <ele>23.6</ele>
        <time>2021-10-08T11:39:27Z</time>
      </trkpt>
      <trkpt lat="49.2241" lon="1.38933">
        <ele>23</ele>
        <time>2021-10-08T11:39:30Z</time>
      </trkpt>
      <trkpt lat="49.22407" lon="1.38928">
        <ele>22.8</ele>
        <time>2021-10-08T11:39:31Z</time>
      </trkpt>
      <trkpt lat="49.22402" lon="1.38916">
        <ele>22.6</ele>
        <time>2021-10-08T11:39:33Z</time>
      </trkpt>
      <trkpt lat="49.22382" lon="1.38885">
        <ele>22.4</ele>
        <time>2021-10-08T11:39:39Z</time>
      </trkpt>
      <trkpt lat="49.22379" lon="1.3888">
        <ele>22.4</ele>
        <time>2021-10-08T11:39:40Z</time>
      </trkpt>
      <trkpt lat="49.22373" lon="1.38863">
        <ele>22.4</ele>
        <time>2021-10-08T11:39:43Z</time>
      </trkpt>
      <trkpt lat="49.22375" lon="1.3884">
        <ele>22.4</ele>
        <time>2021-10-08T11:39:47Z</time>
      </trkpt>
      <trkpt lat="49.22376" lon="1.38834">
        <ele>22.4</ele>
        <time>2021-10-08T11:39:48Z</time>
      </trkpt>
      <trkpt lat="49.22386" lon="1.38803">
        <ele>22.6</ele>
        <time>2021-10-08T11:39:53Z</time>
      </trkpt>
      <trkpt lat="49.22395" lon="1.38782">
        <ele>23</ele>
        <time>2021-10-08T11:39:57Z</time>
      </trkpt>
      <trkpt lat="49.22393" lon="1.3876">
        <ele>23</ele>
        <time>2021-10-08T11:40:01Z</time>
      </trkpt>
      <trkpt lat="49.22391" lon="1.38754">
        <ele>23</ele>
        <time>2021-10-08T11:40:02Z</time>
      </trkpt>
      <trkpt lat="49.22389" lon="1.38734">
        <ele>23</ele>
        <time>2021-10-08T11:40:05Z</time>
      </trkpt>
      <trkpt lat="49.2239" lon="1.38727">
        <ele>23</ele>
        <time>2021-10-08T11:40:06Z</time>
      </trkpt>
      <trkpt lat="49.22393" lon="1.38707">
        <ele>22.8</ele>
        <time>2021-10-08T11:40:09Z</time>
      </trkpt>
      <trkpt lat="49.22399" lon="1.38695">
        <ele>22.8</ele>
        <time>2021-10-08T11:40:11Z</time>
      </trkpt>
      <trkpt lat="49.22419" lon="1.38659">
        <ele>22.4</ele>
        <time>2021-10-08T11:40:17Z</time>
      </trkpt>
      <trkpt lat="49.22438" lon="1.38625">
        <ele>22.4</ele>
        <time>2021-10-08T11:40:23Z</time>
      </trkpt>
      <trkpt lat="49.22449" lon="1.38601">
        <ele>22.6</ele>
        <time>2021-10-08T11:40:27Z</time>
      </trkpt>
      <trkpt lat="49.22452" lon="1.38587">
        <ele>22.6</ele>
        <time>2021-10-08T11:40:29Z</time>
      </trkpt>
      <trkpt lat="49.22462" lon="1.38553">
        <ele>23.8</ele>
        <time>2021-10-08T11:40:34Z</time>
      </trkpt>
      <trkpt lat="49.22465" lon="1.38548">
        <ele>24</ele>
        <time>2021-10-08T11:40:35Z</time>
      </trkpt>
      <trkpt lat="49.22472" lon="1.3853">
        <ele>24.2</ele>
        <time>2021-10-08T11:40:38Z</time>
      </trkpt>
      <trkpt lat="49.22482" lon="1.38514">
        <ele>24.4</ele>
        <time>2021-10-08T11:40:41Z</time>
      </trkpt>
      <trkpt lat="49.22491" lon="1.38495">
        <ele>24.4</ele>
        <time>2021-10-08T11:40:44Z</time>
      </trkpt>
      <trkpt lat="49.22499" lon="1.38474">
        <ele>24.4</ele>
        <time>2021-10-08T11:40:47Z</time>
      </trkpt>
      <trkpt lat="49.22508" lon="1.38452">
        <ele>24.4</ele>
        <time>2021-10-08T11:40:50Z</time>
      </trkpt>
      <trkpt lat="49.22515" lon="1.38428">
        <ele>24.4</ele>
        <time>2021-10-08T11:40:53Z</time>
      </trkpt>
      <trkpt lat="49.22537" lon="1.38376">
        <ele>24.4</ele>
        <time>2021-10-08T11:41:00Z</time>
      </trkpt>
      <trkpt lat="49.22554" lon="1.38332">
        <ele>23.4</ele>
        <time>2021-10-08T11:41:06Z</time>
      </trkpt>
      <trkpt lat="49.22555" lon="1.38325">
        <ele>23.2</ele>
        <time>2021-10-08T11:41:07Z</time>
      </trkpt>
      <trkpt lat="49.22551" lon="1.38314">
        <ele>22.8</ele>
        <time>2021-10-08T11:41:09Z</time>
      </trkpt>
      <trkpt lat="49.22534" lon="1.38298">
        <ele>22.8</ele>
        <time>2021-10-08T11:41:13Z</time>
      </trkpt>
      <trkpt lat="49.22529" lon="1.38294">
        <ele>22.8</ele>
        <time>2021-10-08T11:41:14Z</time>
      </trkpt>
      <trkpt lat="49.22501" lon="1.38264">
        <ele>22.4</ele>
        <time>2021-10-08T11:41:20Z</time>
      </trkpt>
      <trkpt lat="49.22485" lon="1.38253">
        <ele>21.8</ele>
        <time>2021-10-08T11:41:23Z</time>
      </trkpt>
      <trkpt lat="49.22479" lon="1.3825">
        <ele>21.6</ele>
        <time>2021-10-08T11:41:24Z</time>
      </trkpt>
      <trkpt lat="49.22475" lon="1.38245">
        <ele>21.4</ele>
        <time>2021-10-08T11:41:25Z</time>
      </trkpt>
      <trkpt lat="49.22442" lon="1.38212">
        <ele>21.2</ele>
        <time>2021-10-08T11:41:32Z</time>
      </trkpt>
      <trkpt lat="49.22398" lon="1.38172">
        <ele>21.6</ele>
        <time>2021-10-08T11:41:41Z</time>
      </trkpt>
      <trkpt lat="49.22372" lon="1.38145">
        <ele>21.8</ele>
        <time>2021-10-08T11:41:47Z</time>
      </trkpt>
      <trkpt lat="49.22369" lon="1.38139">
        <ele>21.8</ele>
        <time>2021-10-08T11:41:48Z</time>
      </trkpt>
      <trkpt lat="49.22369" lon="1.38118">
        <ele>22</ele>
        <time>2021-10-08T11:41:51Z</time>
      </trkpt>
      <trkpt lat="49.22373" lon="1.38103">
        <ele>22</ele>
        <time>2021-10-08T11:41:53Z</time>
      </trkpt>
      <trkpt lat="49.2238" lon="1.38075">
        <ele>22</ele>
        <time>2021-10-08T11:41:57Z</time>
      </trkpt>
      <trkpt lat="49.22381" lon="1.38068">
        <ele>22</ele>
        <time>2021-10-08T11:41:58Z</time>
      </trkpt>
      <trkpt lat="49.22376" lon="1.3805">
        <ele>22.2</ele>
        <time>2021-10-08T11:42:01Z</time>
      </trkpt>
      <trkpt lat="49.22361" lon="1.3801">
        <ele>22.2</ele>
        <time>2021-10-08T11:42:08Z</time>
      </trkpt>
      <trkpt lat="49.22347" lon="1.37969">
        <ele>22.8</ele>
        <time>2021-10-08T11:42:16Z</time>
      </trkpt>
      <trkpt lat="49.22343" lon="1.3796">
        <ele>23</ele>
        <time>2021-10-08T11:42:18Z</time>
      </trkpt>
      <trkpt lat="49.2233" lon="1.3793">
        <ele>24.4</ele>
        <time>2021-10-08T11:42:25Z</time>
      </trkpt>
      <trkpt lat="49.22328" lon="1.37926">
        <ele>24.6</ele>
        <time>2021-10-08T11:42:26Z</time>
      </trkpt>
      <trkpt lat="49.22315" lon="1.37897">
        <ele>25.4</ele>
        <time>2021-10-08T11:42:33Z</time>
      </trkpt>
      <trkpt lat="49.22311" lon="1.37888">
        <ele>26</ele>
        <time>2021-10-08T11:42:35Z</time>
      </trkpt>
      <trkpt lat="49.22306" lon="1.37875">
        <ele>26.6</ele>
        <time>2021-10-08T11:42:38Z</time>
      </trkpt>
      <trkpt lat="49.22295" lon="1.37849">
        <ele>27.6</ele>
        <time>2021-10-08T11:42:44Z</time>
      </trkpt>
      <trkpt lat="49.22293" lon="1.37845">
        <ele>27.6</ele>
        <time>2021-10-08T11:42:45Z</time>
      </trkpt>
      <trkpt lat="49.22279" lon="1.3781">
        <ele>28.8</ele>
        <time>2021-10-08T11:42:53Z</time>
      </trkpt>
      <trkpt lat="49.22276" lon="1.37801">
        <ele>29</ele>
        <time>2021-10-08T11:42:55Z</time>
      </trkpt>
      <trkpt lat="49.22268" lon="1.37781">
        <ele>30</ele>
        <time>2021-10-08T11:43:00Z</time>
      </trkpt>
      <trkpt lat="49.22262" lon="1.37765">
        <ele>30.6</ele>
        <time>2021-10-08T11:43:04Z</time>
      </trkpt>
      <trkpt lat="49.22259" lon="1.37758">
        <ele>31.2</ele>
        <time>2021-10-08T11:43:06Z</time>
      </trkpt>
      <trkpt lat="49.22252" lon="1.37738">
        <ele>32.2</ele>
        <time>2021-10-08T11:43:11Z</time>
      </trkpt>
      <trkpt lat="49.22241" lon="1.37713">
        <ele>33.2</ele>
        <time>2021-10-08T11:43:18Z</time>
      </trkpt>
      <trkpt lat="49.22239" lon="1.3771">
        <ele>33.4</ele>
        <time>2021-10-08T11:43:19Z</time>
      </trkpt>
      <trkpt lat="49.22227" lon="1.37689">
        <ele>34.2</ele>
        <time>2021-10-08T11:43:27Z</time>
      </trkpt>
      <trkpt lat="49.22222" lon="1.37683">
        <ele>34.4</ele>
        <time>2021-10-08T11:43:30Z</time>
      </trkpt>
      <trkpt lat="49.22215" lon="1.37673">
        <ele>35.8</ele>
        <time>2021-10-08T11:43:35Z</time>
      </trkpt>
      <trkpt lat="49.22213" lon="1.3767">
        <ele>36</ele>
        <time>2021-10-08T11:43:37Z</time>
      </trkpt>
      <trkpt lat="49.22203" lon="1.37658">
        <ele>36.8</ele>
        <time>2021-10-08T11:43:43Z</time>
      </trkpt>
      <trkpt lat="49.22197" lon="1.37652">
        <ele>37</ele>
        <time>2021-10-08T11:43:46Z</time>
      </trkpt>
      <trkpt lat="49.22188" lon="1.3764">
        <ele>37.8</ele>
        <time>2021-10-08T11:43:51Z</time>
      </trkpt>
      <trkpt lat="49.22181" lon="1.3763">
        <ele>38</ele>
        <time>2021-10-08T11:43:55Z</time>
      </trkpt>
      <trkpt lat="49.22174" lon="1.37625">
        <ele>38.2</ele>
        <time>2021-10-08T11:43:58Z</time>
      </trkpt>
      <trkpt lat="49.22164" lon="1.37617">
        <ele>38.4</ele>
        <time>2021-10-08T11:44:02Z</time>
      </trkpt>
      <trkpt lat="49.22151" lon="1.37605">
        <ele>39</ele>
        <time>2021-10-08T11:44:07Z</time>
      </trkpt>
      <trkpt lat="49.22146" lon="1.37601">
        <ele>39</ele>
        <time>2021-10-08T11:44:09Z</time>
      </trkpt>
      <trkpt lat="49.22117" lon="1.37587">
        <ele>40</ele>
        <time>2021-10-08T11:44:18Z</time>
      </trkpt>
      <trkpt lat="49.22114" lon="1.37585">
        <ele>40.2</ele>
        <time>2021-10-08T11:44:19Z</time>
      </trkpt>
      <trkpt lat="49.22099" lon="1.37572">
        <ele>40.6</ele>
        <time>2021-10-08T11:44:24Z</time>
      </trkpt>
      <trkpt lat="49.22098" lon="1.37567">
        <ele>40.6</ele>
        <time>2021-10-08T11:44:25Z</time>
      </trkpt>
      <trkpt lat="49.22101" lon="1.37552">
        <ele>40.8</ele>
        <time>2021-10-08T11:44:28Z</time>
      </trkpt>
      <trkpt lat="49.22103" lon="1.37548">
        <ele>40.8</ele>
        <time>2021-10-08T11:44:29Z</time>
      </trkpt>
      <trkpt lat="49.22107" lon="1.37537">
        <ele>41.2</ele>
        <time>2021-10-08T11:44:31Z</time>
      </trkpt>
      <trkpt lat="49.22118" lon="1.37509">
        <ele>42.2</ele>
        <time>2021-10-08T11:44:36Z</time>
      </trkpt>
      <trkpt lat="49.22128" lon="1.37484">
        <ele>42.6</ele>
        <time>2021-10-08T11:44:40Z</time>
      </trkpt>
      <trkpt lat="49.22129" lon="1.3747">
        <ele>42.6</ele>
        <time>2021-10-08T11:44:42Z</time>
      </trkpt>
      <trkpt lat="49.22129" lon="1.37456">
        <ele>42.6</ele>
        <time>2021-10-08T11:44:44Z</time>
      </trkpt>
      <trkpt lat="49.22128" lon="1.37412">
        <ele>42.8</ele>
        <time>2021-10-08T11:44:50Z</time>
      </trkpt>
      <trkpt lat="49.22125" lon="1.37374">
        <ele>43</ele>
        <time>2021-10-08T11:44:56Z</time>
      </trkpt>
      <trkpt lat="49.22123" lon="1.37359">
        <ele>43.4</ele>
        <time>2021-10-08T11:44:58Z</time>
      </trkpt>
      <trkpt lat="49.22118" lon="1.37334">
        <ele>43.4</ele>
        <time>2021-10-08T11:45:01Z</time>
      </trkpt>
      <trkpt lat="49.22101" lon="1.37275">
        <ele>43.4</ele>
        <time>2021-10-08T11:45:08Z</time>
      </trkpt>
      <trkpt lat="49.22081" lon="1.372">
        <ele>42.8</ele>
        <time>2021-10-08T11:45:16Z</time>
      </trkpt>
      <trkpt lat="49.22071" lon="1.37157">
        <ele>42.2</ele>
        <time>2021-10-08T11:45:21Z</time>
      </trkpt>
      <trkpt lat="49.22069" lon="1.37148">
        <ele>42.2</ele>
        <time>2021-10-08T11:45:22Z</time>
      </trkpt>
      <trkpt lat="49.22054" lon="1.3708">
        <ele>42.8</ele>
        <time>2021-10-08T11:45:31Z</time>
      </trkpt>
      <trkpt lat="49.22046" lon="1.37048">
        <ele>43.4</ele>
        <time>2021-10-08T11:45:35Z</time>
      </trkpt>
      <trkpt lat="49.22036" lon="1.37019">
        <ele>44</ele>
        <time>2021-10-08T11:45:39Z</time>
      </trkpt>
      <trkpt lat="49.2201" lon="1.36964">
        <ele>44.2</ele>
        <time>2021-10-08T11:45:47Z</time>
      </trkpt>
      <trkpt lat="49.21987" lon="1.36925">
        <ele>44.4</ele>
        <time>2021-10-08T11:45:53Z</time>
      </trkpt>
      <trkpt lat="49.21983" lon="1.3692">
        <ele>44.4</ele>
        <time>2021-10-08T11:45:54Z</time>
      </trkpt>
      <trkpt lat="49.21974" lon="1.3691">
        <ele>44.6</ele>
        <time>2021-10-08T11:45:56Z</time>
      </trkpt>
      <trkpt lat="49.21945" lon="1.36876">
        <ele>45.6</ele>
        <time>2021-10-08T11:46:03Z</time>
      </trkpt>
      <trkpt lat="49.21921" lon="1.36848">
        <ele>45.8</ele>
        <time>2021-10-08T11:46:09Z</time>
      </trkpt>
      <trkpt lat="49.21893" lon="1.36814">
        <ele>46.2</ele>
        <time>2021-10-08T11:46:16Z</time>
      </trkpt>
      <trkpt lat="49.21868" lon="1.36784">
        <ele>46.6</ele>
        <time>2021-10-08T11:46:22Z</time>
      </trkpt>
      <trkpt lat="49.21847" lon="1.36758">
        <ele>46.8</ele>
        <time>2021-10-08T11:46:27Z</time>
      </trkpt>
      <trkpt lat="49.21825" lon="1.36734">
        <ele>47.6</ele>
        <time>2021-10-08T11:46:32Z</time>
      </trkpt>
      <trkpt lat="49.21803" lon="1.36709">
        <ele>48.2</ele>
        <time>2021-10-08T11:46:37Z</time>
      </trkpt>
      <trkpt lat="49.2179" lon="1.36694">
        <ele>48.8</ele>
        <time>2021-10-08T11:46:40Z</time>
      </trkpt>
      <trkpt lat="49.21782" lon="1.36684">
        <ele>49</ele>
        <time>2021-10-08T11:46:42Z</time>
      </trkpt>
      <trkpt lat="49.21776" lon="1.36675">
        <ele>49</ele>
        <time>2021-10-08T11:46:44Z</time>
      </trkpt>
      <trkpt lat="49.21756" lon="1.36648">
        <ele>49.4</ele>
        <time>2021-10-08T11:46:50Z</time>
      </trkpt>
      <trkpt lat="49.21748" lon="1.36638">
        <ele>49.8</ele>
        <time>2021-10-08T11:46:53Z</time>
      </trkpt>
      <trkpt lat="49.21745" lon="1.36634">
        <ele>50</ele>
        <time>2021-10-08T11:46:54Z</time>
      </trkpt>
      <trkpt lat="49.21727" lon="1.3661">
        <ele>50.6</ele>
        <time>2021-10-08T11:47:00Z</time>
      </trkpt>
      <trkpt lat="49.2171" lon="1.36589">
        <ele>50.8</ele>
        <time>2021-10-08T11:47:05Z</time>
      </trkpt>
      <trkpt lat="49.21703" lon="1.36582">
        <ele>51</ele>
        <time>2021-10-08T11:47:07Z</time>
      </trkpt>
      <trkpt lat="49.21686" lon="1.36559">
        <ele>52</ele>
        <time>2021-10-08T11:47:13Z</time>
      </trkpt>
      <trkpt lat="49.21681" lon="1.36553">
        <ele>52</ele>
        <time>2021-10-08T11:47:14Z</time>
      </trkpt>
      <trkpt lat="49.2166" lon="1.36527">
        <ele>52.6</ele>
        <time>2021-10-08T11:47:20Z</time>
      </trkpt>
      <trkpt lat="49.21646" lon="1.36511">
        <ele>53</ele>
        <time>2021-10-08T11:47:24Z</time>
      </trkpt>
      <trkpt lat="49.21639" lon="1.36505">
        <ele>53.2</ele>
        <time>2021-10-08T11:47:26Z</time>
      </trkpt>
      <trkpt lat="49.21625" lon="1.36482">
        <ele>53.8</ele>
        <time>2021-10-08T11:47:32Z</time>
      </trkpt>
      <trkpt lat="49.21614" lon="1.36466">
        <ele>54.2</ele>
        <time>2021-10-08T11:47:36Z</time>
      </trkpt>
      <trkpt lat="49.21602" lon="1.36438">
        <ele>54.4</ele>
        <time>2021-10-08T11:47:41Z</time>
      </trkpt>
      <trkpt lat="49.21584" lon="1.36389">
        <ele>54.2</ele>
        <time>2021-10-08T11:47:50Z</time>
      </trkpt>
      <trkpt lat="49.21563" lon="1.36335">
        <ele>54.4</ele>
        <time>2021-10-08T11:48:00Z</time>
      </trkpt>
      <trkpt lat="49.21544" lon="1.36287">
        <ele>55.2</ele>
        <time>2021-10-08T11:48:09Z</time>
      </trkpt>
      <trkpt lat="49.21537" lon="1.36271">
        <ele>55.4</ele>
        <time>2021-10-08T11:48:12Z</time>
      </trkpt>
      <trkpt lat="49.21513" lon="1.36215">
        <ele>56.2</ele>
        <time>2021-10-08T11:48:23Z</time>
      </trkpt>
      <trkpt lat="49.21511" lon="1.3621">
        <ele>56.4</ele>
        <time>2021-10-08T11:48:24Z</time>
      </trkpt>
      <trkpt lat="49.21495" lon="1.36167">
        <ele>57.4</ele>
        <time>2021-10-08T11:48:32Z</time>
      </trkpt>
      <trkpt lat="49.21493" lon="1.36162">
        <ele>57.6</ele>
        <time>2021-10-08T11:48:33Z</time>
      </trkpt>
      <trkpt lat="49.21486" lon="1.3613">
        <ele>58.4</ele>
        <time>2021-10-08T11:48:39Z</time>
      </trkpt>
      <trkpt lat="49.21486" lon="1.36112">
        <ele>58.8</ele>
        <time>2021-10-08T11:48:42Z</time>
      </trkpt>
      <trkpt lat="49.21488" lon="1.36087">
        <ele>59.4</ele>
        <time>2021-10-08T11:48:46Z</time>
      </trkpt>
      <trkpt lat="49.21487" lon="1.36017">
        <ele>59.8</ele>
        <time>2021-10-08T11:48:57Z</time>
      </trkpt>
      <trkpt lat="49.21486" lon="1.36004">
        <ele>59.8</ele>
        <time>2021-10-08T11:48:59Z</time>
      </trkpt>
      <trkpt lat="49.2148" lon="1.35959">
        <ele>60.4</ele>
        <time>2021-10-08T11:49:06Z</time>
      </trkpt>
      <trkpt lat="49.21467" lon="1.35904">
        <ele>60.8</ele>
        <time>2021-10-08T11:49:14Z</time>
      </trkpt>
      <trkpt lat="49.21463" lon="1.3589">
        <ele>61</ele>
        <time>2021-10-08T11:49:16Z</time>
      </trkpt>
      <trkpt lat="49.21448" lon="1.35826">
        <ele>61.6</ele>
        <time>2021-10-08T11:49:25Z</time>
      </trkpt>
      <trkpt lat="49.21441" lon="1.35794">
        <ele>61.8</ele>
        <time>2021-10-08T11:49:29Z</time>
      </trkpt>
      <trkpt lat="49.21428" lon="1.35737">
        <ele>62.2</ele>
        <time>2021-10-08T11:49:36Z</time>
      </trkpt>
      <trkpt lat="49.2141" lon="1.35664">
        <ele>62.6</ele>
        <time>2021-10-08T11:49:45Z</time>
      </trkpt>
      <trkpt lat="49.21403" lon="1.35632">
        <ele>62.8</ele>
        <time>2021-10-08T11:49:49Z</time>
      </trkpt>
      <trkpt lat="49.21391" lon="1.35577">
        <ele>63</ele>
        <time>2021-10-08T11:49:56Z</time>
      </trkpt>
      <trkpt lat="49.21389" lon="1.35561">
        <ele>63</ele>
        <time>2021-10-08T11:49:58Z</time>
      </trkpt>
      <trkpt lat="49.21382" lon="1.35512">
        <ele>63.8</ele>
        <time>2021-10-08T11:50:04Z</time>
      </trkpt>
      <trkpt lat="49.21381" lon="1.35504">
        <ele>64.2</ele>
        <time>2021-10-08T11:50:05Z</time>
      </trkpt>
      <trkpt lat="49.21367" lon="1.35433">
        <ele>64.6</ele>
        <time>2021-10-08T11:50:14Z</time>
      </trkpt>
      <trkpt lat="49.21364" lon="1.35388">
        <ele>64.6</ele>
        <time>2021-10-08T11:50:20Z</time>
      </trkpt>
      <trkpt lat="49.21362" lon="1.35373">
        <ele>64.6</ele>
        <time>2021-10-08T11:50:22Z</time>
      </trkpt>
      <trkpt lat="49.21358" lon="1.35342">
        <ele>65</ele>
        <time>2021-10-08T11:50:26Z</time>
      </trkpt>
      <trkpt lat="49.21357" lon="1.35334">
        <ele>65.4</ele>
        <time>2021-10-08T11:50:27Z</time>
      </trkpt>
      <trkpt lat="49.21346" lon="1.35276">
        <ele>66</ele>
        <time>2021-10-08T11:50:34Z</time>
      </trkpt>
      <trkpt lat="49.21337" lon="1.35211">
        <ele>66</ele>
        <time>2021-10-08T11:50:42Z</time>
      </trkpt>
      <trkpt lat="49.2133" lon="1.35174">
        <ele>66.2</ele>
        <time>2021-10-08T11:50:48Z</time>
      </trkpt>
      <trkpt lat="49.21328" lon="1.35168">
        <ele>66.2</ele>
        <time>2021-10-08T11:50:49Z</time>
      </trkpt>
      <trkpt lat="49.21322" lon="1.35149">
        <ele>66.4</ele>
        <time>2021-10-08T11:50:52Z</time>
      </trkpt>
      <trkpt lat="49.21318" lon="1.35136">
        <ele>66.8</ele>
        <time>2021-10-08T11:50:54Z</time>
      </trkpt>
      <trkpt lat="49.21316" lon="1.3513">
        <ele>67.2</ele>
        <time>2021-10-08T11:50:55Z</time>
      </trkpt>
      <trkpt lat="49.21314" lon="1.35124">
        <ele>67.4</ele>
        <time>2021-10-08T11:50:56Z</time>
      </trkpt>
      <trkpt lat="49.2131" lon="1.35112">
        <ele>67.8</ele>
        <time>2021-10-08T11:50:58Z</time>
      </trkpt>
      <trkpt lat="49.21306" lon="1.35094">
        <ele>68</ele>
        <time>2021-10-08T11:51:01Z</time>
      </trkpt>
      <trkpt lat="49.21303" lon="1.35082">
        <ele>68.4</ele>
        <time>2021-10-08T11:51:03Z</time>
      </trkpt>
      <trkpt lat="49.21301" lon="1.35076">
        <ele>68.6</ele>
        <time>2021-10-08T11:51:04Z</time>
      </trkpt>
      <trkpt lat="49.21297" lon="1.35065">
        <ele>68.8</ele>
        <time>2021-10-08T11:51:06Z</time>
      </trkpt>
      <trkpt lat="49.21298" lon="1.35056">
        <ele>68.8</ele>
        <time>2021-10-08T11:51:08Z</time>
      </trkpt>
      <trkpt lat="49.21304" lon="1.35045">
        <ele>69</ele>
        <time>2021-10-08T11:51:11Z</time>
      </trkpt>
      <trkpt lat="49.21307" lon="1.35042">
        <ele>69</ele>
        <time>2021-10-08T11:51:12Z</time>
      </trkpt>
      <trkpt lat="49.21311" lon="1.35036">
        <ele>69.4</ele>
        <time>2021-10-08T11:51:16Z</time>
      </trkpt>
      <trkpt lat="49.21311" lon="1.35035">
        <ele>69.4</ele>
        <time>2021-10-08T11:51:18Z</time>
      </trkpt>
      <trkpt lat="49.21315" lon="1.35009">
        <ele>69.6</ele>
        <time>2021-10-08T12:00:43Z</time>
      </trkpt>
      <trkpt lat="49.21321" lon="1.35005">
        <ele>69.6</ele>
        <time>2021-10-08T12:00:46Z</time>
      </trkpt>
      <trkpt lat="49.21333" lon="1.34993">
        <ele>69.4</ele>
        <time>2021-10-08T12:00:51Z</time>
      </trkpt>
      <trkpt lat="49.21345" lon="1.34979">
        <ele>68.6</ele>
        <time>2021-10-08T12:00:56Z</time>
      </trkpt>
      <trkpt lat="49.21351" lon="1.34974">
        <ele>68.6</ele>
        <time>2021-10-08T12:00:58Z</time>
      </trkpt>
      <trkpt lat="49.21355" lon="1.3497">
        <ele>68.4</ele>
        <time>2021-10-08T12:00:59Z</time>
      </trkpt>
      <trkpt lat="49.2136" lon="1.34967">
        <ele>68.2</ele>
        <time>2021-10-08T12:01:00Z</time>
      </trkpt>
      <trkpt lat="49.2138" lon="1.3495">
        <ele>68</ele>
        <time>2021-10-08T12:01:05Z</time>
      </trkpt>
      <trkpt lat="49.21401" lon="1.34929">
        <ele>67.4</ele>
        <time>2021-10-08T12:01:10Z</time>
      </trkpt>
      <trkpt lat="49.21406" lon="1.34925">
        <ele>67.4</ele>
        <time>2021-10-08T12:01:11Z</time>
      </trkpt>
      <trkpt lat="49.21427" lon="1.34903">
        <ele>66.8</ele>
        <time>2021-10-08T12:01:16Z</time>
      </trkpt>
      <trkpt lat="49.21442" lon="1.34888">
        <ele>66.4</ele>
        <time>2021-10-08T12:01:19Z</time>
      </trkpt>
      <trkpt lat="49.21451" lon="1.34879">
        <ele>66.4</ele>
        <time>2021-10-08T12:01:21Z</time>
      </trkpt>
      <trkpt lat="49.21455" lon="1.34874">
        <ele>66.2</ele>
        <time>2021-10-08T12:01:22Z</time>
      </trkpt>
      <trkpt lat="49.2148" lon="1.34849">
        <ele>65.6</ele>
        <time>2021-10-08T12:01:27Z</time>
      </trkpt>
      <trkpt lat="49.21504" lon="1.34825">
        <ele>65.2</ele>
        <time>2021-10-08T12:01:32Z</time>
      </trkpt>
      <trkpt lat="49.21509" lon="1.3482">
        <ele>65.2</ele>
        <time>2021-10-08T12:01:33Z</time>
      </trkpt>
      <trkpt lat="49.2153" lon="1.34805">
        <ele>64.8</ele>
        <time>2021-10-08T12:01:38Z</time>
      </trkpt>
      <trkpt lat="49.21571" lon="1.3478">
        <ele>64.4</ele>
        <time>2021-10-08T12:01:45Z</time>
      </trkpt>
      <trkpt lat="49.21578" lon="1.34774">
        <ele>64</ele>
        <time>2021-10-08T12:01:46Z</time>
      </trkpt>
      <trkpt lat="49.21601" lon="1.3476">
        <ele>63.2</ele>
        <time>2021-10-08T12:01:50Z</time>
      </trkpt>
      <trkpt lat="49.21627" lon="1.34741">
        <ele>63</ele>
        <time>2021-10-08T12:01:54Z</time>
      </trkpt>
      <trkpt lat="49.21641" lon="1.34731">
        <ele>62.8</ele>
        <time>2021-10-08T12:01:56Z</time>
      </trkpt>
      <trkpt lat="49.21667" lon="1.34707">
        <ele>62</ele>
        <time>2021-10-08T12:02:01Z</time>
      </trkpt>
      <trkpt lat="49.21673" lon="1.34702">
        <ele>62</ele>
        <time>2021-10-08T12:02:02Z</time>
      </trkpt>
      <trkpt lat="49.21677" lon="1.34698">
        <ele>61.8</ele>
        <time>2021-10-08T12:02:03Z</time>
      </trkpt>
      <trkpt lat="49.21682" lon="1.34694">
        <ele>61.4</ele>
        <time>2021-10-08T12:02:04Z</time>
      </trkpt>
      <trkpt lat="49.21696" lon="1.34669">
        <ele>61</ele>
        <time>2021-10-08T12:02:08Z</time>
      </trkpt>
      <trkpt lat="49.21701" lon="1.34651">
        <ele>61</ele>
        <time>2021-10-08T12:02:10Z</time>
      </trkpt>
      <trkpt lat="49.21708" lon="1.34625">
        <ele>60.8</ele>
        <time>2021-10-08T12:02:13Z</time>
      </trkpt>
      <trkpt lat="49.21713" lon="1.34608">
        <ele>60.6</ele>
        <time>2021-10-08T12:02:15Z</time>
      </trkpt>
      <trkpt lat="49.21721" lon="1.34582">
        <ele>60.6</ele>
        <time>2021-10-08T12:02:18Z</time>
      </trkpt>
      <trkpt lat="49.2173" lon="1.34546">
        <ele>60.2</ele>
        <time>2021-10-08T12:02:22Z</time>
      </trkpt>
      <trkpt lat="49.2174" lon="1.345">
        <ele>59.6</ele>
        <time>2021-10-08T12:02:27Z</time>
      </trkpt>
      <trkpt lat="49.21745" lon="1.34456">
        <ele>59.2</ele>
        <time>2021-10-08T12:02:32Z</time>
      </trkpt>
      <trkpt lat="49.21746" lon="1.34431">
        <ele>59</ele>
        <time>2021-10-08T12:02:35Z</time>
      </trkpt>
      <trkpt lat="49.21745" lon="1.34406">
        <ele>59</ele>
        <time>2021-10-08T12:02:38Z</time>
      </trkpt>
      <trkpt lat="49.21744" lon="1.34398">
        <ele>58.8</ele>
        <time>2021-10-08T12:02:39Z</time>
      </trkpt>
      <trkpt lat="49.21743" lon="1.3437">
        <ele>58.8</ele>
        <time>2021-10-08T12:02:42Z</time>
      </trkpt>
      <trkpt lat="49.21741" lon="1.34356">
        <ele>58.8</ele>
        <time>2021-10-08T12:02:44Z</time>
      </trkpt>
      <trkpt lat="49.2174" lon="1.34343">
        <ele>58.6</ele>
        <time>2021-10-08T12:02:46Z</time>
      </trkpt>
      <trkpt lat="49.21732" lon="1.34302">
        <ele>58.2</ele>
        <time>2021-10-08T12:02:51Z</time>
      </trkpt>
      <trkpt lat="49.21722" lon="1.34259">
        <ele>57.8</ele>
        <time>2021-10-08T12:02:56Z</time>
      </trkpt>
      <trkpt lat="49.21719" lon="1.3425">
        <ele>57.6</ele>
        <time>2021-10-08T12:02:57Z</time>
      </trkpt>
      <trkpt lat="49.21711" lon="1.34219">
        <ele>57</ele>
        <time>2021-10-08T12:03:00Z</time>
      </trkpt>
      <trkpt lat="49.21705" lon="1.34197">
        <ele>56.2</ele>
        <time>2021-10-08T12:03:02Z</time>
      </trkpt>
      <trkpt lat="49.21703" lon="1.34186">
        <ele>55.8</ele>
        <time>2021-10-08T12:03:03Z</time>
      </trkpt>
      <trkpt lat="49.21701" lon="1.34176">
        <ele>55.4</ele>
        <time>2021-10-08T12:03:04Z</time>
      </trkpt>
      <trkpt lat="49.21699" lon="1.34164">
        <ele>55</ele>
        <time>2021-10-08T12:03:05Z</time>
      </trkpt>
      <trkpt lat="49.21696" lon="1.34153">
        <ele>54.8</ele>
        <time>2021-10-08T12:03:06Z</time>
      </trkpt>
      <trkpt lat="49.21692" lon="1.3413">
        <ele>54</ele>
        <time>2021-10-08T12:03:08Z</time>
      </trkpt>
      <trkpt lat="49.21687" lon="1.34106">
        <ele>53</ele>
        <time>2021-10-08T12:03:10Z</time>
      </trkpt>
      <trkpt lat="49.21683" lon="1.34087">
        <ele>51.4</ele>
        <time>2021-10-08T12:03:12Z</time>
      </trkpt>
      <trkpt lat="49.21681" lon="1.34078">
        <ele>51.2</ele>
        <time>2021-10-08T12:03:13Z</time>
      </trkpt>
      <trkpt lat="49.21677" lon="1.34068">
        <ele>50.8</ele>
        <time>2021-10-08T12:03:14Z</time>
      </trkpt>
      <trkpt lat="49.21673" lon="1.34058">
        <ele>50.4</ele>
        <time>2021-10-08T12:03:15Z</time>
      </trkpt>
      <trkpt lat="49.21665" lon="1.34039">
        <ele>49.2</ele>
        <time>2021-10-08T12:03:17Z</time>
      </trkpt>
      <trkpt lat="49.21658" lon="1.34019">
        <ele>48.4</ele>
        <time>2021-10-08T12:03:19Z</time>
      </trkpt>
      <trkpt lat="49.21655" lon="1.34009">
        <ele>48</ele>
        <time>2021-10-08T12:03:20Z</time>
      </trkpt>
      <trkpt lat="49.21651" lon="1.33999">
        <ele>47.8</ele>
        <time>2021-10-08T12:03:21Z</time>
      </trkpt>
      <trkpt lat="49.21648" lon="1.3399">
        <ele>47.2</ele>
        <time>2021-10-08T12:03:22Z</time>
      </trkpt>
      <trkpt lat="49.21643" lon="1.33971">
        <ele>47</ele>
        <time>2021-10-08T12:03:24Z</time>
      </trkpt>
      <trkpt lat="49.21639" lon="1.33952">
        <ele>46.8</ele>
        <time>2021-10-08T12:03:26Z</time>
      </trkpt>
      <trkpt lat="49.21638" lon="1.33945">
        <ele>46.8</ele>
        <time>2021-10-08T12:03:27Z</time>
      </trkpt>
      <trkpt lat="49.21633" lon="1.33911">
        <ele>47</ele>
        <time>2021-10-08T12:03:32Z</time>
      </trkpt>
      <trkpt lat="49.21632" lon="1.33891">
        <ele>47.8</ele>
        <time>2021-10-08T12:03:35Z</time>
      </trkpt>
      <trkpt lat="49.2163" lon="1.33879">
        <ele>48.2</ele>
        <time>2021-10-08T12:03:37Z</time>
      </trkpt>
      <trkpt lat="49.21627" lon="1.33844">
        <ele>49.4</ele>
        <time>2021-10-08T12:03:43Z</time>
      </trkpt>
      <trkpt lat="49.21627" lon="1.33839">
        <ele>49.4</ele>
        <time>2021-10-08T12:03:44Z</time>
      </trkpt>
      <trkpt lat="49.21625" lon="1.3382">
        <ele>50.2</ele>
        <time>2021-10-08T12:03:47Z</time>
      </trkpt>
      <trkpt lat="49.21624" lon="1.33807">
        <ele>50.4</ele>
        <time>2021-10-08T12:03:49Z</time>
      </trkpt>
      <trkpt lat="49.21622" lon="1.33789">
        <ele>51</ele>
        <time>2021-10-08T12:03:52Z</time>
      </trkpt>
      <trkpt lat="49.21622" lon="1.33777">
        <ele>51</ele>
        <time>2021-10-08T12:03:54Z</time>
      </trkpt>
      <trkpt lat="49.21622" lon="1.33762">
        <ele>51.6</ele>
        <time>2021-10-08T12:03:57Z</time>
      </trkpt>
      <trkpt lat="49.21624" lon="1.33738">
        <ele>52.4</ele>
        <time>2021-10-08T12:04:02Z</time>
      </trkpt>
      <trkpt lat="49.21624" lon="1.33728">
        <ele>52.6</ele>
        <time>2021-10-08T12:04:04Z</time>
      </trkpt>
      <trkpt lat="49.21623" lon="1.33702">
        <ele>53.2</ele>
        <time>2021-10-08T12:04:09Z</time>
      </trkpt>
      <trkpt lat="49.21624" lon="1.33669">
        <ele>53.8</ele>
        <time>2021-10-08T12:04:15Z</time>
      </trkpt>
      <trkpt lat="49.21625" lon="1.33649">
        <ele>54.4</ele>
        <time>2021-10-08T12:04:20Z</time>
      </trkpt>
      <trkpt lat="49.21625" lon="1.33631">
        <ele>54.8</ele>
        <time>2021-10-08T12:04:24Z</time>
      </trkpt>
      <trkpt lat="49.21625" lon="1.33627">
        <ele>54.8</ele>
        <time>2021-10-08T12:04:25Z</time>
      </trkpt>
      <trkpt lat="49.21625" lon="1.33622">
        <ele>54.8</ele>
        <time>2021-10-08T12:04:26Z</time>
      </trkpt>
      <trkpt lat="49.21624" lon="1.33607">
        <ele>55.2</ele>
        <time>2021-10-08T12:04:29Z</time>
      </trkpt>
      <trkpt lat="49.21626" lon="1.3358">
        <ele>55.8</ele>
        <time>2021-10-08T12:04:35Z</time>
      </trkpt>
      <trkpt lat="49.21629" lon="1.3355">
        <ele>56.6</ele>
        <time>2021-10-08T12:04:41Z</time>
      </trkpt>
      <trkpt lat="49.21631" lon="1.33535">
        <ele>56.8</ele>
        <time>2021-10-08T12:04:44Z</time>
      </trkpt>
      <trkpt lat="49.21631" lon="1.33525">
        <ele>57</ele>
        <time>2021-10-08T12:04:46Z</time>
      </trkpt>
      <trkpt lat="49.21633" lon="1.33504">
        <ele>57.2</ele>
        <time>2021-10-08T12:04:50Z</time>
      </trkpt>
      <trkpt lat="49.21633" lon="1.33497">
        <ele>57.4</ele>
        <time>2021-10-08T12:04:51Z</time>
      </trkpt>
      <trkpt lat="49.21635" lon="1.33481">
        <ele>57.6</ele>
        <time>2021-10-08T12:04:54Z</time>
      </trkpt>
      <trkpt lat="49.21636" lon="1.33469">
        <ele>57.6</ele>
        <time>2021-10-08T12:04:56Z</time>
      </trkpt>
      <trkpt lat="49.21638" lon="1.3345">
        <ele>57.8</ele>
        <time>2021-10-08T12:04:59Z</time>
      </trkpt>
      <trkpt lat="49.21637" lon="1.33439">
        <ele>58</ele>
        <time>2021-10-08T12:05:01Z</time>
      </trkpt>
      <trkpt lat="49.21638" lon="1.33415">
        <ele>58.6</ele>
        <time>2021-10-08T12:05:06Z</time>
      </trkpt>
      <trkpt lat="49.21637" lon="1.33395">
        <ele>58.8</ele>
        <time>2021-10-08T12:05:10Z</time>
      </trkpt>
      <trkpt lat="49.21636" lon="1.33381">
        <ele>59</ele>
        <time>2021-10-08T12:05:12Z</time>
      </trkpt>
      <trkpt lat="49.21634" lon="1.33345">
        <ele>59.2</ele>
        <time>2021-10-08T12:05:18Z</time>
      </trkpt>
      <trkpt lat="49.21633" lon="1.33309">
        <ele>59.2</ele>
        <time>2021-10-08T12:05:23Z</time>
      </trkpt>
      <trkpt lat="49.21634" lon="1.33293">
        <ele>59.2</ele>
        <time>2021-10-08T12:05:25Z</time>
      </trkpt>
      <trkpt lat="49.21636" lon="1.33277">
        <ele>59.2</ele>
        <time>2021-10-08T12:05:27Z</time>
      </trkpt>
      <trkpt lat="49.21636" lon="1.33269">
        <ele>59.2</ele>
        <time>2021-10-08T12:05:28Z</time>
      </trkpt>
      <trkpt lat="49.21643" lon="1.33217">
        <ele>58.6</ele>
        <time>2021-10-08T12:05:33Z</time>
      </trkpt>
      <trkpt lat="49.21648" lon="1.3319">
        <ele>57.8</ele>
        <time>2021-10-08T12:05:36Z</time>
      </trkpt>
      <trkpt lat="49.21653" lon="1.33171">
        <ele>57.4</ele>
        <time>2021-10-08T12:05:38Z</time>
      </trkpt>
      <trkpt lat="49.21655" lon="1.33162">
        <ele>57.2</ele>
        <time>2021-10-08T12:05:39Z</time>
      </trkpt>
      <trkpt lat="49.21657" lon="1.33153">
        <ele>56.8</ele>
        <time>2021-10-08T12:05:40Z</time>
      </trkpt>
      <trkpt lat="49.21657" lon="1.33145">
        <ele>56.6</ele>
        <time>2021-10-08T12:05:41Z</time>
      </trkpt>
      <trkpt lat="49.21655" lon="1.33125">
        <ele>56.4</ele>
        <time>2021-10-08T12:05:43Z</time>
      </trkpt>
      <trkpt lat="49.21654" lon="1.33114">
        <ele>56.2</ele>
        <time>2021-10-08T12:05:44Z</time>
      </trkpt>
      <trkpt lat="49.21652" lon="1.33103">
        <ele>55.6</ele>
        <time>2021-10-08T12:05:45Z</time>
      </trkpt>
      <trkpt lat="49.21647" lon="1.33081">
        <ele>54.6</ele>
        <time>2021-10-08T12:05:47Z</time>
      </trkpt>
      <trkpt lat="49.21645" lon="1.33071">
        <ele>54.4</ele>
        <time>2021-10-08T12:05:48Z</time>
      </trkpt>
      <trkpt lat="49.21642" lon="1.3306">
        <ele>54</ele>
        <time>2021-10-08T12:05:49Z</time>
      </trkpt>
      <trkpt lat="49.21636" lon="1.3304">
        <ele>53.4</ele>
        <time>2021-10-08T12:05:51Z</time>
      </trkpt>
      <trkpt lat="49.21634" lon="1.33028">
        <ele>53</ele>
        <time>2021-10-08T12:05:52Z</time>
      </trkpt>
      <trkpt lat="49.21632" lon="1.33016">
        <ele>52.4</ele>
        <time>2021-10-08T12:05:53Z</time>
      </trkpt>
      <trkpt lat="49.21629" lon="1.32992">
        <ele>51.6</ele>
        <time>2021-10-08T12:05:55Z</time>
      </trkpt>
      <trkpt lat="49.21629" lon="1.32979">
        <ele>51</ele>
        <time>2021-10-08T12:05:56Z</time>
      </trkpt>
      <trkpt lat="49.21629" lon="1.32967">
        <ele>50.6</ele>
        <time>2021-10-08T12:05:57Z</time>
      </trkpt>
      <trkpt lat="49.21632" lon="1.32942">
        <ele>49.4</ele>
        <time>2021-10-08T12:05:59Z</time>
      </trkpt>
      <trkpt lat="49.21634" lon="1.3293">
        <ele>49</ele>
        <time>2021-10-08T12:06:00Z</time>
      </trkpt>
      <trkpt lat="49.21638" lon="1.32907">
        <ele>47.6</ele>
        <time>2021-10-08T12:06:02Z</time>
      </trkpt>
      <trkpt lat="49.21642" lon="1.32885">
        <ele>46.4</ele>
        <time>2021-10-08T12:06:04Z</time>
      </trkpt>
      <trkpt lat="49.21648" lon="1.32863">
        <ele>45.8</ele>
        <time>2021-10-08T12:06:06Z</time>
      </trkpt>
      <trkpt lat="49.2165" lon="1.32852">
        <ele>45.2</ele>
        <time>2021-10-08T12:06:07Z</time>
      </trkpt>
      <trkpt lat="49.21652" lon="1.32839">
        <ele>45</ele>
        <time>2021-10-08T12:06:08Z</time>
      </trkpt>
      <trkpt lat="49.21656" lon="1.32817">
        <ele>44</ele>
        <time>2021-10-08T12:06:10Z</time>
      </trkpt>
      <trkpt lat="49.21658" lon="1.32804">
        <ele>43.4</ele>
        <time>2021-10-08T12:06:11Z</time>
      </trkpt>
      <trkpt lat="49.21663" lon="1.32784">
        <ele>42.6</ele>
        <time>2021-10-08T12:06:13Z</time>
      </trkpt>
      <trkpt lat="49.21668" lon="1.32762">
        <ele>41.8</ele>
        <time>2021-10-08T12:06:15Z</time>
      </trkpt>
      <trkpt lat="49.2167" lon="1.32751">
        <ele>41.4</ele>
        <time>2021-10-08T12:06:16Z</time>
      </trkpt>
      <trkpt lat="49.21672" lon="1.3274">
        <ele>41.2</ele>
        <time>2021-10-08T12:06:17Z</time>
      </trkpt>
      <trkpt lat="49.21674" lon="1.32704">
        <ele>40.6</ele>
        <time>2021-10-08T12:06:20Z</time>
      </trkpt>
      <trkpt lat="49.21675" lon="1.32693">
        <ele>40.2</ele>
        <time>2021-10-08T12:06:21Z</time>
      </trkpt>
      <trkpt lat="49.21677" lon="1.32662">
        <ele>39.2</ele>
        <time>2021-10-08T12:06:24Z</time>
      </trkpt>
      <trkpt lat="49.21681" lon="1.32632">
        <ele>38</ele>
        <time>2021-10-08T12:06:27Z</time>
      </trkpt>
      <trkpt lat="49.21682" lon="1.32621">
        <ele>37.4</ele>
        <time>2021-10-08T12:06:28Z</time>
      </trkpt>
      <trkpt lat="49.21686" lon="1.32599">
        <ele>36.2</ele>
        <time>2021-10-08T12:06:30Z</time>
      </trkpt>
      <trkpt lat="49.2169" lon="1.32576">
        <ele>35.6</ele>
        <time>2021-10-08T12:06:32Z</time>
      </trkpt>
      <trkpt lat="49.21695" lon="1.32544">
        <ele>34.8</ele>
        <time>2021-10-08T12:06:35Z</time>
      </trkpt>
      <trkpt lat="49.21698" lon="1.3251">
        <ele>33.6</ele>
        <time>2021-10-08T12:06:38Z</time>
      </trkpt>
      <trkpt lat="49.21701" lon="1.32483">
        <ele>32.6</ele>
        <time>2021-10-08T12:06:41Z</time>
      </trkpt>
      <trkpt lat="49.21702" lon="1.32468">
        <ele>31.6</ele>
        <time>2021-10-08T12:06:43Z</time>
      </trkpt>
      <trkpt lat="49.217" lon="1.32465">
        <ele>31.4</ele>
        <time>2021-10-08T12:06:44Z</time>
      </trkpt>
      <trkpt lat="49.21696" lon="1.32461">
        <ele>31.2</ele>
        <time>2021-10-08T12:06:46Z</time>
      </trkpt>
      <trkpt lat="49.21683" lon="1.32456">
        <ele>31.2</ele>
        <time>2021-10-08T12:06:50Z</time>
      </trkpt>
      <trkpt lat="49.21664" lon="1.32443">
        <ele>31.4</ele>
        <time>2021-10-08T12:06:56Z</time>
      </trkpt>
      <trkpt lat="49.21642" lon="1.32432">
        <ele>32.2</ele>
        <time>2021-10-08T12:07:02Z</time>
      </trkpt>
      <trkpt lat="49.21633" lon="1.32429">
        <ele>32.4</ele>
        <time>2021-10-08T12:07:04Z</time>
      </trkpt>
      <trkpt lat="49.21607" lon="1.3242">
        <ele>33.2</ele>
        <time>2021-10-08T12:07:10Z</time>
      </trkpt>
      <trkpt lat="49.21599" lon="1.32415">
        <ele>33.6</ele>
        <time>2021-10-08T12:07:12Z</time>
      </trkpt>
      <trkpt lat="49.21577" lon="1.32407">
        <ele>34</ele>
        <time>2021-10-08T12:07:18Z</time>
      </trkpt>
      <trkpt lat="49.21561" lon="1.32412">
        <ele>34</ele>
        <time>2021-10-08T12:07:23Z</time>
      </trkpt>
      <trkpt lat="49.2155" lon="1.32413">
        <ele>34.6</ele>
        <time>2021-10-08T12:07:27Z</time>
      </trkpt>
      <trkpt lat="49.21548" lon="1.32413">
        <ele>34.8</ele>
        <time>2021-10-08T12:07:28Z</time>
      </trkpt>
      <trkpt lat="49.21542" lon="1.32414">
        <ele>35.6</ele>
        <time>2021-10-08T12:07:31Z</time>
      </trkpt>
      <trkpt lat="49.21538" lon="1.32412">
        <ele>36.4</ele>
        <time>2021-10-08T12:07:33Z</time>
      </trkpt>
      <trkpt lat="49.21533" lon="1.32403">
        <ele>37</ele>
        <time>2021-10-08T12:07:36Z</time>
      </trkpt>
      <trkpt lat="49.21529" lon="1.32398">
        <ele>37.4</ele>
        <time>2021-10-08T12:07:38Z</time>
      </trkpt>
      <trkpt lat="49.21515" lon="1.32388">
        <ele>38</ele>
        <time>2021-10-08T12:07:43Z</time>
      </trkpt>
      <trkpt lat="49.21503" lon="1.32387">
        <ele>38.2</ele>
        <time>2021-10-08T12:07:48Z</time>
      </trkpt>
      <trkpt lat="49.21501" lon="1.32386">
        <ele>38.2</ele>
        <time>2021-10-08T12:07:49Z</time>
      </trkpt>
      <trkpt lat="49.21494" lon="1.3238">
        <ele>38.2</ele>
        <time>2021-10-08T12:07:52Z</time>
      </trkpt>
      <trkpt lat="49.21483" lon="1.3237">
        <ele>39</ele>
        <time>2021-10-08T12:07:56Z</time>
      </trkpt>
      <trkpt lat="49.21479" lon="1.32368">
        <ele>39</ele>
        <time>2021-10-08T12:07:57Z</time>
      </trkpt>
      <trkpt lat="49.21469" lon="1.32355">
        <ele>39</ele>
        <time>2021-10-08T12:08:00Z</time>
      </trkpt>
      <trkpt lat="49.21465" lon="1.32351">
        <ele>39</ele>
        <time>2021-10-08T12:08:01Z</time>
      </trkpt>
      <trkpt lat="49.21442" lon="1.3234">
        <ele>39</ele>
        <time>2021-10-08T12:08:07Z</time>
      </trkpt>
      <trkpt lat="49.21424" lon="1.32334">
        <ele>38.8</ele>
        <time>2021-10-08T12:08:12Z</time>
      </trkpt>
      <trkpt lat="49.21405" lon="1.32323">
        <ele>39</ele>
        <time>2021-10-08T12:08:17Z</time>
      </trkpt>
      <trkpt lat="49.21397" lon="1.32316">
        <ele>39.2</ele>
        <time>2021-10-08T12:08:19Z</time>
      </trkpt>
      <trkpt lat="49.21378" lon="1.32309">
        <ele>39.4</ele>
        <time>2021-10-08T12:08:23Z</time>
      </trkpt>
      <trkpt lat="49.2135" lon="1.32297">
        <ele>39.2</ele>
        <time>2021-10-08T12:08:28Z</time>
      </trkpt>
      <trkpt lat="49.21332" lon="1.32274">
        <ele>39</ele>
        <time>2021-10-08T12:08:32Z</time>
      </trkpt>
      <trkpt lat="49.21313" lon="1.32254">
        <ele>38.6</ele>
        <time>2021-10-08T12:08:35Z</time>
      </trkpt>
      <trkpt lat="49.21301" lon="1.32251">
        <ele>38.2</ele>
        <time>2021-10-08T12:08:37Z</time>
      </trkpt>
      <trkpt lat="49.21297" lon="1.3225">
        <ele>38.2</ele>
        <time>2021-10-08T12:08:38Z</time>
      </trkpt>
      <trkpt lat="49.21292" lon="1.32248">
        <ele>38</ele>
        <time>2021-10-08T12:08:39Z</time>
      </trkpt>
      <trkpt lat="49.21272" lon="1.3224">
        <ele>37.8</ele>
        <time>2021-10-08T12:08:44Z</time>
      </trkpt>
      <trkpt lat="49.21258" lon="1.32241">
        <ele>37.8</ele>
        <time>2021-10-08T12:08:47Z</time>
      </trkpt>
      <trkpt lat="49.21254" lon="1.32237">
        <ele>37.8</ele>
        <time>2021-10-08T12:08:48Z</time>
      </trkpt>
      <trkpt lat="49.21241" lon="1.32211">
        <ele>38</ele>
        <time>2021-10-08T12:08:52Z</time>
      </trkpt>
      <trkpt lat="49.21226" lon="1.32187">
        <ele>38</ele>
        <time>2021-10-08T12:08:55Z</time>
      </trkpt>
      <trkpt lat="49.21222" lon="1.32182">
        <ele>38</ele>
        <time>2021-10-08T12:08:56Z</time>
      </trkpt>
      <trkpt lat="49.21208" lon="1.32162">
        <ele>37.8</ele>
        <time>2021-10-08T12:08:59Z</time>
      </trkpt>
      <trkpt lat="49.21198" lon="1.3215">
        <ele>36.6</ele>
        <time>2021-10-08T12:09:01Z</time>
      </trkpt>
      <trkpt lat="49.21188" lon="1.3214">
        <ele>35.4</ele>
        <time>2021-10-08T12:09:03Z</time>
      </trkpt>
      <trkpt lat="49.21178" lon="1.32131">
        <ele>34.6</ele>
        <time>2021-10-08T12:09:05Z</time>
      </trkpt>
      <trkpt lat="49.21166" lon="1.32127">
        <ele>34.2</ele>
        <time>2021-10-08T12:09:07Z</time>
      </trkpt>
      <trkpt lat="49.21154" lon="1.32133">
        <ele>34</ele>
        <time>2021-10-08T12:09:10Z</time>
      </trkpt>
      <trkpt lat="49.21144" lon="1.32142">
        <ele>34</ele>
        <time>2021-10-08T12:09:14Z</time>
      </trkpt>
      <trkpt lat="49.21133" lon="1.32151">
        <ele>35.6</ele>
        <time>2021-10-08T12:09:19Z</time>
      </trkpt>
      <trkpt lat="49.21129" lon="1.32155">
        <ele>37.2</ele>
        <time>2021-10-08T12:09:21Z</time>
      </trkpt>
      <trkpt lat="49.21122" lon="1.32163">
        <ele>38.4</ele>
        <time>2021-10-08T12:09:25Z</time>
      </trkpt>
      <trkpt lat="49.2112" lon="1.32165">
        <ele>38.6</ele>
        <time>2021-10-08T12:09:26Z</time>
      </trkpt>
      <trkpt lat="49.21114" lon="1.32172">
        <ele>39.6</ele>
        <time>2021-10-08T12:09:29Z</time>
      </trkpt>
      <trkpt lat="49.2111" lon="1.32176">
        <ele>40.2</ele>
        <time>2021-10-08T12:09:31Z</time>
      </trkpt>
      <trkpt lat="49.21105" lon="1.32179">
        <ele>40.6</ele>
        <time>2021-10-08T12:09:33Z</time>
      </trkpt>
      <trkpt lat="49.21099" lon="1.32183">
        <ele>41.4</ele>
        <time>2021-10-08T12:09:36Z</time>
      </trkpt>
      <trkpt lat="49.21097" lon="1.32184">
        <ele>41.6</ele>
        <time>2021-10-08T12:09:37Z</time>
      </trkpt>
      <trkpt lat="49.21095" lon="1.32184">
        <ele>41.6</ele>
        <time>2021-10-08T12:09:38Z</time>
      </trkpt>
      <trkpt lat="49.21091" lon="1.32184">
        <ele>42</ele>
        <time>2021-10-08T12:09:40Z</time>
      </trkpt>
      <trkpt lat="49.2108" lon="1.32185">
        <ele>42.8</ele>
        <time>2021-10-08T12:09:44Z</time>
      </trkpt>
      <trkpt lat="49.21064" lon="1.32185">
        <ele>43.8</ele>
        <time>2021-10-08T12:09:51Z</time>
      </trkpt>
      <trkpt lat="49.21063" lon="1.32184">
        <ele>44</ele>
        <time>2021-10-08T12:09:52Z</time>
      </trkpt>
      <trkpt lat="49.21057" lon="1.32175">
        <ele>44.2</ele>
        <time>2021-10-08T12:09:55Z</time>
      </trkpt>
      <trkpt lat="49.21048" lon="1.32165">
        <ele>44.6</ele>
        <time>2021-10-08T12:09:58Z</time>
      </trkpt>
      <trkpt lat="49.21036" lon="1.32149">
        <ele>44.6</ele>
        <time>2021-10-08T12:10:02Z</time>
      </trkpt>
      <trkpt lat="49.21035" lon="1.32143">
        <ele>44.6</ele>
        <time>2021-10-08T12:10:03Z</time>
      </trkpt>
      <trkpt lat="49.21033" lon="1.3213">
        <ele>44.6</ele>
        <time>2021-10-08T12:10:05Z</time>
      </trkpt>
      <trkpt lat="49.21027" lon="1.32117">
        <ele>44.8</ele>
        <time>2021-10-08T12:10:07Z</time>
      </trkpt>
      <trkpt lat="49.21024" lon="1.32111">
        <ele>44.8</ele>
        <time>2021-10-08T12:10:08Z</time>
      </trkpt>
      <trkpt lat="49.21019" lon="1.32095">
        <ele>44.6</ele>
        <time>2021-10-08T12:10:10Z</time>
      </trkpt>
      <trkpt lat="49.21008" lon="1.32063">
        <ele>43.6</ele>
        <time>2021-10-08T12:10:14Z</time>
      </trkpt>
      <trkpt lat="49.21003" lon="1.32046">
        <ele>43.2</ele>
        <time>2021-10-08T12:10:16Z</time>
      </trkpt>
      <trkpt lat="49.21" lon="1.32037">
        <ele>42.4</ele>
        <time>2021-10-08T12:10:17Z</time>
      </trkpt>
      <trkpt lat="49.20993" lon="1.32024">
        <ele>41.8</ele>
        <time>2021-10-08T12:10:19Z</time>
      </trkpt>
      <trkpt lat="49.2099" lon="1.32018">
        <ele>41.6</ele>
        <time>2021-10-08T12:10:20Z</time>
      </trkpt>
      <trkpt lat="49.20984" lon="1.32003">
        <ele>41.2</ele>
        <time>2021-10-08T12:10:22Z</time>
      </trkpt>
      <trkpt lat="49.20973" lon="1.3198">
        <ele>40.2</ele>
        <time>2021-10-08T12:10:25Z</time>
      </trkpt>
      <trkpt lat="49.20969" lon="1.31972">
        <ele>40</ele>
        <time>2021-10-08T12:10:26Z</time>
      </trkpt>
      <trkpt lat="49.20969" lon="1.31958">
        <ele>40</ele>
        <time>2021-10-08T12:10:28Z</time>
      </trkpt>
      <trkpt lat="49.20974" lon="1.31938">
        <ele>39.2</ele>
        <time>2021-10-08T12:10:31Z</time>
      </trkpt>
      <trkpt lat="49.20973" lon="1.31931">
        <ele>38.8</ele>
        <time>2021-10-08T12:10:32Z</time>
      </trkpt>
      <trkpt lat="49.20969" lon="1.31919">
        <ele>38.2</ele>
        <time>2021-10-08T12:10:34Z</time>
      </trkpt>
      <trkpt lat="49.20965" lon="1.31911">
        <ele>37.8</ele>
        <time>2021-10-08T12:10:36Z</time>
      </trkpt>
      <trkpt lat="49.20959" lon="1.31907">
        <ele>37</ele>
        <time>2021-10-08T12:10:38Z</time>
      </trkpt>
      <trkpt lat="49.20957" lon="1.31904">
        <ele>36.6</ele>
        <time>2021-10-08T12:10:39Z</time>
      </trkpt>
      <trkpt lat="49.20948" lon="1.31902">
        <ele>36.4</ele>
        <time>2021-10-08T12:10:42Z</time>
      </trkpt>
      <trkpt lat="49.20943" lon="1.31902">
        <ele>36.4</ele>
        <time>2021-10-08T12:10:44Z</time>
      </trkpt>
      <trkpt lat="49.20941" lon="1.31896">
        <ele>36.4</ele>
        <time>2021-10-08T12:10:46Z</time>
      </trkpt>
      <trkpt lat="49.20935" lon="1.31893">
        <ele>36.4</ele>
        <time>2021-10-08T12:10:49Z</time>
      </trkpt>
      <trkpt lat="49.20933" lon="1.31891">
        <ele>36.4</ele>
        <time>2021-10-08T12:10:50Z</time>
      </trkpt>
      <trkpt lat="49.20926" lon="1.31882">
        <ele>36.8</ele>
        <time>2021-10-08T12:10:53Z</time>
      </trkpt>
      <trkpt lat="49.20919" lon="1.31872">
        <ele>37.6</ele>
        <time>2021-10-08T12:10:56Z</time>
      </trkpt>
      <trkpt lat="49.20918" lon="1.31867">
        <ele>37.6</ele>
        <time>2021-10-08T12:10:57Z</time>
      </trkpt>
      <trkpt lat="49.20916" lon="1.31861">
        <ele>37.6</ele>
        <time>2021-10-08T12:10:58Z</time>
      </trkpt>
      <trkpt lat="49.20908" lon="1.31849">
        <ele>37.8</ele>
        <time>2021-10-08T12:11:01Z</time>
      </trkpt>
      <trkpt lat="49.20901" lon="1.31837">
        <ele>37.8</ele>
        <time>2021-10-08T12:11:04Z</time>
      </trkpt>
      <trkpt lat="49.20892" lon="1.31832">
        <ele>37.8</ele>
        <time>2021-10-08T12:11:08Z</time>
      </trkpt>
      <trkpt lat="49.20882" lon="1.31827">
        <ele>37.8</ele>
        <time>2021-10-08T12:11:12Z</time>
      </trkpt>
      <trkpt lat="49.20877" lon="1.31822">
        <ele>38.4</ele>
        <time>2021-10-08T12:11:14Z</time>
      </trkpt>
      <trkpt lat="49.20866" lon="1.31813">
        <ele>38.6</ele>
        <time>2021-10-08T12:11:18Z</time>
      </trkpt>
      <trkpt lat="49.20855" lon="1.31801">
        <ele>38.6</ele>
        <time>2021-10-08T12:11:22Z</time>
      </trkpt>
      <trkpt lat="49.20852" lon="1.31799">
        <ele>38.6</ele>
        <time>2021-10-08T12:11:23Z</time>
      </trkpt>
      <trkpt lat="49.20839" lon="1.31787">
        <ele>38.8</ele>
        <time>2021-10-08T12:11:27Z</time>
      </trkpt>
      <trkpt lat="49.2083" lon="1.31777">
        <ele>38.8</ele>
        <time>2021-10-08T12:11:31Z</time>
      </trkpt>
      <trkpt lat="49.20817" lon="1.31768">
        <ele>38.8</ele>
        <time>2021-10-08T12:11:36Z</time>
      </trkpt>
      <trkpt lat="49.20808" lon="1.3176">
        <ele>39.8</ele>
        <time>2021-10-08T12:11:39Z</time>
      </trkpt>
      <trkpt lat="49.20803" lon="1.31756">
        <ele>40.2</ele>
        <time>2021-10-08T12:11:41Z</time>
      </trkpt>
      <trkpt lat="49.20799" lon="1.31754">
        <ele>40.2</ele>
        <time>2021-10-08T12:11:42Z</time>
      </trkpt>
      <trkpt lat="49.20793" lon="1.31746">
        <ele>40.4</ele>
        <time>2021-10-08T12:11:45Z</time>
      </trkpt>
      <trkpt lat="49.20792" lon="1.3173">
        <ele>40.4</ele>
        <time>2021-10-08T12:11:49Z</time>
      </trkpt>
      <trkpt lat="49.20784" lon="1.31724">
        <ele>40.2</ele>
        <time>2021-10-08T12:11:52Z</time>
      </trkpt>
      <trkpt lat="49.20782" lon="1.31722">
        <ele>40.2</ele>
        <time>2021-10-08T12:11:53Z</time>
      </trkpt>
      <trkpt lat="49.20772" lon="1.31714">
        <ele>38.6</ele>
        <time>2021-10-08T12:11:57Z</time>
      </trkpt>
      <trkpt lat="49.20754" lon="1.31718">
        <ele>37.6</ele>
        <time>2021-10-08T12:12:02Z</time>
      </trkpt>
      <trkpt lat="49.2075" lon="1.3172">
        <ele>37.6</ele>
        <time>2021-10-08T12:12:03Z</time>
      </trkpt>
      <trkpt lat="49.2074" lon="1.31726">
        <ele>37.6</ele>
        <time>2021-10-08T12:12:07Z</time>
      </trkpt>
      <trkpt lat="49.20719" lon="1.31733">
        <ele>37.8</ele>
        <time>2021-10-08T12:12:14Z</time>
      </trkpt>
      <trkpt lat="49.20699" lon="1.31738">
        <ele>38.4</ele>
        <time>2021-10-08T12:12:20Z</time>
      </trkpt>
      <trkpt lat="49.20675" lon="1.31743">
        <ele>39.4</ele>
        <time>2021-10-08T12:12:26Z</time>
      </trkpt>
      <trkpt lat="49.20671" lon="1.31744">
        <ele>39.8</ele>
        <time>2021-10-08T12:12:27Z</time>
      </trkpt>
      <trkpt lat="49.20638" lon="1.31756">
        <ele>40</ele>
        <time>2021-10-08T12:12:37Z</time>
      </trkpt>
      <trkpt lat="49.20612" lon="1.31766">
        <ele>40.4</ele>
        <time>2021-10-08T12:12:46Z</time>
      </trkpt>
      <trkpt lat="49.20604" lon="1.3177">
        <ele>40.8</ele>
        <time>2021-10-08T12:12:49Z</time>
      </trkpt>
      <trkpt lat="49.20587" lon="1.31778">
        <ele>41.6</ele>
        <time>2021-10-08T12:12:56Z</time>
      </trkpt>
      <trkpt lat="49.20582" lon="1.3178">
        <ele>41.8</ele>
        <time>2021-10-08T12:12:58Z</time>
      </trkpt>
      <trkpt lat="49.20567" lon="1.31787">
        <ele>43</ele>
        <time>2021-10-08T12:13:04Z</time>
      </trkpt>
      <trkpt lat="49.20563" lon="1.31789">
        <ele>43.4</ele>
        <time>2021-10-08T12:13:06Z</time>
      </trkpt>
      <trkpt lat="49.20552" lon="1.31794">
        <ele>44</ele>
        <time>2021-10-08T12:13:11Z</time>
      </trkpt>
      <trkpt lat="49.20548" lon="1.31797">
        <ele>44.2</ele>
        <time>2021-10-08T12:13:13Z</time>
      </trkpt>
      <trkpt lat="49.20536" lon="1.31806">
        <ele>45</ele>
        <time>2021-10-08T12:13:19Z</time>
      </trkpt>
      <trkpt lat="49.20528" lon="1.31811">
        <ele>45.6</ele>
        <time>2021-10-08T12:13:23Z</time>
      </trkpt>
      <trkpt lat="49.20517" lon="1.31818">
        <ele>46.2</ele>
        <time>2021-10-08T12:13:29Z</time>
      </trkpt>
      <trkpt lat="49.20513" lon="1.3182">
        <ele>46.6</ele>
        <time>2021-10-08T12:13:31Z</time>
      </trkpt>
      <trkpt lat="49.20506" lon="1.31824">
        <ele>47.2</ele>
        <time>2021-10-08T12:13:35Z</time>
      </trkpt>
      <trkpt lat="49.20497" lon="1.31829">
        <ele>48.2</ele>
        <time>2021-10-08T12:13:40Z</time>
      </trkpt>
      <trkpt lat="49.20495" lon="1.3183">
        <ele>48.4</ele>
        <time>2021-10-08T12:13:41Z</time>
      </trkpt>
      <trkpt lat="49.20484" lon="1.31837">
        <ele>49.6</ele>
        <time>2021-10-08T12:13:48Z</time>
      </trkpt>
      <trkpt lat="49.20482" lon="1.31838">
        <ele>49.8</ele>
        <time>2021-10-08T12:13:49Z</time>
      </trkpt>
      <trkpt lat="49.20468" lon="1.31846">
        <ele>50.8</ele>
        <time>2021-10-08T12:13:58Z</time>
      </trkpt>
      <trkpt lat="49.20466" lon="1.31847">
        <ele>50.8</ele>
        <time>2021-10-08T12:13:59Z</time>
      </trkpt>
      <trkpt lat="49.20457" lon="1.31852">
        <ele>51.4</ele>
        <time>2021-10-08T12:14:05Z</time>
      </trkpt>
      <trkpt lat="49.20452" lon="1.31855">
        <ele>51.8</ele>
        <time>2021-10-08T12:14:08Z</time>
      </trkpt>
      <trkpt lat="49.2045" lon="1.31856">
        <ele>52</ele>
        <time>2021-10-08T12:14:09Z</time>
      </trkpt>
      <trkpt lat="49.20437" lon="1.31865">
        <ele>52.8</ele>
        <time>2021-10-08T12:14:17Z</time>
      </trkpt>
      <trkpt lat="49.20432" lon="1.31867">
        <ele>53</ele>
        <time>2021-10-08T12:14:20Z</time>
      </trkpt>
      <trkpt lat="49.20424" lon="1.31872">
        <ele>53.8</ele>
        <time>2021-10-08T12:14:25Z</time>
      </trkpt>
      <trkpt lat="49.20413" lon="1.31878">
        <ele>54.4</ele>
        <time>2021-10-08T12:14:31Z</time>
      </trkpt>
      <trkpt lat="49.2041" lon="1.31881">
        <ele>54.6</ele>
        <time>2021-10-08T12:14:33Z</time>
      </trkpt>
      <trkpt lat="49.20402" lon="1.31886">
        <ele>55.4</ele>
        <time>2021-10-08T12:14:37Z</time>
      </trkpt>
      <trkpt lat="49.2039" lon="1.31893">
        <ele>56</ele>
        <time>2021-10-08T12:14:42Z</time>
      </trkpt>
      <trkpt lat="49.20382" lon="1.31897">
        <ele>56.4</ele>
        <time>2021-10-08T12:14:45Z</time>
      </trkpt>
      <trkpt lat="49.20369" lon="1.31903">
        <ele>56.8</ele>
        <time>2021-10-08T12:14:50Z</time>
      </trkpt>
      <trkpt lat="49.20348" lon="1.31912">
        <ele>57.4</ele>
        <time>2021-10-08T12:14:58Z</time>
      </trkpt>
      <trkpt lat="49.20346" lon="1.31913">
        <ele>57.6</ele>
        <time>2021-10-08T12:14:59Z</time>
      </trkpt>
      <trkpt lat="49.2033" lon="1.31919">
        <ele>58.6</ele>
        <time>2021-10-08T12:15:05Z</time>
      </trkpt>
      <trkpt lat="49.2032" lon="1.31923">
        <ele>58.8</ele>
        <time>2021-10-08T12:15:09Z</time>
      </trkpt>
      <trkpt lat="49.20303" lon="1.31926">
        <ele>59.6</ele>
        <time>2021-10-08T12:15:15Z</time>
      </trkpt>
      <trkpt lat="49.20292" lon="1.31928">
        <ele>60</ele>
        <time>2021-10-08T12:15:19Z</time>
      </trkpt>
      <trkpt lat="49.20271" lon="1.31932">
        <ele>60.8</ele>
        <time>2021-10-08T12:15:26Z</time>
      </trkpt>
      <trkpt lat="49.20268" lon="1.31933">
        <ele>61</ele>
        <time>2021-10-08T12:15:27Z</time>
      </trkpt>
      <trkpt lat="49.20246" lon="1.31939">
        <ele>61.8</ele>
        <time>2021-10-08T12:15:34Z</time>
      </trkpt>
      <trkpt lat="49.20234" lon="1.31941">
        <ele>62.6</ele>
        <time>2021-10-08T12:15:38Z</time>
      </trkpt>
      <trkpt lat="49.20228" lon="1.31943">
        <ele>63</ele>
        <time>2021-10-08T12:15:40Z</time>
      </trkpt>
      <trkpt lat="49.2021" lon="1.31948">
        <ele>63.6</ele>
        <time>2021-10-08T12:15:46Z</time>
      </trkpt>
      <trkpt lat="49.20206" lon="1.3195">
        <ele>63.8</ele>
        <time>2021-10-08T12:15:47Z</time>
      </trkpt>
      <trkpt lat="49.20199" lon="1.31953">
        <ele>64.2</ele>
        <time>2021-10-08T12:15:49Z</time>
      </trkpt>
      <trkpt lat="49.20178" lon="1.31965">
        <ele>65</ele>
        <time>2021-10-08T12:15:55Z</time>
      </trkpt>
      <trkpt lat="49.20152" lon="1.31984">
        <ele>65.2</ele>
        <time>2021-10-08T12:16:03Z</time>
      </trkpt>
      <trkpt lat="49.20137" lon="1.31999">
        <ele>65.4</ele>
        <time>2021-10-08T12:16:08Z</time>
      </trkpt>
      <trkpt lat="49.20134" lon="1.32002">
        <ele>65.4</ele>
        <time>2021-10-08T12:16:09Z</time>
      </trkpt>
      <trkpt lat="49.20112" lon="1.32018">
        <ele>66.2</ele>
        <time>2021-10-08T12:16:16Z</time>
      </trkpt>
      <trkpt lat="49.20103" lon="1.32021">
        <ele>66.4</ele>
        <time>2021-10-08T12:16:19Z</time>
      </trkpt>
      <trkpt lat="49.20083" lon="1.32027">
        <ele>67.4</ele>
        <time>2021-10-08T12:16:25Z</time>
      </trkpt>
      <trkpt lat="49.2007" lon="1.3203">
        <ele>68.6</ele>
        <time>2021-10-08T12:16:29Z</time>
      </trkpt>
      <trkpt lat="49.20054" lon="1.32035">
        <ele>69.6</ele>
        <time>2021-10-08T12:16:34Z</time>
      </trkpt>
      <trkpt lat="49.20035" lon="1.32046">
        <ele>70.8</ele>
        <time>2021-10-08T12:16:40Z</time>
      </trkpt>
      <trkpt lat="49.20032" lon="1.32047">
        <ele>71</ele>
        <time>2021-10-08T12:16:41Z</time>
      </trkpt>
      <trkpt lat="49.20022" lon="1.32056">
        <ele>71.2</ele>
        <time>2021-10-08T12:16:45Z</time>
      </trkpt>
      <trkpt lat="49.2001" lon="1.32056">
        <ele>71.2</ele>
        <time>2021-10-08T12:16:49Z</time>
      </trkpt>
      <trkpt lat="49.20009" lon="1.32053">
        <ele>71.2</ele>
        <time>2021-10-08T12:16:50Z</time>
      </trkpt>
      <trkpt lat="49.20009" lon="1.32044">
        <ele>71.4</ele>
        <time>2021-10-08T12:16:52Z</time>
      </trkpt>
      <trkpt lat="49.20012" lon="1.32033">
        <ele>71.6</ele>
        <time>2021-10-08T12:16:54Z</time>
      </trkpt>
      <trkpt lat="49.20016" lon="1.32022">
        <ele>72.4</ele>
        <time>2021-10-08T12:16:56Z</time>
      </trkpt>
      <trkpt lat="49.20018" lon="1.32017">
        <ele>72.8</ele>
        <time>2021-10-08T12:16:57Z</time>
      </trkpt>
      <trkpt lat="49.20026" lon="1.32">
        <ele>73.2</ele>
        <time>2021-10-08T12:17:00Z</time>
      </trkpt>
      <trkpt lat="49.2003" lon="1.31988">
        <ele>73.4</ele>
        <time>2021-10-08T12:17:02Z</time>
      </trkpt>
      <trkpt lat="49.20024" lon="1.31973">
        <ele>73.4</ele>
        <time>2021-10-08T12:17:05Z</time>
      </trkpt>
      <trkpt lat="49.20013" lon="1.31966">
        <ele>73.2</ele>
        <time>2021-10-08T12:17:08Z</time>
      </trkpt>
      <trkpt lat="49.20006" lon="1.31962">
        <ele>73.2</ele>
        <time>2021-10-08T12:17:10Z</time>
      </trkpt>
      <trkpt lat="49.19976" lon="1.31947">
        <ele>73</ele>
        <time>2021-10-08T12:17:19Z</time>
      </trkpt>
      <trkpt lat="49.19945" lon="1.3193">
        <ele>73.6</ele>
        <time>2021-10-08T12:17:28Z</time>
      </trkpt>
      <trkpt lat="49.19914" lon="1.31913">
        <ele>74.4</ele>
        <time>2021-10-08T12:17:37Z</time>
      </trkpt>
      <trkpt lat="49.19911" lon="1.31911">
        <ele>74.6</ele>
        <time>2021-10-08T12:17:38Z</time>
      </trkpt>
      <trkpt lat="49.19893" lon="1.31891">
        <ele>75</ele>
        <time>2021-10-08T12:17:44Z</time>
      </trkpt>
      <trkpt lat="49.19892" lon="1.31885">
        <ele>75</ele>
        <time>2021-10-08T12:17:45Z</time>
      </trkpt>
      <trkpt lat="49.19894" lon="1.31872">
        <ele>75.4</ele>
        <time>2021-10-08T12:17:47Z</time>
      </trkpt>
      <trkpt lat="49.19899" lon="1.31861">
        <ele>75.6</ele>
        <time>2021-10-08T12:17:49Z</time>
      </trkpt>
      <trkpt lat="49.19905" lon="1.31849">
        <ele>75.6</ele>
        <time>2021-10-08T12:17:51Z</time>
      </trkpt>
      <trkpt lat="49.19908" lon="1.31843">
        <ele>75.6</ele>
        <time>2021-10-08T12:17:52Z</time>
      </trkpt>
      <trkpt lat="49.19911" lon="1.31837">
        <ele>75.6</ele>
        <time>2021-10-08T12:17:53Z</time>
      </trkpt>
      <trkpt lat="49.19918" lon="1.31825">
        <ele>75.6</ele>
        <time>2021-10-08T12:17:55Z</time>
      </trkpt>
      <trkpt lat="49.19924" lon="1.31812">
        <ele>75.6</ele>
        <time>2021-10-08T12:17:57Z</time>
      </trkpt>
      <trkpt lat="49.19926" lon="1.31804">
        <ele>75.6</ele>
        <time>2021-10-08T12:17:58Z</time>
      </trkpt>
      <trkpt lat="49.19928" lon="1.31786">
        <ele>75.6</ele>
        <time>2021-10-08T12:18:00Z</time>
      </trkpt>
      <trkpt lat="49.19922" lon="1.31759">
        <ele>75.4</ele>
        <time>2021-10-08T12:18:03Z</time>
      </trkpt>
      <trkpt lat="49.19915" lon="1.31746">
        <ele>75.2</ele>
        <time>2021-10-08T12:18:05Z</time>
      </trkpt>
      <trkpt lat="49.19908" lon="1.31734">
        <ele>74.6</ele>
        <time>2021-10-08T12:18:07Z</time>
      </trkpt>
      <trkpt lat="49.19905" lon="1.31728">
        <ele>74</ele>
        <time>2021-10-08T12:18:08Z</time>
      </trkpt>
      <trkpt lat="49.19883" lon="1.31691">
        <ele>73.6</ele>
        <time>2021-10-08T12:18:15Z</time>
      </trkpt>
      <trkpt lat="49.19869" lon="1.31671">
        <ele>73.8</ele>
        <time>2021-10-08T12:18:19Z</time>
      </trkpt>
      <trkpt lat="49.19852" lon="1.31656">
        <ele>74.4</ele>
        <time>2021-10-08T12:18:23Z</time>
      </trkpt>
      <trkpt lat="49.19819" lon="1.31625">
        <ele>75</ele>
        <time>2021-10-08T12:18:31Z</time>
      </trkpt>
      <trkpt lat="49.19799" lon="1.31606">
        <ele>75.6</ele>
        <time>2021-10-08T12:18:36Z</time>
      </trkpt>
      <trkpt lat="49.19788" lon="1.31592">
        <ele>76.4</ele>
        <time>2021-10-08T12:18:39Z</time>
      </trkpt>
      <trkpt lat="49.19781" lon="1.31582">
        <ele>76.6</ele>
        <time>2021-10-08T12:18:41Z</time>
      </trkpt>
      <trkpt lat="49.19771" lon="1.31567">
        <ele>77</ele>
        <time>2021-10-08T12:18:44Z</time>
      </trkpt>
      <trkpt lat="49.19765" lon="1.31557">
        <ele>77.2</ele>
        <time>2021-10-08T12:18:46Z</time>
      </trkpt>
      <trkpt lat="49.19742" lon="1.31522">
        <ele>78</ele>
        <time>2021-10-08T12:18:53Z</time>
      </trkpt>
      <trkpt lat="49.19736" lon="1.31512">
        <ele>78.2</ele>
        <time>2021-10-08T12:18:55Z</time>
      </trkpt>
      <trkpt lat="49.19734" lon="1.31506">
        <ele>78.2</ele>
        <time>2021-10-08T12:18:56Z</time>
      </trkpt>
      <trkpt lat="49.19731" lon="1.31497">
        <ele>78.4</ele>
        <time>2021-10-08T12:18:58Z</time>
      </trkpt>
      <trkpt lat="49.19726" lon="1.31499">
        <ele>78.8</ele>
        <time>2021-10-08T12:19:01Z</time>
      </trkpt>
      <trkpt lat="49.19725" lon="1.31531">
        <ele>78.8</ele>
        <time>2021-10-08T12:19:07Z</time>
      </trkpt>
      <trkpt lat="49.1972" lon="1.31588">
        <ele>78.8</ele>
        <time>2021-10-08T12:19:17Z</time>
      </trkpt>
      <trkpt lat="49.19711" lon="1.31655">
        <ele>78.4</ele>
        <time>2021-10-08T12:19:29Z</time>
      </trkpt>
      <trkpt lat="49.19699" lon="1.317">
        <ele>78.4</ele>
        <time>2021-10-08T12:19:37Z</time>
      </trkpt>
      <trkpt lat="49.1968" lon="1.31756">
        <ele>78.6</ele>
        <time>2021-10-08T12:19:47Z</time>
      </trkpt>
      <trkpt lat="49.19666" lon="1.31798">
        <ele>79</ele>
        <time>2021-10-08T12:19:55Z</time>
      </trkpt>
      <trkpt lat="49.19665" lon="1.31803">
        <ele>79</ele>
        <time>2021-10-08T12:19:56Z</time>
      </trkpt>
      <trkpt lat="49.1967" lon="1.3183">
        <ele>79.8</ele>
        <time>2021-10-08T12:20:01Z</time>
      </trkpt>
      <trkpt lat="49.19674" lon="1.31841">
        <ele>80</ele>
        <time>2021-10-08T12:20:03Z</time>
      </trkpt>
      <trkpt lat="49.19683" lon="1.31876">
        <ele>80.2</ele>
        <time>2021-10-08T12:20:09Z</time>
      </trkpt>
      <trkpt lat="49.19686" lon="1.31924">
        <ele>80</ele>
        <time>2021-10-08T12:20:17Z</time>
      </trkpt>
      <trkpt lat="49.19682" lon="1.31976">
        <ele>79.4</ele>
        <time>2021-10-08T12:20:26Z</time>
      </trkpt>
      <trkpt lat="49.19677" lon="1.32011">
        <ele>79.4</ele>
        <time>2021-10-08T12:20:32Z</time>
      </trkpt>
      <trkpt lat="49.19661" lon="1.32076">
        <ele>79.6</ele>
        <time>2021-10-08T12:20:43Z</time>
      </trkpt>
      <trkpt lat="49.19644" lon="1.32132">
        <ele>79.8</ele>
        <time>2021-10-08T12:20:53Z</time>
      </trkpt>
      <trkpt lat="49.19628" lon="1.32174">
        <ele>80.6</ele>
        <time>2021-10-08T12:21:01Z</time>
      </trkpt>
      <trkpt lat="49.19625" lon="1.32179">
        <ele>80.6</ele>
        <time>2021-10-08T12:21:02Z</time>
      </trkpt>
      <trkpt lat="49.19612" lon="1.32209">
        <ele>81</ele>
        <time>2021-10-08T12:21:08Z</time>
      </trkpt>
      <trkpt lat="49.19602" lon="1.32242">
        <ele>81.2</ele>
        <time>2021-10-08T12:21:14Z</time>
      </trkpt>
      <trkpt lat="49.19599" lon="1.32247">
        <ele>81.4</ele>
        <time>2021-10-08T12:21:15Z</time>
      </trkpt>
      <trkpt lat="49.19596" lon="1.32251">
        <ele>81.4</ele>
        <time>2021-10-08T12:21:16Z</time>
      </trkpt>
      <trkpt lat="49.19582" lon="1.32271">
        <ele>81.6</ele>
        <time>2021-10-08T12:21:21Z</time>
      </trkpt>
      <trkpt lat="49.19566" lon="1.32305">
        <ele>82</ele>
        <time>2021-10-08T12:21:28Z</time>
      </trkpt>
      <trkpt lat="49.19553" lon="1.32333">
        <ele>82.2</ele>
        <time>2021-10-08T12:21:33Z</time>
      </trkpt>
      <trkpt lat="49.19544" lon="1.32348">
        <ele>82.4</ele>
        <time>2021-10-08T12:21:36Z</time>
      </trkpt>
      <trkpt lat="49.19539" lon="1.32358">
        <ele>82.6</ele>
        <time>2021-10-08T12:21:38Z</time>
      </trkpt>
      <trkpt lat="49.19532" lon="1.32383">
        <ele>82.8</ele>
        <time>2021-10-08T12:21:42Z</time>
      </trkpt>
      <trkpt lat="49.19514" lon="1.32426">
        <ele>82.8</ele>
        <time>2021-10-08T12:21:49Z</time>
      </trkpt>
      <trkpt lat="49.19499" lon="1.32464">
        <ele>82.4</ele>
        <time>2021-10-08T12:21:55Z</time>
      </trkpt>
      <trkpt lat="49.19482" lon="1.32506">
        <ele>82.2</ele>
        <time>2021-10-08T12:22:02Z</time>
      </trkpt>
      <trkpt lat="49.19473" lon="1.32507">
        <ele>82.2</ele>
        <time>2021-10-08T12:22:04Z</time>
      </trkpt>
      <trkpt lat="49.19465" lon="1.32499">
        <ele>82.2</ele>
        <time>2021-10-08T12:22:06Z</time>
      </trkpt>
      <trkpt lat="49.19457" lon="1.32489">
        <ele>82.4</ele>
        <time>2021-10-08T12:22:08Z</time>
      </trkpt>
      <trkpt lat="49.19421" lon="1.32451">
        <ele>83</ele>
        <time>2021-10-08T12:22:16Z</time>
      </trkpt>
      <trkpt lat="49.19408" lon="1.3244">
        <ele>83.4</ele>
        <time>2021-10-08T12:22:19Z</time>
      </trkpt>
      <trkpt lat="49.19399" lon="1.32439">
        <ele>83.6</ele>
        <time>2021-10-08T12:22:21Z</time>
      </trkpt>
      <trkpt lat="49.19392" lon="1.32455">
        <ele>84</ele>
        <time>2021-10-08T12:22:24Z</time>
      </trkpt>
      <trkpt lat="49.19388" lon="1.32469">
        <ele>84.6</ele>
        <time>2021-10-08T12:22:26Z</time>
      </trkpt>
      <trkpt lat="49.19378" lon="1.32503">
        <ele>85.2</ele>
        <time>2021-10-08T12:22:31Z</time>
      </trkpt>
      <trkpt lat="49.19364" lon="1.32547">
        <ele>85.6</ele>
        <time>2021-10-08T12:22:38Z</time>
      </trkpt>
      <trkpt lat="49.1935" lon="1.3259">
        <ele>86.6</ele>
        <time>2021-10-08T12:22:44Z</time>
      </trkpt>
      <trkpt lat="49.19348" lon="1.32598">
        <ele>86.8</ele>
        <time>2021-10-08T12:22:45Z</time>
      </trkpt>
      <trkpt lat="49.19337" lon="1.32632">
        <ele>87.4</ele>
        <time>2021-10-08T12:22:50Z</time>
      </trkpt>
      <trkpt lat="49.19333" lon="1.32644">
        <ele>87.4</ele>
        <time>2021-10-08T12:22:52Z</time>
      </trkpt>
      <trkpt lat="49.19326" lon="1.32651">
        <ele>87.6</ele>
        <time>2021-10-08T12:22:54Z</time>
      </trkpt>
      <trkpt lat="49.19314" lon="1.32646">
        <ele>87.8</ele>
        <time>2021-10-08T12:22:57Z</time>
      </trkpt>
      <trkpt lat="49.1931" lon="1.32644">
        <ele>88</ele>
        <time>2021-10-08T12:22:58Z</time>
      </trkpt>
      <trkpt lat="49.19287" lon="1.32633">
        <ele>89</ele>
        <time>2021-10-08T12:23:04Z</time>
      </trkpt>
      <trkpt lat="49.19283" lon="1.32631">
        <ele>89.4</ele>
        <time>2021-10-08T12:23:05Z</time>
      </trkpt>
      <trkpt lat="49.19259" lon="1.32623">
        <ele>90.2</ele>
        <time>2021-10-08T12:23:11Z</time>
      </trkpt>
      <trkpt lat="49.19255" lon="1.32622">
        <ele>90.4</ele>
        <time>2021-10-08T12:23:12Z</time>
      </trkpt>
      <trkpt lat="49.1924" lon="1.32623">
        <ele>91.2</ele>
        <time>2021-10-08T12:23:16Z</time>
      </trkpt>
      <trkpt lat="49.19234" lon="1.32627">
        <ele>91.4</ele>
        <time>2021-10-08T12:23:18Z</time>
      </trkpt>
      <trkpt lat="49.19224" lon="1.32644">
        <ele>92.2</ele>
        <time>2021-10-08T12:23:22Z</time>
      </trkpt>
      <trkpt lat="49.19218" lon="1.32653">
        <ele>92.4</ele>
        <time>2021-10-08T12:23:24Z</time>
      </trkpt>
      <trkpt lat="49.1921" lon="1.32665">
        <ele>93.4</ele>
        <time>2021-10-08T12:23:27Z</time>
      </trkpt>
      <trkpt lat="49.19199" lon="1.32683">
        <ele>94.6</ele>
        <time>2021-10-08T12:23:31Z</time>
      </trkpt>
      <trkpt lat="49.19196" lon="1.32688">
        <ele>94.8</ele>
        <time>2021-10-08T12:23:32Z</time>
      </trkpt>
      <trkpt lat="49.19192" lon="1.32711">
        <ele>95.4</ele>
        <time>2021-10-08T12:23:36Z</time>
      </trkpt>
      <trkpt lat="49.19192" lon="1.32717">
        <ele>95.6</ele>
        <time>2021-10-08T12:23:37Z</time>
      </trkpt>
      <trkpt lat="49.19188" lon="1.32769">
        <ele>96.6</ele>
        <time>2021-10-08T12:23:45Z</time>
      </trkpt>
      <trkpt lat="49.19187" lon="1.32782">
        <ele>96.8</ele>
        <time>2021-10-08T12:23:47Z</time>
      </trkpt>
      <trkpt lat="49.19179" lon="1.32836">
        <ele>97.8</ele>
        <time>2021-10-08T12:23:55Z</time>
      </trkpt>
      <trkpt lat="49.19176" lon="1.32856">
        <ele>98.2</ele>
        <time>2021-10-08T12:23:58Z</time>
      </trkpt>
      <trkpt lat="49.19172" lon="1.32875">
        <ele>98.6</ele>
        <time>2021-10-08T12:24:01Z</time>
      </trkpt>
      <trkpt lat="49.19174" lon="1.3288">
        <ele>98.8</ele>
        <time>2021-10-08T12:24:02Z</time>
      </trkpt>
      <trkpt lat="49.19177" lon="1.32884">
        <ele>98.8</ele>
        <time>2021-10-08T12:24:03Z</time>
      </trkpt>
      <trkpt lat="49.19186" lon="1.32888">
        <ele>99</ele>
        <time>2021-10-08T12:24:05Z</time>
      </trkpt>
      <trkpt lat="49.19197" lon="1.32892">
        <ele>99</ele>
        <time>2021-10-08T12:24:07Z</time>
      </trkpt>
      <trkpt lat="49.19217" lon="1.32898">
        <ele>99</ele>
        <time>2021-10-08T12:24:10Z</time>
      </trkpt>
      <trkpt lat="49.19248" lon="1.32909">
        <ele>98.4</ele>
        <time>2021-10-08T12:24:15Z</time>
      </trkpt>
      <trkpt lat="49.19251" lon="1.32913">
        <ele>97.8</ele>
        <time>2021-10-08T12:24:16Z</time>
      </trkpt>
      <trkpt lat="49.19252" lon="1.32921">
        <ele>96.6</ele>
        <time>2021-10-08T12:24:18Z</time>
      </trkpt>
      <trkpt lat="49.1925" lon="1.32931">
        <ele>95.6</ele>
        <time>2021-10-08T12:24:20Z</time>
      </trkpt>
      <trkpt lat="49.19248" lon="1.32948">
        <ele>95</ele>
        <time>2021-10-08T12:24:23Z</time>
      </trkpt>
      <trkpt lat="49.19248" lon="1.32954">
        <ele>95</ele>
        <time>2021-10-08T12:24:24Z</time>
      </trkpt>
      <trkpt lat="49.19255" lon="1.3297">
        <ele>94.6</ele>
        <time>2021-10-08T12:24:27Z</time>
      </trkpt>
      <trkpt lat="49.19268" lon="1.32984">
        <ele>94.4</ele>
        <time>2021-10-08T12:24:30Z</time>
      </trkpt>
      <trkpt lat="49.19273" lon="1.32988">
        <ele>94.4</ele>
        <time>2021-10-08T12:24:31Z</time>
      </trkpt>
      <trkpt lat="49.19298" lon="1.32996">
        <ele>94</ele>
        <time>2021-10-08T12:24:35Z</time>
      </trkpt>
      <trkpt lat="49.1931" lon="1.33">
        <ele>93.2</ele>
        <time>2021-10-08T12:24:37Z</time>
      </trkpt>
      <trkpt lat="49.19332" lon="1.33006">
        <ele>92.2</ele>
        <time>2021-10-08T12:24:40Z</time>
      </trkpt>
      <trkpt lat="49.1934" lon="1.33008">
        <ele>92</ele>
        <time>2021-10-08T12:24:41Z</time>
      </trkpt>
      <trkpt lat="49.1937" lon="1.33018">
        <ele>90.8</ele>
        <time>2021-10-08T12:24:45Z</time>
      </trkpt>
      <trkpt lat="49.19376" lon="1.33023">
        <ele>90.6</ele>
        <time>2021-10-08T12:24:46Z</time>
      </trkpt>
      <trkpt lat="49.19385" lon="1.33035">
        <ele>89.8</ele>
        <time>2021-10-08T12:24:48Z</time>
      </trkpt>
      <trkpt lat="49.19397" lon="1.3305">
        <ele>88.8</ele>
        <time>2021-10-08T12:24:51Z</time>
      </trkpt>
      <trkpt lat="49.19395" lon="1.33062">
        <ele>88</ele>
        <time>2021-10-08T12:24:54Z</time>
      </trkpt>
      <trkpt lat="49.19393" lon="1.33066">
        <ele>88</ele>
        <time>2021-10-08T12:24:55Z</time>
      </trkpt>
      <trkpt lat="49.19387" lon="1.33084">
        <ele>87.8</ele>
        <time>2021-10-08T12:24:58Z</time>
      </trkpt>
      <trkpt lat="49.19369" lon="1.33132">
        <ele>87.6</ele>
        <time>2021-10-08T12:25:05Z</time>
      </trkpt>
      <trkpt lat="49.19365" lon="1.33146">
        <ele>87.6</ele>
        <time>2021-10-08T12:25:07Z</time>
      </trkpt>
      <trkpt lat="49.19363" lon="1.33163">
        <ele>87.6</ele>
        <time>2021-10-08T12:25:09Z</time>
      </trkpt>
      <trkpt lat="49.1936" lon="1.33196">
        <ele>87.6</ele>
        <time>2021-10-08T12:25:13Z</time>
      </trkpt>
      <trkpt lat="49.19363" lon="1.33203">
        <ele>87.6</ele>
        <time>2021-10-08T12:25:14Z</time>
      </trkpt>
      <trkpt lat="49.19373" lon="1.33216">
        <ele>87</ele>
        <time>2021-10-08T12:25:17Z</time>
      </trkpt>
      <trkpt lat="49.19373" lon="1.33224">
        <ele>86.6</ele>
        <time>2021-10-08T12:25:19Z</time>
      </trkpt>
      <trkpt lat="49.1937" lon="1.33226">
        <ele>86.4</ele>
        <time>2021-10-08T12:25:20Z</time>
      </trkpt>
      <trkpt lat="49.19357" lon="1.33228">
        <ele>86.2</ele>
        <time>2021-10-08T12:25:23Z</time>
      </trkpt>
      <trkpt lat="49.19337" lon="1.33228">
        <ele>86</ele>
        <time>2021-10-08T12:25:26Z</time>
      </trkpt>
      <trkpt lat="49.1933" lon="1.33229">
        <ele>85.8</ele>
        <time>2021-10-08T12:25:27Z</time>
      </trkpt>
      <trkpt lat="49.19314" lon="1.33231">
        <ele>85.2</ele>
        <time>2021-10-08T12:25:29Z</time>
      </trkpt>
      <trkpt lat="49.19297" lon="1.33232">
        <ele>83.6</ele>
        <time>2021-10-08T12:25:31Z</time>
      </trkpt>
      <trkpt lat="49.19287" lon="1.33233">
        <ele>82.6</ele>
        <time>2021-10-08T12:25:32Z</time>
      </trkpt>
      <trkpt lat="49.19277" lon="1.33234">
        <ele>81.4</ele>
        <time>2021-10-08T12:25:33Z</time>
      </trkpt>
      <trkpt lat="49.19267" lon="1.33234">
        <ele>79.8</ele>
        <time>2021-10-08T12:25:34Z</time>
      </trkpt>
      <trkpt lat="49.19257" lon="1.33235">
        <ele>77.8</ele>
        <time>2021-10-08T12:25:35Z</time>
      </trkpt>
      <trkpt lat="49.19248" lon="1.33236">
        <ele>75.6</ele>
        <time>2021-10-08T12:25:36Z</time>
      </trkpt>
      <trkpt lat="49.19237" lon="1.33236">
        <ele>73.2</ele>
        <time>2021-10-08T12:25:37Z</time>
      </trkpt>
      <trkpt lat="49.19226" lon="1.33237">
        <ele>71</ele>
        <time>2021-10-08T12:25:38Z</time>
      </trkpt>
      <trkpt lat="49.19215" lon="1.33239">
        <ele>68.8</ele>
        <time>2021-10-08T12:25:39Z</time>
      </trkpt>
      <trkpt lat="49.19203" lon="1.3324">
        <ele>67.2</ele>
        <time>2021-10-08T12:25:40Z</time>
      </trkpt>
      <trkpt lat="49.19192" lon="1.33242">
        <ele>65.2</ele>
        <time>2021-10-08T12:25:41Z</time>
      </trkpt>
      <trkpt lat="49.19181" lon="1.33244">
        <ele>63.6</ele>
        <time>2021-10-08T12:25:42Z</time>
      </trkpt>
      <trkpt lat="49.1917" lon="1.33246">
        <ele>61.8</ele>
        <time>2021-10-08T12:25:43Z</time>
      </trkpt>
      <trkpt lat="49.19159" lon="1.33247">
        <ele>59.8</ele>
        <time>2021-10-08T12:25:44Z</time>
      </trkpt>
      <trkpt lat="49.19149" lon="1.33249">
        <ele>58.2</ele>
        <time>2021-10-08T12:25:45Z</time>
      </trkpt>
      <trkpt lat="49.19139" lon="1.3325">
        <ele>56.4</ele>
        <time>2021-10-08T12:25:46Z</time>
      </trkpt>
      <trkpt lat="49.19131" lon="1.33251">
        <ele>54.4</ele>
        <time>2021-10-08T12:25:47Z</time>
      </trkpt>
      <trkpt lat="49.19124" lon="1.33252">
        <ele>52.2</ele>
        <time>2021-10-08T12:25:48Z</time>
      </trkpt>
      <trkpt lat="49.19119" lon="1.33254">
        <ele>49.8</ele>
        <time>2021-10-08T12:25:49Z</time>
      </trkpt>
      <trkpt lat="49.19114" lon="1.33255">
        <ele>48</ele>
        <time>2021-10-08T12:25:50Z</time>
      </trkpt>
      <trkpt lat="49.19111" lon="1.33257">
        <ele>46.2</ele>
        <time>2021-10-08T12:25:51Z</time>
      </trkpt>
      <trkpt lat="49.19107" lon="1.33258">
        <ele>44.4</ele>
        <time>2021-10-08T12:25:52Z</time>
      </trkpt>
      <trkpt lat="49.19102" lon="1.33259">
        <ele>43</ele>
        <time>2021-10-08T12:25:53Z</time>
      </trkpt>
      <trkpt lat="49.19097" lon="1.33261">
        <ele>41.8</ele>
        <time>2021-10-08T12:25:54Z</time>
      </trkpt>
      <trkpt lat="49.1909" lon="1.33262">
        <ele>40</ele>
        <time>2021-10-08T12:25:55Z</time>
      </trkpt>
      <trkpt lat="49.19052" lon="1.33271">
        <ele>39</ele>
        <time>2021-10-08T12:26:00Z</time>
      </trkpt>
      <trkpt lat="49.19044" lon="1.33272">
        <ele>38.4</ele>
        <time>2021-10-08T12:26:01Z</time>
      </trkpt>
      <trkpt lat="49.19026" lon="1.33274">
        <ele>37</ele>
        <time>2021-10-08T12:26:03Z</time>
      </trkpt>
      <trkpt lat="49.19018" lon="1.33276">
        <ele>36.4</ele>
        <time>2021-10-08T12:26:04Z</time>
      </trkpt>
      <trkpt lat="49.19009" lon="1.33279">
        <ele>35.4</ele>
        <time>2021-10-08T12:26:05Z</time>
      </trkpt>
      <trkpt lat="49.19" lon="1.33284">
        <ele>34.4</ele>
        <time>2021-10-08T12:26:06Z</time>
      </trkpt>
      <trkpt lat="49.18991" lon="1.3329">
        <ele>33.2</ele>
        <time>2021-10-08T12:26:07Z</time>
      </trkpt>
      <trkpt lat="49.18977" lon="1.33305">
        <ele>31.8</ele>
        <time>2021-10-08T12:26:09Z</time>
      </trkpt>
      <trkpt lat="49.18964" lon="1.33338">
        <ele>30.2</ele>
        <time>2021-10-08T12:26:12Z</time>
      </trkpt>
      <trkpt lat="49.18957" lon="1.33359">
        <ele>28.6</ele>
        <time>2021-10-08T12:26:14Z</time>
      </trkpt>
      <trkpt lat="49.18951" lon="1.3338">
        <ele>26.8</ele>
        <time>2021-10-08T12:26:16Z</time>
      </trkpt>
      <trkpt lat="49.18948" lon="1.3339">
        <ele>26.2</ele>
        <time>2021-10-08T12:26:17Z</time>
      </trkpt>
      <trkpt lat="49.18945" lon="1.33399">
        <ele>25.6</ele>
        <time>2021-10-08T12:26:18Z</time>
      </trkpt>
      <trkpt lat="49.18932" lon="1.33421">
        <ele>24.8</ele>
        <time>2021-10-08T12:26:21Z</time>
      </trkpt>
      <trkpt lat="49.18926" lon="1.33425">
        <ele>24.6</ele>
        <time>2021-10-08T12:26:22Z</time>
      </trkpt>
      <trkpt lat="49.18913" lon="1.33427">
        <ele>24.2</ele>
        <time>2021-10-08T12:26:24Z</time>
      </trkpt>
      <trkpt lat="49.18907" lon="1.33427">
        <ele>24.2</ele>
        <time>2021-10-08T12:26:25Z</time>
      </trkpt>
      <trkpt lat="49.1889" lon="1.33425">
        <ele>24.2</ele>
        <time>2021-10-08T12:26:28Z</time>
      </trkpt>
      <trkpt lat="49.18885" lon="1.33421">
        <ele>24.2</ele>
        <time>2021-10-08T12:26:29Z</time>
      </trkpt>
      <trkpt lat="49.18881" lon="1.33418">
        <ele>24.2</ele>
        <time>2021-10-08T12:26:30Z</time>
      </trkpt>
      <trkpt lat="49.18869" lon="1.33414">
        <ele>24.6</ele>
        <time>2021-10-08T12:26:33Z</time>
      </trkpt>
      <trkpt lat="49.1885" lon="1.33424">
        <ele>24.6</ele>
        <time>2021-10-08T12:26:37Z</time>
      </trkpt>
      <trkpt lat="49.18839" lon="1.33431">
        <ele>24.6</ele>
        <time>2021-10-08T12:26:39Z</time>
      </trkpt>
      <trkpt lat="49.18822" lon="1.3344">
        <ele>24.6</ele>
        <time>2021-10-08T12:26:42Z</time>
      </trkpt>
      <trkpt lat="49.18789" lon="1.33458">
        <ele>24.6</ele>
        <time>2021-10-08T12:26:48Z</time>
      </trkpt>
      <trkpt lat="49.1876" lon="1.33476">
        <ele>24.6</ele>
        <time>2021-10-08T12:26:53Z</time>
      </trkpt>
      <trkpt lat="49.18734" lon="1.33495">
        <ele>25</ele>
        <time>2021-10-08T12:26:58Z</time>
      </trkpt>
      <trkpt lat="49.18725" lon="1.33504">
        <ele>25</ele>
        <time>2021-10-08T12:27:00Z</time>
      </trkpt>
      <trkpt lat="49.18703" lon="1.33524">
        <ele>25.2</ele>
        <time>2021-10-08T12:27:05Z</time>
      </trkpt>
      <trkpt lat="49.18682" lon="1.33542">
        <ele>25.2</ele>
        <time>2021-10-08T12:27:10Z</time>
      </trkpt>
      <trkpt lat="49.18678" lon="1.33547">
        <ele>25.2</ele>
        <time>2021-10-08T12:27:11Z</time>
      </trkpt>
      <trkpt lat="49.18649" lon="1.33574">
        <ele>25.4</ele>
        <time>2021-10-08T12:27:18Z</time>
      </trkpt>
      <trkpt lat="49.18623" lon="1.33609">
        <ele>25.6</ele>
        <time>2021-10-08T12:27:25Z</time>
      </trkpt>
      <trkpt lat="49.18619" lon="1.33614">
        <ele>25.6</ele>
        <time>2021-10-08T12:27:26Z</time>
      </trkpt>
      <trkpt lat="49.18608" lon="1.33627">
        <ele>25.6</ele>
        <time>2021-10-08T12:27:29Z</time>
      </trkpt>
      <trkpt lat="49.18605" lon="1.33631">
        <ele>25.8</ele>
        <time>2021-10-08T12:27:30Z</time>
      </trkpt>
      <trkpt lat="49.18586" lon="1.33653">
        <ele>26.2</ele>
        <time>2021-10-08T12:27:35Z</time>
      </trkpt>
      <trkpt lat="49.18582" lon="1.33658">
        <ele>26.2</ele>
        <time>2021-10-08T12:27:36Z</time>
      </trkpt>
      <trkpt lat="49.18555" lon="1.33688">
        <ele>26.2</ele>
        <time>2021-10-08T12:27:42Z</time>
      </trkpt>
      <trkpt lat="49.18523" lon="1.33725">
        <ele>26.2</ele>
        <time>2021-10-08T12:27:48Z</time>
      </trkpt>
      <trkpt lat="49.18493" lon="1.33765">
        <ele>26.2</ele>
        <time>2021-10-08T12:27:54Z</time>
      </trkpt>
      <trkpt lat="49.18464" lon="1.33803">
        <ele>26.2</ele>
        <time>2021-10-08T12:28:00Z</time>
      </trkpt>
      <trkpt lat="49.18437" lon="1.33842">
        <ele>26</ele>
        <time>2021-10-08T12:28:06Z</time>
      </trkpt>
      <trkpt lat="49.18414" lon="1.33879">
        <ele>26.2</ele>
        <time>2021-10-08T12:28:12Z</time>
      </trkpt>
      <trkpt lat="49.18389" lon="1.33921">
        <ele>26.2</ele>
        <time>2021-10-08T12:28:19Z</time>
      </trkpt>
      <trkpt lat="49.18384" lon="1.3393">
        <ele>26.2</ele>
        <time>2021-10-08T12:28:21Z</time>
      </trkpt>
      <trkpt lat="49.1838" lon="1.33932">
        <ele>26.2</ele>
        <time>2021-10-08T12:28:22Z</time>
      </trkpt>
      <trkpt lat="49.18373" lon="1.33939">
        <ele>26.2</ele>
        <time>2021-10-08T12:28:25Z</time>
      </trkpt>
      <trkpt lat="49.18372" lon="1.33949">
        <ele>26.4</ele>
        <time>2021-10-08T12:28:28Z</time>
      </trkpt>
      <trkpt lat="49.18364" lon="1.33963">
        <ele>26.6</ele>
        <time>2021-10-08T12:28:31Z</time>
      </trkpt>
      <trkpt lat="49.18361" lon="1.33969">
        <ele>26.8</ele>
        <time>2021-10-08T12:28:32Z</time>
      </trkpt>
      <trkpt lat="49.18352" lon="1.33989">
        <ele>26.8</ele>
        <time>2021-10-08T12:28:35Z</time>
      </trkpt>
      <trkpt lat="49.18342" lon="1.34007">
        <ele>26.8</ele>
        <time>2021-10-08T12:28:38Z</time>
      </trkpt>
      <trkpt lat="49.18317" lon="1.34058">
        <ele>26.2</ele>
        <time>2021-10-08T12:28:45Z</time>
      </trkpt>
      <trkpt lat="49.18293" lon="1.34107">
        <ele>26</ele>
        <time>2021-10-08T12:28:52Z</time>
      </trkpt>
      <trkpt lat="49.18262" lon="1.34171">
        <ele>25.8</ele>
        <time>2021-10-08T12:29:01Z</time>
      </trkpt>
      <trkpt lat="49.18242" lon="1.34212">
        <ele>25.8</ele>
        <time>2021-10-08T12:29:07Z</time>
      </trkpt>
      <trkpt lat="49.18239" lon="1.34219">
        <ele>25.8</ele>
        <time>2021-10-08T12:29:08Z</time>
      </trkpt>
      <trkpt lat="49.18206" lon="1.3429">
        <ele>26</ele>
        <time>2021-10-08T12:29:18Z</time>
      </trkpt>
      <trkpt lat="49.18199" lon="1.34304">
        <ele>26</ele>
        <time>2021-10-08T12:29:20Z</time>
      </trkpt>
      <trkpt lat="49.18173" lon="1.34359">
        <ele>26</ele>
        <time>2021-10-08T12:29:28Z</time>
      </trkpt>
      <trkpt lat="49.18143" lon="1.34424">
        <ele>26</ele>
        <time>2021-10-08T12:29:37Z</time>
      </trkpt>
      <trkpt lat="49.18121" lon="1.34472">
        <ele>26</ele>
        <time>2021-10-08T12:29:44Z</time>
      </trkpt>
      <trkpt lat="49.181" lon="1.34523">
        <ele>25.8</ele>
        <time>2021-10-08T12:29:51Z</time>
      </trkpt>
      <trkpt lat="49.18073" lon="1.3459">
        <ele>25.8</ele>
        <time>2021-10-08T12:30:00Z</time>
      </trkpt>
      <trkpt lat="49.18047" lon="1.34656">
        <ele>25.8</ele>
        <time>2021-10-08T12:30:09Z</time>
      </trkpt>
      <trkpt lat="49.18031" lon="1.34699">
        <ele>26</ele>
        <time>2021-10-08T12:30:15Z</time>
      </trkpt>
      <trkpt lat="49.1801" lon="1.34761">
        <ele>26.2</ele>
        <time>2021-10-08T12:30:23Z</time>
      </trkpt>
      <trkpt lat="49.17994" lon="1.34807">
        <ele>26.6</ele>
        <time>2021-10-08T12:30:30Z</time>
      </trkpt>
      <trkpt lat="49.1798" lon="1.34852">
        <ele>27</ele>
        <time>2021-10-08T12:30:37Z</time>
      </trkpt>
      <trkpt lat="49.17965" lon="1.34897">
        <ele>27</ele>
        <time>2021-10-08T12:30:43Z</time>
      </trkpt>
      <trkpt lat="49.17951" lon="1.34947">
        <ele>27</ele>
        <time>2021-10-08T12:30:49Z</time>
      </trkpt>
      <trkpt lat="49.17946" lon="1.34963">
        <ele>27</ele>
        <time>2021-10-08T12:30:51Z</time>
      </trkpt>
      <trkpt lat="49.17925" lon="1.35016">
        <ele>26.6</ele>
        <time>2021-10-08T12:30:58Z</time>
      </trkpt>
      <trkpt lat="49.17922" lon="1.35024">
        <ele>26.4</ele>
        <time>2021-10-08T12:30:59Z</time>
      </trkpt>
      <trkpt lat="49.17912" lon="1.35058">
        <ele>26.2</ele>
        <time>2021-10-08T12:31:03Z</time>
      </trkpt>
      <trkpt lat="49.17897" lon="1.35106">
        <ele>26.2</ele>
        <time>2021-10-08T12:31:09Z</time>
      </trkpt>
      <trkpt lat="49.17881" lon="1.35158">
        <ele>26.6</ele>
        <time>2021-10-08T12:31:16Z</time>
      </trkpt>
      <trkpt lat="49.17861" lon="1.35221">
        <ele>26.6</ele>
        <time>2021-10-08T12:31:24Z</time>
      </trkpt>
      <trkpt lat="49.17844" lon="1.35289">
        <ele>25.8</ele>
        <time>2021-10-08T12:31:33Z</time>
      </trkpt>
      <trkpt lat="49.17837" lon="1.35315">
        <ele>25.8</ele>
        <time>2021-10-08T12:31:37Z</time>
      </trkpt>
      <trkpt lat="49.17833" lon="1.35328">
        <ele>25.8</ele>
        <time>2021-10-08T12:31:39Z</time>
      </trkpt>
      <trkpt lat="49.17825" lon="1.35335">
        <ele>25.8</ele>
        <time>2021-10-08T12:31:41Z</time>
      </trkpt>
      <trkpt lat="49.17817" lon="1.35331">
        <ele>26.4</ele>
        <time>2021-10-08T12:31:44Z</time>
      </trkpt>
      <trkpt lat="49.17813" lon="1.35328">
        <ele>26.4</ele>
        <time>2021-10-08T12:31:46Z</time>
      </trkpt>
      <trkpt lat="49.17808" lon="1.35323">
        <ele>26.6</ele>
        <time>2021-10-08T12:31:49Z</time>
      </trkpt>
      <trkpt lat="49.17799" lon="1.35315">
        <ele>27.6</ele>
        <time>2021-10-08T12:31:53Z</time>
      </trkpt>
      <trkpt lat="49.17794" lon="1.35311">
        <ele>28</ele>
        <time>2021-10-08T12:31:55Z</time>
      </trkpt>
      <trkpt lat="49.17779" lon="1.35297">
        <ele>28.8</ele>
        <time>2021-10-08T12:32:01Z</time>
      </trkpt>
      <trkpt lat="49.17777" lon="1.35293">
        <ele>29</ele>
        <time>2021-10-08T12:32:02Z</time>
      </trkpt>
      <trkpt lat="49.17773" lon="1.35282">
        <ele>29.8</ele>
        <time>2021-10-08T12:32:07Z</time>
      </trkpt>
      <trkpt lat="49.17768" lon="1.35268">
        <ele>31.2</ele>
        <time>2021-10-08T12:32:13Z</time>
      </trkpt>
      <trkpt lat="49.17763" lon="1.35251">
        <ele>32.2</ele>
        <time>2021-10-08T12:32:17Z</time>
      </trkpt>
      <trkpt lat="49.17758" lon="1.35243">
        <ele>32.4</ele>
        <time>2021-10-08T12:32:19Z</time>
      </trkpt>
      <trkpt lat="49.17755" lon="1.3524">
        <ele>32.4</ele>
        <time>2021-10-08T12:32:20Z</time>
      </trkpt>
      <trkpt lat="49.17747" lon="1.35234">
        <ele>32.4</ele>
        <time>2021-10-08T12:32:22Z</time>
      </trkpt>
      <trkpt lat="49.17733" lon="1.35224">
        <ele>32.4</ele>
        <time>2021-10-08T12:32:25Z</time>
      </trkpt>
      <trkpt lat="49.17692" lon="1.35197">
        <ele>32</ele>
        <time>2021-10-08T12:32:33Z</time>
      </trkpt>
      <trkpt lat="49.17659" lon="1.35178">
        <ele>31.8</ele>
        <time>2021-10-08T12:32:40Z</time>
      </trkpt>
      <trkpt lat="49.17632" lon="1.35166">
        <ele>32</ele>
        <time>2021-10-08T12:32:46Z</time>
      </trkpt>
      <trkpt lat="49.17606" lon="1.35155">
        <ele>33.4</ele>
        <time>2021-10-08T12:32:52Z</time>
      </trkpt>
      <trkpt lat="49.17601" lon="1.35153">
        <ele>33.6</ele>
        <time>2021-10-08T12:32:53Z</time>
      </trkpt>
      <trkpt lat="49.17571" lon="1.35141">
        <ele>34.8</ele>
        <time>2021-10-08T12:33:00Z</time>
      </trkpt>
      <trkpt lat="49.17562" lon="1.35138">
        <ele>35.2</ele>
        <time>2021-10-08T12:33:02Z</time>
      </trkpt>
      <trkpt lat="49.17545" lon="1.35132">
        <ele>36</ele>
        <time>2021-10-08T12:33:06Z</time>
      </trkpt>
      <trkpt lat="49.17524" lon="1.35125">
        <ele>36.6</ele>
        <time>2021-10-08T12:33:11Z</time>
      </trkpt>
      <trkpt lat="49.17492" lon="1.35115">
        <ele>36.8</ele>
        <time>2021-10-08T12:33:18Z</time>
      </trkpt>
      <trkpt lat="49.17487" lon="1.35113">
        <ele>36.8</ele>
        <time>2021-10-08T12:33:19Z</time>
      </trkpt>
      <trkpt lat="49.17458" lon="1.35106">
        <ele>36.6</ele>
        <time>2021-10-08T12:33:25Z</time>
      </trkpt>
      <trkpt lat="49.17414" lon="1.35097">
        <ele>36.2</ele>
        <time>2021-10-08T12:33:34Z</time>
      </trkpt>
      <trkpt lat="49.1738" lon="1.35092">
        <ele>35.2</ele>
        <time>2021-10-08T12:33:40Z</time>
      </trkpt>
      <trkpt lat="49.17374" lon="1.35091">
        <ele>35.2</ele>
        <time>2021-10-08T12:33:41Z</time>
      </trkpt>
      <trkpt lat="49.1735" lon="1.35084">
        <ele>34.2</ele>
        <time>2021-10-08T12:33:45Z</time>
      </trkpt>
      <trkpt lat="49.17345" lon="1.35078">
        <ele>34</ele>
        <time>2021-10-08T12:33:46Z</time>
      </trkpt>
      <trkpt lat="49.17334" lon="1.35065">
        <ele>33.8</ele>
        <time>2021-10-08T12:33:48Z</time>
      </trkpt>
      <trkpt lat="49.17316" lon="1.35065">
        <ele>33.2</ele>
        <time>2021-10-08T12:33:51Z</time>
      </trkpt>
      <trkpt lat="49.17306" lon="1.35075">
        <ele>33</ele>
        <time>2021-10-08T12:33:53Z</time>
      </trkpt>
      <trkpt lat="49.17294" lon="1.35079">
        <ele>32.4</ele>
        <time>2021-10-08T12:33:55Z</time>
      </trkpt>
      <trkpt lat="49.17287" lon="1.3508">
        <ele>32.2</ele>
        <time>2021-10-08T12:33:56Z</time>
      </trkpt>
      <trkpt lat="49.17281" lon="1.35081">
        <ele>31.2</ele>
        <time>2021-10-08T12:33:57Z</time>
      </trkpt>
      <trkpt lat="49.17255" lon="1.35085">
        <ele>30.4</ele>
        <time>2021-10-08T12:34:01Z</time>
      </trkpt>
      <trkpt lat="49.17244" lon="1.35088">
        <ele>30.2</ele>
        <time>2021-10-08T12:34:03Z</time>
      </trkpt>
      <trkpt lat="49.17231" lon="1.35087">
        <ele>30.2</ele>
        <time>2021-10-08T12:34:05Z</time>
      </trkpt>
      <trkpt lat="49.17218" lon="1.35084">
        <ele>30</ele>
        <time>2021-10-08T12:34:07Z</time>
      </trkpt>
      <trkpt lat="49.1717" lon="1.35069">
        <ele>29.8</ele>
        <time>2021-10-08T12:34:14Z</time>
      </trkpt>
      <trkpt lat="49.17123" lon="1.35048">
        <ele>29.4</ele>
        <time>2021-10-08T12:34:21Z</time>
      </trkpt>
      <trkpt lat="49.17103" lon="1.35037">
        <ele>29</ele>
        <time>2021-10-08T12:34:24Z</time>
      </trkpt>
      <trkpt lat="49.17078" lon="1.35022">
        <ele>29</ele>
        <time>2021-10-08T12:34:28Z</time>
      </trkpt>
      <trkpt lat="49.17038" lon="1.34998">
        <ele>29</ele>
        <time>2021-10-08T12:34:35Z</time>
      </trkpt>
      <trkpt lat="49.17007" lon="1.34977">
        <ele>29.2</ele>
        <time>2021-10-08T12:34:41Z</time>
      </trkpt>
      <trkpt lat="49.17" lon="1.34959">
        <ele>29.4</ele>
        <time>2021-10-08T12:34:44Z</time>
      </trkpt>
      <trkpt lat="49.16996" lon="1.34937">
        <ele>29.6</ele>
        <time>2021-10-08T12:34:48Z</time>
      </trkpt>
      <trkpt lat="49.16982" lon="1.3493">
        <ele>29.6</ele>
        <time>2021-10-08T12:34:51Z</time>
      </trkpt>
      <trkpt lat="49.16965" lon="1.34937">
        <ele>29.4</ele>
        <time>2021-10-08T12:34:54Z</time>
      </trkpt>
      <trkpt lat="49.1696" lon="1.34938">
        <ele>29.4</ele>
        <time>2021-10-08T12:34:55Z</time>
      </trkpt>
      <trkpt lat="49.16943" lon="1.34932">
        <ele>28.8</ele>
        <time>2021-10-08T12:34:58Z</time>
      </trkpt>
      <trkpt lat="49.16897" lon="1.34902">
        <ele>28.6</ele>
        <time>2021-10-08T12:35:06Z</time>
      </trkpt>
      <trkpt lat="49.16845" lon="1.34865">
        <ele>29.2</ele>
        <time>2021-10-08T12:35:15Z</time>
      </trkpt>
      <trkpt lat="49.16821" lon="1.34849">
        <ele>29.2</ele>
        <time>2021-10-08T12:35:19Z</time>
      </trkpt>
      <trkpt lat="49.16771" lon="1.3481">
        <ele>29.8</ele>
        <time>2021-10-08T12:35:28Z</time>
      </trkpt>
      <trkpt lat="49.1676" lon="1.34801">
        <ele>30.2</ele>
        <time>2021-10-08T12:35:30Z</time>
      </trkpt>
      <trkpt lat="49.1673" lon="1.34776">
        <ele>30.6</ele>
        <time>2021-10-08T12:35:36Z</time>
      </trkpt>
      <trkpt lat="49.16708" lon="1.34753">
        <ele>30.4</ele>
        <time>2021-10-08T12:35:41Z</time>
      </trkpt>
      <trkpt lat="49.16704" lon="1.34749">
        <ele>30.4</ele>
        <time>2021-10-08T12:35:42Z</time>
      </trkpt>
      <trkpt lat="49.16694" lon="1.34748">
        <ele>30.4</ele>
        <time>2021-10-08T12:35:45Z</time>
      </trkpt>
      <trkpt lat="49.16678" lon="1.34739">
        <ele>30.4</ele>
        <time>2021-10-08T12:35:49Z</time>
      </trkpt>
      <trkpt lat="49.16665" lon="1.34742">
        <ele>30.4</ele>
        <time>2021-10-08T12:35:52Z</time>
      </trkpt>
      <trkpt lat="49.16661" lon="1.34746">
        <ele>30.4</ele>
        <time>2021-10-08T12:35:53Z</time>
      </trkpt>
      <trkpt lat="49.16656" lon="1.3475">
        <ele>30.4</ele>
        <time>2021-10-08T12:35:54Z</time>
      </trkpt>
      <trkpt lat="49.1665" lon="1.34759">
        <ele>30.4</ele>
        <time>2021-10-08T12:35:56Z</time>
      </trkpt>
      <trkpt lat="49.16654" lon="1.34774">
        <ele>30.4</ele>
        <time>2021-10-08T12:35:59Z</time>
      </trkpt>
      <trkpt lat="49.16655" lon="1.3478">
        <ele>30.4</ele>
        <time>2021-10-08T12:36:00Z</time>
      </trkpt>
      <trkpt lat="49.16663" lon="1.34803">
        <ele>30.4</ele>
        <time>2021-10-08T12:36:04Z</time>
      </trkpt>
      <trkpt lat="49.16662" lon="1.34808">
        <ele>30.2</ele>
        <time>2021-10-08T12:36:05Z</time>
      </trkpt>
      <trkpt lat="49.16658" lon="1.34816">
        <ele>30.2</ele>
        <time>2021-10-08T12:36:07Z</time>
      </trkpt>
      <trkpt lat="49.16645" lon="1.3482">
        <ele>30.2</ele>
        <time>2021-10-08T12:36:10Z</time>
      </trkpt>
      <trkpt lat="49.16641" lon="1.34821">
        <ele>30.2</ele>
        <time>2021-10-08T12:36:11Z</time>
      </trkpt>
      <trkpt lat="49.1661" lon="1.34825">
        <ele>29.6</ele>
        <time>2021-10-08T12:36:18Z</time>
      </trkpt>
      <trkpt lat="49.16571" lon="1.34828">
        <ele>29.4</ele>
        <time>2021-10-08T12:36:26Z</time>
      </trkpt>
      <trkpt lat="49.16554" lon="1.34829">
        <ele>29.2</ele>
        <time>2021-10-08T12:36:29Z</time>
      </trkpt>
      <trkpt lat="49.16527" lon="1.34831">
        <ele>29.4</ele>
        <time>2021-10-08T12:36:34Z</time>
      </trkpt>
      <trkpt lat="49.16488" lon="1.34834">
        <ele>29.2</ele>
        <time>2021-10-08T12:36:41Z</time>
      </trkpt>
      <trkpt lat="49.16482" lon="1.34835">
        <ele>29.2</ele>
        <time>2021-10-08T12:36:42Z</time>
      </trkpt>
      <trkpt lat="49.16444" lon="1.34838">
        <ele>29.2</ele>
        <time>2021-10-08T12:36:49Z</time>
      </trkpt>
      <trkpt lat="49.16402" lon="1.34839">
        <ele>29.2</ele>
        <time>2021-10-08T12:36:57Z</time>
      </trkpt>
      <trkpt lat="49.16386" lon="1.34849">
        <ele>29.4</ele>
        <time>2021-10-08T12:37:01Z</time>
      </trkpt>
      <trkpt lat="49.16368" lon="1.34855">
        <ele>29.6</ele>
        <time>2021-10-08T12:37:05Z</time>
      </trkpt>
      <trkpt lat="49.16363" lon="1.34855">
        <ele>29.6</ele>
        <time>2021-10-08T12:37:06Z</time>
      </trkpt>
      <trkpt lat="49.16347" lon="1.34855">
        <ele>30</ele>
        <time>2021-10-08T12:37:09Z</time>
      </trkpt>
      <trkpt lat="49.16337" lon="1.34851">
        <ele>30</ele>
        <time>2021-10-08T12:37:11Z</time>
      </trkpt>
      <trkpt lat="49.16327" lon="1.34846">
        <ele>30.2</ele>
        <time>2021-10-08T12:37:13Z</time>
      </trkpt>
      <trkpt lat="49.16321" lon="1.34846">
        <ele>30.2</ele>
        <time>2021-10-08T12:37:14Z</time>
      </trkpt>
      <trkpt lat="49.16311" lon="1.34848">
        <ele>30.2</ele>
        <time>2021-10-08T12:37:16Z</time>
      </trkpt>
      <trkpt lat="49.16302" lon="1.34855">
        <ele>30.2</ele>
        <time>2021-10-08T12:37:18Z</time>
      </trkpt>
      <trkpt lat="49.16297" lon="1.34858">
        <ele>30</ele>
        <time>2021-10-08T12:37:19Z</time>
      </trkpt>
      <trkpt lat="49.16286" lon="1.34862">
        <ele>30</ele>
        <time>2021-10-08T12:37:21Z</time>
      </trkpt>
      <trkpt lat="49.16234" lon="1.34866">
        <ele>29.6</ele>
        <time>2021-10-08T12:37:30Z</time>
      </trkpt>
      <trkpt lat="49.16187" lon="1.34869">
        <ele>29.8</ele>
        <time>2021-10-08T12:37:38Z</time>
      </trkpt>
      <trkpt lat="49.16131" lon="1.34872">
        <ele>29.8</ele>
        <time>2021-10-08T12:37:47Z</time>
      </trkpt>
      <trkpt lat="49.16084" lon="1.34874">
        <ele>29.6</ele>
        <time>2021-10-08T12:37:54Z</time>
      </trkpt>
      <trkpt lat="49.16032" lon="1.34877">
        <ele>29.4</ele>
        <time>2021-10-08T12:38:02Z</time>
      </trkpt>
      <trkpt lat="49.15974" lon="1.34881">
        <ele>29.6</ele>
        <time>2021-10-08T12:38:11Z</time>
      </trkpt>
      <trkpt lat="49.15967" lon="1.34882">
        <ele>29.6</ele>
        <time>2021-10-08T12:38:12Z</time>
      </trkpt>
      <trkpt lat="49.15908" lon="1.34887">
        <ele>30</ele>
        <time>2021-10-08T12:38:21Z</time>
      </trkpt>
      <trkpt lat="49.15847" lon="1.34891">
        <ele>30.4</ele>
        <time>2021-10-08T12:38:30Z</time>
      </trkpt>
      <trkpt lat="49.15796" lon="1.34899">
        <ele>30.4</ele>
        <time>2021-10-08T12:38:38Z</time>
      </trkpt>
      <trkpt lat="49.15777" lon="1.34904">
        <ele>29.8</ele>
        <time>2021-10-08T12:38:41Z</time>
      </trkpt>
      <trkpt lat="49.15765" lon="1.34898">
        <ele>29.6</ele>
        <time>2021-10-08T12:38:43Z</time>
      </trkpt>
      <trkpt lat="49.15758" lon="1.34883">
        <ele>29.6</ele>
        <time>2021-10-08T12:38:45Z</time>
      </trkpt>
      <trkpt lat="49.15754" lon="1.34875">
        <ele>29.6</ele>
        <time>2021-10-08T12:38:46Z</time>
      </trkpt>
      <trkpt lat="49.15749" lon="1.34869">
        <ele>29.6</ele>
        <time>2021-10-08T12:38:47Z</time>
      </trkpt>
      <trkpt lat="49.15732" lon="1.34858">
        <ele>29.8</ele>
        <time>2021-10-08T12:38:50Z</time>
      </trkpt>
      <trkpt lat="49.15725" lon="1.34857">
        <ele>30</ele>
        <time>2021-10-08T12:38:51Z</time>
      </trkpt>
      <trkpt lat="49.15719" lon="1.34854">
        <ele>30.2</ele>
        <time>2021-10-08T12:38:52Z</time>
      </trkpt>
      <trkpt lat="49.15714" lon="1.34848">
        <ele>30.6</ele>
        <time>2021-10-08T12:38:53Z</time>
      </trkpt>
      <trkpt lat="49.1571" lon="1.3484">
        <ele>31</ele>
        <time>2021-10-08T12:38:54Z</time>
      </trkpt>
      <trkpt lat="49.15697" lon="1.34819">
        <ele>31.4</ele>
        <time>2021-10-08T12:38:57Z</time>
      </trkpt>
      <trkpt lat="49.15679" lon="1.34813">
        <ele>31.6</ele>
        <time>2021-10-08T12:39:00Z</time>
      </trkpt>
      <trkpt lat="49.15661" lon="1.34824">
        <ele>31.6</ele>
        <time>2021-10-08T12:39:03Z</time>
      </trkpt>
      <trkpt lat="49.15657" lon="1.34831">
        <ele>31.6</ele>
        <time>2021-10-08T12:39:04Z</time>
      </trkpt>
      <trkpt lat="49.15627" lon="1.3487">
        <ele>31.4</ele>
        <time>2021-10-08T12:39:10Z</time>
      </trkpt>
      <trkpt lat="49.15602" lon="1.34882">
        <ele>31.4</ele>
        <time>2021-10-08T12:39:14Z</time>
      </trkpt>
      <trkpt lat="49.15589" lon="1.34883">
        <ele>31.6</ele>
        <time>2021-10-08T12:39:16Z</time>
      </trkpt>
      <trkpt lat="49.15562" lon="1.34883">
        <ele>32</ele>
        <time>2021-10-08T12:39:20Z</time>
      </trkpt>
      <trkpt lat="49.15549" lon="1.34883">
        <ele>32.2</ele>
        <time>2021-10-08T12:39:22Z</time>
      </trkpt>
      <trkpt lat="49.15518" lon="1.34878">
        <ele>32.4</ele>
        <time>2021-10-08T12:39:27Z</time>
      </trkpt>
      <trkpt lat="49.1548" lon="1.34863">
        <ele>32.8</ele>
        <time>2021-10-08T12:39:34Z</time>
      </trkpt>
      <trkpt lat="49.15464" lon="1.34854">
        <ele>33.2</ele>
        <time>2021-10-08T12:39:37Z</time>
      </trkpt>
      <trkpt lat="49.15455" lon="1.34847">
        <ele>33.8</ele>
        <time>2021-10-08T12:39:39Z</time>
      </trkpt>
      <trkpt lat="49.15446" lon="1.34838">
        <ele>34.2</ele>
        <time>2021-10-08T12:39:41Z</time>
      </trkpt>
      <trkpt lat="49.15442" lon="1.34832">
        <ele>34.6</ele>
        <time>2021-10-08T12:39:42Z</time>
      </trkpt>
      <trkpt lat="49.15431" lon="1.34819">
        <ele>35.2</ele>
        <time>2021-10-08T12:39:45Z</time>
      </trkpt>
      <trkpt lat="49.15426" lon="1.34817">
        <ele>35.2</ele>
        <time>2021-10-08T12:39:46Z</time>
      </trkpt>
      <trkpt lat="49.15418" lon="1.3482">
        <ele>35.4</ele>
        <time>2021-10-08T12:39:48Z</time>
      </trkpt>
      <trkpt lat="49.15407" lon="1.34841">
        <ele>35.6</ele>
        <time>2021-10-08T12:39:51Z</time>
      </trkpt>
      <trkpt lat="49.15405" lon="1.3485">
        <ele>35.6</ele>
        <time>2021-10-08T12:39:52Z</time>
      </trkpt>
      <trkpt lat="49.1539" lon="1.34897">
        <ele>35.6</ele>
        <time>2021-10-08T12:39:57Z</time>
      </trkpt>
      <trkpt lat="49.15387" lon="1.34906">
        <ele>35.4</ele>
        <time>2021-10-08T12:39:58Z</time>
      </trkpt>
      <trkpt lat="49.1538" lon="1.34931">
        <ele>34</ele>
        <time>2021-10-08T12:40:01Z</time>
      </trkpt>
      <trkpt lat="49.15379" lon="1.34939">
        <ele>33.8</ele>
        <time>2021-10-08T12:40:02Z</time>
      </trkpt>
      <trkpt lat="49.15378" lon="1.34947">
        <ele>33.8</ele>
        <time>2021-10-08T12:40:03Z</time>
      </trkpt>
      <trkpt lat="49.15376" lon="1.34961">
        <ele>33.8</ele>
        <time>2021-10-08T12:40:05Z</time>
      </trkpt>
      <trkpt lat="49.15363" lon="1.34971">
        <ele>33.8</ele>
        <time>2021-10-08T12:40:08Z</time>
      </trkpt>
      <trkpt lat="49.15353" lon="1.34974">
        <ele>34</ele>
        <time>2021-10-08T12:40:10Z</time>
      </trkpt>
      <trkpt lat="49.15326" lon="1.3498">
        <ele>34.8</ele>
        <time>2021-10-08T12:40:15Z</time>
      </trkpt>
    </trkseg>
  </trk>
</gpx>